<?xml version="1.0" encoding="UTF-8"?>
<gpx version="1.1" creator="https://www.youtrack.es" xsi:schemaLocation="http://www.topografix.com/GPX/1/1 http://www.topografix.com/GPX/1/1/gpx.xsd http://www.garmin.com/xmlschemas/GpxExtensions/v3 http://www.garmin.com/xmlschemas/GpxExtensionsv3.xsd http://www.garmin.com/xmlschemas/TrackPointExtension/v1 http://www.garmin.com/xmlschemas/TrackPointExtensionv1.xsd" xmlns:gpxtpx="http://www.garmin.com/xmlschemas/TrackPointExtension/v1" xmlns:gpxx="http://www.garmin.com/xmlschemas/GpxExtensions/v3" xmlns:xsi="http://www.w3.org/2001/XMLSchema-instance">
  <metadata>
    <link href="https://www.youtrack.es">
      <text>YouTrack.es</text>
    </link>
    <time>2026-05-08T18:49:31Z</time>
  </metadata>
  <trk>
    <src>https://www.youtrack.es</src>
    <link href="https://www.youtrack.es/ruta/22473-algete-tamajon">
      <text>YouTrack.es</text>
    </link>
    <trkseg>
      <trkpt lat="40.598262" lon="-3.511769">
        <ele>673.5</ele>
        <time>2019-02-23T07:10:33.802Z</time>
      </trkpt>
      <trkpt lat="40.598262" lon="-3.511769">
        <ele>673.5</ele>
        <time>2019-02-23T07:10:34.802Z</time>
      </trkpt>
      <trkpt lat="40.598269" lon="-3.511731">
        <ele>673.4</ele>
        <time>2019-02-23T07:11:12.802Z</time>
      </trkpt>
      <trkpt lat="40.598264" lon="-3.511682">
        <ele>673.4</ele>
        <time>2019-02-23T07:11:15.802Z</time>
      </trkpt>
      <trkpt lat="40.598254" lon="-3.511658">
        <ele>673.5</ele>
        <time>2019-02-23T07:11:18.802Z</time>
      </trkpt>
      <trkpt lat="40.598270" lon="-3.511706">
        <ele>673.5</ele>
        <time>2019-02-23T07:14:05.802Z</time>
      </trkpt>
      <trkpt lat="40.598273" lon="-3.511684">
        <ele>673.4</ele>
        <time>2019-02-23T07:14:06.802Z</time>
      </trkpt>
      <trkpt lat="40.598264" lon="-3.511452">
        <ele>673.5</ele>
        <time>2019-02-23T07:14:12.802Z</time>
      </trkpt>
      <trkpt lat="40.598263" lon="-3.511166">
        <ele>673.4</ele>
        <time>2019-02-23T07:14:18.802Z</time>
      </trkpt>
      <trkpt lat="40.598248" lon="-3.510838">
        <ele>673.5</ele>
        <time>2019-02-23T07:14:25.802Z</time>
      </trkpt>
      <trkpt lat="40.598242" lon="-3.510715">
        <ele>673.9</ele>
        <time>2019-02-23T07:14:28.802Z</time>
      </trkpt>
      <trkpt lat="40.598240" lon="-3.510670">
        <ele>674.2</ele>
        <time>2019-02-23T07:14:29.802Z</time>
      </trkpt>
      <trkpt lat="40.598239" lon="-3.510626">
        <ele>674.6</ele>
        <time>2019-02-23T07:14:30.802Z</time>
      </trkpt>
      <trkpt lat="40.598239" lon="-3.510581">
        <ele>675.0</ele>
        <time>2019-02-23T07:14:31.802Z</time>
      </trkpt>
      <trkpt lat="40.598237" lon="-3.510538">
        <ele>675.4</ele>
        <time>2019-02-23T07:14:32.802Z</time>
      </trkpt>
      <trkpt lat="40.598234" lon="-3.510441">
        <ele>675.4</ele>
        <time>2019-02-23T07:14:34.802Z</time>
      </trkpt>
      <trkpt lat="40.598225" lon="-3.510345">
        <ele>675.9</ele>
        <time>2019-02-23T07:14:36.802Z</time>
      </trkpt>
      <trkpt lat="40.598222" lon="-3.510299">
        <ele>676.1</ele>
        <time>2019-02-23T07:14:37.802Z</time>
      </trkpt>
      <trkpt lat="40.598222" lon="-3.510254">
        <ele>676.6</ele>
        <time>2019-02-23T07:14:38.802Z</time>
      </trkpt>
      <trkpt lat="40.598223" lon="-3.510215">
        <ele>677.1</ele>
        <time>2019-02-23T07:14:39.802Z</time>
      </trkpt>
      <trkpt lat="40.598221" lon="-3.510171">
        <ele>677.4</ele>
        <time>2019-02-23T07:14:40.802Z</time>
      </trkpt>
      <trkpt lat="40.598212" lon="-3.510041">
        <ele>677.4</ele>
        <time>2019-02-23T07:14:43.802Z</time>
      </trkpt>
      <trkpt lat="40.598204" lon="-3.509858">
        <ele>677.9</ele>
        <time>2019-02-23T07:14:47.802Z</time>
      </trkpt>
      <trkpt lat="40.598202" lon="-3.509813">
        <ele>678.4</ele>
        <time>2019-02-23T07:14:48.802Z</time>
      </trkpt>
      <trkpt lat="40.598201" lon="-3.509770">
        <ele>678.8</ele>
        <time>2019-02-23T07:14:49.802Z</time>
      </trkpt>
      <trkpt lat="40.598200" lon="-3.509730">
        <ele>679.2</ele>
        <time>2019-02-23T07:14:50.802Z</time>
      </trkpt>
      <trkpt lat="40.598200" lon="-3.509687">
        <ele>679.5</ele>
        <time>2019-02-23T07:14:51.802Z</time>
      </trkpt>
      <trkpt lat="40.598195" lon="-3.509546">
        <ele>679.5</ele>
        <time>2019-02-23T07:14:54.802Z</time>
      </trkpt>
      <trkpt lat="40.598143" lon="-3.509189">
        <ele>679.6</ele>
        <time>2019-02-23T07:15:02.802Z</time>
      </trkpt>
      <trkpt lat="40.598085" lon="-3.509112">
        <ele>680.0</ele>
        <time>2019-02-23T07:15:04.802Z</time>
      </trkpt>
      <trkpt lat="40.598051" lon="-3.509085">
        <ele>680.4</ele>
        <time>2019-02-23T07:15:05.802Z</time>
      </trkpt>
      <trkpt lat="40.598012" lon="-3.509069">
        <ele>680.8</ele>
        <time>2019-02-23T07:15:06.802Z</time>
      </trkpt>
      <trkpt lat="40.597967" lon="-3.509060">
        <ele>681.1</ele>
        <time>2019-02-23T07:15:07.802Z</time>
      </trkpt>
      <trkpt lat="40.597920" lon="-3.509051">
        <ele>681.5</ele>
        <time>2019-02-23T07:15:08.802Z</time>
      </trkpt>
      <trkpt lat="40.597768" lon="-3.509033">
        <ele>681.6</ele>
        <time>2019-02-23T07:15:11.802Z</time>
      </trkpt>
      <trkpt lat="40.597414" lon="-3.508962">
        <ele>681.5</ele>
        <time>2019-02-23T07:15:17.802Z</time>
      </trkpt>
      <trkpt lat="40.597347" lon="-3.508948">
        <ele>681.2</ele>
        <time>2019-02-23T07:15:18.802Z</time>
      </trkpt>
      <trkpt lat="40.597275" lon="-3.508930">
        <ele>680.8</ele>
        <time>2019-02-23T07:15:19.802Z</time>
      </trkpt>
      <trkpt lat="40.597203" lon="-3.508912">
        <ele>680.4</ele>
        <time>2019-02-23T07:15:20.802Z</time>
      </trkpt>
      <trkpt lat="40.597126" lon="-3.508896">
        <ele>679.8</ele>
        <time>2019-02-23T07:15:21.802Z</time>
      </trkpt>
      <trkpt lat="40.597043" lon="-3.508883">
        <ele>679.4</ele>
        <time>2019-02-23T07:15:22.802Z</time>
      </trkpt>
      <trkpt lat="40.596957" lon="-3.508871">
        <ele>679.0</ele>
        <time>2019-02-23T07:15:23.802Z</time>
      </trkpt>
      <trkpt lat="40.596871" lon="-3.508863">
        <ele>678.6</ele>
        <time>2019-02-23T07:15:24.802Z</time>
      </trkpt>
      <trkpt lat="40.596790" lon="-3.508858">
        <ele>678.1</ele>
        <time>2019-02-23T07:15:25.802Z</time>
      </trkpt>
      <trkpt lat="40.596709" lon="-3.508859">
        <ele>677.6</ele>
        <time>2019-02-23T07:15:26.802Z</time>
      </trkpt>
      <trkpt lat="40.596629" lon="-3.508878">
        <ele>677.2</ele>
        <time>2019-02-23T07:15:27.802Z</time>
      </trkpt>
      <trkpt lat="40.596557" lon="-3.508914">
        <ele>676.9</ele>
        <time>2019-02-23T07:15:28.802Z</time>
      </trkpt>
      <trkpt lat="40.596492" lon="-3.508965">
        <ele>676.2</ele>
        <time>2019-02-23T07:15:29.802Z</time>
      </trkpt>
      <trkpt lat="40.596428" lon="-3.509014">
        <ele>675.9</ele>
        <time>2019-02-23T07:15:30.802Z</time>
      </trkpt>
      <trkpt lat="40.596363" lon="-3.509052">
        <ele>675.2</ele>
        <time>2019-02-23T07:15:31.802Z</time>
      </trkpt>
      <trkpt lat="40.596299" lon="-3.509073">
        <ele>675.1</ele>
        <time>2019-02-23T07:15:32.802Z</time>
      </trkpt>
      <trkpt lat="40.596231" lon="-3.509058">
        <ele>675.1</ele>
        <time>2019-02-23T07:15:33.802Z</time>
      </trkpt>
      <trkpt lat="40.596168" lon="-3.509029">
        <ele>675.1</ele>
        <time>2019-02-23T07:15:34.802Z</time>
      </trkpt>
      <trkpt lat="40.596035" lon="-3.508839">
        <ele>675.2</ele>
        <time>2019-02-23T07:15:37.802Z</time>
      </trkpt>
      <trkpt lat="40.596038" lon="-3.508583">
        <ele>675.1</ele>
        <time>2019-02-23T07:15:40.802Z</time>
      </trkpt>
      <trkpt lat="40.596174" lon="-3.508385">
        <ele>675.2</ele>
        <time>2019-02-23T07:15:43.802Z</time>
      </trkpt>
      <trkpt lat="40.596228" lon="-3.508329">
        <ele>675.2</ele>
        <time>2019-02-23T07:15:44.802Z</time>
      </trkpt>
      <trkpt lat="40.596412" lon="-3.507866">
        <ele>675.1</ele>
        <time>2019-02-23T07:15:50.802Z</time>
      </trkpt>
      <trkpt lat="40.596446" lon="-3.507411">
        <ele>675.2</ele>
        <time>2019-02-23T07:15:56.802Z</time>
      </trkpt>
      <trkpt lat="40.596461" lon="-3.507008">
        <ele>675.5</ele>
        <time>2019-02-23T07:16:02.802Z</time>
      </trkpt>
      <trkpt lat="40.596466" lon="-3.506943">
        <ele>676.1</ele>
        <time>2019-02-23T07:16:03.802Z</time>
      </trkpt>
      <trkpt lat="40.596468" lon="-3.506881">
        <ele>676.5</ele>
        <time>2019-02-23T07:16:04.802Z</time>
      </trkpt>
      <trkpt lat="40.596469" lon="-3.506816">
        <ele>677.0</ele>
        <time>2019-02-23T07:16:05.802Z</time>
      </trkpt>
      <trkpt lat="40.596470" lon="-3.506753">
        <ele>677.4</ele>
        <time>2019-02-23T07:16:06.802Z</time>
      </trkpt>
      <trkpt lat="40.596463" lon="-3.506329">
        <ele>677.4</ele>
        <time>2019-02-23T07:16:13.802Z</time>
      </trkpt>
      <trkpt lat="40.596452" lon="-3.506270">
        <ele>677.5</ele>
        <time>2019-02-23T07:16:14.802Z</time>
      </trkpt>
      <trkpt lat="40.596382" lon="-3.506128">
        <ele>677.9</ele>
        <time>2019-02-23T07:16:17.802Z</time>
      </trkpt>
      <trkpt lat="40.596357" lon="-3.506080">
        <ele>678.5</ele>
        <time>2019-02-23T07:16:18.802Z</time>
      </trkpt>
      <trkpt lat="40.596340" lon="-3.506029">
        <ele>678.8</ele>
        <time>2019-02-23T07:16:19.802Z</time>
      </trkpt>
      <trkpt lat="40.596331" lon="-3.505973">
        <ele>679.1</ele>
        <time>2019-02-23T07:16:20.802Z</time>
      </trkpt>
      <trkpt lat="40.596331" lon="-3.505909">
        <ele>679.5</ele>
        <time>2019-02-23T07:16:21.802Z</time>
      </trkpt>
      <trkpt lat="40.596356" lon="-3.505769">
        <ele>679.5</ele>
        <time>2019-02-23T07:16:23.802Z</time>
      </trkpt>
      <trkpt lat="40.596451" lon="-3.505470">
        <ele>679.6</ele>
        <time>2019-02-23T07:16:28.802Z</time>
      </trkpt>
      <trkpt lat="40.596479" lon="-3.505241">
        <ele>680.0</ele>
        <time>2019-02-23T07:16:32.802Z</time>
      </trkpt>
      <trkpt lat="40.596482" lon="-3.505181">
        <ele>680.4</ele>
        <time>2019-02-23T07:16:33.802Z</time>
      </trkpt>
      <trkpt lat="40.596482" lon="-3.505124">
        <ele>680.8</ele>
        <time>2019-02-23T07:16:34.802Z</time>
      </trkpt>
      <trkpt lat="40.596483" lon="-3.505065">
        <ele>681.5</ele>
        <time>2019-02-23T07:16:35.802Z</time>
      </trkpt>
      <trkpt lat="40.596484" lon="-3.505007">
        <ele>681.9</ele>
        <time>2019-02-23T07:16:36.802Z</time>
      </trkpt>
      <trkpt lat="40.596486" lon="-3.504786">
        <ele>681.8</ele>
        <time>2019-02-23T07:16:40.802Z</time>
      </trkpt>
      <trkpt lat="40.596495" lon="-3.504625">
        <ele>682.1</ele>
        <time>2019-02-23T07:16:43.802Z</time>
      </trkpt>
      <trkpt lat="40.596497" lon="-3.504568">
        <ele>682.6</ele>
        <time>2019-02-23T07:16:44.802Z</time>
      </trkpt>
      <trkpt lat="40.596501" lon="-3.504516">
        <ele>683.1</ele>
        <time>2019-02-23T07:16:45.802Z</time>
      </trkpt>
      <trkpt lat="40.596502" lon="-3.504455">
        <ele>683.5</ele>
        <time>2019-02-23T07:16:46.802Z</time>
      </trkpt>
      <trkpt lat="40.596504" lon="-3.504395">
        <ele>683.8</ele>
        <time>2019-02-23T07:16:47.802Z</time>
      </trkpt>
      <trkpt lat="40.596506" lon="-3.504097">
        <ele>684.2</ele>
        <time>2019-02-23T07:16:52.802Z</time>
      </trkpt>
      <trkpt lat="40.596505" lon="-3.504031">
        <ele>684.5</ele>
        <time>2019-02-23T07:16:53.802Z</time>
      </trkpt>
      <trkpt lat="40.596507" lon="-3.503973">
        <ele>685.0</ele>
        <time>2019-02-23T07:16:54.802Z</time>
      </trkpt>
      <trkpt lat="40.596512" lon="-3.503920">
        <ele>685.4</ele>
        <time>2019-02-23T07:16:55.802Z</time>
      </trkpt>
      <trkpt lat="40.596519" lon="-3.503877">
        <ele>685.8</ele>
        <time>2019-02-23T07:16:56.802Z</time>
      </trkpt>
      <trkpt lat="40.596524" lon="-3.503833">
        <ele>686.2</ele>
        <time>2019-02-23T07:16:57.802Z</time>
      </trkpt>
      <trkpt lat="40.596526" lon="-3.503787">
        <ele>686.6</ele>
        <time>2019-02-23T07:16:58.802Z</time>
      </trkpt>
      <trkpt lat="40.596526" lon="-3.503740">
        <ele>687.0</ele>
        <time>2019-02-23T07:16:59.802Z</time>
      </trkpt>
      <trkpt lat="40.596527" lon="-3.503690">
        <ele>687.4</ele>
        <time>2019-02-23T07:17:00.802Z</time>
      </trkpt>
      <trkpt lat="40.596530" lon="-3.503632">
        <ele>688.0</ele>
        <time>2019-02-23T07:17:01.802Z</time>
      </trkpt>
      <trkpt lat="40.596540" lon="-3.503309">
        <ele>688.5</ele>
        <time>2019-02-23T07:17:07.802Z</time>
      </trkpt>
      <trkpt lat="40.596541" lon="-3.503257">
        <ele>688.8</ele>
        <time>2019-02-23T07:17:08.802Z</time>
      </trkpt>
      <trkpt lat="40.596540" lon="-3.503200">
        <ele>689.2</ele>
        <time>2019-02-23T07:17:09.802Z</time>
      </trkpt>
      <trkpt lat="40.596542" lon="-3.503146">
        <ele>689.5</ele>
        <time>2019-02-23T07:17:10.802Z</time>
      </trkpt>
      <trkpt lat="40.596543" lon="-3.503092">
        <ele>690.0</ele>
        <time>2019-02-23T07:17:11.802Z</time>
      </trkpt>
      <trkpt lat="40.596555" lon="-3.502881">
        <ele>690.4</ele>
        <time>2019-02-23T07:17:15.802Z</time>
      </trkpt>
      <trkpt lat="40.596560" lon="-3.502832">
        <ele>691.0</ele>
        <time>2019-02-23T07:17:16.802Z</time>
      </trkpt>
      <trkpt lat="40.596561" lon="-3.502780">
        <ele>691.5</ele>
        <time>2019-02-23T07:17:17.802Z</time>
      </trkpt>
      <trkpt lat="40.596560" lon="-3.502745">
        <ele>691.8</ele>
        <time>2019-02-23T07:17:18.802Z</time>
      </trkpt>
      <trkpt lat="40.596560" lon="-3.502701">
        <ele>692.2</ele>
        <time>2019-02-23T07:17:19.802Z</time>
      </trkpt>
      <trkpt lat="40.596561" lon="-3.502608">
        <ele>692.1</ele>
        <time>2019-02-23T07:17:21.802Z</time>
      </trkpt>
      <trkpt lat="40.596539" lon="-3.502346">
        <ele>692.6</ele>
        <time>2019-02-23T07:17:26.802Z</time>
      </trkpt>
      <trkpt lat="40.596535" lon="-3.502293">
        <ele>693.0</ele>
        <time>2019-02-23T07:17:27.802Z</time>
      </trkpt>
      <trkpt lat="40.596531" lon="-3.502244">
        <ele>693.6</ele>
        <time>2019-02-23T07:17:28.802Z</time>
      </trkpt>
      <trkpt lat="40.596527" lon="-3.502194">
        <ele>694.1</ele>
        <time>2019-02-23T07:17:29.802Z</time>
      </trkpt>
      <trkpt lat="40.596522" lon="-3.502145">
        <ele>694.4</ele>
        <time>2019-02-23T07:17:30.802Z</time>
      </trkpt>
      <trkpt lat="40.596494" lon="-3.501811">
        <ele>694.8</ele>
        <time>2019-02-23T07:17:36.802Z</time>
      </trkpt>
      <trkpt lat="40.596487" lon="-3.501767">
        <ele>695.4</ele>
        <time>2019-02-23T07:17:37.802Z</time>
      </trkpt>
      <trkpt lat="40.596474" lon="-3.501725">
        <ele>695.8</ele>
        <time>2019-02-23T07:17:38.802Z</time>
      </trkpt>
      <trkpt lat="40.596458" lon="-3.501679">
        <ele>696.2</ele>
        <time>2019-02-23T07:17:39.802Z</time>
      </trkpt>
      <trkpt lat="40.596441" lon="-3.501644">
        <ele>696.9</ele>
        <time>2019-02-23T07:17:40.802Z</time>
      </trkpt>
      <trkpt lat="40.596396" lon="-3.501546">
        <ele>696.8</ele>
        <time>2019-02-23T07:17:43.802Z</time>
      </trkpt>
      <trkpt lat="40.596340" lon="-3.501304">
        <ele>696.8</ele>
        <time>2019-02-23T07:17:47.802Z</time>
      </trkpt>
      <trkpt lat="40.596269" lon="-3.501100">
        <ele>696.9</ele>
        <time>2019-02-23T07:17:50.802Z</time>
      </trkpt>
      <trkpt lat="40.596240" lon="-3.501053">
        <ele>696.9</ele>
        <time>2019-02-23T07:17:51.802Z</time>
      </trkpt>
      <trkpt lat="40.596123" lon="-3.501033">
        <ele>696.9</ele>
        <time>2019-02-23T07:17:54.802Z</time>
      </trkpt>
      <trkpt lat="40.596082" lon="-3.501048">
        <ele>696.9</ele>
        <time>2019-02-23T07:17:55.802Z</time>
      </trkpt>
      <trkpt lat="40.595985" lon="-3.501079">
        <ele>696.8</ele>
        <time>2019-02-23T07:17:57.802Z</time>
      </trkpt>
      <trkpt lat="40.595888" lon="-3.501069">
        <ele>696.8</ele>
        <time>2019-02-23T07:17:59.802Z</time>
      </trkpt>
      <trkpt lat="40.595797" lon="-3.501017">
        <ele>696.8</ele>
        <time>2019-02-23T07:18:01.802Z</time>
      </trkpt>
      <trkpt lat="40.595669" lon="-3.500925">
        <ele>696.8</ele>
        <time>2019-02-23T07:18:04.802Z</time>
      </trkpt>
      <trkpt lat="40.595510" lon="-3.500774">
        <ele>697.2</ele>
        <time>2019-02-23T07:18:09.802Z</time>
      </trkpt>
      <trkpt lat="40.595489" lon="-3.500744">
        <ele>697.6</ele>
        <time>2019-02-23T07:18:10.802Z</time>
      </trkpt>
      <trkpt lat="40.595468" lon="-3.500714">
        <ele>698.2</ele>
        <time>2019-02-23T07:18:11.802Z</time>
      </trkpt>
      <trkpt lat="40.595446" lon="-3.500676">
        <ele>698.5</ele>
        <time>2019-02-23T07:18:12.802Z</time>
      </trkpt>
      <trkpt lat="40.595427" lon="-3.500637">
        <ele>699.1</ele>
        <time>2019-02-23T07:18:13.802Z</time>
      </trkpt>
      <trkpt lat="40.595411" lon="-3.500593">
        <ele>699.6</ele>
        <time>2019-02-23T07:18:14.802Z</time>
      </trkpt>
      <trkpt lat="40.595396" lon="-3.500547">
        <ele>700.0</ele>
        <time>2019-02-23T07:18:15.802Z</time>
      </trkpt>
      <trkpt lat="40.595383" lon="-3.500505">
        <ele>700.4</ele>
        <time>2019-02-23T07:18:16.802Z</time>
      </trkpt>
      <trkpt lat="40.595370" lon="-3.500460">
        <ele>700.9</ele>
        <time>2019-02-23T07:18:17.802Z</time>
      </trkpt>
      <trkpt lat="40.595358" lon="-3.500415">
        <ele>701.1</ele>
        <time>2019-02-23T07:18:18.802Z</time>
      </trkpt>
      <trkpt lat="40.595339" lon="-3.500252">
        <ele>701.1</ele>
        <time>2019-02-23T07:18:21.802Z</time>
      </trkpt>
      <trkpt lat="40.595294" lon="-3.500088">
        <ele>701.2</ele>
        <time>2019-02-23T07:18:24.802Z</time>
      </trkpt>
      <trkpt lat="40.595257" lon="-3.499962">
        <ele>701.1</ele>
        <time>2019-02-23T07:18:26.802Z</time>
      </trkpt>
      <trkpt lat="40.595166" lon="-3.499671">
        <ele>701.2</ele>
        <time>2019-02-23T07:18:30.802Z</time>
      </trkpt>
      <trkpt lat="40.595156" lon="-3.499593">
        <ele>701.2</ele>
        <time>2019-02-23T07:18:31.802Z</time>
      </trkpt>
      <trkpt lat="40.595139" lon="-3.499280">
        <ele>700.8</ele>
        <time>2019-02-23T07:18:35.802Z</time>
      </trkpt>
      <trkpt lat="40.595135" lon="-3.499196">
        <ele>700.5</ele>
        <time>2019-02-23T07:18:36.802Z</time>
      </trkpt>
      <trkpt lat="40.595132" lon="-3.499099">
        <ele>699.9</ele>
        <time>2019-02-23T07:18:37.802Z</time>
      </trkpt>
      <trkpt lat="40.595134" lon="-3.499004">
        <ele>699.5</ele>
        <time>2019-02-23T07:18:38.802Z</time>
      </trkpt>
      <trkpt lat="40.595148" lon="-3.498917">
        <ele>699.0</ele>
        <time>2019-02-23T07:18:39.802Z</time>
      </trkpt>
      <trkpt lat="40.595191" lon="-3.498747">
        <ele>699.1</ele>
        <time>2019-02-23T07:18:41.802Z</time>
      </trkpt>
      <trkpt lat="40.595264" lon="-3.498534">
        <ele>699.0</ele>
        <time>2019-02-23T07:18:44.802Z</time>
      </trkpt>
      <trkpt lat="40.595315" lon="-3.498413">
        <ele>699.0</ele>
        <time>2019-02-23T07:18:46.802Z</time>
      </trkpt>
      <trkpt lat="40.595336" lon="-3.498349">
        <ele>699.1</ele>
        <time>2019-02-23T07:18:47.802Z</time>
      </trkpt>
      <trkpt lat="40.595385" lon="-3.498171">
        <ele>699.0</ele>
        <time>2019-02-23T07:18:50.802Z</time>
      </trkpt>
      <trkpt lat="40.595430" lon="-3.497850">
        <ele>699.1</ele>
        <time>2019-02-23T07:18:55.802Z</time>
      </trkpt>
      <trkpt lat="40.595435" lon="-3.497789">
        <ele>699.1</ele>
        <time>2019-02-23T07:18:56.802Z</time>
      </trkpt>
      <trkpt lat="40.595497" lon="-3.497456">
        <ele>699.1</ele>
        <time>2019-02-23T07:19:02.802Z</time>
      </trkpt>
      <trkpt lat="40.595545" lon="-3.497138">
        <ele>699.4</ele>
        <time>2019-02-23T07:19:07.802Z</time>
      </trkpt>
      <trkpt lat="40.595550" lon="-3.497069">
        <ele>699.9</ele>
        <time>2019-02-23T07:19:08.802Z</time>
      </trkpt>
      <trkpt lat="40.595554" lon="-3.497002">
        <ele>700.2</ele>
        <time>2019-02-23T07:19:09.802Z</time>
      </trkpt>
      <trkpt lat="40.595555" lon="-3.496933">
        <ele>700.5</ele>
        <time>2019-02-23T07:19:10.802Z</time>
      </trkpt>
      <trkpt lat="40.595555" lon="-3.496864">
        <ele>701.1</ele>
        <time>2019-02-23T07:19:11.802Z</time>
      </trkpt>
      <trkpt lat="40.595551" lon="-3.496800">
        <ele>701.0</ele>
        <time>2019-02-23T07:19:12.802Z</time>
      </trkpt>
      <trkpt lat="40.595568" lon="-3.496386">
        <ele>701.0</ele>
        <time>2019-02-23T07:19:18.802Z</time>
      </trkpt>
      <trkpt lat="40.595599" lon="-3.496262">
        <ele>701.0</ele>
        <time>2019-02-23T07:19:20.802Z</time>
      </trkpt>
      <trkpt lat="40.595687" lon="-3.496046">
        <ele>701.0</ele>
        <time>2019-02-23T07:19:24.802Z</time>
      </trkpt>
      <trkpt lat="40.595703" lon="-3.495996">
        <ele>701.0</ele>
        <time>2019-02-23T07:19:25.802Z</time>
      </trkpt>
      <trkpt lat="40.595715" lon="-3.495957">
        <ele>701.4</ele>
        <time>2019-02-23T07:19:26.802Z</time>
      </trkpt>
      <trkpt lat="40.595730" lon="-3.495920">
        <ele>702.1</ele>
        <time>2019-02-23T07:19:27.802Z</time>
      </trkpt>
      <trkpt lat="40.595750" lon="-3.495886">
        <ele>702.4</ele>
        <time>2019-02-23T07:19:28.802Z</time>
      </trkpt>
      <trkpt lat="40.595771" lon="-3.495854">
        <ele>702.9</ele>
        <time>2019-02-23T07:19:29.802Z</time>
      </trkpt>
      <trkpt lat="40.595791" lon="-3.495818">
        <ele>703.2</ele>
        <time>2019-02-23T07:19:30.802Z</time>
      </trkpt>
      <trkpt lat="40.595813" lon="-3.495785">
        <ele>703.6</ele>
        <time>2019-02-23T07:19:31.802Z</time>
      </trkpt>
      <trkpt lat="40.595832" lon="-3.495761">
        <ele>704.1</ele>
        <time>2019-02-23T07:19:32.802Z</time>
      </trkpt>
      <trkpt lat="40.595848" lon="-3.495734">
        <ele>704.5</ele>
        <time>2019-02-23T07:19:33.802Z</time>
      </trkpt>
      <trkpt lat="40.595865" lon="-3.495715">
        <ele>705.0</ele>
        <time>2019-02-23T07:19:34.802Z</time>
      </trkpt>
      <trkpt lat="40.595885" lon="-3.495690">
        <ele>705.6</ele>
        <time>2019-02-23T07:19:35.802Z</time>
      </trkpt>
      <trkpt lat="40.595902" lon="-3.495651">
        <ele>706.0</ele>
        <time>2019-02-23T07:19:36.802Z</time>
      </trkpt>
      <trkpt lat="40.595913" lon="-3.495616">
        <ele>706.6</ele>
        <time>2019-02-23T07:19:37.802Z</time>
      </trkpt>
      <trkpt lat="40.595928" lon="-3.495584">
        <ele>707.1</ele>
        <time>2019-02-23T07:19:38.802Z</time>
      </trkpt>
      <trkpt lat="40.595942" lon="-3.495547">
        <ele>707.6</ele>
        <time>2019-02-23T07:19:39.802Z</time>
      </trkpt>
      <trkpt lat="40.595951" lon="-3.495513">
        <ele>708.1</ele>
        <time>2019-02-23T07:19:40.802Z</time>
      </trkpt>
      <trkpt lat="40.595956" lon="-3.495470">
        <ele>708.5</ele>
        <time>2019-02-23T07:19:41.802Z</time>
      </trkpt>
      <trkpt lat="40.595969" lon="-3.495440">
        <ele>708.9</ele>
        <time>2019-02-23T07:19:42.802Z</time>
      </trkpt>
      <trkpt lat="40.595985" lon="-3.495405">
        <ele>709.1</ele>
        <time>2019-02-23T07:19:43.802Z</time>
      </trkpt>
      <trkpt lat="40.596001" lon="-3.495377">
        <ele>709.6</ele>
        <time>2019-02-23T07:19:44.802Z</time>
      </trkpt>
      <trkpt lat="40.596007" lon="-3.495328">
        <ele>710.0</ele>
        <time>2019-02-23T07:19:45.802Z</time>
      </trkpt>
      <trkpt lat="40.596023" lon="-3.495238">
        <ele>710.0</ele>
        <time>2019-02-23T07:19:47.802Z</time>
      </trkpt>
      <trkpt lat="40.596073" lon="-3.495131">
        <ele>710.6</ele>
        <time>2019-02-23T07:19:50.802Z</time>
      </trkpt>
      <trkpt lat="40.596091" lon="-3.495094">
        <ele>711.0</ele>
        <time>2019-02-23T07:19:51.802Z</time>
      </trkpt>
      <trkpt lat="40.596111" lon="-3.495064">
        <ele>711.4</ele>
        <time>2019-02-23T07:19:52.802Z</time>
      </trkpt>
      <trkpt lat="40.596131" lon="-3.495008">
        <ele>711.8</ele>
        <time>2019-02-23T07:19:53.802Z</time>
      </trkpt>
      <trkpt lat="40.596157" lon="-3.494972">
        <ele>712.5</ele>
        <time>2019-02-23T07:19:54.802Z</time>
      </trkpt>
      <trkpt lat="40.596492" lon="-3.494741">
        <ele>712.4</ele>
        <time>2019-02-23T07:20:04.802Z</time>
      </trkpt>
      <trkpt lat="40.596601" lon="-3.494728">
        <ele>712.9</ele>
        <time>2019-02-23T07:20:07.802Z</time>
      </trkpt>
      <trkpt lat="40.596634" lon="-3.494716">
        <ele>713.1</ele>
        <time>2019-02-23T07:20:08.802Z</time>
      </trkpt>
      <trkpt lat="40.596659" lon="-3.494688">
        <ele>713.6</ele>
        <time>2019-02-23T07:20:09.802Z</time>
      </trkpt>
      <trkpt lat="40.596683" lon="-3.494649">
        <ele>714.0</ele>
        <time>2019-02-23T07:20:10.802Z</time>
      </trkpt>
      <trkpt lat="40.596699" lon="-3.494602">
        <ele>714.5</ele>
        <time>2019-02-23T07:20:11.802Z</time>
      </trkpt>
      <trkpt lat="40.596748" lon="-3.494455">
        <ele>714.5</ele>
        <time>2019-02-23T07:20:14.802Z</time>
      </trkpt>
      <trkpt lat="40.596818" lon="-3.494194">
        <ele>714.5</ele>
        <time>2019-02-23T07:20:19.802Z</time>
      </trkpt>
      <trkpt lat="40.596875" lon="-3.494033">
        <ele>714.6</ele>
        <time>2019-02-23T07:20:22.802Z</time>
      </trkpt>
      <trkpt lat="40.597078" lon="-3.493664">
        <ele>715.1</ele>
        <time>2019-02-23T07:20:29.802Z</time>
      </trkpt>
      <trkpt lat="40.597104" lon="-3.493624">
        <ele>715.4</ele>
        <time>2019-02-23T07:20:30.802Z</time>
      </trkpt>
      <trkpt lat="40.597137" lon="-3.493571">
        <ele>715.9</ele>
        <time>2019-02-23T07:20:31.802Z</time>
      </trkpt>
      <trkpt lat="40.597170" lon="-3.493518">
        <ele>716.1</ele>
        <time>2019-02-23T07:20:32.802Z</time>
      </trkpt>
      <trkpt lat="40.597201" lon="-3.493463">
        <ele>716.6</ele>
        <time>2019-02-23T07:20:33.802Z</time>
      </trkpt>
      <trkpt lat="40.597419" lon="-3.493110">
        <ele>716.6</ele>
        <time>2019-02-23T07:20:40.802Z</time>
      </trkpt>
      <trkpt lat="40.597683" lon="-3.492591">
        <ele>716.5</ele>
        <time>2019-02-23T07:20:50.802Z</time>
      </trkpt>
      <trkpt lat="40.597753" lon="-3.492411">
        <ele>717.0</ele>
        <time>2019-02-23T07:20:53.802Z</time>
      </trkpt>
      <trkpt lat="40.597777" lon="-3.492351">
        <ele>717.4</ele>
        <time>2019-02-23T07:20:54.802Z</time>
      </trkpt>
      <trkpt lat="40.597801" lon="-3.492293">
        <ele>718.0</ele>
        <time>2019-02-23T07:20:55.802Z</time>
      </trkpt>
      <trkpt lat="40.597825" lon="-3.492234">
        <ele>718.5</ele>
        <time>2019-02-23T07:20:56.802Z</time>
      </trkpt>
      <trkpt lat="40.597850" lon="-3.492175">
        <ele>718.8</ele>
        <time>2019-02-23T07:20:57.802Z</time>
      </trkpt>
      <trkpt lat="40.597919" lon="-3.492001">
        <ele>718.9</ele>
        <time>2019-02-23T07:21:00.802Z</time>
      </trkpt>
      <trkpt lat="40.598047" lon="-3.491744">
        <ele>719.2</ele>
        <time>2019-02-23T07:21:05.802Z</time>
      </trkpt>
      <trkpt lat="40.598082" lon="-3.491693">
        <ele>719.8</ele>
        <time>2019-02-23T07:21:06.802Z</time>
      </trkpt>
      <trkpt lat="40.598114" lon="-3.491647">
        <ele>720.2</ele>
        <time>2019-02-23T07:21:07.802Z</time>
      </trkpt>
      <trkpt lat="40.598150" lon="-3.491603">
        <ele>720.5</ele>
        <time>2019-02-23T07:21:08.802Z</time>
      </trkpt>
      <trkpt lat="40.598186" lon="-3.491561">
        <ele>721.0</ele>
        <time>2019-02-23T07:21:09.802Z</time>
      </trkpt>
      <trkpt lat="40.598483" lon="-3.491319">
        <ele>721.0</ele>
        <time>2019-02-23T07:21:16.802Z</time>
      </trkpt>
      <trkpt lat="40.598775" lon="-3.491165">
        <ele>721.4</ele>
        <time>2019-02-23T07:21:22.802Z</time>
      </trkpt>
      <trkpt lat="40.598824" lon="-3.491136">
        <ele>722.0</ele>
        <time>2019-02-23T07:21:23.802Z</time>
      </trkpt>
      <trkpt lat="40.598869" lon="-3.491111">
        <ele>722.4</ele>
        <time>2019-02-23T07:21:24.802Z</time>
      </trkpt>
      <trkpt lat="40.598919" lon="-3.491083">
        <ele>722.9</ele>
        <time>2019-02-23T07:21:25.802Z</time>
      </trkpt>
      <trkpt lat="40.598966" lon="-3.491058">
        <ele>723.5</ele>
        <time>2019-02-23T07:21:26.802Z</time>
      </trkpt>
      <trkpt lat="40.599244" lon="-3.490911">
        <ele>723.9</ele>
        <time>2019-02-23T07:21:32.802Z</time>
      </trkpt>
      <trkpt lat="40.599290" lon="-3.490887">
        <ele>724.2</ele>
        <time>2019-02-23T07:21:33.802Z</time>
      </trkpt>
      <trkpt lat="40.599334" lon="-3.490864">
        <ele>724.6</ele>
        <time>2019-02-23T07:21:34.802Z</time>
      </trkpt>
      <trkpt lat="40.599377" lon="-3.490841">
        <ele>725.1</ele>
        <time>2019-02-23T07:21:35.802Z</time>
      </trkpt>
      <trkpt lat="40.599422" lon="-3.490816">
        <ele>725.4</ele>
        <time>2019-02-23T07:21:36.802Z</time>
      </trkpt>
      <trkpt lat="40.599601" lon="-3.490722">
        <ele>725.8</ele>
        <time>2019-02-23T07:21:40.802Z</time>
      </trkpt>
      <trkpt lat="40.599645" lon="-3.490697">
        <ele>726.1</ele>
        <time>2019-02-23T07:21:41.802Z</time>
      </trkpt>
      <trkpt lat="40.599690" lon="-3.490673">
        <ele>726.5</ele>
        <time>2019-02-23T07:21:42.802Z</time>
      </trkpt>
      <trkpt lat="40.599732" lon="-3.490650">
        <ele>727.0</ele>
        <time>2019-02-23T07:21:43.802Z</time>
      </trkpt>
      <trkpt lat="40.599774" lon="-3.490627">
        <ele>727.4</ele>
        <time>2019-02-23T07:21:44.802Z</time>
      </trkpt>
      <trkpt lat="40.599859" lon="-3.490581">
        <ele>727.8</ele>
        <time>2019-02-23T07:21:46.802Z</time>
      </trkpt>
      <trkpt lat="40.599902" lon="-3.490558">
        <ele>728.1</ele>
        <time>2019-02-23T07:21:47.802Z</time>
      </trkpt>
      <trkpt lat="40.599945" lon="-3.490536">
        <ele>728.5</ele>
        <time>2019-02-23T07:21:48.802Z</time>
      </trkpt>
      <trkpt lat="40.599990" lon="-3.490514">
        <ele>729.0</ele>
        <time>2019-02-23T07:21:49.802Z</time>
      </trkpt>
      <trkpt lat="40.600032" lon="-3.490493">
        <ele>729.4</ele>
        <time>2019-02-23T07:21:50.802Z</time>
      </trkpt>
      <trkpt lat="40.600315" lon="-3.490335">
        <ele>729.5</ele>
        <time>2019-02-23T07:21:56.802Z</time>
      </trkpt>
      <trkpt lat="40.600840" lon="-3.490040">
        <ele>729.5</ele>
        <time>2019-02-23T07:22:06.802Z</time>
      </trkpt>
      <trkpt lat="40.600894" lon="-3.490009">
        <ele>729.4</ele>
        <time>2019-02-23T07:22:07.802Z</time>
      </trkpt>
      <trkpt lat="40.601399" lon="-3.489727">
        <ele>729.5</ele>
        <time>2019-02-23T07:22:16.802Z</time>
      </trkpt>
      <trkpt lat="40.601569" lon="-3.489634">
        <ele>729.4</ele>
        <time>2019-02-23T07:22:19.802Z</time>
      </trkpt>
      <trkpt lat="40.602063" lon="-3.489366">
        <ele>729.8</ele>
        <time>2019-02-23T07:22:28.802Z</time>
      </trkpt>
      <trkpt lat="40.602115" lon="-3.489337">
        <ele>730.4</ele>
        <time>2019-02-23T07:22:29.802Z</time>
      </trkpt>
      <trkpt lat="40.602167" lon="-3.489307">
        <ele>730.8</ele>
        <time>2019-02-23T07:22:30.802Z</time>
      </trkpt>
      <trkpt lat="40.602220" lon="-3.489279">
        <ele>731.2</ele>
        <time>2019-02-23T07:22:31.802Z</time>
      </trkpt>
      <trkpt lat="40.602275" lon="-3.489253">
        <ele>731.5</ele>
        <time>2019-02-23T07:22:32.802Z</time>
      </trkpt>
      <trkpt lat="40.602755" lon="-3.488987">
        <ele>732.1</ele>
        <time>2019-02-23T07:22:41.802Z</time>
      </trkpt>
      <trkpt lat="40.602808" lon="-3.488959">
        <ele>732.6</ele>
        <time>2019-02-23T07:22:42.802Z</time>
      </trkpt>
      <trkpt lat="40.602864" lon="-3.488928">
        <ele>733.1</ele>
        <time>2019-02-23T07:22:43.802Z</time>
      </trkpt>
      <trkpt lat="40.602921" lon="-3.488897">
        <ele>733.5</ele>
        <time>2019-02-23T07:22:44.802Z</time>
      </trkpt>
      <trkpt lat="40.602978" lon="-3.488868">
        <ele>734.0</ele>
        <time>2019-02-23T07:22:45.802Z</time>
      </trkpt>
      <trkpt lat="40.603319" lon="-3.488681">
        <ele>734.1</ele>
        <time>2019-02-23T07:22:51.802Z</time>
      </trkpt>
      <trkpt lat="40.603834" lon="-3.488403">
        <ele>734.0</ele>
        <time>2019-02-23T07:23:00.802Z</time>
      </trkpt>
      <trkpt lat="40.603893" lon="-3.488373">
        <ele>734.0</ele>
        <time>2019-02-23T07:23:01.802Z</time>
      </trkpt>
      <trkpt lat="40.604422" lon="-3.488109">
        <ele>734.0</ele>
        <time>2019-02-23T07:23:09.802Z</time>
      </trkpt>
      <trkpt lat="40.604495" lon="-3.488077">
        <ele>734.0</ele>
        <time>2019-02-23T07:23:10.802Z</time>
      </trkpt>
      <trkpt lat="40.604572" lon="-3.488045">
        <ele>733.6</ele>
        <time>2019-02-23T07:23:11.802Z</time>
      </trkpt>
      <trkpt lat="40.604651" lon="-3.488012">
        <ele>733.2</ele>
        <time>2019-02-23T07:23:12.802Z</time>
      </trkpt>
      <trkpt lat="40.604733" lon="-3.487976">
        <ele>732.9</ele>
        <time>2019-02-23T07:23:13.802Z</time>
      </trkpt>
      <trkpt lat="40.604819" lon="-3.487937">
        <ele>732.1</ele>
        <time>2019-02-23T07:23:14.802Z</time>
      </trkpt>
      <trkpt lat="40.604904" lon="-3.487897">
        <ele>731.9</ele>
        <time>2019-02-23T07:23:15.802Z</time>
      </trkpt>
      <trkpt lat="40.604994" lon="-3.487855">
        <ele>731.9</ele>
        <time>2019-02-23T07:23:16.802Z</time>
      </trkpt>
      <trkpt lat="40.605085" lon="-3.487815">
        <ele>731.4</ele>
        <time>2019-02-23T07:23:17.802Z</time>
      </trkpt>
      <trkpt lat="40.605178" lon="-3.487776">
        <ele>731.1</ele>
        <time>2019-02-23T07:23:18.802Z</time>
      </trkpt>
      <trkpt lat="40.605275" lon="-3.487733">
        <ele>730.5</ele>
        <time>2019-02-23T07:23:19.802Z</time>
      </trkpt>
      <trkpt lat="40.605374" lon="-3.487686">
        <ele>730.1</ele>
        <time>2019-02-23T07:23:20.802Z</time>
      </trkpt>
      <trkpt lat="40.605470" lon="-3.487641">
        <ele>729.5</ele>
        <time>2019-02-23T07:23:21.802Z</time>
      </trkpt>
      <trkpt lat="40.605574" lon="-3.487595">
        <ele>729.1</ele>
        <time>2019-02-23T07:23:22.802Z</time>
      </trkpt>
      <trkpt lat="40.605677" lon="-3.487550">
        <ele>728.5</ele>
        <time>2019-02-23T07:23:23.802Z</time>
      </trkpt>
      <trkpt lat="40.605778" lon="-3.487506">
        <ele>728.2</ele>
        <time>2019-02-23T07:23:24.802Z</time>
      </trkpt>
      <trkpt lat="40.605884" lon="-3.487457">
        <ele>727.5</ele>
        <time>2019-02-23T07:23:25.802Z</time>
      </trkpt>
      <trkpt lat="40.605990" lon="-3.487406">
        <ele>727.2</ele>
        <time>2019-02-23T07:23:26.802Z</time>
      </trkpt>
      <trkpt lat="40.606092" lon="-3.487358">
        <ele>726.9</ele>
        <time>2019-02-23T07:23:27.802Z</time>
      </trkpt>
      <trkpt lat="40.606200" lon="-3.487309">
        <ele>726.5</ele>
        <time>2019-02-23T07:23:28.802Z</time>
      </trkpt>
      <trkpt lat="40.606306" lon="-3.487261">
        <ele>725.9</ele>
        <time>2019-02-23T07:23:29.802Z</time>
      </trkpt>
      <trkpt lat="40.606415" lon="-3.487213">
        <ele>725.4</ele>
        <time>2019-02-23T07:23:30.802Z</time>
      </trkpt>
      <trkpt lat="40.606637" lon="-3.487113">
        <ele>725.0</ele>
        <time>2019-02-23T07:23:32.802Z</time>
      </trkpt>
      <trkpt lat="40.606752" lon="-3.487060">
        <ele>724.5</ele>
        <time>2019-02-23T07:23:33.802Z</time>
      </trkpt>
      <trkpt lat="40.606862" lon="-3.487010">
        <ele>724.0</ele>
        <time>2019-02-23T07:23:34.802Z</time>
      </trkpt>
      <trkpt lat="40.606976" lon="-3.486958">
        <ele>723.5</ele>
        <time>2019-02-23T07:23:35.802Z</time>
      </trkpt>
      <trkpt lat="40.607086" lon="-3.486910">
        <ele>722.8</ele>
        <time>2019-02-23T07:23:36.802Z</time>
      </trkpt>
      <trkpt lat="40.607204" lon="-3.486859">
        <ele>722.2</ele>
        <time>2019-02-23T07:23:37.802Z</time>
      </trkpt>
      <trkpt lat="40.607313" lon="-3.486810">
        <ele>721.5</ele>
        <time>2019-02-23T07:23:38.802Z</time>
      </trkpt>
      <trkpt lat="40.607419" lon="-3.486761">
        <ele>721.0</ele>
        <time>2019-02-23T07:23:39.802Z</time>
      </trkpt>
      <trkpt lat="40.607531" lon="-3.486710">
        <ele>720.5</ele>
        <time>2019-02-23T07:23:40.802Z</time>
      </trkpt>
      <trkpt lat="40.607639" lon="-3.486661">
        <ele>720.1</ele>
        <time>2019-02-23T07:23:41.802Z</time>
      </trkpt>
      <trkpt lat="40.607749" lon="-3.486610">
        <ele>719.6</ele>
        <time>2019-02-23T07:23:42.802Z</time>
      </trkpt>
      <trkpt lat="40.607858" lon="-3.486561">
        <ele>719.0</ele>
        <time>2019-02-23T07:23:43.802Z</time>
      </trkpt>
      <trkpt lat="40.607967" lon="-3.486512">
        <ele>718.6</ele>
        <time>2019-02-23T07:23:44.802Z</time>
      </trkpt>
      <trkpt lat="40.608079" lon="-3.486461">
        <ele>718.0</ele>
        <time>2019-02-23T07:23:45.802Z</time>
      </trkpt>
      <trkpt lat="40.608185" lon="-3.486413">
        <ele>717.5</ele>
        <time>2019-02-23T07:23:46.802Z</time>
      </trkpt>
      <trkpt lat="40.608297" lon="-3.486364">
        <ele>717.2</ele>
        <time>2019-02-23T07:23:47.802Z</time>
      </trkpt>
      <trkpt lat="40.608401" lon="-3.486319">
        <ele>716.9</ele>
        <time>2019-02-23T07:23:48.802Z</time>
      </trkpt>
      <trkpt lat="40.608511" lon="-3.486268">
        <ele>716.1</ele>
        <time>2019-02-23T07:23:49.802Z</time>
      </trkpt>
      <trkpt lat="40.608826" lon="-3.486125">
        <ele>715.9</ele>
        <time>2019-02-23T07:23:52.802Z</time>
      </trkpt>
      <trkpt lat="40.608933" lon="-3.486078">
        <ele>715.5</ele>
        <time>2019-02-23T07:23:53.802Z</time>
      </trkpt>
      <trkpt lat="40.609032" lon="-3.486035">
        <ele>715.1</ele>
        <time>2019-02-23T07:23:54.802Z</time>
      </trkpt>
      <trkpt lat="40.609135" lon="-3.485989">
        <ele>714.6</ele>
        <time>2019-02-23T07:23:55.802Z</time>
      </trkpt>
      <trkpt lat="40.609237" lon="-3.485942">
        <ele>714.2</ele>
        <time>2019-02-23T07:23:56.802Z</time>
      </trkpt>
      <trkpt lat="40.609439" lon="-3.485847">
        <ele>713.8</ele>
        <time>2019-02-23T07:23:58.802Z</time>
      </trkpt>
      <trkpt lat="40.609541" lon="-3.485802">
        <ele>713.1</ele>
        <time>2019-02-23T07:23:59.802Z</time>
      </trkpt>
      <trkpt lat="40.609642" lon="-3.485759">
        <ele>712.8</ele>
        <time>2019-02-23T07:24:00.802Z</time>
      </trkpt>
      <trkpt lat="40.609747" lon="-3.485711">
        <ele>712.4</ele>
        <time>2019-02-23T07:24:01.802Z</time>
      </trkpt>
      <trkpt lat="40.609849" lon="-3.485663">
        <ele>711.9</ele>
        <time>2019-02-23T07:24:02.802Z</time>
      </trkpt>
      <trkpt lat="40.610061" lon="-3.485563">
        <ele>711.5</ele>
        <time>2019-02-23T07:24:04.802Z</time>
      </trkpt>
      <trkpt lat="40.610167" lon="-3.485513">
        <ele>710.9</ele>
        <time>2019-02-23T07:24:05.802Z</time>
      </trkpt>
      <trkpt lat="40.610273" lon="-3.485462">
        <ele>710.4</ele>
        <time>2019-02-23T07:24:06.802Z</time>
      </trkpt>
      <trkpt lat="40.610381" lon="-3.485413">
        <ele>709.9</ele>
        <time>2019-02-23T07:24:07.802Z</time>
      </trkpt>
      <trkpt lat="40.610483" lon="-3.485367">
        <ele>709.5</ele>
        <time>2019-02-23T07:24:08.802Z</time>
      </trkpt>
      <trkpt lat="40.610586" lon="-3.485324">
        <ele>709.4</ele>
        <time>2019-02-23T07:24:09.802Z</time>
      </trkpt>
      <trkpt lat="40.610689" lon="-3.485280">
        <ele>709.1</ele>
        <time>2019-02-23T07:24:10.802Z</time>
      </trkpt>
      <trkpt lat="40.610787" lon="-3.485233">
        <ele>708.4</ele>
        <time>2019-02-23T07:24:11.802Z</time>
      </trkpt>
      <trkpt lat="40.610890" lon="-3.485181">
        <ele>708.1</ele>
        <time>2019-02-23T07:24:12.802Z</time>
      </trkpt>
      <trkpt lat="40.610990" lon="-3.485133">
        <ele>707.4</ele>
        <time>2019-02-23T07:24:13.802Z</time>
      </trkpt>
      <trkpt lat="40.611096" lon="-3.485085">
        <ele>706.8</ele>
        <time>2019-02-23T07:24:14.802Z</time>
      </trkpt>
      <trkpt lat="40.611204" lon="-3.485036">
        <ele>706.2</ele>
        <time>2019-02-23T07:24:15.802Z</time>
      </trkpt>
      <trkpt lat="40.611316" lon="-3.484984">
        <ele>705.6</ele>
        <time>2019-02-23T07:24:16.802Z</time>
      </trkpt>
      <trkpt lat="40.611427" lon="-3.484932">
        <ele>705.0</ele>
        <time>2019-02-23T07:24:17.802Z</time>
      </trkpt>
      <trkpt lat="40.611540" lon="-3.484881">
        <ele>704.5</ele>
        <time>2019-02-23T07:24:18.802Z</time>
      </trkpt>
      <trkpt lat="40.611653" lon="-3.484829">
        <ele>704.0</ele>
        <time>2019-02-23T07:24:19.802Z</time>
      </trkpt>
      <trkpt lat="40.611767" lon="-3.484779">
        <ele>703.5</ele>
        <time>2019-02-23T07:24:20.802Z</time>
      </trkpt>
      <trkpt lat="40.611878" lon="-3.484731">
        <ele>703.0</ele>
        <time>2019-02-23T07:24:21.802Z</time>
      </trkpt>
      <trkpt lat="40.611981" lon="-3.484684">
        <ele>702.6</ele>
        <time>2019-02-23T07:24:22.802Z</time>
      </trkpt>
      <trkpt lat="40.612082" lon="-3.484635">
        <ele>702.1</ele>
        <time>2019-02-23T07:24:23.802Z</time>
      </trkpt>
      <trkpt lat="40.612184" lon="-3.484584">
        <ele>701.6</ele>
        <time>2019-02-23T07:24:24.802Z</time>
      </trkpt>
      <trkpt lat="40.612289" lon="-3.484534">
        <ele>701.0</ele>
        <time>2019-02-23T07:24:25.802Z</time>
      </trkpt>
      <trkpt lat="40.612395" lon="-3.484484">
        <ele>700.5</ele>
        <time>2019-02-23T07:24:26.802Z</time>
      </trkpt>
      <trkpt lat="40.612505" lon="-3.484437">
        <ele>700.0</ele>
        <time>2019-02-23T07:24:27.802Z</time>
      </trkpt>
      <trkpt lat="40.612612" lon="-3.484391">
        <ele>699.4</ele>
        <time>2019-02-23T07:24:28.802Z</time>
      </trkpt>
      <trkpt lat="40.612725" lon="-3.484337">
        <ele>698.9</ele>
        <time>2019-02-23T07:24:29.802Z</time>
      </trkpt>
      <trkpt lat="40.612835" lon="-3.484286">
        <ele>698.1</ele>
        <time>2019-02-23T07:24:30.802Z</time>
      </trkpt>
      <trkpt lat="40.612952" lon="-3.484232">
        <ele>697.6</ele>
        <time>2019-02-23T07:24:31.802Z</time>
      </trkpt>
      <trkpt lat="40.613067" lon="-3.484180">
        <ele>697.1</ele>
        <time>2019-02-23T07:24:32.802Z</time>
      </trkpt>
      <trkpt lat="40.613179" lon="-3.484131">
        <ele>696.5</ele>
        <time>2019-02-23T07:24:33.802Z</time>
      </trkpt>
      <trkpt lat="40.613291" lon="-3.484082">
        <ele>696.0</ele>
        <time>2019-02-23T07:24:34.802Z</time>
      </trkpt>
      <trkpt lat="40.613396" lon="-3.484035">
        <ele>695.4</ele>
        <time>2019-02-23T07:24:35.802Z</time>
      </trkpt>
      <trkpt lat="40.613501" lon="-3.483989">
        <ele>695.1</ele>
        <time>2019-02-23T07:24:36.802Z</time>
      </trkpt>
      <trkpt lat="40.613604" lon="-3.483943">
        <ele>695.0</ele>
        <time>2019-02-23T07:24:37.802Z</time>
      </trkpt>
      <trkpt lat="40.614182" lon="-3.483676">
        <ele>695.0</ele>
        <time>2019-02-23T07:24:43.802Z</time>
      </trkpt>
      <trkpt lat="40.614453" lon="-3.483551">
        <ele>695.1</ele>
        <time>2019-02-23T07:24:46.802Z</time>
      </trkpt>
      <trkpt lat="40.614718" lon="-3.483432">
        <ele>695.1</ele>
        <time>2019-02-23T07:24:49.802Z</time>
      </trkpt>
      <trkpt lat="40.615218" lon="-3.483212">
        <ele>695.1</ele>
        <time>2019-02-23T07:24:55.802Z</time>
      </trkpt>
      <trkpt lat="40.615766" lon="-3.482959">
        <ele>695.0</ele>
        <time>2019-02-23T07:25:02.802Z</time>
      </trkpt>
      <trkpt lat="40.615994" lon="-3.482855">
        <ele>695.0</ele>
        <time>2019-02-23T07:25:05.802Z</time>
      </trkpt>
      <trkpt lat="40.616546" lon="-3.482603">
        <ele>695.0</ele>
        <time>2019-02-23T07:25:12.802Z</time>
      </trkpt>
      <trkpt lat="40.616809" lon="-3.482484">
        <ele>694.4</ele>
        <time>2019-02-23T07:25:15.802Z</time>
      </trkpt>
      <trkpt lat="40.616904" lon="-3.482441">
        <ele>694.1</ele>
        <time>2019-02-23T07:25:16.802Z</time>
      </trkpt>
      <trkpt lat="40.617003" lon="-3.482398">
        <ele>693.4</ele>
        <time>2019-02-23T07:25:17.802Z</time>
      </trkpt>
      <trkpt lat="40.617102" lon="-3.482353">
        <ele>692.8</ele>
        <time>2019-02-23T07:25:18.802Z</time>
      </trkpt>
      <trkpt lat="40.617208" lon="-3.482304">
        <ele>692.1</ele>
        <time>2019-02-23T07:25:19.802Z</time>
      </trkpt>
      <trkpt lat="40.617315" lon="-3.482253">
        <ele>691.4</ele>
        <time>2019-02-23T07:25:20.802Z</time>
      </trkpt>
      <trkpt lat="40.617421" lon="-3.482203">
        <ele>690.9</ele>
        <time>2019-02-23T07:25:21.802Z</time>
      </trkpt>
      <trkpt lat="40.617538" lon="-3.482151">
        <ele>690.1</ele>
        <time>2019-02-23T07:25:22.802Z</time>
      </trkpt>
      <trkpt lat="40.617653" lon="-3.482099">
        <ele>689.6</ele>
        <time>2019-02-23T07:25:23.802Z</time>
      </trkpt>
      <trkpt lat="40.617773" lon="-3.482045">
        <ele>688.8</ele>
        <time>2019-02-23T07:25:24.802Z</time>
      </trkpt>
      <trkpt lat="40.617891" lon="-3.481991">
        <ele>688.1</ele>
        <time>2019-02-23T07:25:25.802Z</time>
      </trkpt>
      <trkpt lat="40.618009" lon="-3.481938">
        <ele>687.0</ele>
        <time>2019-02-23T07:25:26.802Z</time>
      </trkpt>
      <trkpt lat="40.618130" lon="-3.481883">
        <ele>686.1</ele>
        <time>2019-02-23T07:25:27.802Z</time>
      </trkpt>
      <trkpt lat="40.618251" lon="-3.481827">
        <ele>685.2</ele>
        <time>2019-02-23T07:25:28.802Z</time>
      </trkpt>
      <trkpt lat="40.618371" lon="-3.481772">
        <ele>684.1</ele>
        <time>2019-02-23T07:25:29.802Z</time>
      </trkpt>
      <trkpt lat="40.618483" lon="-3.481721">
        <ele>683.1</ele>
        <time>2019-02-23T07:25:30.802Z</time>
      </trkpt>
      <trkpt lat="40.618598" lon="-3.481669">
        <ele>682.4</ele>
        <time>2019-02-23T07:25:31.802Z</time>
      </trkpt>
      <trkpt lat="40.618712" lon="-3.481616">
        <ele>681.5</ele>
        <time>2019-02-23T07:25:32.802Z</time>
      </trkpt>
      <trkpt lat="40.618820" lon="-3.481566">
        <ele>681.0</ele>
        <time>2019-02-23T07:25:33.802Z</time>
      </trkpt>
      <trkpt lat="40.618929" lon="-3.481518">
        <ele>680.4</ele>
        <time>2019-02-23T07:25:34.802Z</time>
      </trkpt>
      <trkpt lat="40.619034" lon="-3.481472">
        <ele>679.8</ele>
        <time>2019-02-23T07:25:35.802Z</time>
      </trkpt>
      <trkpt lat="40.619141" lon="-3.481421">
        <ele>679.1</ele>
        <time>2019-02-23T07:25:36.802Z</time>
      </trkpt>
      <trkpt lat="40.619352" lon="-3.481324">
        <ele>678.6</ele>
        <time>2019-02-23T07:25:38.802Z</time>
      </trkpt>
      <trkpt lat="40.619461" lon="-3.481276">
        <ele>678.1</ele>
        <time>2019-02-23T07:25:39.802Z</time>
      </trkpt>
      <trkpt lat="40.619565" lon="-3.481232">
        <ele>677.8</ele>
        <time>2019-02-23T07:25:40.802Z</time>
      </trkpt>
      <trkpt lat="40.619680" lon="-3.481181">
        <ele>677.5</ele>
        <time>2019-02-23T07:25:41.802Z</time>
      </trkpt>
      <trkpt lat="40.619783" lon="-3.481133">
        <ele>677.0</ele>
        <time>2019-02-23T07:25:42.802Z</time>
      </trkpt>
      <trkpt lat="40.619887" lon="-3.481086">
        <ele>677.0</ele>
        <time>2019-02-23T07:25:43.802Z</time>
      </trkpt>
      <trkpt lat="40.620163" lon="-3.480945">
        <ele>676.5</ele>
        <time>2019-02-23T07:25:46.802Z</time>
      </trkpt>
      <trkpt lat="40.620254" lon="-3.480898">
        <ele>676.1</ele>
        <time>2019-02-23T07:25:47.802Z</time>
      </trkpt>
      <trkpt lat="40.620336" lon="-3.480854">
        <ele>675.8</ele>
        <time>2019-02-23T07:25:48.802Z</time>
      </trkpt>
      <trkpt lat="40.620419" lon="-3.480810">
        <ele>675.2</ele>
        <time>2019-02-23T07:25:49.802Z</time>
      </trkpt>
      <trkpt lat="40.620502" lon="-3.480765">
        <ele>674.8</ele>
        <time>2019-02-23T07:25:50.802Z</time>
      </trkpt>
      <trkpt lat="40.620978" lon="-3.480529">
        <ele>674.9</ele>
        <time>2019-02-23T07:25:56.802Z</time>
      </trkpt>
      <trkpt lat="40.621529" lon="-3.480280">
        <ele>674.8</ele>
        <time>2019-02-23T07:26:03.802Z</time>
      </trkpt>
      <trkpt lat="40.621848" lon="-3.480136">
        <ele>674.9</ele>
        <time>2019-02-23T07:26:07.802Z</time>
      </trkpt>
      <trkpt lat="40.622272" lon="-3.479943">
        <ele>674.5</ele>
        <time>2019-02-23T07:26:12.802Z</time>
      </trkpt>
      <trkpt lat="40.622362" lon="-3.479902">
        <ele>674.1</ele>
        <time>2019-02-23T07:26:13.802Z</time>
      </trkpt>
      <trkpt lat="40.622542" lon="-3.479820">
        <ele>673.6</ele>
        <time>2019-02-23T07:26:15.802Z</time>
      </trkpt>
      <trkpt lat="40.622636" lon="-3.479778">
        <ele>673.2</ele>
        <time>2019-02-23T07:26:16.802Z</time>
      </trkpt>
      <trkpt lat="40.622728" lon="-3.479735">
        <ele>672.8</ele>
        <time>2019-02-23T07:26:17.802Z</time>
      </trkpt>
      <trkpt lat="40.623014" lon="-3.479604">
        <ele>672.4</ele>
        <time>2019-02-23T07:26:20.802Z</time>
      </trkpt>
      <trkpt lat="40.623112" lon="-3.479561">
        <ele>671.4</ele>
        <time>2019-02-23T07:26:21.802Z</time>
      </trkpt>
      <trkpt lat="40.623209" lon="-3.479519">
        <ele>671.1</ele>
        <time>2019-02-23T07:26:22.802Z</time>
      </trkpt>
      <trkpt lat="40.623309" lon="-3.479476">
        <ele>670.6</ele>
        <time>2019-02-23T07:26:23.802Z</time>
      </trkpt>
      <trkpt lat="40.623607" lon="-3.479339">
        <ele>670.5</ele>
        <time>2019-02-23T07:26:26.802Z</time>
      </trkpt>
      <trkpt lat="40.623712" lon="-3.479291">
        <ele>670.2</ele>
        <time>2019-02-23T07:26:27.802Z</time>
      </trkpt>
      <trkpt lat="40.623911" lon="-3.479202">
        <ele>669.9</ele>
        <time>2019-02-23T07:26:29.802Z</time>
      </trkpt>
      <trkpt lat="40.624018" lon="-3.479158">
        <ele>669.5</ele>
        <time>2019-02-23T07:26:30.802Z</time>
      </trkpt>
      <trkpt lat="40.624124" lon="-3.479117">
        <ele>669.1</ele>
        <time>2019-02-23T07:26:31.802Z</time>
      </trkpt>
      <trkpt lat="40.624226" lon="-3.479079">
        <ele>668.6</ele>
        <time>2019-02-23T07:26:32.802Z</time>
      </trkpt>
      <trkpt lat="40.624533" lon="-3.478963">
        <ele>668.5</ele>
        <time>2019-02-23T07:26:35.802Z</time>
      </trkpt>
      <trkpt lat="40.624901" lon="-3.478808">
        <ele>668.1</ele>
        <time>2019-02-23T07:26:39.802Z</time>
      </trkpt>
      <trkpt lat="40.624986" lon="-3.478771">
        <ele>667.8</ele>
        <time>2019-02-23T07:26:40.802Z</time>
      </trkpt>
      <trkpt lat="40.625075" lon="-3.478733">
        <ele>667.4</ele>
        <time>2019-02-23T07:26:41.802Z</time>
      </trkpt>
      <trkpt lat="40.625156" lon="-3.478698">
        <ele>667.0</ele>
        <time>2019-02-23T07:26:42.802Z</time>
      </trkpt>
      <trkpt lat="40.625242" lon="-3.478658">
        <ele>666.6</ele>
        <time>2019-02-23T07:26:43.802Z</time>
      </trkpt>
      <trkpt lat="40.625668" lon="-3.478456">
        <ele>666.5</ele>
        <time>2019-02-23T07:26:48.802Z</time>
      </trkpt>
      <trkpt lat="40.625754" lon="-3.478415">
        <ele>666.0</ele>
        <time>2019-02-23T07:26:49.802Z</time>
      </trkpt>
      <trkpt lat="40.625835" lon="-3.478379">
        <ele>665.5</ele>
        <time>2019-02-23T07:26:50.802Z</time>
      </trkpt>
      <trkpt lat="40.625917" lon="-3.478345">
        <ele>665.1</ele>
        <time>2019-02-23T07:26:51.802Z</time>
      </trkpt>
      <trkpt lat="40.625995" lon="-3.478311">
        <ele>664.8</ele>
        <time>2019-02-23T07:26:52.802Z</time>
      </trkpt>
      <trkpt lat="40.626073" lon="-3.478274">
        <ele>664.4</ele>
        <time>2019-02-23T07:26:53.802Z</time>
      </trkpt>
      <trkpt lat="40.626225" lon="-3.478201">
        <ele>664.5</ele>
        <time>2019-02-23T07:26:55.802Z</time>
      </trkpt>
      <trkpt lat="40.626663" lon="-3.477967">
        <ele>664.4</ele>
        <time>2019-02-23T07:27:01.802Z</time>
      </trkpt>
      <trkpt lat="40.626824" lon="-3.477816">
        <ele>664.4</ele>
        <time>2019-02-23T07:27:04.802Z</time>
      </trkpt>
      <trkpt lat="40.626865" lon="-3.477751">
        <ele>664.4</ele>
        <time>2019-02-23T07:27:05.802Z</time>
      </trkpt>
      <trkpt lat="40.626923" lon="-3.477508">
        <ele>664.5</ele>
        <time>2019-02-23T07:27:08.802Z</time>
      </trkpt>
      <trkpt lat="40.626936" lon="-3.477420">
        <ele>664.5</ele>
        <time>2019-02-23T07:27:09.802Z</time>
      </trkpt>
      <trkpt lat="40.627003" lon="-3.477279">
        <ele>664.4</ele>
        <time>2019-02-23T07:27:11.802Z</time>
      </trkpt>
      <trkpt lat="40.627059" lon="-3.477234">
        <ele>664.4</ele>
        <time>2019-02-23T07:27:12.802Z</time>
      </trkpt>
      <trkpt lat="40.627258" lon="-3.477202">
        <ele>664.5</ele>
        <time>2019-02-23T07:27:15.802Z</time>
      </trkpt>
      <trkpt lat="40.627396" lon="-3.477178">
        <ele>664.5</ele>
        <time>2019-02-23T07:27:17.802Z</time>
      </trkpt>
      <trkpt lat="40.627530" lon="-3.477107">
        <ele>664.5</ele>
        <time>2019-02-23T07:27:19.802Z</time>
      </trkpt>
      <trkpt lat="40.627701" lon="-3.476935">
        <ele>664.9</ele>
        <time>2019-02-23T07:27:22.802Z</time>
      </trkpt>
      <trkpt lat="40.627752" lon="-3.476875">
        <ele>665.1</ele>
        <time>2019-02-23T07:27:23.802Z</time>
      </trkpt>
      <trkpt lat="40.627805" lon="-3.476806">
        <ele>665.5</ele>
        <time>2019-02-23T07:27:24.802Z</time>
      </trkpt>
      <trkpt lat="40.627850" lon="-3.476742">
        <ele>666.0</ele>
        <time>2019-02-23T07:27:25.802Z</time>
      </trkpt>
      <trkpt lat="40.627899" lon="-3.476681">
        <ele>666.5</ele>
        <time>2019-02-23T07:27:26.802Z</time>
      </trkpt>
      <trkpt lat="40.627987" lon="-3.476563">
        <ele>666.4</ele>
        <time>2019-02-23T07:27:28.802Z</time>
      </trkpt>
      <trkpt lat="40.628287" lon="-3.476159">
        <ele>666.5</ele>
        <time>2019-02-23T07:27:35.802Z</time>
      </trkpt>
      <trkpt lat="40.628547" lon="-3.475817">
        <ele>667.0</ele>
        <time>2019-02-23T07:27:41.802Z</time>
      </trkpt>
      <trkpt lat="40.628586" lon="-3.475768">
        <ele>667.5</ele>
        <time>2019-02-23T07:27:42.802Z</time>
      </trkpt>
      <trkpt lat="40.628626" lon="-3.475720">
        <ele>668.1</ele>
        <time>2019-02-23T07:27:43.802Z</time>
      </trkpt>
      <trkpt lat="40.628667" lon="-3.475674">
        <ele>668.5</ele>
        <time>2019-02-23T07:27:44.802Z</time>
      </trkpt>
      <trkpt lat="40.628707" lon="-3.475628">
        <ele>669.1</ele>
        <time>2019-02-23T07:27:45.802Z</time>
      </trkpt>
      <trkpt lat="40.628788" lon="-3.475555">
        <ele>669.1</ele>
        <time>2019-02-23T07:27:47.802Z</time>
      </trkpt>
      <trkpt lat="40.628830" lon="-3.475522">
        <ele>669.4</ele>
        <time>2019-02-23T07:27:48.802Z</time>
      </trkpt>
      <trkpt lat="40.628872" lon="-3.475492">
        <ele>669.8</ele>
        <time>2019-02-23T07:27:49.802Z</time>
      </trkpt>
      <trkpt lat="40.628915" lon="-3.475468">
        <ele>670.1</ele>
        <time>2019-02-23T07:27:50.802Z</time>
      </trkpt>
      <trkpt lat="40.628960" lon="-3.475440">
        <ele>670.8</ele>
        <time>2019-02-23T07:27:51.802Z</time>
      </trkpt>
      <trkpt lat="40.629005" lon="-3.475413">
        <ele>671.2</ele>
        <time>2019-02-23T07:27:52.802Z</time>
      </trkpt>
      <trkpt lat="40.629207" lon="-3.475261">
        <ele>671.2</ele>
        <time>2019-02-23T07:27:57.802Z</time>
      </trkpt>
      <trkpt lat="40.629246" lon="-3.475235">
        <ele>671.6</ele>
        <time>2019-02-23T07:27:58.802Z</time>
      </trkpt>
      <trkpt lat="40.629275" lon="-3.475204">
        <ele>672.1</ele>
        <time>2019-02-23T07:27:59.802Z</time>
      </trkpt>
      <trkpt lat="40.629301" lon="-3.475168">
        <ele>672.6</ele>
        <time>2019-02-23T07:28:00.802Z</time>
      </trkpt>
      <trkpt lat="40.629341" lon="-3.475131">
        <ele>673.2</ele>
        <time>2019-02-23T07:28:01.802Z</time>
      </trkpt>
      <trkpt lat="40.629379" lon="-3.475096">
        <ele>673.6</ele>
        <time>2019-02-23T07:28:02.802Z</time>
      </trkpt>
      <trkpt lat="40.629456" lon="-3.475021">
        <ele>673.5</ele>
        <time>2019-02-23T07:28:04.802Z</time>
      </trkpt>
      <trkpt lat="40.629492" lon="-3.474977">
        <ele>673.6</ele>
        <time>2019-02-23T07:28:05.802Z</time>
      </trkpt>
      <trkpt lat="40.629559" lon="-3.474878">
        <ele>674.1</ele>
        <time>2019-02-23T07:28:07.802Z</time>
      </trkpt>
      <trkpt lat="40.629587" lon="-3.474824">
        <ele>674.5</ele>
        <time>2019-02-23T07:28:08.802Z</time>
      </trkpt>
      <trkpt lat="40.629612" lon="-3.474773">
        <ele>675.1</ele>
        <time>2019-02-23T07:28:09.802Z</time>
      </trkpt>
      <trkpt lat="40.629635" lon="-3.474718">
        <ele>675.5</ele>
        <time>2019-02-23T07:28:10.802Z</time>
      </trkpt>
      <trkpt lat="40.629654" lon="-3.474665">
        <ele>675.8</ele>
        <time>2019-02-23T07:28:11.802Z</time>
      </trkpt>
      <trkpt lat="40.629694" lon="-3.474556">
        <ele>676.1</ele>
        <time>2019-02-23T07:28:13.802Z</time>
      </trkpt>
      <trkpt lat="40.629712" lon="-3.474500">
        <ele>676.9</ele>
        <time>2019-02-23T07:28:14.802Z</time>
      </trkpt>
      <trkpt lat="40.629733" lon="-3.474442">
        <ele>677.2</ele>
        <time>2019-02-23T07:28:15.802Z</time>
      </trkpt>
      <trkpt lat="40.629750" lon="-3.474384">
        <ele>677.6</ele>
        <time>2019-02-23T07:28:16.802Z</time>
      </trkpt>
      <trkpt lat="40.629763" lon="-3.474328">
        <ele>678.1</ele>
        <time>2019-02-23T07:28:17.802Z</time>
      </trkpt>
      <trkpt lat="40.629777" lon="-3.474274">
        <ele>678.1</ele>
        <time>2019-02-23T07:28:18.802Z</time>
      </trkpt>
      <trkpt lat="40.629813" lon="-3.474107">
        <ele>678.4</ele>
        <time>2019-02-23T07:28:21.802Z</time>
      </trkpt>
      <trkpt lat="40.629825" lon="-3.474041">
        <ele>679.0</ele>
        <time>2019-02-23T07:28:22.802Z</time>
      </trkpt>
      <trkpt lat="40.629837" lon="-3.473977">
        <ele>679.4</ele>
        <time>2019-02-23T07:28:23.802Z</time>
      </trkpt>
      <trkpt lat="40.629848" lon="-3.473910">
        <ele>679.9</ele>
        <time>2019-02-23T07:28:24.802Z</time>
      </trkpt>
      <trkpt lat="40.629863" lon="-3.473839">
        <ele>680.4</ele>
        <time>2019-02-23T07:28:25.802Z</time>
      </trkpt>
      <trkpt lat="40.629875" lon="-3.473771">
        <ele>680.4</ele>
        <time>2019-02-23T07:28:26.802Z</time>
      </trkpt>
      <trkpt lat="40.630041" lon="-3.473128">
        <ele>680.5</ele>
        <time>2019-02-23T07:28:35.802Z</time>
      </trkpt>
      <trkpt lat="40.630131" lon="-3.472850">
        <ele>680.9</ele>
        <time>2019-02-23T07:28:39.802Z</time>
      </trkpt>
      <trkpt lat="40.630154" lon="-3.472775">
        <ele>681.2</ele>
        <time>2019-02-23T07:28:40.802Z</time>
      </trkpt>
      <trkpt lat="40.630181" lon="-3.472700">
        <ele>681.5</ele>
        <time>2019-02-23T07:28:41.802Z</time>
      </trkpt>
      <trkpt lat="40.630207" lon="-3.472625">
        <ele>682.1</ele>
        <time>2019-02-23T07:28:42.802Z</time>
      </trkpt>
      <trkpt lat="40.630232" lon="-3.472547">
        <ele>682.5</ele>
        <time>2019-02-23T07:28:43.802Z</time>
      </trkpt>
      <trkpt lat="40.630260" lon="-3.472472">
        <ele>682.6</ele>
        <time>2019-02-23T07:28:44.802Z</time>
      </trkpt>
      <trkpt lat="40.630548" lon="-3.471785">
        <ele>682.5</ele>
        <time>2019-02-23T07:28:53.802Z</time>
      </trkpt>
      <trkpt lat="40.630818" lon="-3.471153">
        <ele>682.5</ele>
        <time>2019-02-23T07:29:01.802Z</time>
      </trkpt>
      <trkpt lat="40.631050" lon="-3.470601">
        <ele>682.6</ele>
        <time>2019-02-23T07:29:08.802Z</time>
      </trkpt>
      <trkpt lat="40.631083" lon="-3.470524">
        <ele>683.0</ele>
        <time>2019-02-23T07:29:09.802Z</time>
      </trkpt>
      <trkpt lat="40.631115" lon="-3.470451">
        <ele>683.5</ele>
        <time>2019-02-23T07:29:10.802Z</time>
      </trkpt>
      <trkpt lat="40.631146" lon="-3.470378">
        <ele>683.9</ele>
        <time>2019-02-23T07:29:11.802Z</time>
      </trkpt>
      <trkpt lat="40.631178" lon="-3.470303">
        <ele>684.2</ele>
        <time>2019-02-23T07:29:12.802Z</time>
      </trkpt>
      <trkpt lat="40.631209" lon="-3.470228">
        <ele>684.5</ele>
        <time>2019-02-23T07:29:13.802Z</time>
      </trkpt>
      <trkpt lat="40.631498" lon="-3.469553">
        <ele>684.6</ele>
        <time>2019-02-23T07:29:22.802Z</time>
      </trkpt>
      <trkpt lat="40.631531" lon="-3.469475">
        <ele>684.6</ele>
        <time>2019-02-23T07:29:23.802Z</time>
      </trkpt>
      <trkpt lat="40.631808" lon="-3.468813">
        <ele>684.6</ele>
        <time>2019-02-23T07:29:31.802Z</time>
      </trkpt>
      <trkpt lat="40.631839" lon="-3.468725">
        <ele>684.6</ele>
        <time>2019-02-23T07:29:32.802Z</time>
      </trkpt>
      <trkpt lat="40.632125" lon="-3.468045">
        <ele>684.5</ele>
        <time>2019-02-23T07:29:40.802Z</time>
      </trkpt>
      <trkpt lat="40.632237" lon="-3.467790">
        <ele>684.1</ele>
        <time>2019-02-23T07:29:43.802Z</time>
      </trkpt>
      <trkpt lat="40.632275" lon="-3.467701">
        <ele>683.8</ele>
        <time>2019-02-23T07:29:44.802Z</time>
      </trkpt>
      <trkpt lat="40.632310" lon="-3.467612">
        <ele>683.4</ele>
        <time>2019-02-23T07:29:45.802Z</time>
      </trkpt>
      <trkpt lat="40.632342" lon="-3.467525">
        <ele>682.9</ele>
        <time>2019-02-23T07:29:46.802Z</time>
      </trkpt>
      <trkpt lat="40.632375" lon="-3.467438">
        <ele>682.4</ele>
        <time>2019-02-23T07:29:47.802Z</time>
      </trkpt>
      <trkpt lat="40.632559" lon="-3.466986">
        <ele>682.4</ele>
        <time>2019-02-23T07:29:52.802Z</time>
      </trkpt>
      <trkpt lat="40.632822" lon="-3.466319">
        <ele>682.4</ele>
        <time>2019-02-23T07:29:59.802Z</time>
      </trkpt>
      <trkpt lat="40.632986" lon="-3.465940">
        <ele>682.5</ele>
        <time>2019-02-23T07:30:03.802Z</time>
      </trkpt>
      <trkpt lat="40.633108" lon="-3.465659">
        <ele>682.1</ele>
        <time>2019-02-23T07:30:06.802Z</time>
      </trkpt>
      <trkpt lat="40.633148" lon="-3.465567">
        <ele>681.5</ele>
        <time>2019-02-23T07:30:07.802Z</time>
      </trkpt>
      <trkpt lat="40.633186" lon="-3.465474">
        <ele>681.1</ele>
        <time>2019-02-23T07:30:08.802Z</time>
      </trkpt>
      <trkpt lat="40.633222" lon="-3.465386">
        <ele>680.5</ele>
        <time>2019-02-23T07:30:09.802Z</time>
      </trkpt>
      <trkpt lat="40.633260" lon="-3.465292">
        <ele>680.1</ele>
        <time>2019-02-23T07:30:10.802Z</time>
      </trkpt>
      <trkpt lat="40.633403" lon="-3.464943">
        <ele>680.1</ele>
        <time>2019-02-23T07:30:14.802Z</time>
      </trkpt>
      <trkpt lat="40.633699" lon="-3.464286">
        <ele>680.2</ele>
        <time>2019-02-23T07:30:22.802Z</time>
      </trkpt>
      <trkpt lat="40.633736" lon="-3.464210">
        <ele>680.2</ele>
        <time>2019-02-23T07:30:23.802Z</time>
      </trkpt>
      <trkpt lat="40.633997" lon="-3.463704">
        <ele>680.5</ele>
        <time>2019-02-23T07:30:30.802Z</time>
      </trkpt>
      <trkpt lat="40.634072" lon="-3.463569">
        <ele>681.1</ele>
        <time>2019-02-23T07:30:32.802Z</time>
      </trkpt>
      <trkpt lat="40.634109" lon="-3.463499">
        <ele>681.8</ele>
        <time>2019-02-23T07:30:33.802Z</time>
      </trkpt>
      <trkpt lat="40.634144" lon="-3.463432">
        <ele>682.2</ele>
        <time>2019-02-23T07:30:34.802Z</time>
      </trkpt>
      <trkpt lat="40.634179" lon="-3.463369">
        <ele>682.2</ele>
        <time>2019-02-23T07:30:35.802Z</time>
      </trkpt>
      <trkpt lat="40.634498" lon="-3.462741">
        <ele>682.2</ele>
        <time>2019-02-23T07:30:44.802Z</time>
      </trkpt>
      <trkpt lat="40.634608" lon="-3.462527">
        <ele>682.2</ele>
        <time>2019-02-23T07:30:47.802Z</time>
      </trkpt>
      <trkpt lat="40.634936" lon="-3.461879">
        <ele>682.1</ele>
        <time>2019-02-23T07:30:56.802Z</time>
      </trkpt>
      <trkpt lat="40.635011" lon="-3.461729">
        <ele>682.1</ele>
        <time>2019-02-23T07:30:58.802Z</time>
      </trkpt>
      <trkpt lat="40.635349" lon="-3.461066">
        <ele>682.2</ele>
        <time>2019-02-23T07:31:07.802Z</time>
      </trkpt>
      <trkpt lat="40.635427" lon="-3.460916">
        <ele>682.2</ele>
        <time>2019-02-23T07:31:09.802Z</time>
      </trkpt>
      <trkpt lat="40.635459" lon="-3.460838">
        <ele>682.1</ele>
        <time>2019-02-23T07:31:10.802Z</time>
      </trkpt>
      <trkpt lat="40.635523" lon="-3.460581">
        <ele>682.2</ele>
        <time>2019-02-23T07:31:13.802Z</time>
      </trkpt>
      <trkpt lat="40.635536" lon="-3.460492">
        <ele>682.2</ele>
        <time>2019-02-23T07:31:14.802Z</time>
      </trkpt>
      <trkpt lat="40.635544" lon="-3.460408">
        <ele>682.5</ele>
        <time>2019-02-23T07:31:15.802Z</time>
      </trkpt>
      <trkpt lat="40.635548" lon="-3.460317">
        <ele>683.1</ele>
        <time>2019-02-23T07:31:16.802Z</time>
      </trkpt>
      <trkpt lat="40.635548" lon="-3.460230">
        <ele>683.5</ele>
        <time>2019-02-23T07:31:17.802Z</time>
      </trkpt>
      <trkpt lat="40.635545" lon="-3.460143">
        <ele>683.8</ele>
        <time>2019-02-23T07:31:18.802Z</time>
      </trkpt>
      <trkpt lat="40.635543" lon="-3.460057">
        <ele>684.2</ele>
        <time>2019-02-23T07:31:19.802Z</time>
      </trkpt>
      <trkpt lat="40.635572" lon="-3.459605">
        <ele>684.8</ele>
        <time>2019-02-23T07:31:25.802Z</time>
      </trkpt>
      <trkpt lat="40.635585" lon="-3.459544">
        <ele>685.1</ele>
        <time>2019-02-23T07:31:26.802Z</time>
      </trkpt>
      <trkpt lat="40.635599" lon="-3.459480">
        <ele>685.5</ele>
        <time>2019-02-23T07:31:27.802Z</time>
      </trkpt>
      <trkpt lat="40.635619" lon="-3.459419">
        <ele>686.0</ele>
        <time>2019-02-23T07:31:28.802Z</time>
      </trkpt>
      <trkpt lat="40.635638" lon="-3.459362">
        <ele>686.6</ele>
        <time>2019-02-23T07:31:29.802Z</time>
      </trkpt>
      <trkpt lat="40.635657" lon="-3.459303">
        <ele>686.5</ele>
        <time>2019-02-23T07:31:30.802Z</time>
      </trkpt>
      <trkpt lat="40.635713" lon="-3.459124">
        <ele>687.0</ele>
        <time>2019-02-23T07:31:33.802Z</time>
      </trkpt>
      <trkpt lat="40.635733" lon="-3.459070">
        <ele>687.5</ele>
        <time>2019-02-23T07:31:34.802Z</time>
      </trkpt>
      <trkpt lat="40.635751" lon="-3.459016">
        <ele>687.9</ele>
        <time>2019-02-23T07:31:35.802Z</time>
      </trkpt>
      <trkpt lat="40.635767" lon="-3.458964">
        <ele>688.2</ele>
        <time>2019-02-23T07:31:36.802Z</time>
      </trkpt>
      <trkpt lat="40.635784" lon="-3.458913">
        <ele>688.5</ele>
        <time>2019-02-23T07:31:37.802Z</time>
      </trkpt>
      <trkpt lat="40.635821" lon="-3.458811">
        <ele>689.0</ele>
        <time>2019-02-23T07:31:39.802Z</time>
      </trkpt>
      <trkpt lat="40.635840" lon="-3.458763">
        <ele>689.4</ele>
        <time>2019-02-23T07:31:40.802Z</time>
      </trkpt>
      <trkpt lat="40.635857" lon="-3.458713">
        <ele>689.8</ele>
        <time>2019-02-23T07:31:41.802Z</time>
      </trkpt>
      <trkpt lat="40.635874" lon="-3.458660">
        <ele>690.5</ele>
        <time>2019-02-23T07:31:42.802Z</time>
      </trkpt>
      <trkpt lat="40.635892" lon="-3.458608">
        <ele>690.8</ele>
        <time>2019-02-23T07:31:43.802Z</time>
      </trkpt>
      <trkpt lat="40.635976" lon="-3.458351">
        <ele>691.1</ele>
        <time>2019-02-23T07:31:48.802Z</time>
      </trkpt>
      <trkpt lat="40.635992" lon="-3.458297">
        <ele>691.6</ele>
        <time>2019-02-23T07:31:49.802Z</time>
      </trkpt>
      <trkpt lat="40.636008" lon="-3.458244">
        <ele>692.0</ele>
        <time>2019-02-23T07:31:50.802Z</time>
      </trkpt>
      <trkpt lat="40.636024" lon="-3.458191">
        <ele>692.4</ele>
        <time>2019-02-23T07:31:51.802Z</time>
      </trkpt>
      <trkpt lat="40.636042" lon="-3.458137">
        <ele>692.8</ele>
        <time>2019-02-23T07:31:52.802Z</time>
      </trkpt>
      <trkpt lat="40.636077" lon="-3.458036">
        <ele>693.2</ele>
        <time>2019-02-23T07:31:54.802Z</time>
      </trkpt>
      <trkpt lat="40.636095" lon="-3.457988">
        <ele>693.6</ele>
        <time>2019-02-23T07:31:55.802Z</time>
      </trkpt>
      <trkpt lat="40.636113" lon="-3.457941">
        <ele>694.1</ele>
        <time>2019-02-23T07:31:56.802Z</time>
      </trkpt>
      <trkpt lat="40.636135" lon="-3.457893">
        <ele>694.4</ele>
        <time>2019-02-23T07:31:57.802Z</time>
      </trkpt>
      <trkpt lat="40.636151" lon="-3.457836">
        <ele>694.8</ele>
        <time>2019-02-23T07:31:58.802Z</time>
      </trkpt>
      <trkpt lat="40.636187" lon="-3.457721">
        <ele>695.5</ele>
        <time>2019-02-23T07:32:00.802Z</time>
      </trkpt>
      <trkpt lat="40.636205" lon="-3.457671">
        <ele>695.8</ele>
        <time>2019-02-23T07:32:01.802Z</time>
      </trkpt>
      <trkpt lat="40.636221" lon="-3.457623">
        <ele>696.1</ele>
        <time>2019-02-23T07:32:02.802Z</time>
      </trkpt>
      <trkpt lat="40.636238" lon="-3.457575">
        <ele>696.6</ele>
        <time>2019-02-23T07:32:03.802Z</time>
      </trkpt>
      <trkpt lat="40.636254" lon="-3.457525">
        <ele>697.1</ele>
        <time>2019-02-23T07:32:04.802Z</time>
      </trkpt>
      <trkpt lat="40.636358" lon="-3.457224">
        <ele>697.1</ele>
        <time>2019-02-23T07:32:10.802Z</time>
      </trkpt>
      <trkpt lat="40.636401" lon="-3.457114">
        <ele>697.5</ele>
        <time>2019-02-23T07:32:12.802Z</time>
      </trkpt>
      <trkpt lat="40.636421" lon="-3.457052">
        <ele>698.0</ele>
        <time>2019-02-23T07:32:13.802Z</time>
      </trkpt>
      <trkpt lat="40.636441" lon="-3.456992">
        <ele>698.4</ele>
        <time>2019-02-23T07:32:14.802Z</time>
      </trkpt>
      <trkpt lat="40.636466" lon="-3.456934">
        <ele>698.8</ele>
        <time>2019-02-23T07:32:15.802Z</time>
      </trkpt>
      <trkpt lat="40.636494" lon="-3.456883">
        <ele>699.1</ele>
        <time>2019-02-23T07:32:16.802Z</time>
      </trkpt>
      <trkpt lat="40.636553" lon="-3.456792">
        <ele>699.8</ele>
        <time>2019-02-23T07:32:18.802Z</time>
      </trkpt>
      <trkpt lat="40.636582" lon="-3.456748">
        <ele>700.1</ele>
        <time>2019-02-23T07:32:19.802Z</time>
      </trkpt>
      <trkpt lat="40.636612" lon="-3.456706">
        <ele>700.5</ele>
        <time>2019-02-23T07:32:20.802Z</time>
      </trkpt>
      <trkpt lat="40.636644" lon="-3.456662">
        <ele>701.2</ele>
        <time>2019-02-23T07:32:21.802Z</time>
      </trkpt>
      <trkpt lat="40.636675" lon="-3.456620">
        <ele>701.5</ele>
        <time>2019-02-23T07:32:22.802Z</time>
      </trkpt>
      <trkpt lat="40.636822" lon="-3.456448">
        <ele>702.1</ele>
        <time>2019-02-23T07:32:26.802Z</time>
      </trkpt>
      <trkpt lat="40.636862" lon="-3.456402">
        <ele>702.6</ele>
        <time>2019-02-23T07:32:27.802Z</time>
      </trkpt>
      <trkpt lat="40.636903" lon="-3.456354">
        <ele>703.1</ele>
        <time>2019-02-23T07:32:28.802Z</time>
      </trkpt>
      <trkpt lat="40.636943" lon="-3.456304">
        <ele>703.4</ele>
        <time>2019-02-23T07:32:29.802Z</time>
      </trkpt>
      <trkpt lat="40.636983" lon="-3.456253">
        <ele>704.1</ele>
        <time>2019-02-23T07:32:30.802Z</time>
      </trkpt>
      <trkpt lat="40.637262" lon="-3.455927">
        <ele>704.0</ele>
        <time>2019-02-23T07:32:36.802Z</time>
      </trkpt>
      <trkpt lat="40.637661" lon="-3.455419">
        <ele>704.0</ele>
        <time>2019-02-23T07:32:45.802Z</time>
      </trkpt>
      <trkpt lat="40.637706" lon="-3.455362">
        <ele>704.0</ele>
        <time>2019-02-23T07:32:46.802Z</time>
      </trkpt>
      <trkpt lat="40.637789" lon="-3.455228">
        <ele>704.1</ele>
        <time>2019-02-23T07:32:48.802Z</time>
      </trkpt>
      <trkpt lat="40.637881" lon="-3.454998">
        <ele>704.0</ele>
        <time>2019-02-23T07:32:51.802Z</time>
      </trkpt>
      <trkpt lat="40.637904" lon="-3.454919">
        <ele>704.1</ele>
        <time>2019-02-23T07:32:52.802Z</time>
      </trkpt>
      <trkpt lat="40.637983" lon="-3.454554">
        <ele>704.0</ele>
        <time>2019-02-23T07:32:57.802Z</time>
      </trkpt>
      <trkpt lat="40.638076" lon="-3.454178">
        <ele>704.0</ele>
        <time>2019-02-23T07:33:03.802Z</time>
      </trkpt>
      <trkpt lat="40.638121" lon="-3.454069">
        <ele>704.0</ele>
        <time>2019-02-23T07:33:05.802Z</time>
      </trkpt>
      <trkpt lat="40.638172" lon="-3.453960">
        <ele>704.4</ele>
        <time>2019-02-23T07:33:07.802Z</time>
      </trkpt>
      <trkpt lat="40.638199" lon="-3.453903">
        <ele>704.8</ele>
        <time>2019-02-23T07:33:08.802Z</time>
      </trkpt>
      <trkpt lat="40.638226" lon="-3.453848">
        <ele>705.2</ele>
        <time>2019-02-23T07:33:09.802Z</time>
      </trkpt>
      <trkpt lat="40.638252" lon="-3.453792">
        <ele>705.5</ele>
        <time>2019-02-23T07:33:10.802Z</time>
      </trkpt>
      <trkpt lat="40.638277" lon="-3.453734">
        <ele>706.1</ele>
        <time>2019-02-23T07:33:11.802Z</time>
      </trkpt>
      <trkpt lat="40.638321" lon="-3.453619">
        <ele>706.1</ele>
        <time>2019-02-23T07:33:13.802Z</time>
      </trkpt>
      <trkpt lat="40.638355" lon="-3.453501">
        <ele>706.6</ele>
        <time>2019-02-23T07:33:15.802Z</time>
      </trkpt>
      <trkpt lat="40.638372" lon="-3.453444">
        <ele>707.1</ele>
        <time>2019-02-23T07:33:16.802Z</time>
      </trkpt>
      <trkpt lat="40.638391" lon="-3.453392">
        <ele>707.5</ele>
        <time>2019-02-23T07:33:17.802Z</time>
      </trkpt>
      <trkpt lat="40.638412" lon="-3.453346">
        <ele>707.8</ele>
        <time>2019-02-23T07:33:18.802Z</time>
      </trkpt>
      <trkpt lat="40.638432" lon="-3.453300">
        <ele>708.2</ele>
        <time>2019-02-23T07:33:19.802Z</time>
      </trkpt>
      <trkpt lat="40.638451" lon="-3.453253">
        <ele>708.6</ele>
        <time>2019-02-23T07:33:20.802Z</time>
      </trkpt>
      <trkpt lat="40.638468" lon="-3.453210">
        <ele>709.0</ele>
        <time>2019-02-23T07:33:21.802Z</time>
      </trkpt>
      <trkpt lat="40.638486" lon="-3.453166">
        <ele>709.4</ele>
        <time>2019-02-23T07:33:22.802Z</time>
      </trkpt>
      <trkpt lat="40.638505" lon="-3.453122">
        <ele>709.9</ele>
        <time>2019-02-23T07:33:23.802Z</time>
      </trkpt>
      <trkpt lat="40.638523" lon="-3.453076">
        <ele>710.5</ele>
        <time>2019-02-23T07:33:24.802Z</time>
      </trkpt>
      <trkpt lat="40.638585" lon="-3.452897">
        <ele>710.8</ele>
        <time>2019-02-23T07:33:28.802Z</time>
      </trkpt>
      <trkpt lat="40.638604" lon="-3.452858">
        <ele>711.1</ele>
        <time>2019-02-23T07:33:29.802Z</time>
      </trkpt>
      <trkpt lat="40.638628" lon="-3.452828">
        <ele>711.6</ele>
        <time>2019-02-23T07:33:30.802Z</time>
      </trkpt>
      <trkpt lat="40.638651" lon="-3.452794">
        <ele>712.0</ele>
        <time>2019-02-23T07:33:31.802Z</time>
      </trkpt>
      <trkpt lat="40.638673" lon="-3.452746">
        <ele>712.5</ele>
        <time>2019-02-23T07:33:32.802Z</time>
      </trkpt>
      <trkpt lat="40.638726" lon="-3.452669">
        <ele>712.8</ele>
        <time>2019-02-23T07:33:34.802Z</time>
      </trkpt>
      <trkpt lat="40.638753" lon="-3.452634">
        <ele>713.1</ele>
        <time>2019-02-23T07:33:35.802Z</time>
      </trkpt>
      <trkpt lat="40.638780" lon="-3.452597">
        <ele>713.5</ele>
        <time>2019-02-23T07:33:36.802Z</time>
      </trkpt>
      <trkpt lat="40.638813" lon="-3.452562">
        <ele>714.2</ele>
        <time>2019-02-23T07:33:37.802Z</time>
      </trkpt>
      <trkpt lat="40.638849" lon="-3.452530">
        <ele>714.6</ele>
        <time>2019-02-23T07:33:38.802Z</time>
      </trkpt>
      <trkpt lat="40.638933" lon="-3.452471">
        <ele>714.6</ele>
        <time>2019-02-23T07:33:40.802Z</time>
      </trkpt>
      <trkpt lat="40.639235" lon="-3.452349">
        <ele>714.6</ele>
        <time>2019-02-23T07:33:46.802Z</time>
      </trkpt>
      <trkpt lat="40.639619" lon="-3.452259">
        <ele>714.0</ele>
        <time>2019-02-23T07:33:52.802Z</time>
      </trkpt>
      <trkpt lat="40.639693" lon="-3.452243">
        <ele>713.5</ele>
        <time>2019-02-23T07:33:53.802Z</time>
      </trkpt>
      <trkpt lat="40.639767" lon="-3.452227">
        <ele>713.2</ele>
        <time>2019-02-23T07:33:54.802Z</time>
      </trkpt>
      <trkpt lat="40.639844" lon="-3.452211">
        <ele>712.9</ele>
        <time>2019-02-23T07:33:55.802Z</time>
      </trkpt>
      <trkpt lat="40.639926" lon="-3.452196">
        <ele>712.5</ele>
        <time>2019-02-23T07:33:56.802Z</time>
      </trkpt>
      <trkpt lat="40.640183" lon="-3.452152">
        <ele>711.9</ele>
        <time>2019-02-23T07:33:59.802Z</time>
      </trkpt>
      <trkpt lat="40.640270" lon="-3.452135">
        <ele>711.5</ele>
        <time>2019-02-23T07:34:00.802Z</time>
      </trkpt>
      <trkpt lat="40.640453" lon="-3.452103">
        <ele>710.4</ele>
        <time>2019-02-23T07:34:02.802Z</time>
      </trkpt>
      <trkpt lat="40.640543" lon="-3.452089">
        <ele>709.8</ele>
        <time>2019-02-23T07:34:03.802Z</time>
      </trkpt>
      <trkpt lat="40.640903" lon="-3.452025">
        <ele>709.9</ele>
        <time>2019-02-23T07:34:07.802Z</time>
      </trkpt>
      <trkpt lat="40.641465" lon="-3.451928">
        <ele>710.2</ele>
        <time>2019-02-23T07:34:14.802Z</time>
      </trkpt>
      <trkpt lat="40.641533" lon="-3.451918">
        <ele>710.8</ele>
        <time>2019-02-23T07:34:15.802Z</time>
      </trkpt>
      <trkpt lat="40.641594" lon="-3.451908">
        <ele>711.1</ele>
        <time>2019-02-23T07:34:16.802Z</time>
      </trkpt>
      <trkpt lat="40.641715" lon="-3.451891">
        <ele>712.1</ele>
        <time>2019-02-23T07:34:18.802Z</time>
      </trkpt>
      <trkpt lat="40.641774" lon="-3.451880">
        <ele>712.2</ele>
        <time>2019-02-23T07:34:19.802Z</time>
      </trkpt>
      <trkpt lat="40.642080" lon="-3.451806">
        <ele>712.6</ele>
        <time>2019-02-23T07:34:24.802Z</time>
      </trkpt>
      <trkpt lat="40.642144" lon="-3.451773">
        <ele>713.5</ele>
        <time>2019-02-23T07:34:25.802Z</time>
      </trkpt>
      <trkpt lat="40.642203" lon="-3.451736">
        <ele>713.5</ele>
        <time>2019-02-23T07:34:26.802Z</time>
      </trkpt>
      <trkpt lat="40.642265" lon="-3.451693">
        <ele>713.9</ele>
        <time>2019-02-23T07:34:27.802Z</time>
      </trkpt>
      <trkpt lat="40.642321" lon="-3.451647">
        <ele>714.2</ele>
        <time>2019-02-23T07:34:28.802Z</time>
      </trkpt>
      <trkpt lat="40.642598" lon="-3.451420">
        <ele>714.2</ele>
        <time>2019-02-23T07:34:33.802Z</time>
      </trkpt>
      <trkpt lat="40.643083" lon="-3.451006">
        <ele>714.6</ele>
        <time>2019-02-23T07:34:42.802Z</time>
      </trkpt>
      <trkpt lat="40.643138" lon="-3.450959">
        <ele>715.2</ele>
        <time>2019-02-23T07:34:43.802Z</time>
      </trkpt>
      <trkpt lat="40.643193" lon="-3.450913">
        <ele>715.6</ele>
        <time>2019-02-23T07:34:44.802Z</time>
      </trkpt>
      <trkpt lat="40.643252" lon="-3.450861">
        <ele>716.0</ele>
        <time>2019-02-23T07:34:45.802Z</time>
      </trkpt>
      <trkpt lat="40.643306" lon="-3.450813">
        <ele>716.4</ele>
        <time>2019-02-23T07:34:46.802Z</time>
      </trkpt>
      <trkpt lat="40.643761" lon="-3.450425">
        <ele>716.4</ele>
        <time>2019-02-23T07:34:54.802Z</time>
      </trkpt>
      <trkpt lat="40.643939" lon="-3.450273">
        <ele>716.5</ele>
        <time>2019-02-23T07:34:57.802Z</time>
      </trkpt>
      <trkpt lat="40.644361" lon="-3.449923">
        <ele>716.4</ele>
        <time>2019-02-23T07:35:05.802Z</time>
      </trkpt>
      <trkpt lat="40.644402" lon="-3.449889">
        <ele>716.9</ele>
        <time>2019-02-23T07:35:06.802Z</time>
      </trkpt>
      <trkpt lat="40.644440" lon="-3.449854">
        <ele>717.1</ele>
        <time>2019-02-23T07:35:07.802Z</time>
      </trkpt>
      <trkpt lat="40.644476" lon="-3.449823">
        <ele>717.5</ele>
        <time>2019-02-23T07:35:08.802Z</time>
      </trkpt>
      <trkpt lat="40.644515" lon="-3.449789">
        <ele>718.1</ele>
        <time>2019-02-23T07:35:09.802Z</time>
      </trkpt>
      <trkpt lat="40.644554" lon="-3.449754">
        <ele>718.5</ele>
        <time>2019-02-23T07:35:10.802Z</time>
      </trkpt>
      <trkpt lat="40.644674" lon="-3.449654">
        <ele>719.0</ele>
        <time>2019-02-23T07:35:13.802Z</time>
      </trkpt>
      <trkpt lat="40.644715" lon="-3.449619">
        <ele>719.4</ele>
        <time>2019-02-23T07:35:14.802Z</time>
      </trkpt>
      <trkpt lat="40.644758" lon="-3.449585">
        <ele>719.8</ele>
        <time>2019-02-23T07:35:15.802Z</time>
      </trkpt>
      <trkpt lat="40.644804" lon="-3.449547">
        <ele>720.1</ele>
        <time>2019-02-23T07:35:16.802Z</time>
      </trkpt>
      <trkpt lat="40.644851" lon="-3.449507">
        <ele>720.5</ele>
        <time>2019-02-23T07:35:17.802Z</time>
      </trkpt>
      <trkpt lat="40.645007" lon="-3.449388">
        <ele>720.5</ele>
        <time>2019-02-23T07:35:20.802Z</time>
      </trkpt>
      <trkpt lat="40.645466" lon="-3.448972">
        <ele>720.6</ele>
        <time>2019-02-23T07:35:29.802Z</time>
      </trkpt>
      <trkpt lat="40.645502" lon="-3.448916">
        <ele>720.6</ele>
        <time>2019-02-23T07:35:30.802Z</time>
      </trkpt>
      <trkpt lat="40.645590" lon="-3.448643">
        <ele>720.6</ele>
        <time>2019-02-23T07:35:34.802Z</time>
      </trkpt>
      <trkpt lat="40.645597" lon="-3.448572">
        <ele>721.0</ele>
        <time>2019-02-23T07:35:35.802Z</time>
      </trkpt>
      <trkpt lat="40.645599" lon="-3.448496">
        <ele>721.5</ele>
        <time>2019-02-23T07:35:36.802Z</time>
      </trkpt>
      <trkpt lat="40.645597" lon="-3.448415">
        <ele>721.9</ele>
        <time>2019-02-23T07:35:37.802Z</time>
      </trkpt>
      <trkpt lat="40.645592" lon="-3.448338">
        <ele>722.1</ele>
        <time>2019-02-23T07:35:38.802Z</time>
      </trkpt>
      <trkpt lat="40.645587" lon="-3.448254">
        <ele>722.5</ele>
        <time>2019-02-23T07:35:39.802Z</time>
      </trkpt>
      <trkpt lat="40.645565" lon="-3.447543">
        <ele>722.5</ele>
        <time>2019-02-23T07:35:47.802Z</time>
      </trkpt>
      <trkpt lat="40.645561" lon="-3.447451">
        <ele>722.5</ele>
        <time>2019-02-23T07:35:48.802Z</time>
      </trkpt>
      <trkpt lat="40.645526" lon="-3.446728">
        <ele>722.6</ele>
        <time>2019-02-23T07:35:56.802Z</time>
      </trkpt>
      <trkpt lat="40.645519" lon="-3.446567">
        <ele>722.6</ele>
        <time>2019-02-23T07:35:58.802Z</time>
      </trkpt>
      <trkpt lat="40.645509" lon="-3.446285">
        <ele>723.0</ele>
        <time>2019-02-23T07:36:02.802Z</time>
      </trkpt>
      <trkpt lat="40.645505" lon="-3.446218">
        <ele>723.4</ele>
        <time>2019-02-23T07:36:03.802Z</time>
      </trkpt>
      <trkpt lat="40.645502" lon="-3.446154">
        <ele>724.1</ele>
        <time>2019-02-23T07:36:04.802Z</time>
      </trkpt>
      <trkpt lat="40.645500" lon="-3.446090">
        <ele>724.5</ele>
        <time>2019-02-23T07:36:05.802Z</time>
      </trkpt>
      <trkpt lat="40.645497" lon="-3.446027">
        <ele>724.9</ele>
        <time>2019-02-23T07:36:06.802Z</time>
      </trkpt>
      <trkpt lat="40.645512" lon="-3.445763">
        <ele>724.9</ele>
        <time>2019-02-23T07:36:10.802Z</time>
      </trkpt>
      <trkpt lat="40.645548" lon="-3.445626">
        <ele>724.8</ele>
        <time>2019-02-23T07:36:12.802Z</time>
      </trkpt>
      <trkpt lat="40.645653" lon="-3.445391">
        <ele>724.9</ele>
        <time>2019-02-23T07:36:15.802Z</time>
      </trkpt>
      <trkpt lat="40.645698" lon="-3.445312">
        <ele>724.8</ele>
        <time>2019-02-23T07:36:16.802Z</time>
      </trkpt>
      <trkpt lat="40.646046" lon="-3.444718">
        <ele>724.8</ele>
        <time>2019-02-23T07:36:23.802Z</time>
      </trkpt>
      <trkpt lat="40.646093" lon="-3.444636">
        <ele>724.9</ele>
        <time>2019-02-23T07:36:24.802Z</time>
      </trkpt>
      <trkpt lat="40.646446" lon="-3.444040">
        <ele>724.9</ele>
        <time>2019-02-23T07:36:32.802Z</time>
      </trkpt>
      <trkpt lat="40.646804" lon="-3.443428">
        <ele>724.9</ele>
        <time>2019-02-23T07:36:40.802Z</time>
      </trkpt>
      <trkpt lat="40.647137" lon="-3.442869">
        <ele>724.8</ele>
        <time>2019-02-23T07:36:47.802Z</time>
      </trkpt>
      <trkpt lat="40.647313" lon="-3.442566">
        <ele>724.9</ele>
        <time>2019-02-23T07:36:51.802Z</time>
      </trkpt>
      <trkpt lat="40.647494" lon="-3.442243">
        <ele>725.1</ele>
        <time>2019-02-23T07:36:56.802Z</time>
      </trkpt>
      <trkpt lat="40.647525" lon="-3.442189">
        <ele>725.5</ele>
        <time>2019-02-23T07:36:57.802Z</time>
      </trkpt>
      <trkpt lat="40.647561" lon="-3.442129">
        <ele>726.0</ele>
        <time>2019-02-23T07:36:58.802Z</time>
      </trkpt>
      <trkpt lat="40.647595" lon="-3.442071">
        <ele>726.5</ele>
        <time>2019-02-23T07:36:59.802Z</time>
      </trkpt>
      <trkpt lat="40.647631" lon="-3.442012">
        <ele>726.9</ele>
        <time>2019-02-23T07:37:00.802Z</time>
      </trkpt>
      <trkpt lat="40.647832" lon="-3.441705">
        <ele>726.8</ele>
        <time>2019-02-23T07:37:05.802Z</time>
      </trkpt>
      <trkpt lat="40.647933" lon="-3.441609">
        <ele>726.8</ele>
        <time>2019-02-23T07:37:07.802Z</time>
      </trkpt>
      <trkpt lat="40.648053" lon="-3.441544">
        <ele>726.9</ele>
        <time>2019-02-23T07:37:09.802Z</time>
      </trkpt>
      <trkpt lat="40.648178" lon="-3.441499">
        <ele>726.8</ele>
        <time>2019-02-23T07:37:11.802Z</time>
      </trkpt>
      <trkpt lat="40.648435" lon="-3.441442">
        <ele>727.5</ele>
        <time>2019-02-23T07:37:15.802Z</time>
      </trkpt>
      <trkpt lat="40.648494" lon="-3.441429">
        <ele>727.9</ele>
        <time>2019-02-23T07:37:16.802Z</time>
      </trkpt>
      <trkpt lat="40.648557" lon="-3.441413">
        <ele>728.1</ele>
        <time>2019-02-23T07:37:17.802Z</time>
      </trkpt>
      <trkpt lat="40.648617" lon="-3.441398">
        <ele>728.8</ele>
        <time>2019-02-23T07:37:18.802Z</time>
      </trkpt>
      <trkpt lat="40.648680" lon="-3.441381">
        <ele>729.1</ele>
        <time>2019-02-23T07:37:19.802Z</time>
      </trkpt>
      <trkpt lat="40.649075" lon="-3.441278">
        <ele>729.1</ele>
        <time>2019-02-23T07:37:25.802Z</time>
      </trkpt>
      <trkpt lat="40.649626" lon="-3.441126">
        <ele>729.2</ele>
        <time>2019-02-23T07:37:34.802Z</time>
      </trkpt>
      <trkpt lat="40.649679" lon="-3.441092">
        <ele>729.5</ele>
        <time>2019-02-23T07:37:35.802Z</time>
      </trkpt>
      <trkpt lat="40.649732" lon="-3.441058">
        <ele>730.1</ele>
        <time>2019-02-23T07:37:36.802Z</time>
      </trkpt>
      <trkpt lat="40.649783" lon="-3.441022">
        <ele>730.5</ele>
        <time>2019-02-23T07:37:37.802Z</time>
      </trkpt>
      <trkpt lat="40.649834" lon="-3.440983">
        <ele>731.0</ele>
        <time>2019-02-23T07:37:38.802Z</time>
      </trkpt>
      <trkpt lat="40.649879" lon="-3.440942">
        <ele>731.5</ele>
        <time>2019-02-23T07:37:39.802Z</time>
      </trkpt>
      <trkpt lat="40.650015" lon="-3.440808">
        <ele>731.5</ele>
        <time>2019-02-23T07:37:42.802Z</time>
      </trkpt>
      <trkpt lat="40.650152" lon="-3.440668">
        <ele>732.1</ele>
        <time>2019-02-23T07:37:45.802Z</time>
      </trkpt>
      <trkpt lat="40.650197" lon="-3.440621">
        <ele>732.5</ele>
        <time>2019-02-23T07:37:46.802Z</time>
      </trkpt>
      <trkpt lat="40.650242" lon="-3.440575">
        <ele>732.8</ele>
        <time>2019-02-23T07:37:47.802Z</time>
      </trkpt>
      <trkpt lat="40.650288" lon="-3.440529">
        <ele>733.5</ele>
        <time>2019-02-23T07:37:48.802Z</time>
      </trkpt>
      <trkpt lat="40.650337" lon="-3.440482">
        <ele>733.9</ele>
        <time>2019-02-23T07:37:49.802Z</time>
      </trkpt>
      <trkpt lat="40.650471" lon="-3.440346">
        <ele>733.8</ele>
        <time>2019-02-23T07:37:52.802Z</time>
      </trkpt>
      <trkpt lat="40.650679" lon="-3.440124">
        <ele>734.2</ele>
        <time>2019-02-23T07:37:57.802Z</time>
      </trkpt>
      <trkpt lat="40.650719" lon="-3.440083">
        <ele>734.5</ele>
        <time>2019-02-23T07:37:58.802Z</time>
      </trkpt>
      <trkpt lat="40.650758" lon="-3.440044">
        <ele>735.0</ele>
        <time>2019-02-23T07:37:59.802Z</time>
      </trkpt>
      <trkpt lat="40.650797" lon="-3.440004">
        <ele>735.4</ele>
        <time>2019-02-23T07:38:00.802Z</time>
      </trkpt>
      <trkpt lat="40.650836" lon="-3.439962">
        <ele>735.8</ele>
        <time>2019-02-23T07:38:01.802Z</time>
      </trkpt>
      <trkpt lat="40.651018" lon="-3.439750">
        <ele>735.8</ele>
        <time>2019-02-23T07:38:06.802Z</time>
      </trkpt>
      <trkpt lat="40.651092" lon="-3.439654">
        <ele>736.4</ele>
        <time>2019-02-23T07:38:08.802Z</time>
      </trkpt>
      <trkpt lat="40.651172" lon="-3.439567">
        <ele>737.1</ele>
        <time>2019-02-23T07:38:10.802Z</time>
      </trkpt>
      <trkpt lat="40.651210" lon="-3.439523">
        <ele>737.6</ele>
        <time>2019-02-23T07:38:11.802Z</time>
      </trkpt>
      <trkpt lat="40.651250" lon="-3.439477">
        <ele>738.1</ele>
        <time>2019-02-23T07:38:12.802Z</time>
      </trkpt>
      <trkpt lat="40.651333" lon="-3.439376">
        <ele>738.1</ele>
        <time>2019-02-23T07:38:14.802Z</time>
      </trkpt>
      <trkpt lat="40.651592" lon="-3.439083">
        <ele>738.5</ele>
        <time>2019-02-23T07:38:20.802Z</time>
      </trkpt>
      <trkpt lat="40.651638" lon="-3.439031">
        <ele>738.8</ele>
        <time>2019-02-23T07:38:21.802Z</time>
      </trkpt>
      <trkpt lat="40.651687" lon="-3.438976">
        <ele>739.4</ele>
        <time>2019-02-23T07:38:22.802Z</time>
      </trkpt>
      <trkpt lat="40.651735" lon="-3.438919">
        <ele>739.8</ele>
        <time>2019-02-23T07:38:23.802Z</time>
      </trkpt>
      <trkpt lat="40.651783" lon="-3.438861">
        <ele>740.1</ele>
        <time>2019-02-23T07:38:24.802Z</time>
      </trkpt>
      <trkpt lat="40.652044" lon="-3.438561">
        <ele>740.2</ele>
        <time>2019-02-23T07:38:29.802Z</time>
      </trkpt>
      <trkpt lat="40.652294" lon="-3.438277">
        <ele>740.1</ele>
        <time>2019-02-23T07:38:34.802Z</time>
      </trkpt>
      <trkpt lat="40.652523" lon="-3.438011">
        <ele>740.1</ele>
        <time>2019-02-23T07:38:39.802Z</time>
      </trkpt>
      <trkpt lat="40.652968" lon="-3.437491">
        <ele>740.1</ele>
        <time>2019-02-23T07:38:49.802Z</time>
      </trkpt>
      <trkpt lat="40.653057" lon="-3.437388">
        <ele>740.5</ele>
        <time>2019-02-23T07:38:51.802Z</time>
      </trkpt>
      <trkpt lat="40.653100" lon="-3.437337">
        <ele>741.1</ele>
        <time>2019-02-23T07:38:52.802Z</time>
      </trkpt>
      <trkpt lat="40.653143" lon="-3.437288">
        <ele>741.5</ele>
        <time>2019-02-23T07:38:53.802Z</time>
      </trkpt>
      <trkpt lat="40.653183" lon="-3.437240">
        <ele>741.9</ele>
        <time>2019-02-23T07:38:54.802Z</time>
      </trkpt>
      <trkpt lat="40.653222" lon="-3.437194">
        <ele>742.1</ele>
        <time>2019-02-23T07:38:55.802Z</time>
      </trkpt>
      <trkpt lat="40.653406" lon="-3.436983">
        <ele>742.8</ele>
        <time>2019-02-23T07:39:00.802Z</time>
      </trkpt>
      <trkpt lat="40.653445" lon="-3.436938">
        <ele>743.1</ele>
        <time>2019-02-23T07:39:01.802Z</time>
      </trkpt>
      <trkpt lat="40.653484" lon="-3.436893">
        <ele>743.5</ele>
        <time>2019-02-23T07:39:02.802Z</time>
      </trkpt>
      <trkpt lat="40.653523" lon="-3.436845">
        <ele>744.0</ele>
        <time>2019-02-23T07:39:03.802Z</time>
      </trkpt>
      <trkpt lat="40.653561" lon="-3.436799">
        <ele>744.5</ele>
        <time>2019-02-23T07:39:04.802Z</time>
      </trkpt>
      <trkpt lat="40.653923" lon="-3.436379">
        <ele>744.8</ele>
        <time>2019-02-23T07:39:13.802Z</time>
      </trkpt>
      <trkpt lat="40.653964" lon="-3.436331">
        <ele>745.5</ele>
        <time>2019-02-23T07:39:14.802Z</time>
      </trkpt>
      <trkpt lat="40.654004" lon="-3.436286">
        <ele>745.9</ele>
        <time>2019-02-23T07:39:15.802Z</time>
      </trkpt>
      <trkpt lat="40.654045" lon="-3.436240">
        <ele>746.1</ele>
        <time>2019-02-23T07:39:16.802Z</time>
      </trkpt>
      <trkpt lat="40.654084" lon="-3.436194">
        <ele>746.6</ele>
        <time>2019-02-23T07:39:17.802Z</time>
      </trkpt>
      <trkpt lat="40.654122" lon="-3.436150">
        <ele>746.6</ele>
        <time>2019-02-23T07:39:18.802Z</time>
      </trkpt>
      <trkpt lat="40.654368" lon="-3.435863">
        <ele>746.6</ele>
        <time>2019-02-23T07:39:24.802Z</time>
      </trkpt>
      <trkpt lat="40.654524" lon="-3.435682">
        <ele>747.1</ele>
        <time>2019-02-23T07:39:28.802Z</time>
      </trkpt>
      <trkpt lat="40.654562" lon="-3.435636">
        <ele>747.5</ele>
        <time>2019-02-23T07:39:29.802Z</time>
      </trkpt>
      <trkpt lat="40.654603" lon="-3.435590">
        <ele>748.1</ele>
        <time>2019-02-23T07:39:30.802Z</time>
      </trkpt>
      <trkpt lat="40.654640" lon="-3.435544">
        <ele>748.6</ele>
        <time>2019-02-23T07:39:31.802Z</time>
      </trkpt>
      <trkpt lat="40.654684" lon="-3.435495">
        <ele>749.0</ele>
        <time>2019-02-23T07:39:32.802Z</time>
      </trkpt>
      <trkpt lat="40.654809" lon="-3.435348">
        <ele>749.0</ele>
        <time>2019-02-23T07:39:35.802Z</time>
      </trkpt>
      <trkpt lat="40.654852" lon="-3.435298">
        <ele>749.5</ele>
        <time>2019-02-23T07:39:36.802Z</time>
      </trkpt>
      <trkpt lat="40.654896" lon="-3.435248">
        <ele>749.9</ele>
        <time>2019-02-23T07:39:37.802Z</time>
      </trkpt>
      <trkpt lat="40.654938" lon="-3.435197">
        <ele>750.2</ele>
        <time>2019-02-23T07:39:38.802Z</time>
      </trkpt>
      <trkpt lat="40.654980" lon="-3.435148">
        <ele>750.6</ele>
        <time>2019-02-23T07:39:39.802Z</time>
      </trkpt>
      <trkpt lat="40.655024" lon="-3.435098">
        <ele>751.1</ele>
        <time>2019-02-23T07:39:40.802Z</time>
      </trkpt>
      <trkpt lat="40.655268" lon="-3.434811">
        <ele>751.0</ele>
        <time>2019-02-23T07:39:46.802Z</time>
      </trkpt>
      <trkpt lat="40.655600" lon="-3.434422">
        <ele>751.5</ele>
        <time>2019-02-23T07:39:54.802Z</time>
      </trkpt>
      <trkpt lat="40.655642" lon="-3.434374">
        <ele>752.1</ele>
        <time>2019-02-23T07:39:55.802Z</time>
      </trkpt>
      <trkpt lat="40.655684" lon="-3.434327">
        <ele>752.6</ele>
        <time>2019-02-23T07:39:56.802Z</time>
      </trkpt>
      <trkpt lat="40.655725" lon="-3.434281">
        <ele>753.1</ele>
        <time>2019-02-23T07:39:57.802Z</time>
      </trkpt>
      <trkpt lat="40.655768" lon="-3.434234">
        <ele>753.8</ele>
        <time>2019-02-23T07:39:58.802Z</time>
      </trkpt>
      <trkpt lat="40.655810" lon="-3.434188">
        <ele>753.9</ele>
        <time>2019-02-23T07:39:59.802Z</time>
      </trkpt>
      <trkpt lat="40.656194" lon="-3.433739">
        <ele>753.8</ele>
        <time>2019-02-23T07:40:09.802Z</time>
      </trkpt>
      <trkpt lat="40.656349" lon="-3.433562">
        <ele>754.2</ele>
        <time>2019-02-23T07:40:13.802Z</time>
      </trkpt>
      <trkpt lat="40.656388" lon="-3.433516">
        <ele>754.5</ele>
        <time>2019-02-23T07:40:14.802Z</time>
      </trkpt>
      <trkpt lat="40.656428" lon="-3.433470">
        <ele>755.1</ele>
        <time>2019-02-23T07:40:15.802Z</time>
      </trkpt>
      <trkpt lat="40.656469" lon="-3.433420">
        <ele>755.4</ele>
        <time>2019-02-23T07:40:16.802Z</time>
      </trkpt>
      <trkpt lat="40.656509" lon="-3.433370">
        <ele>755.9</ele>
        <time>2019-02-23T07:40:17.802Z</time>
      </trkpt>
      <trkpt lat="40.656716" lon="-3.433118">
        <ele>755.8</ele>
        <time>2019-02-23T07:40:22.802Z</time>
      </trkpt>
      <trkpt lat="40.656869" lon="-3.432935">
        <ele>756.1</ele>
        <time>2019-02-23T07:40:26.802Z</time>
      </trkpt>
      <trkpt lat="40.656902" lon="-3.432898">
        <ele>756.8</ele>
        <time>2019-02-23T07:40:27.802Z</time>
      </trkpt>
      <trkpt lat="40.656932" lon="-3.432861">
        <ele>757.2</ele>
        <time>2019-02-23T07:40:28.802Z</time>
      </trkpt>
      <trkpt lat="40.656960" lon="-3.432825">
        <ele>757.9</ele>
        <time>2019-02-23T07:40:29.802Z</time>
      </trkpt>
      <trkpt lat="40.656990" lon="-3.432795">
        <ele>758.2</ele>
        <time>2019-02-23T07:40:30.802Z</time>
      </trkpt>
      <trkpt lat="40.657083" lon="-3.432697">
        <ele>758.6</ele>
        <time>2019-02-23T07:40:33.802Z</time>
      </trkpt>
      <trkpt lat="40.657116" lon="-3.432657">
        <ele>759.0</ele>
        <time>2019-02-23T07:40:34.802Z</time>
      </trkpt>
      <trkpt lat="40.657146" lon="-3.432615">
        <ele>759.4</ele>
        <time>2019-02-23T07:40:35.802Z</time>
      </trkpt>
      <trkpt lat="40.657176" lon="-3.432574">
        <ele>760.1</ele>
        <time>2019-02-23T07:40:36.802Z</time>
      </trkpt>
      <trkpt lat="40.657207" lon="-3.432536">
        <ele>760.4</ele>
        <time>2019-02-23T07:40:37.802Z</time>
      </trkpt>
      <trkpt lat="40.657243" lon="-3.432499">
        <ele>760.5</ele>
        <time>2019-02-23T07:40:38.802Z</time>
      </trkpt>
      <trkpt lat="40.657274" lon="-3.432454">
        <ele>760.8</ele>
        <time>2019-02-23T07:40:39.802Z</time>
      </trkpt>
      <trkpt lat="40.657305" lon="-3.432410">
        <ele>761.1</ele>
        <time>2019-02-23T07:40:40.802Z</time>
      </trkpt>
      <trkpt lat="40.657336" lon="-3.432364">
        <ele>761.6</ele>
        <time>2019-02-23T07:40:41.802Z</time>
      </trkpt>
      <trkpt lat="40.657366" lon="-3.432323">
        <ele>762.0</ele>
        <time>2019-02-23T07:40:42.802Z</time>
      </trkpt>
      <trkpt lat="40.657402" lon="-3.432286">
        <ele>762.6</ele>
        <time>2019-02-23T07:40:43.802Z</time>
      </trkpt>
      <trkpt lat="40.657436" lon="-3.432253">
        <ele>762.5</ele>
        <time>2019-02-23T07:40:44.802Z</time>
      </trkpt>
      <trkpt lat="40.657533" lon="-3.432153">
        <ele>763.1</ele>
        <time>2019-02-23T07:40:47.802Z</time>
      </trkpt>
      <trkpt lat="40.657563" lon="-3.432110">
        <ele>763.5</ele>
        <time>2019-02-23T07:40:48.802Z</time>
      </trkpt>
      <trkpt lat="40.657594" lon="-3.432070">
        <ele>763.8</ele>
        <time>2019-02-23T07:40:49.802Z</time>
      </trkpt>
      <trkpt lat="40.657623" lon="-3.432032">
        <ele>764.5</ele>
        <time>2019-02-23T07:40:50.802Z</time>
      </trkpt>
      <trkpt lat="40.657653" lon="-3.431993">
        <ele>764.8</ele>
        <time>2019-02-23T07:40:51.802Z</time>
      </trkpt>
      <trkpt lat="40.657716" lon="-3.431916">
        <ele>764.8</ele>
        <time>2019-02-23T07:40:53.802Z</time>
      </trkpt>
      <trkpt lat="40.657750" lon="-3.431878">
        <ele>765.1</ele>
        <time>2019-02-23T07:40:54.802Z</time>
      </trkpt>
      <trkpt lat="40.657786" lon="-3.431838">
        <ele>765.5</ele>
        <time>2019-02-23T07:40:55.802Z</time>
      </trkpt>
      <trkpt lat="40.657820" lon="-3.431801">
        <ele>766.0</ele>
        <time>2019-02-23T07:40:56.802Z</time>
      </trkpt>
      <trkpt lat="40.657859" lon="-3.431760">
        <ele>766.5</ele>
        <time>2019-02-23T07:40:57.802Z</time>
      </trkpt>
      <trkpt lat="40.657891" lon="-3.431723">
        <ele>766.9</ele>
        <time>2019-02-23T07:40:58.802Z</time>
      </trkpt>
      <trkpt lat="40.657957" lon="-3.431656">
        <ele>767.2</ele>
        <time>2019-02-23T07:41:00.802Z</time>
      </trkpt>
      <trkpt lat="40.657993" lon="-3.431622">
        <ele>767.9</ele>
        <time>2019-02-23T07:41:01.802Z</time>
      </trkpt>
      <trkpt lat="40.658027" lon="-3.431583">
        <ele>768.2</ele>
        <time>2019-02-23T07:41:02.802Z</time>
      </trkpt>
      <trkpt lat="40.658057" lon="-3.431552">
        <ele>768.6</ele>
        <time>2019-02-23T07:41:03.802Z</time>
      </trkpt>
      <trkpt lat="40.658088" lon="-3.431519">
        <ele>769.0</ele>
        <time>2019-02-23T07:41:04.802Z</time>
      </trkpt>
      <trkpt lat="40.658151" lon="-3.431455">
        <ele>769.0</ele>
        <time>2019-02-23T07:41:06.802Z</time>
      </trkpt>
      <trkpt lat="40.658243" lon="-3.431353">
        <ele>769.4</ele>
        <time>2019-02-23T07:41:09.802Z</time>
      </trkpt>
      <trkpt lat="40.658275" lon="-3.431318">
        <ele>770.0</ele>
        <time>2019-02-23T07:41:10.802Z</time>
      </trkpt>
      <trkpt lat="40.658309" lon="-3.431282">
        <ele>770.4</ele>
        <time>2019-02-23T07:41:11.802Z</time>
      </trkpt>
      <trkpt lat="40.658340" lon="-3.431244">
        <ele>770.8</ele>
        <time>2019-02-23T07:41:12.802Z</time>
      </trkpt>
      <trkpt lat="40.658373" lon="-3.431206">
        <ele>771.2</ele>
        <time>2019-02-23T07:41:13.802Z</time>
      </trkpt>
      <trkpt lat="40.658409" lon="-3.431171">
        <ele>771.2</ele>
        <time>2019-02-23T07:41:14.802Z</time>
      </trkpt>
      <trkpt lat="40.658477" lon="-3.431103">
        <ele>771.6</ele>
        <time>2019-02-23T07:41:16.802Z</time>
      </trkpt>
      <trkpt lat="40.658512" lon="-3.431070">
        <ele>772.1</ele>
        <time>2019-02-23T07:41:17.802Z</time>
      </trkpt>
      <trkpt lat="40.658547" lon="-3.431036">
        <ele>772.5</ele>
        <time>2019-02-23T07:41:18.802Z</time>
      </trkpt>
      <trkpt lat="40.658583" lon="-3.431004">
        <ele>772.8</ele>
        <time>2019-02-23T07:41:19.802Z</time>
      </trkpt>
      <trkpt lat="40.658621" lon="-3.430970">
        <ele>773.2</ele>
        <time>2019-02-23T07:41:20.802Z</time>
      </trkpt>
      <trkpt lat="40.658699" lon="-3.430905">
        <ele>773.2</ele>
        <time>2019-02-23T07:41:22.802Z</time>
      </trkpt>
      <trkpt lat="40.659054" lon="-3.430639">
        <ele>773.5</ele>
        <time>2019-02-23T07:41:30.802Z</time>
      </trkpt>
      <trkpt lat="40.659096" lon="-3.430607">
        <ele>774.0</ele>
        <time>2019-02-23T07:41:31.802Z</time>
      </trkpt>
      <trkpt lat="40.659132" lon="-3.430578">
        <ele>774.4</ele>
        <time>2019-02-23T07:41:32.802Z</time>
      </trkpt>
      <trkpt lat="40.659173" lon="-3.430551">
        <ele>775.1</ele>
        <time>2019-02-23T07:41:33.802Z</time>
      </trkpt>
      <trkpt lat="40.659210" lon="-3.430525">
        <ele>775.5</ele>
        <time>2019-02-23T07:41:34.802Z</time>
      </trkpt>
      <trkpt lat="40.659318" lon="-3.430450">
        <ele>775.8</ele>
        <time>2019-02-23T07:41:37.802Z</time>
      </trkpt>
      <trkpt lat="40.659358" lon="-3.430423">
        <ele>776.1</ele>
        <time>2019-02-23T07:41:38.802Z</time>
      </trkpt>
      <trkpt lat="40.659398" lon="-3.430394">
        <ele>776.5</ele>
        <time>2019-02-23T07:41:39.802Z</time>
      </trkpt>
      <trkpt lat="40.659434" lon="-3.430365">
        <ele>777.1</ele>
        <time>2019-02-23T07:41:40.802Z</time>
      </trkpt>
      <trkpt lat="40.659470" lon="-3.430335">
        <ele>777.4</ele>
        <time>2019-02-23T07:41:41.802Z</time>
      </trkpt>
      <trkpt lat="40.659691" lon="-3.430174">
        <ele>777.9</ele>
        <time>2019-02-23T07:41:47.802Z</time>
      </trkpt>
      <trkpt lat="40.659728" lon="-3.430148">
        <ele>778.5</ele>
        <time>2019-02-23T07:41:48.802Z</time>
      </trkpt>
      <trkpt lat="40.659764" lon="-3.430121">
        <ele>778.8</ele>
        <time>2019-02-23T07:41:49.802Z</time>
      </trkpt>
      <trkpt lat="40.659800" lon="-3.430094">
        <ele>779.4</ele>
        <time>2019-02-23T07:41:50.802Z</time>
      </trkpt>
      <trkpt lat="40.659839" lon="-3.430066">
        <ele>779.8</ele>
        <time>2019-02-23T07:41:51.802Z</time>
      </trkpt>
      <trkpt lat="40.660033" lon="-3.429926">
        <ele>780.2</ele>
        <time>2019-02-23T07:41:56.802Z</time>
      </trkpt>
      <trkpt lat="40.660071" lon="-3.429901">
        <ele>780.6</ele>
        <time>2019-02-23T07:41:57.802Z</time>
      </trkpt>
      <trkpt lat="40.660109" lon="-3.429875">
        <ele>781.0</ele>
        <time>2019-02-23T07:41:58.802Z</time>
      </trkpt>
      <trkpt lat="40.660148" lon="-3.429849">
        <ele>781.5</ele>
        <time>2019-02-23T07:41:59.802Z</time>
      </trkpt>
      <trkpt lat="40.660187" lon="-3.429821">
        <ele>781.8</ele>
        <time>2019-02-23T07:42:00.802Z</time>
      </trkpt>
      <trkpt lat="40.660509" lon="-3.429601">
        <ele>782.5</ele>
        <time>2019-02-23T07:42:08.802Z</time>
      </trkpt>
      <trkpt lat="40.660551" lon="-3.429579">
        <ele>782.9</ele>
        <time>2019-02-23T07:42:09.802Z</time>
      </trkpt>
      <trkpt lat="40.660592" lon="-3.429557">
        <ele>783.4</ele>
        <time>2019-02-23T07:42:10.802Z</time>
      </trkpt>
      <trkpt lat="40.660637" lon="-3.429533">
        <ele>783.9</ele>
        <time>2019-02-23T07:42:11.802Z</time>
      </trkpt>
      <trkpt lat="40.660679" lon="-3.429511">
        <ele>784.2</ele>
        <time>2019-02-23T07:42:12.802Z</time>
      </trkpt>
      <trkpt lat="40.660854" lon="-3.429428">
        <ele>784.8</ele>
        <time>2019-02-23T07:42:16.802Z</time>
      </trkpt>
      <trkpt lat="40.660900" lon="-3.429409">
        <ele>785.1</ele>
        <time>2019-02-23T07:42:17.802Z</time>
      </trkpt>
      <trkpt lat="40.660944" lon="-3.429390">
        <ele>785.5</ele>
        <time>2019-02-23T07:42:18.802Z</time>
      </trkpt>
      <trkpt lat="40.660987" lon="-3.429371">
        <ele>786.1</ele>
        <time>2019-02-23T07:42:19.802Z</time>
      </trkpt>
      <trkpt lat="40.661029" lon="-3.429353">
        <ele>786.5</ele>
        <time>2019-02-23T07:42:20.802Z</time>
      </trkpt>
      <trkpt lat="40.661070" lon="-3.429336">
        <ele>786.5</ele>
        <time>2019-02-23T07:42:21.802Z</time>
      </trkpt>
      <trkpt lat="40.661263" lon="-3.429244">
        <ele>787.1</ele>
        <time>2019-02-23T07:42:26.802Z</time>
      </trkpt>
      <trkpt lat="40.661305" lon="-3.429228">
        <ele>787.5</ele>
        <time>2019-02-23T07:42:27.802Z</time>
      </trkpt>
      <trkpt lat="40.661348" lon="-3.429212">
        <ele>788.0</ele>
        <time>2019-02-23T07:42:28.802Z</time>
      </trkpt>
      <trkpt lat="40.661389" lon="-3.429196">
        <ele>788.5</ele>
        <time>2019-02-23T07:42:29.802Z</time>
      </trkpt>
      <trkpt lat="40.661434" lon="-3.429178">
        <ele>788.9</ele>
        <time>2019-02-23T07:42:30.802Z</time>
      </trkpt>
      <trkpt lat="40.661612" lon="-3.429126">
        <ele>789.4</ele>
        <time>2019-02-23T07:42:34.802Z</time>
      </trkpt>
      <trkpt lat="40.661655" lon="-3.429118">
        <ele>789.8</ele>
        <time>2019-02-23T07:42:35.802Z</time>
      </trkpt>
      <trkpt lat="40.661697" lon="-3.429110">
        <ele>790.1</ele>
        <time>2019-02-23T07:42:36.802Z</time>
      </trkpt>
      <trkpt lat="40.661742" lon="-3.429100">
        <ele>790.6</ele>
        <time>2019-02-23T07:42:37.802Z</time>
      </trkpt>
      <trkpt lat="40.661788" lon="-3.429094">
        <ele>791.1</ele>
        <time>2019-02-23T07:42:38.802Z</time>
      </trkpt>
      <trkpt lat="40.662054" lon="-3.429104">
        <ele>791.0</ele>
        <time>2019-02-23T07:42:44.802Z</time>
      </trkpt>
      <trkpt lat="40.662101" lon="-3.429106">
        <ele>791.5</ele>
        <time>2019-02-23T07:42:45.802Z</time>
      </trkpt>
      <trkpt lat="40.662149" lon="-3.429107">
        <ele>791.9</ele>
        <time>2019-02-23T07:42:46.802Z</time>
      </trkpt>
      <trkpt lat="40.662194" lon="-3.429107">
        <ele>792.2</ele>
        <time>2019-02-23T07:42:47.802Z</time>
      </trkpt>
      <trkpt lat="40.662240" lon="-3.429109">
        <ele>792.9</ele>
        <time>2019-02-23T07:42:48.802Z</time>
      </trkpt>
      <trkpt lat="40.662291" lon="-3.429110">
        <ele>793.2</ele>
        <time>2019-02-23T07:42:49.802Z</time>
      </trkpt>
      <trkpt lat="40.662433" lon="-3.429118">
        <ele>793.6</ele>
        <time>2019-02-23T07:42:52.802Z</time>
      </trkpt>
      <trkpt lat="40.662481" lon="-3.429122">
        <ele>794.1</ele>
        <time>2019-02-23T07:42:53.802Z</time>
      </trkpt>
      <trkpt lat="40.662529" lon="-3.429126">
        <ele>794.4</ele>
        <time>2019-02-23T07:42:54.802Z</time>
      </trkpt>
      <trkpt lat="40.662576" lon="-3.429130">
        <ele>794.8</ele>
        <time>2019-02-23T07:42:55.802Z</time>
      </trkpt>
      <trkpt lat="40.662624" lon="-3.429132">
        <ele>795.2</ele>
        <time>2019-02-23T07:42:56.802Z</time>
      </trkpt>
      <trkpt lat="40.663039" lon="-3.429153">
        <ele>795.1</ele>
        <time>2019-02-23T07:43:04.802Z</time>
      </trkpt>
      <trkpt lat="40.663248" lon="-3.429180">
        <ele>795.6</ele>
        <time>2019-02-23T07:43:08.802Z</time>
      </trkpt>
      <trkpt lat="40.663293" lon="-3.429191">
        <ele>796.1</ele>
        <time>2019-02-23T07:43:09.802Z</time>
      </trkpt>
      <trkpt lat="40.663343" lon="-3.429203">
        <ele>796.4</ele>
        <time>2019-02-23T07:43:10.802Z</time>
      </trkpt>
      <trkpt lat="40.663394" lon="-3.429217">
        <ele>796.8</ele>
        <time>2019-02-23T07:43:11.802Z</time>
      </trkpt>
      <trkpt lat="40.663449" lon="-3.429233">
        <ele>797.2</ele>
        <time>2019-02-23T07:43:12.802Z</time>
      </trkpt>
      <trkpt lat="40.663617" lon="-3.429316">
        <ele>797.2</ele>
        <time>2019-02-23T07:43:16.802Z</time>
      </trkpt>
      <trkpt lat="40.663655" lon="-3.429342">
        <ele>797.6</ele>
        <time>2019-02-23T07:43:17.802Z</time>
      </trkpt>
      <trkpt lat="40.663694" lon="-3.429366">
        <ele>798.1</ele>
        <time>2019-02-23T07:43:18.802Z</time>
      </trkpt>
      <trkpt lat="40.663733" lon="-3.429390">
        <ele>798.4</ele>
        <time>2019-02-23T07:43:19.802Z</time>
      </trkpt>
      <trkpt lat="40.663772" lon="-3.429420">
        <ele>798.8</ele>
        <time>2019-02-23T07:43:20.802Z</time>
      </trkpt>
      <trkpt lat="40.663811" lon="-3.429445">
        <ele>799.2</ele>
        <time>2019-02-23T07:43:21.802Z</time>
      </trkpt>
      <trkpt lat="40.663930" lon="-3.429496">
        <ele>799.2</ele>
        <time>2019-02-23T07:43:24.802Z</time>
      </trkpt>
      <trkpt lat="40.663973" lon="-3.429509">
        <ele>799.9</ele>
        <time>2019-02-23T07:43:25.802Z</time>
      </trkpt>
      <trkpt lat="40.664016" lon="-3.429520">
        <ele>800.1</ele>
        <time>2019-02-23T07:43:26.802Z</time>
      </trkpt>
      <trkpt lat="40.664059" lon="-3.429524">
        <ele>800.6</ele>
        <time>2019-02-23T07:43:27.802Z</time>
      </trkpt>
      <trkpt lat="40.664099" lon="-3.429520">
        <ele>801.0</ele>
        <time>2019-02-23T07:43:28.802Z</time>
      </trkpt>
      <trkpt lat="40.664140" lon="-3.429516">
        <ele>801.6</ele>
        <time>2019-02-23T07:43:29.802Z</time>
      </trkpt>
      <trkpt lat="40.664226" lon="-3.429503">
        <ele>801.5</ele>
        <time>2019-02-23T07:43:31.802Z</time>
      </trkpt>
      <trkpt lat="40.664334" lon="-3.429479">
        <ele>802.1</ele>
        <time>2019-02-23T07:43:34.802Z</time>
      </trkpt>
      <trkpt lat="40.664372" lon="-3.429469">
        <ele>802.5</ele>
        <time>2019-02-23T07:43:35.802Z</time>
      </trkpt>
      <trkpt lat="40.664409" lon="-3.429458">
        <ele>803.0</ele>
        <time>2019-02-23T07:43:36.802Z</time>
      </trkpt>
      <trkpt lat="40.664446" lon="-3.429449">
        <ele>803.4</ele>
        <time>2019-02-23T07:43:37.802Z</time>
      </trkpt>
      <trkpt lat="40.664485" lon="-3.429440">
        <ele>803.9</ele>
        <time>2019-02-23T07:43:38.802Z</time>
      </trkpt>
      <trkpt lat="40.664559" lon="-3.429425">
        <ele>803.9</ele>
        <time>2019-02-23T07:43:40.802Z</time>
      </trkpt>
      <trkpt lat="40.664598" lon="-3.429417">
        <ele>804.1</ele>
        <time>2019-02-23T07:43:41.802Z</time>
      </trkpt>
      <trkpt lat="40.664647" lon="-3.429409">
        <ele>804.6</ele>
        <time>2019-02-23T07:43:42.802Z</time>
      </trkpt>
      <trkpt lat="40.664685" lon="-3.429402">
        <ele>805.2</ele>
        <time>2019-02-23T07:43:43.802Z</time>
      </trkpt>
      <trkpt lat="40.664722" lon="-3.429395">
        <ele>805.5</ele>
        <time>2019-02-23T07:43:44.802Z</time>
      </trkpt>
      <trkpt lat="40.664758" lon="-3.429389">
        <ele>806.0</ele>
        <time>2019-02-23T07:43:45.802Z</time>
      </trkpt>
      <trkpt lat="40.664921" lon="-3.429382">
        <ele>806.5</ele>
        <time>2019-02-23T07:43:49.802Z</time>
      </trkpt>
      <trkpt lat="40.664957" lon="-3.429384">
        <ele>807.0</ele>
        <time>2019-02-23T07:43:50.802Z</time>
      </trkpt>
      <trkpt lat="40.664989" lon="-3.429385">
        <ele>807.5</ele>
        <time>2019-02-23T07:43:51.802Z</time>
      </trkpt>
      <trkpt lat="40.665023" lon="-3.429386">
        <ele>807.8</ele>
        <time>2019-02-23T07:43:52.802Z</time>
      </trkpt>
      <trkpt lat="40.665059" lon="-3.429389">
        <ele>808.4</ele>
        <time>2019-02-23T07:43:53.802Z</time>
      </trkpt>
      <trkpt lat="40.665136" lon="-3.429397">
        <ele>808.5</ele>
        <time>2019-02-23T07:43:55.802Z</time>
      </trkpt>
      <trkpt lat="40.665249" lon="-3.429408">
        <ele>808.9</ele>
        <time>2019-02-23T07:43:58.802Z</time>
      </trkpt>
      <trkpt lat="40.665285" lon="-3.429413">
        <ele>809.2</ele>
        <time>2019-02-23T07:43:59.802Z</time>
      </trkpt>
      <trkpt lat="40.665331" lon="-3.429422">
        <ele>809.6</ele>
        <time>2019-02-23T07:44:00.802Z</time>
      </trkpt>
      <trkpt lat="40.665368" lon="-3.429431">
        <ele>810.1</ele>
        <time>2019-02-23T07:44:01.802Z</time>
      </trkpt>
      <trkpt lat="40.665410" lon="-3.429439">
        <ele>810.4</ele>
        <time>2019-02-23T07:44:02.802Z</time>
      </trkpt>
      <trkpt lat="40.665489" lon="-3.429457">
        <ele>810.8</ele>
        <time>2019-02-23T07:44:04.802Z</time>
      </trkpt>
      <trkpt lat="40.665528" lon="-3.429469">
        <ele>811.1</ele>
        <time>2019-02-23T07:44:05.802Z</time>
      </trkpt>
      <trkpt lat="40.665568" lon="-3.429485">
        <ele>811.5</ele>
        <time>2019-02-23T07:44:06.802Z</time>
      </trkpt>
      <trkpt lat="40.665609" lon="-3.429499">
        <ele>812.1</ele>
        <time>2019-02-23T07:44:07.802Z</time>
      </trkpt>
      <trkpt lat="40.665655" lon="-3.429522">
        <ele>812.4</ele>
        <time>2019-02-23T07:44:08.802Z</time>
      </trkpt>
      <trkpt lat="40.665744" lon="-3.429555">
        <ele>812.4</ele>
        <time>2019-02-23T07:44:10.802Z</time>
      </trkpt>
      <trkpt lat="40.666151" lon="-3.429668">
        <ele>812.5</ele>
        <time>2019-02-23T07:44:18.802Z</time>
      </trkpt>
      <trkpt lat="40.666448" lon="-3.429756">
        <ele>812.8</ele>
        <time>2019-02-23T07:44:23.802Z</time>
      </trkpt>
      <trkpt lat="40.666508" lon="-3.429775">
        <ele>813.2</ele>
        <time>2019-02-23T07:44:24.802Z</time>
      </trkpt>
      <trkpt lat="40.666571" lon="-3.429795">
        <ele>813.9</ele>
        <time>2019-02-23T07:44:25.802Z</time>
      </trkpt>
      <trkpt lat="40.666634" lon="-3.429815">
        <ele>814.1</ele>
        <time>2019-02-23T07:44:26.802Z</time>
      </trkpt>
      <trkpt lat="40.666697" lon="-3.429834">
        <ele>814.6</ele>
        <time>2019-02-23T07:44:27.802Z</time>
      </trkpt>
      <trkpt lat="40.666825" lon="-3.429868">
        <ele>814.5</ele>
        <time>2019-02-23T07:44:29.802Z</time>
      </trkpt>
      <trkpt lat="40.667419" lon="-3.430039">
        <ele>814.6</ele>
        <time>2019-02-23T07:44:38.802Z</time>
      </trkpt>
      <trkpt lat="40.667561" lon="-3.430054">
        <ele>814.6</ele>
        <time>2019-02-23T07:44:40.802Z</time>
      </trkpt>
      <trkpt lat="40.667852" lon="-3.429984">
        <ele>814.6</ele>
        <time>2019-02-23T07:44:44.802Z</time>
      </trkpt>
      <trkpt lat="40.667986" lon="-3.429897">
        <ele>814.5</ele>
        <time>2019-02-23T07:44:46.802Z</time>
      </trkpt>
      <trkpt lat="40.668105" lon="-3.429809">
        <ele>814.5</ele>
        <time>2019-02-23T07:44:48.802Z</time>
      </trkpt>
      <trkpt lat="40.668164" lon="-3.429763">
        <ele>814.5</ele>
        <time>2019-02-23T07:44:49.802Z</time>
      </trkpt>
      <trkpt lat="40.668509" lon="-3.429505">
        <ele>815.0</ele>
        <time>2019-02-23T07:44:55.802Z</time>
      </trkpt>
      <trkpt lat="40.668568" lon="-3.429465">
        <ele>815.5</ele>
        <time>2019-02-23T07:44:56.802Z</time>
      </trkpt>
      <trkpt lat="40.668628" lon="-3.429425">
        <ele>815.8</ele>
        <time>2019-02-23T07:44:57.802Z</time>
      </trkpt>
      <trkpt lat="40.668688" lon="-3.429382">
        <ele>816.2</ele>
        <time>2019-02-23T07:44:58.802Z</time>
      </trkpt>
      <trkpt lat="40.668750" lon="-3.429336">
        <ele>816.6</ele>
        <time>2019-02-23T07:44:59.802Z</time>
      </trkpt>
      <trkpt lat="40.668868" lon="-3.429245">
        <ele>816.5</ele>
        <time>2019-02-23T07:45:01.802Z</time>
      </trkpt>
      <trkpt lat="40.669390" lon="-3.428851">
        <ele>816.5</ele>
        <time>2019-02-23T07:45:10.802Z</time>
      </trkpt>
      <trkpt lat="40.669676" lon="-3.428632">
        <ele>816.6</ele>
        <time>2019-02-23T07:45:15.802Z</time>
      </trkpt>
      <trkpt lat="40.669795" lon="-3.428544">
        <ele>817.0</ele>
        <time>2019-02-23T07:45:17.802Z</time>
      </trkpt>
      <trkpt lat="40.669852" lon="-3.428502">
        <ele>817.4</ele>
        <time>2019-02-23T07:45:18.802Z</time>
      </trkpt>
      <trkpt lat="40.669913" lon="-3.428458">
        <ele>817.8</ele>
        <time>2019-02-23T07:45:19.802Z</time>
      </trkpt>
      <trkpt lat="40.669977" lon="-3.428412">
        <ele>818.1</ele>
        <time>2019-02-23T07:45:20.802Z</time>
      </trkpt>
      <trkpt lat="40.670034" lon="-3.428369">
        <ele>818.5</ele>
        <time>2019-02-23T07:45:21.802Z</time>
      </trkpt>
      <trkpt lat="40.670523" lon="-3.428007">
        <ele>818.5</ele>
        <time>2019-02-23T07:45:29.802Z</time>
      </trkpt>
      <trkpt lat="40.670646" lon="-3.427917">
        <ele>818.6</ele>
        <time>2019-02-23T07:45:31.802Z</time>
      </trkpt>
      <trkpt lat="40.671138" lon="-3.427558">
        <ele>818.6</ele>
        <time>2019-02-23T07:45:39.802Z</time>
      </trkpt>
      <trkpt lat="40.671649" lon="-3.427186">
        <ele>818.5</ele>
        <time>2019-02-23T07:45:47.802Z</time>
      </trkpt>
      <trkpt lat="40.672168" lon="-3.426809">
        <ele>818.6</ele>
        <time>2019-02-23T07:45:55.802Z</time>
      </trkpt>
      <trkpt lat="40.672433" lon="-3.426616">
        <ele>818.6</ele>
        <time>2019-02-23T07:45:59.802Z</time>
      </trkpt>
      <trkpt lat="40.672495" lon="-3.426573">
        <ele>819.2</ele>
        <time>2019-02-23T07:46:00.802Z</time>
      </trkpt>
      <trkpt lat="40.672559" lon="-3.426526">
        <ele>819.5</ele>
        <time>2019-02-23T07:46:01.802Z</time>
      </trkpt>
      <trkpt lat="40.672620" lon="-3.426480">
        <ele>820.0</ele>
        <time>2019-02-23T07:46:02.802Z</time>
      </trkpt>
      <trkpt lat="40.672679" lon="-3.426435">
        <ele>820.4</ele>
        <time>2019-02-23T07:46:03.802Z</time>
      </trkpt>
      <trkpt lat="40.672737" lon="-3.426392">
        <ele>820.8</ele>
        <time>2019-02-23T07:46:04.802Z</time>
      </trkpt>
      <trkpt lat="40.672901" lon="-3.426269">
        <ele>820.8</ele>
        <time>2019-02-23T07:46:07.802Z</time>
      </trkpt>
      <trkpt lat="40.673370" lon="-3.425997">
        <ele>820.8</ele>
        <time>2019-02-23T07:46:15.802Z</time>
      </trkpt>
      <trkpt lat="40.673899" lon="-3.425778">
        <ele>820.9</ele>
        <time>2019-02-23T07:46:23.802Z</time>
      </trkpt>
      <trkpt lat="40.674033" lon="-3.425725">
        <ele>820.9</ele>
        <time>2019-02-23T07:46:25.802Z</time>
      </trkpt>
      <trkpt lat="40.674554" lon="-3.425515">
        <ele>820.8</ele>
        <time>2019-02-23T07:46:33.802Z</time>
      </trkpt>
      <trkpt lat="40.674747" lon="-3.425436">
        <ele>820.8</ele>
        <time>2019-02-23T07:46:36.802Z</time>
      </trkpt>
      <trkpt lat="40.675333" lon="-3.425212">
        <ele>820.8</ele>
        <time>2019-02-23T07:46:45.802Z</time>
      </trkpt>
      <trkpt lat="40.675605" lon="-3.425093">
        <ele>820.9</ele>
        <time>2019-02-23T07:46:49.802Z</time>
      </trkpt>
      <trkpt lat="40.676164" lon="-3.424861">
        <ele>820.8</ele>
        <time>2019-02-23T07:46:57.802Z</time>
      </trkpt>
      <trkpt lat="40.676367" lon="-3.424776">
        <ele>820.8</ele>
        <time>2019-02-23T07:47:00.802Z</time>
      </trkpt>
      <trkpt lat="40.676836" lon="-3.424585">
        <ele>821.1</ele>
        <time>2019-02-23T07:47:07.802Z</time>
      </trkpt>
      <trkpt lat="40.676905" lon="-3.424558">
        <ele>821.9</ele>
        <time>2019-02-23T07:47:08.802Z</time>
      </trkpt>
      <trkpt lat="40.676970" lon="-3.424530">
        <ele>822.2</ele>
        <time>2019-02-23T07:47:09.802Z</time>
      </trkpt>
      <trkpt lat="40.677034" lon="-3.424504">
        <ele>822.6</ele>
        <time>2019-02-23T07:47:10.802Z</time>
      </trkpt>
      <trkpt lat="40.677097" lon="-3.424479">
        <ele>823.1</ele>
        <time>2019-02-23T07:47:11.802Z</time>
      </trkpt>
      <trkpt lat="40.677156" lon="-3.424455">
        <ele>823.0</ele>
        <time>2019-02-23T07:47:12.802Z</time>
      </trkpt>
      <trkpt lat="40.677673" lon="-3.424241">
        <ele>823.1</ele>
        <time>2019-02-23T07:47:20.802Z</time>
      </trkpt>
      <trkpt lat="40.677943" lon="-3.424135">
        <ele>823.0</ele>
        <time>2019-02-23T07:47:24.802Z</time>
      </trkpt>
      <trkpt lat="40.678481" lon="-3.423905">
        <ele>823.1</ele>
        <time>2019-02-23T07:47:32.802Z</time>
      </trkpt>
      <trkpt lat="40.678885" lon="-3.423737">
        <ele>823.0</ele>
        <time>2019-02-23T07:47:38.802Z</time>
      </trkpt>
      <trkpt lat="40.679360" lon="-3.423540">
        <ele>823.5</ele>
        <time>2019-02-23T07:47:45.802Z</time>
      </trkpt>
      <trkpt lat="40.679428" lon="-3.423510">
        <ele>823.8</ele>
        <time>2019-02-23T07:47:46.802Z</time>
      </trkpt>
      <trkpt lat="40.679500" lon="-3.423481">
        <ele>824.1</ele>
        <time>2019-02-23T07:47:47.802Z</time>
      </trkpt>
      <trkpt lat="40.679569" lon="-3.423452">
        <ele>824.5</ele>
        <time>2019-02-23T07:47:48.802Z</time>
      </trkpt>
      <trkpt lat="40.679640" lon="-3.423423">
        <ele>825.1</ele>
        <time>2019-02-23T07:47:49.802Z</time>
      </trkpt>
      <trkpt lat="40.680202" lon="-3.423221">
        <ele>825.1</ele>
        <time>2019-02-23T07:47:57.802Z</time>
      </trkpt>
      <trkpt lat="40.680492" lon="-3.423137">
        <ele>825.1</ele>
        <time>2019-02-23T07:48:01.802Z</time>
      </trkpt>
      <trkpt lat="40.681067" lon="-3.422965">
        <ele>825.1</ele>
        <time>2019-02-23T07:48:09.802Z</time>
      </trkpt>
      <trkpt lat="40.681494" lon="-3.422835">
        <ele>825.1</ele>
        <time>2019-02-23T07:48:15.802Z</time>
      </trkpt>
      <trkpt lat="40.682065" lon="-3.422665">
        <ele>825.1</ele>
        <time>2019-02-23T07:48:23.802Z</time>
      </trkpt>
      <trkpt lat="40.682341" lon="-3.422581">
        <ele>825.1</ele>
        <time>2019-02-23T07:48:27.802Z</time>
      </trkpt>
      <trkpt lat="40.682904" lon="-3.422412">
        <ele>825.0</ele>
        <time>2019-02-23T07:48:35.802Z</time>
      </trkpt>
      <trkpt lat="40.683243" lon="-3.422309">
        <ele>825.0</ele>
        <time>2019-02-23T07:48:40.802Z</time>
      </trkpt>
      <trkpt lat="40.683799" lon="-3.422145">
        <ele>825.0</ele>
        <time>2019-02-23T07:48:48.802Z</time>
      </trkpt>
      <trkpt lat="40.684303" lon="-3.421988">
        <ele>825.0</ele>
        <time>2019-02-23T07:48:55.802Z</time>
      </trkpt>
      <trkpt lat="40.684888" lon="-3.421813">
        <ele>825.1</ele>
        <time>2019-02-23T07:49:03.802Z</time>
      </trkpt>
      <trkpt lat="40.685327" lon="-3.421679">
        <ele>825.1</ele>
        <time>2019-02-23T07:49:09.802Z</time>
      </trkpt>
      <trkpt lat="40.685625" lon="-3.421590">
        <ele>825.5</ele>
        <time>2019-02-23T07:49:13.802Z</time>
      </trkpt>
      <trkpt lat="40.685700" lon="-3.421566">
        <ele>825.9</ele>
        <time>2019-02-23T07:49:14.802Z</time>
      </trkpt>
      <trkpt lat="40.685775" lon="-3.421544">
        <ele>826.5</ele>
        <time>2019-02-23T07:49:15.802Z</time>
      </trkpt>
      <trkpt lat="40.685849" lon="-3.421524">
        <ele>826.9</ele>
        <time>2019-02-23T07:49:16.802Z</time>
      </trkpt>
      <trkpt lat="40.685922" lon="-3.421502">
        <ele>827.2</ele>
        <time>2019-02-23T07:49:17.802Z</time>
      </trkpt>
      <trkpt lat="40.686518" lon="-3.421323">
        <ele>827.1</ele>
        <time>2019-02-23T07:49:25.802Z</time>
      </trkpt>
      <trkpt lat="40.687025" lon="-3.421170">
        <ele>827.1</ele>
        <time>2019-02-23T07:49:32.802Z</time>
      </trkpt>
      <trkpt lat="40.687619" lon="-3.420989">
        <ele>827.1</ele>
        <time>2019-02-23T07:49:40.802Z</time>
      </trkpt>
      <trkpt lat="40.688143" lon="-3.420836">
        <ele>827.1</ele>
        <time>2019-02-23T07:49:47.802Z</time>
      </trkpt>
      <trkpt lat="40.688747" lon="-3.420696">
        <ele>827.1</ele>
        <time>2019-02-23T07:49:55.802Z</time>
      </trkpt>
      <trkpt lat="40.688980" lon="-3.420668">
        <ele>827.1</ele>
        <time>2019-02-23T07:49:58.802Z</time>
      </trkpt>
      <trkpt lat="40.689531" lon="-3.420624">
        <ele>827.2</ele>
        <time>2019-02-23T07:50:05.802Z</time>
      </trkpt>
      <trkpt lat="40.689897" lon="-3.420599">
        <ele>827.2</ele>
        <time>2019-02-23T07:50:10.802Z</time>
      </trkpt>
      <trkpt lat="40.690456" lon="-3.420572">
        <ele>827.1</ele>
        <time>2019-02-23T07:50:18.802Z</time>
      </trkpt>
      <trkpt lat="40.690879" lon="-3.420551">
        <ele>827.2</ele>
        <time>2019-02-23T07:50:24.802Z</time>
      </trkpt>
      <trkpt lat="40.691464" lon="-3.420523">
        <ele>827.2</ele>
        <time>2019-02-23T07:50:32.802Z</time>
      </trkpt>
      <trkpt lat="40.691843" lon="-3.420502">
        <ele>827.1</ele>
        <time>2019-02-23T07:50:37.802Z</time>
      </trkpt>
      <trkpt lat="40.692448" lon="-3.420474">
        <ele>827.2</ele>
        <time>2019-02-23T07:50:45.802Z</time>
      </trkpt>
      <trkpt lat="40.693044" lon="-3.420447">
        <ele>827.2</ele>
        <time>2019-02-23T07:50:53.802Z</time>
      </trkpt>
      <trkpt lat="40.693115" lon="-3.420443">
        <ele>827.1</ele>
        <time>2019-02-23T07:50:54.802Z</time>
      </trkpt>
      <trkpt lat="40.693186" lon="-3.420440">
        <ele>827.5</ele>
        <time>2019-02-23T07:50:55.802Z</time>
      </trkpt>
      <trkpt lat="40.693256" lon="-3.420437">
        <ele>828.0</ele>
        <time>2019-02-23T07:50:56.802Z</time>
      </trkpt>
      <trkpt lat="40.693328" lon="-3.420433">
        <ele>828.5</ele>
        <time>2019-02-23T07:50:57.802Z</time>
      </trkpt>
      <trkpt lat="40.693399" lon="-3.420430">
        <ele>828.8</ele>
        <time>2019-02-23T07:50:58.802Z</time>
      </trkpt>
      <trkpt lat="40.693470" lon="-3.420426">
        <ele>829.2</ele>
        <time>2019-02-23T07:50:59.802Z</time>
      </trkpt>
      <trkpt lat="40.694035" lon="-3.420401">
        <ele>829.2</ele>
        <time>2019-02-23T07:51:07.802Z</time>
      </trkpt>
      <trkpt lat="40.694252" lon="-3.420388">
        <ele>829.1</ele>
        <time>2019-02-23T07:51:10.802Z</time>
      </trkpt>
      <trkpt lat="40.694826" lon="-3.420356">
        <ele>829.1</ele>
        <time>2019-02-23T07:51:18.802Z</time>
      </trkpt>
      <trkpt lat="40.695388" lon="-3.420331">
        <ele>829.1</ele>
        <time>2019-02-23T07:51:26.802Z</time>
      </trkpt>
      <trkpt lat="40.695750" lon="-3.420313">
        <ele>829.2</ele>
        <time>2019-02-23T07:51:31.802Z</time>
      </trkpt>
      <trkpt lat="40.696324" lon="-3.420280">
        <ele>829.2</ele>
        <time>2019-02-23T07:51:39.802Z</time>
      </trkpt>
      <trkpt lat="40.696748" lon="-3.420261">
        <ele>829.2</ele>
        <time>2019-02-23T07:51:45.802Z</time>
      </trkpt>
      <trkpt lat="40.697309" lon="-3.420230">
        <ele>829.1</ele>
        <time>2019-02-23T07:51:53.802Z</time>
      </trkpt>
      <trkpt lat="40.697380" lon="-3.420226">
        <ele>829.1</ele>
        <time>2019-02-23T07:51:54.802Z</time>
      </trkpt>
      <trkpt lat="40.697965" lon="-3.420194">
        <ele>829.2</ele>
        <time>2019-02-23T07:52:02.802Z</time>
      </trkpt>
      <trkpt lat="40.698333" lon="-3.420177">
        <ele>829.6</ele>
        <time>2019-02-23T07:52:07.802Z</time>
      </trkpt>
      <trkpt lat="40.698406" lon="-3.420173">
        <ele>830.1</ele>
        <time>2019-02-23T07:52:08.802Z</time>
      </trkpt>
      <trkpt lat="40.698479" lon="-3.420169">
        <ele>830.4</ele>
        <time>2019-02-23T07:52:09.802Z</time>
      </trkpt>
      <trkpt lat="40.698553" lon="-3.420166">
        <ele>830.8</ele>
        <time>2019-02-23T07:52:10.802Z</time>
      </trkpt>
      <trkpt lat="40.698628" lon="-3.420162">
        <ele>831.2</ele>
        <time>2019-02-23T07:52:11.802Z</time>
      </trkpt>
      <trkpt lat="40.699199" lon="-3.420139">
        <ele>831.1</ele>
        <time>2019-02-23T07:52:19.802Z</time>
      </trkpt>
      <trkpt lat="40.699418" lon="-3.420128">
        <ele>831.1</ele>
        <time>2019-02-23T07:52:22.802Z</time>
      </trkpt>
      <trkpt lat="40.699988" lon="-3.420103">
        <ele>831.2</ele>
        <time>2019-02-23T07:52:30.802Z</time>
      </trkpt>
      <trkpt lat="40.700206" lon="-3.420098">
        <ele>831.2</ele>
        <time>2019-02-23T07:52:33.802Z</time>
      </trkpt>
      <trkpt lat="40.700807" lon="-3.420068">
        <ele>831.1</ele>
        <time>2019-02-23T07:52:41.802Z</time>
      </trkpt>
      <trkpt lat="40.701026" lon="-3.420054">
        <ele>831.1</ele>
        <time>2019-02-23T07:52:44.802Z</time>
      </trkpt>
      <trkpt lat="40.701594" lon="-3.420022">
        <ele>831.1</ele>
        <time>2019-02-23T07:52:52.802Z</time>
      </trkpt>
      <trkpt lat="40.701791" lon="-3.420007">
        <ele>831.1</ele>
        <time>2019-02-23T07:52:55.802Z</time>
      </trkpt>
      <trkpt lat="40.702145" lon="-3.419985">
        <ele>831.1</ele>
        <time>2019-02-23T07:53:02.802Z</time>
      </trkpt>
      <trkpt lat="40.702360" lon="-3.419942">
        <ele>831.1</ele>
        <time>2019-02-23T07:53:09.802Z</time>
      </trkpt>
      <trkpt lat="40.702436" lon="-3.419938">
        <ele>831.1</ele>
        <time>2019-02-23T07:53:15.802Z</time>
      </trkpt>
      <trkpt lat="40.702487" lon="-3.419937">
        <ele>831.2</ele>
        <time>2019-02-23T07:53:27.802Z</time>
      </trkpt>
      <trkpt lat="40.702515" lon="-3.419942">
        <ele>831.2</ele>
        <time>2019-02-23T07:53:29.802Z</time>
      </trkpt>
      <trkpt lat="40.702578" lon="-3.419966">
        <ele>831.1</ele>
        <time>2019-02-23T07:53:34.802Z</time>
      </trkpt>
      <trkpt lat="40.702667" lon="-3.420127">
        <ele>831.2</ele>
        <time>2019-02-23T07:53:39.802Z</time>
      </trkpt>
      <trkpt lat="40.702787" lon="-3.420459">
        <ele>831.1</ele>
        <time>2019-02-23T07:53:44.802Z</time>
      </trkpt>
      <trkpt lat="40.702960" lon="-3.420905">
        <ele>831.1</ele>
        <time>2019-02-23T07:53:49.802Z</time>
      </trkpt>
      <trkpt lat="40.703196" lon="-3.421550">
        <ele>831.1</ele>
        <time>2019-02-23T07:53:55.802Z</time>
      </trkpt>
      <trkpt lat="40.703239" lon="-3.421659">
        <ele>831.2</ele>
        <time>2019-02-23T07:53:56.802Z</time>
      </trkpt>
      <trkpt lat="40.703476" lon="-3.422348">
        <ele>831.1</ele>
        <time>2019-02-23T07:54:02.802Z</time>
      </trkpt>
      <trkpt lat="40.703516" lon="-3.422467">
        <ele>830.9</ele>
        <time>2019-02-23T07:54:03.802Z</time>
      </trkpt>
      <trkpt lat="40.703558" lon="-3.422589">
        <ele>830.1</ele>
        <time>2019-02-23T07:54:04.802Z</time>
      </trkpt>
      <trkpt lat="40.703600" lon="-3.422716">
        <ele>829.9</ele>
        <time>2019-02-23T07:54:05.802Z</time>
      </trkpt>
      <trkpt lat="40.703641" lon="-3.422841">
        <ele>829.5</ele>
        <time>2019-02-23T07:54:06.802Z</time>
      </trkpt>
      <trkpt lat="40.703687" lon="-3.422972">
        <ele>829.1</ele>
        <time>2019-02-23T07:54:07.802Z</time>
      </trkpt>
      <trkpt lat="40.703731" lon="-3.423102">
        <ele>828.5</ele>
        <time>2019-02-23T07:54:08.802Z</time>
      </trkpt>
      <trkpt lat="40.703778" lon="-3.423237">
        <ele>828.1</ele>
        <time>2019-02-23T07:54:09.802Z</time>
      </trkpt>
      <trkpt lat="40.703827" lon="-3.423376">
        <ele>827.5</ele>
        <time>2019-02-23T07:54:10.802Z</time>
      </trkpt>
      <trkpt lat="40.703876" lon="-3.423514">
        <ele>827.1</ele>
        <time>2019-02-23T07:54:11.802Z</time>
      </trkpt>
      <trkpt lat="40.703926" lon="-3.423653">
        <ele>826.5</ele>
        <time>2019-02-23T07:54:12.802Z</time>
      </trkpt>
      <trkpt lat="40.703979" lon="-3.423794">
        <ele>826.1</ele>
        <time>2019-02-23T07:54:13.802Z</time>
      </trkpt>
      <trkpt lat="40.704032" lon="-3.423937">
        <ele>825.5</ele>
        <time>2019-02-23T07:54:14.802Z</time>
      </trkpt>
      <trkpt lat="40.704079" lon="-3.424070">
        <ele>824.8</ele>
        <time>2019-02-23T07:54:15.802Z</time>
      </trkpt>
      <trkpt lat="40.704122" lon="-3.424199">
        <ele>824.1</ele>
        <time>2019-02-23T07:54:16.802Z</time>
      </trkpt>
      <trkpt lat="40.704207" lon="-3.424445">
        <ele>824.1</ele>
        <time>2019-02-23T07:54:18.802Z</time>
      </trkpt>
      <trkpt lat="40.704378" lon="-3.424846">
        <ele>824.6</ele>
        <time>2019-02-23T07:54:22.802Z</time>
      </trkpt>
      <trkpt lat="40.704417" lon="-3.424928">
        <ele>825.1</ele>
        <time>2019-02-23T07:54:23.802Z</time>
      </trkpt>
      <trkpt lat="40.704455" lon="-3.425007">
        <ele>825.5</ele>
        <time>2019-02-23T07:54:24.802Z</time>
      </trkpt>
      <trkpt lat="40.704497" lon="-3.425085">
        <ele>826.1</ele>
        <time>2019-02-23T07:54:25.802Z</time>
      </trkpt>
      <trkpt lat="40.704541" lon="-3.425157">
        <ele>826.5</ele>
        <time>2019-02-23T07:54:26.802Z</time>
      </trkpt>
      <trkpt lat="40.704575" lon="-3.425234">
        <ele>826.5</ele>
        <time>2019-02-23T07:54:27.802Z</time>
      </trkpt>
      <trkpt lat="40.704607" lon="-3.425304">
        <ele>826.5</ele>
        <time>2019-02-23T07:54:28.802Z</time>
      </trkpt>
      <trkpt lat="40.704677" lon="-3.425427">
        <ele>827.1</ele>
        <time>2019-02-23T07:54:30.802Z</time>
      </trkpt>
      <trkpt lat="40.704715" lon="-3.425485">
        <ele>827.5</ele>
        <time>2019-02-23T07:54:31.802Z</time>
      </trkpt>
      <trkpt lat="40.704751" lon="-3.425542">
        <ele>828.0</ele>
        <time>2019-02-23T07:54:32.802Z</time>
      </trkpt>
      <trkpt lat="40.704789" lon="-3.425603">
        <ele>828.4</ele>
        <time>2019-02-23T07:54:33.802Z</time>
      </trkpt>
      <trkpt lat="40.704827" lon="-3.425662">
        <ele>828.8</ele>
        <time>2019-02-23T07:54:34.802Z</time>
      </trkpt>
      <trkpt lat="40.704906" lon="-3.425780">
        <ele>828.8</ele>
        <time>2019-02-23T07:54:36.802Z</time>
      </trkpt>
      <trkpt lat="40.705241" lon="-3.426316">
        <ele>828.9</ele>
        <time>2019-02-23T07:54:45.802Z</time>
      </trkpt>
      <trkpt lat="40.705379" lon="-3.426511">
        <ele>828.9</ele>
        <time>2019-02-23T07:54:50.802Z</time>
      </trkpt>
      <trkpt lat="40.705572" lon="-3.426790">
        <ele>828.8</ele>
        <time>2019-02-23T07:54:57.802Z</time>
      </trkpt>
      <trkpt lat="40.705722" lon="-3.426758">
        <ele>829.5</ele>
        <time>2019-02-23T07:55:00.802Z</time>
      </trkpt>
      <trkpt lat="40.705775" lon="-3.426720">
        <ele>829.8</ele>
        <time>2019-02-23T07:55:01.802Z</time>
      </trkpt>
      <trkpt lat="40.705826" lon="-3.426679">
        <ele>830.1</ele>
        <time>2019-02-23T07:55:02.802Z</time>
      </trkpt>
      <trkpt lat="40.705878" lon="-3.426636">
        <ele>830.6</ele>
        <time>2019-02-23T07:55:03.802Z</time>
      </trkpt>
      <trkpt lat="40.705933" lon="-3.426594">
        <ele>831.1</ele>
        <time>2019-02-23T07:55:04.802Z</time>
      </trkpt>
      <trkpt lat="40.706111" lon="-3.426465">
        <ele>831.1</ele>
        <time>2019-02-23T07:55:07.802Z</time>
      </trkpt>
      <trkpt lat="40.706347" lon="-3.426256">
        <ele>831.0</ele>
        <time>2019-02-23T07:55:11.802Z</time>
      </trkpt>
      <trkpt lat="40.706448" lon="-3.426104">
        <ele>831.1</ele>
        <time>2019-02-23T07:55:13.802Z</time>
      </trkpt>
      <trkpt lat="40.706827" lon="-3.425589">
        <ele>831.1</ele>
        <time>2019-02-23T07:55:20.802Z</time>
      </trkpt>
      <trkpt lat="40.707286" lon="-3.425142">
        <ele>831.1</ele>
        <time>2019-02-23T07:55:27.802Z</time>
      </trkpt>
      <trkpt lat="40.707696" lon="-3.424768">
        <ele>831.1</ele>
        <time>2019-02-23T07:55:34.802Z</time>
      </trkpt>
      <trkpt lat="40.707750" lon="-3.424728">
        <ele>831.1</ele>
        <time>2019-02-23T07:55:35.802Z</time>
      </trkpt>
      <trkpt lat="40.708051" lon="-3.424561">
        <ele>831.0</ele>
        <time>2019-02-23T07:55:40.802Z</time>
      </trkpt>
      <trkpt lat="40.708397" lon="-3.424463">
        <ele>831.4</ele>
        <time>2019-02-23T07:55:45.802Z</time>
      </trkpt>
      <trkpt lat="40.708464" lon="-3.424449">
        <ele>831.8</ele>
        <time>2019-02-23T07:55:46.802Z</time>
      </trkpt>
      <trkpt lat="40.708536" lon="-3.424437">
        <ele>832.5</ele>
        <time>2019-02-23T07:55:47.802Z</time>
      </trkpt>
      <trkpt lat="40.708603" lon="-3.424427">
        <ele>832.8</ele>
        <time>2019-02-23T07:55:48.802Z</time>
      </trkpt>
      <trkpt lat="40.708674" lon="-3.424417">
        <ele>833.2</ele>
        <time>2019-02-23T07:55:49.802Z</time>
      </trkpt>
      <trkpt lat="40.709155" lon="-3.424374">
        <ele>833.2</ele>
        <time>2019-02-23T07:55:56.802Z</time>
      </trkpt>
      <trkpt lat="40.709490" lon="-3.424354">
        <ele>833.5</ele>
        <time>2019-02-23T07:56:01.802Z</time>
      </trkpt>
      <trkpt lat="40.709560" lon="-3.424346">
        <ele>834.1</ele>
        <time>2019-02-23T07:56:02.802Z</time>
      </trkpt>
      <trkpt lat="40.709632" lon="-3.424341">
        <ele>834.4</ele>
        <time>2019-02-23T07:56:03.802Z</time>
      </trkpt>
      <trkpt lat="40.709701" lon="-3.424335">
        <ele>834.8</ele>
        <time>2019-02-23T07:56:04.802Z</time>
      </trkpt>
      <trkpt lat="40.709774" lon="-3.424326">
        <ele>835.2</ele>
        <time>2019-02-23T07:56:05.802Z</time>
      </trkpt>
      <trkpt lat="40.709920" lon="-3.424301">
        <ele>835.1</ele>
        <time>2019-02-23T07:56:07.802Z</time>
      </trkpt>
      <trkpt lat="40.710489" lon="-3.424214">
        <ele>835.1</ele>
        <time>2019-02-23T07:56:15.802Z</time>
      </trkpt>
      <trkpt lat="40.710560" lon="-3.424202">
        <ele>835.1</ele>
        <time>2019-02-23T07:56:16.802Z</time>
      </trkpt>
      <trkpt lat="40.711070" lon="-3.424084">
        <ele>835.2</ele>
        <time>2019-02-23T07:56:23.802Z</time>
      </trkpt>
      <trkpt lat="40.711139" lon="-3.424042">
        <ele>835.2</ele>
        <time>2019-02-23T07:56:24.802Z</time>
      </trkpt>
      <trkpt lat="40.711383" lon="-3.423785">
        <ele>835.2</ele>
        <time>2019-02-23T07:56:28.802Z</time>
      </trkpt>
      <trkpt lat="40.711776" lon="-3.423285">
        <ele>835.2</ele>
        <time>2019-02-23T07:56:35.802Z</time>
      </trkpt>
      <trkpt lat="40.711953" lon="-3.423102">
        <ele>835.2</ele>
        <time>2019-02-23T07:56:38.802Z</time>
      </trkpt>
      <trkpt lat="40.712017" lon="-3.423054">
        <ele>835.2</ele>
        <time>2019-02-23T07:56:39.802Z</time>
      </trkpt>
      <trkpt lat="40.712279" lon="-3.422888">
        <ele>835.2</ele>
        <time>2019-02-23T07:56:43.802Z</time>
      </trkpt>
      <trkpt lat="40.712697" lon="-3.422737">
        <ele>835.2</ele>
        <time>2019-02-23T07:56:49.802Z</time>
      </trkpt>
      <trkpt lat="40.713465" lon="-3.422698">
        <ele>835.2</ele>
        <time>2019-02-23T07:56:59.802Z</time>
      </trkpt>
      <trkpt lat="40.714033" lon="-3.422778">
        <ele>835.1</ele>
        <time>2019-02-23T07:57:06.802Z</time>
      </trkpt>
      <trkpt lat="40.714116" lon="-3.422787">
        <ele>835.1</ele>
        <time>2019-02-23T07:57:07.802Z</time>
      </trkpt>
      <trkpt lat="40.714278" lon="-3.422789">
        <ele>835.1</ele>
        <time>2019-02-23T07:57:09.802Z</time>
      </trkpt>
      <trkpt lat="40.714520" lon="-3.422744">
        <ele>835.1</ele>
        <time>2019-02-23T07:57:12.802Z</time>
      </trkpt>
      <trkpt lat="40.715060" lon="-3.422532">
        <ele>835.1</ele>
        <time>2019-02-23T07:57:19.802Z</time>
      </trkpt>
      <trkpt lat="40.715546" lon="-3.422179">
        <ele>835.1</ele>
        <time>2019-02-23T07:57:26.802Z</time>
      </trkpt>
      <trkpt lat="40.716001" lon="-3.421747">
        <ele>835.1</ele>
        <time>2019-02-23T07:57:33.802Z</time>
      </trkpt>
      <trkpt lat="40.716132" lon="-3.421625">
        <ele>835.2</ele>
        <time>2019-02-23T07:57:35.802Z</time>
      </trkpt>
      <trkpt lat="40.716569" lon="-3.421206">
        <ele>835.2</ele>
        <time>2019-02-23T07:57:42.802Z</time>
      </trkpt>
      <trkpt lat="40.716770" lon="-3.421062">
        <ele>835.2</ele>
        <time>2019-02-23T07:57:45.802Z</time>
      </trkpt>
      <trkpt lat="40.716840" lon="-3.421021">
        <ele>835.6</ele>
        <time>2019-02-23T07:57:46.802Z</time>
      </trkpt>
      <trkpt lat="40.716911" lon="-3.420985">
        <ele>836.0</ele>
        <time>2019-02-23T07:57:47.802Z</time>
      </trkpt>
      <trkpt lat="40.716982" lon="-3.420952">
        <ele>836.4</ele>
        <time>2019-02-23T07:57:48.802Z</time>
      </trkpt>
      <trkpt lat="40.717058" lon="-3.420919">
        <ele>836.8</ele>
        <time>2019-02-23T07:57:49.802Z</time>
      </trkpt>
      <trkpt lat="40.717131" lon="-3.420888">
        <ele>837.1</ele>
        <time>2019-02-23T07:57:50.802Z</time>
      </trkpt>
      <trkpt lat="40.717207" lon="-3.420856">
        <ele>837.2</ele>
        <time>2019-02-23T07:57:51.802Z</time>
      </trkpt>
      <trkpt lat="40.717720" lon="-3.420627">
        <ele>837.1</ele>
        <time>2019-02-23T07:57:58.802Z</time>
      </trkpt>
      <trkpt lat="40.717860" lon="-3.420540">
        <ele>837.1</ele>
        <time>2019-02-23T07:58:00.802Z</time>
      </trkpt>
      <trkpt lat="40.718183" lon="-3.420225">
        <ele>837.2</ele>
        <time>2019-02-23T07:58:05.802Z</time>
      </trkpt>
      <trkpt lat="40.718496" lon="-3.419772">
        <ele>837.2</ele>
        <time>2019-02-23T07:58:11.802Z</time>
      </trkpt>
      <trkpt lat="40.718547" lon="-3.419694">
        <ele>837.2</ele>
        <time>2019-02-23T07:58:12.802Z</time>
      </trkpt>
      <trkpt lat="40.718904" lon="-3.419152">
        <ele>837.1</ele>
        <time>2019-02-23T07:58:19.802Z</time>
      </trkpt>
      <trkpt lat="40.719066" lon="-3.418936">
        <ele>837.2</ele>
        <time>2019-02-23T07:58:22.802Z</time>
      </trkpt>
      <trkpt lat="40.719523" lon="-3.418418">
        <ele>837.1</ele>
        <time>2019-02-23T07:58:30.802Z</time>
      </trkpt>
      <trkpt lat="40.719590" lon="-3.418370">
        <ele>837.1</ele>
        <time>2019-02-23T07:58:31.802Z</time>
      </trkpt>
      <trkpt lat="40.719735" lon="-3.418306">
        <ele>837.1</ele>
        <time>2019-02-23T07:58:33.802Z</time>
      </trkpt>
      <trkpt lat="40.719884" lon="-3.418258">
        <ele>837.1</ele>
        <time>2019-02-23T07:58:35.802Z</time>
      </trkpt>
      <trkpt lat="40.720491" lon="-3.418128">
        <ele>837.2</ele>
        <time>2019-02-23T07:58:43.802Z</time>
      </trkpt>
      <trkpt lat="40.721043" lon="-3.418096">
        <ele>837.2</ele>
        <time>2019-02-23T07:58:50.802Z</time>
      </trkpt>
      <trkpt lat="40.721206" lon="-3.418099">
        <ele>837.2</ele>
        <time>2019-02-23T07:58:52.802Z</time>
      </trkpt>
      <trkpt lat="40.721757" lon="-3.418095">
        <ele>837.2</ele>
        <time>2019-02-23T07:58:59.802Z</time>
      </trkpt>
      <trkpt lat="40.722069" lon="-3.418089">
        <ele>837.1</ele>
        <time>2019-02-23T07:59:03.802Z</time>
      </trkpt>
      <trkpt lat="40.722612" lon="-3.418042">
        <ele>837.1</ele>
        <time>2019-02-23T07:59:10.802Z</time>
      </trkpt>
      <trkpt lat="40.722841" lon="-3.417973">
        <ele>837.2</ele>
        <time>2019-02-23T07:59:13.802Z</time>
      </trkpt>
      <trkpt lat="40.723121" lon="-3.417839">
        <ele>837.6</ele>
        <time>2019-02-23T07:59:17.802Z</time>
      </trkpt>
      <trkpt lat="40.723185" lon="-3.417805">
        <ele>838.2</ele>
        <time>2019-02-23T07:59:18.802Z</time>
      </trkpt>
      <trkpt lat="40.723250" lon="-3.417771">
        <ele>838.5</ele>
        <time>2019-02-23T07:59:19.802Z</time>
      </trkpt>
      <trkpt lat="40.723318" lon="-3.417736">
        <ele>839.0</ele>
        <time>2019-02-23T07:59:20.802Z</time>
      </trkpt>
      <trkpt lat="40.723382" lon="-3.417703">
        <ele>839.4</ele>
        <time>2019-02-23T07:59:21.802Z</time>
      </trkpt>
      <trkpt lat="40.723729" lon="-3.417579">
        <ele>839.5</ele>
        <time>2019-02-23T07:59:26.802Z</time>
      </trkpt>
      <trkpt lat="40.724168" lon="-3.417540">
        <ele>839.4</ele>
        <time>2019-02-23T07:59:32.802Z</time>
      </trkpt>
      <trkpt lat="40.724241" lon="-3.417539">
        <ele>839.4</ele>
        <time>2019-02-23T07:59:33.802Z</time>
      </trkpt>
      <trkpt lat="40.724686" lon="-3.417536">
        <ele>839.8</ele>
        <time>2019-02-23T07:59:39.802Z</time>
      </trkpt>
      <trkpt lat="40.724762" lon="-3.417534">
        <ele>840.1</ele>
        <time>2019-02-23T07:59:40.802Z</time>
      </trkpt>
      <trkpt lat="40.724839" lon="-3.417532">
        <ele>840.6</ele>
        <time>2019-02-23T07:59:41.802Z</time>
      </trkpt>
      <trkpt lat="40.724916" lon="-3.417530">
        <ele>841.0</ele>
        <time>2019-02-23T07:59:42.802Z</time>
      </trkpt>
      <trkpt lat="40.724992" lon="-3.417529">
        <ele>841.5</ele>
        <time>2019-02-23T07:59:43.802Z</time>
      </trkpt>
      <trkpt lat="40.725073" lon="-3.417529">
        <ele>841.5</ele>
        <time>2019-02-23T07:59:44.802Z</time>
      </trkpt>
      <trkpt lat="40.725689" lon="-3.417520">
        <ele>841.4</ele>
        <time>2019-02-23T07:59:52.802Z</time>
      </trkpt>
      <trkpt lat="40.726144" lon="-3.417511">
        <ele>841.4</ele>
        <time>2019-02-23T07:59:58.802Z</time>
      </trkpt>
      <trkpt lat="40.726747" lon="-3.417493">
        <ele>841.4</ele>
        <time>2019-02-23T08:00:06.802Z</time>
      </trkpt>
      <trkpt lat="40.727190" lon="-3.417436">
        <ele>841.4</ele>
        <time>2019-02-23T08:00:12.802Z</time>
      </trkpt>
      <trkpt lat="40.727723" lon="-3.417313">
        <ele>841.4</ele>
        <time>2019-02-23T08:00:19.802Z</time>
      </trkpt>
      <trkpt lat="40.728099" lon="-3.417223">
        <ele>841.5</ele>
        <time>2019-02-23T08:00:24.802Z</time>
      </trkpt>
      <trkpt lat="40.728684" lon="-3.417043">
        <ele>841.5</ele>
        <time>2019-02-23T08:00:32.802Z</time>
      </trkpt>
      <trkpt lat="40.728900" lon="-3.416947">
        <ele>841.5</ele>
        <time>2019-02-23T08:00:35.802Z</time>
      </trkpt>
      <trkpt lat="40.729369" lon="-3.416659">
        <ele>841.5</ele>
        <time>2019-02-23T08:00:42.802Z</time>
      </trkpt>
      <trkpt lat="40.729878" lon="-3.416252">
        <ele>841.5</ele>
        <time>2019-02-23T08:00:50.802Z</time>
      </trkpt>
      <trkpt lat="40.729943" lon="-3.416200">
        <ele>841.5</ele>
        <time>2019-02-23T08:00:51.802Z</time>
      </trkpt>
      <trkpt lat="40.730418" lon="-3.415922">
        <ele>841.4</ele>
        <time>2019-02-23T08:00:58.802Z</time>
      </trkpt>
      <trkpt lat="40.730853" lon="-3.415804">
        <ele>841.5</ele>
        <time>2019-02-23T08:01:04.802Z</time>
      </trkpt>
      <trkpt lat="40.731285" lon="-3.415728">
        <ele>841.8</ele>
        <time>2019-02-23T08:01:10.802Z</time>
      </trkpt>
      <trkpt lat="40.731359" lon="-3.415712">
        <ele>842.4</ele>
        <time>2019-02-23T08:01:11.802Z</time>
      </trkpt>
      <trkpt lat="40.731432" lon="-3.415700">
        <ele>842.9</ele>
        <time>2019-02-23T08:01:12.802Z</time>
      </trkpt>
      <trkpt lat="40.731507" lon="-3.415691">
        <ele>843.1</ele>
        <time>2019-02-23T08:01:13.802Z</time>
      </trkpt>
      <trkpt lat="40.731584" lon="-3.415685">
        <ele>843.6</ele>
        <time>2019-02-23T08:01:14.802Z</time>
      </trkpt>
      <trkpt lat="40.732044" lon="-3.415683">
        <ele>843.5</ele>
        <time>2019-02-23T08:01:20.802Z</time>
      </trkpt>
      <trkpt lat="40.732596" lon="-3.415678">
        <ele>843.6</ele>
        <time>2019-02-23T08:01:27.802Z</time>
      </trkpt>
      <trkpt lat="40.733041" lon="-3.415669">
        <ele>843.5</ele>
        <time>2019-02-23T08:01:33.802Z</time>
      </trkpt>
      <trkpt lat="40.733647" lon="-3.415659">
        <ele>843.6</ele>
        <time>2019-02-23T08:01:41.802Z</time>
      </trkpt>
      <trkpt lat="40.734039" lon="-3.415656">
        <ele>843.6</ele>
        <time>2019-02-23T08:01:46.802Z</time>
      </trkpt>
      <trkpt lat="40.734603" lon="-3.415672">
        <ele>843.6</ele>
        <time>2019-02-23T08:01:53.802Z</time>
      </trkpt>
      <trkpt lat="40.734769" lon="-3.415691">
        <ele>843.6</ele>
        <time>2019-02-23T08:01:55.802Z</time>
      </trkpt>
      <trkpt lat="40.735359" lon="-3.415734">
        <ele>843.5</ele>
        <time>2019-02-23T08:02:02.802Z</time>
      </trkpt>
      <trkpt lat="40.735612" lon="-3.415740">
        <ele>843.5</ele>
        <time>2019-02-23T08:02:05.802Z</time>
      </trkpt>
      <trkpt lat="40.736202" lon="-3.415744">
        <ele>843.6</ele>
        <time>2019-02-23T08:02:12.802Z</time>
      </trkpt>
      <trkpt lat="40.736540" lon="-3.415744">
        <ele>843.6</ele>
        <time>2019-02-23T08:02:16.802Z</time>
      </trkpt>
      <trkpt lat="40.737129" lon="-3.415753">
        <ele>844.0</ele>
        <time>2019-02-23T08:02:23.802Z</time>
      </trkpt>
      <trkpt lat="40.737212" lon="-3.415756">
        <ele>844.5</ele>
        <time>2019-02-23T08:02:24.802Z</time>
      </trkpt>
      <trkpt lat="40.737298" lon="-3.415758">
        <ele>844.8</ele>
        <time>2019-02-23T08:02:25.802Z</time>
      </trkpt>
      <trkpt lat="40.737379" lon="-3.415757">
        <ele>845.2</ele>
        <time>2019-02-23T08:02:26.802Z</time>
      </trkpt>
      <trkpt lat="40.737462" lon="-3.415758">
        <ele>845.5</ele>
        <time>2019-02-23T08:02:27.802Z</time>
      </trkpt>
      <trkpt lat="40.738017" lon="-3.415760">
        <ele>845.6</ele>
        <time>2019-02-23T08:02:34.802Z</time>
      </trkpt>
      <trkpt lat="40.738251" lon="-3.415761">
        <ele>845.6</ele>
        <time>2019-02-23T08:02:37.802Z</time>
      </trkpt>
      <trkpt lat="40.738767" lon="-3.415740">
        <ele>845.5</ele>
        <time>2019-02-23T08:02:44.802Z</time>
      </trkpt>
      <trkpt lat="40.739218" lon="-3.415719">
        <ele>846.0</ele>
        <time>2019-02-23T08:02:50.802Z</time>
      </trkpt>
      <trkpt lat="40.739296" lon="-3.415717">
        <ele>846.4</ele>
        <time>2019-02-23T08:02:51.802Z</time>
      </trkpt>
      <trkpt lat="40.739375" lon="-3.415714">
        <ele>846.8</ele>
        <time>2019-02-23T08:02:52.802Z</time>
      </trkpt>
      <trkpt lat="40.739455" lon="-3.415711">
        <ele>847.5</ele>
        <time>2019-02-23T08:02:53.802Z</time>
      </trkpt>
      <trkpt lat="40.739535" lon="-3.415707">
        <ele>847.9</ele>
        <time>2019-02-23T08:02:54.802Z</time>
      </trkpt>
      <trkpt lat="40.740121" lon="-3.415688">
        <ele>847.9</ele>
        <time>2019-02-23T08:03:01.802Z</time>
      </trkpt>
      <trkpt lat="40.740520" lon="-3.415670">
        <ele>847.8</ele>
        <time>2019-02-23T08:03:06.802Z</time>
      </trkpt>
      <trkpt lat="40.741089" lon="-3.415603">
        <ele>847.8</ele>
        <time>2019-02-23T08:03:13.802Z</time>
      </trkpt>
      <trkpt lat="40.741254" lon="-3.415561">
        <ele>847.9</ele>
        <time>2019-02-23T08:03:15.802Z</time>
      </trkpt>
      <trkpt lat="40.741803" lon="-3.415403">
        <ele>847.8</ele>
        <time>2019-02-23T08:03:22.802Z</time>
      </trkpt>
      <trkpt lat="40.741963" lon="-3.415353">
        <ele>847.9</ele>
        <time>2019-02-23T08:03:24.802Z</time>
      </trkpt>
      <trkpt lat="40.742530" lon="-3.415110">
        <ele>847.9</ele>
        <time>2019-02-23T08:03:31.802Z</time>
      </trkpt>
      <trkpt lat="40.743022" lon="-3.414712">
        <ele>847.8</ele>
        <time>2019-02-23T08:03:38.802Z</time>
      </trkpt>
      <trkpt lat="40.743501" lon="-3.414316">
        <ele>847.8</ele>
        <time>2019-02-23T08:03:45.802Z</time>
      </trkpt>
      <trkpt lat="40.743567" lon="-3.414263">
        <ele>847.8</ele>
        <time>2019-02-23T08:03:46.802Z</time>
      </trkpt>
      <trkpt lat="40.744049" lon="-3.413909">
        <ele>847.9</ele>
        <time>2019-02-23T08:03:53.802Z</time>
      </trkpt>
      <trkpt lat="40.744273" lon="-3.413808">
        <ele>847.9</ele>
        <time>2019-02-23T08:03:56.802Z</time>
      </trkpt>
      <trkpt lat="40.744824" lon="-3.413649">
        <ele>847.8</ele>
        <time>2019-02-23T08:04:03.802Z</time>
      </trkpt>
      <trkpt lat="40.744905" lon="-3.413626">
        <ele>847.9</ele>
        <time>2019-02-23T08:04:04.802Z</time>
      </trkpt>
      <trkpt lat="40.745437" lon="-3.413472">
        <ele>847.9</ele>
        <time>2019-02-23T08:04:11.802Z</time>
      </trkpt>
      <trkpt lat="40.745921" lon="-3.413344">
        <ele>847.9</ele>
        <time>2019-02-23T08:04:17.802Z</time>
      </trkpt>
      <trkpt lat="40.746259" lon="-3.413318">
        <ele>847.9</ele>
        <time>2019-02-23T08:04:21.802Z</time>
      </trkpt>
      <trkpt lat="40.746418" lon="-3.413325">
        <ele>847.9</ele>
        <time>2019-02-23T08:04:23.802Z</time>
      </trkpt>
      <trkpt lat="40.746978" lon="-3.413348">
        <ele>847.8</ele>
        <time>2019-02-23T08:04:30.802Z</time>
      </trkpt>
      <trkpt lat="40.747305" lon="-3.413349">
        <ele>847.8</ele>
        <time>2019-02-23T08:04:34.802Z</time>
      </trkpt>
      <trkpt lat="40.747770" lon="-3.413337">
        <ele>848.1</ele>
        <time>2019-02-23T08:04:40.802Z</time>
      </trkpt>
      <trkpt lat="40.747845" lon="-3.413335">
        <ele>848.6</ele>
        <time>2019-02-23T08:04:41.802Z</time>
      </trkpt>
      <trkpt lat="40.747991" lon="-3.413330">
        <ele>849.1</ele>
        <time>2019-02-23T08:04:43.802Z</time>
      </trkpt>
      <trkpt lat="40.748066" lon="-3.413327">
        <ele>849.6</ele>
        <time>2019-02-23T08:04:44.802Z</time>
      </trkpt>
      <trkpt lat="40.748141" lon="-3.413326">
        <ele>850.0</ele>
        <time>2019-02-23T08:04:45.802Z</time>
      </trkpt>
      <trkpt lat="40.748686" lon="-3.413307">
        <ele>850.1</ele>
        <time>2019-02-23T08:04:52.802Z</time>
      </trkpt>
      <trkpt lat="40.749201" lon="-3.413286">
        <ele>850.1</ele>
        <time>2019-02-23T08:04:59.802Z</time>
      </trkpt>
      <trkpt lat="40.749756" lon="-3.413293">
        <ele>850.0</ele>
        <time>2019-02-23T08:05:06.802Z</time>
      </trkpt>
      <trkpt lat="40.750327" lon="-3.413306">
        <ele>850.1</ele>
        <time>2019-02-23T08:05:13.802Z</time>
      </trkpt>
      <trkpt lat="40.750404" lon="-3.413307">
        <ele>850.4</ele>
        <time>2019-02-23T08:05:14.802Z</time>
      </trkpt>
      <trkpt lat="40.750484" lon="-3.413309">
        <ele>851.1</ele>
        <time>2019-02-23T08:05:15.802Z</time>
      </trkpt>
      <trkpt lat="40.750562" lon="-3.413309">
        <ele>851.5</ele>
        <time>2019-02-23T08:05:16.802Z</time>
      </trkpt>
      <trkpt lat="40.750639" lon="-3.413310">
        <ele>852.0</ele>
        <time>2019-02-23T08:05:17.802Z</time>
      </trkpt>
      <trkpt lat="40.751183" lon="-3.413304">
        <ele>852.0</ele>
        <time>2019-02-23T08:05:24.802Z</time>
      </trkpt>
      <trkpt lat="40.751259" lon="-3.413299">
        <ele>852.1</ele>
        <time>2019-02-23T08:05:25.802Z</time>
      </trkpt>
      <trkpt lat="40.751834" lon="-3.413247">
        <ele>852.1</ele>
        <time>2019-02-23T08:05:33.802Z</time>
      </trkpt>
      <trkpt lat="40.751978" lon="-3.413212">
        <ele>852.1</ele>
        <time>2019-02-23T08:05:35.802Z</time>
      </trkpt>
      <trkpt lat="40.752508" lon="-3.412856">
        <ele>852.1</ele>
        <time>2019-02-23T08:05:43.802Z</time>
      </trkpt>
      <trkpt lat="40.752915" lon="-3.412503">
        <ele>852.0</ele>
        <time>2019-02-23T08:05:49.802Z</time>
      </trkpt>
      <trkpt lat="40.753375" lon="-3.412101">
        <ele>852.0</ele>
        <time>2019-02-23T08:05:56.802Z</time>
      </trkpt>
      <trkpt lat="40.753630" lon="-3.411870">
        <ele>852.5</ele>
        <time>2019-02-23T08:06:00.802Z</time>
      </trkpt>
      <trkpt lat="40.753694" lon="-3.411810">
        <ele>852.8</ele>
        <time>2019-02-23T08:06:01.802Z</time>
      </trkpt>
      <trkpt lat="40.753750" lon="-3.411747">
        <ele>853.2</ele>
        <time>2019-02-23T08:06:02.802Z</time>
      </trkpt>
      <trkpt lat="40.753802" lon="-3.411680">
        <ele>853.5</ele>
        <time>2019-02-23T08:06:03.802Z</time>
      </trkpt>
      <trkpt lat="40.753850" lon="-3.411608">
        <ele>854.0</ele>
        <time>2019-02-23T08:06:04.802Z</time>
      </trkpt>
      <trkpt lat="40.753918" lon="-3.411436">
        <ele>854.0</ele>
        <time>2019-02-23T08:06:06.802Z</time>
      </trkpt>
      <trkpt lat="40.753947" lon="-3.411339">
        <ele>854.1</ele>
        <time>2019-02-23T08:06:07.802Z</time>
      </trkpt>
      <trkpt lat="40.753993" lon="-3.411141">
        <ele>854.0</ele>
        <time>2019-02-23T08:06:09.802Z</time>
      </trkpt>
      <trkpt lat="40.754017" lon="-3.410944">
        <ele>854.5</ele>
        <time>2019-02-23T08:06:11.802Z</time>
      </trkpt>
      <trkpt lat="40.754029" lon="-3.410849">
        <ele>855.1</ele>
        <time>2019-02-23T08:06:12.802Z</time>
      </trkpt>
      <trkpt lat="40.754047" lon="-3.410749">
        <ele>855.5</ele>
        <time>2019-02-23T08:06:13.802Z</time>
      </trkpt>
      <trkpt lat="40.754064" lon="-3.410649">
        <ele>855.8</ele>
        <time>2019-02-23T08:06:14.802Z</time>
      </trkpt>
      <trkpt lat="40.754081" lon="-3.410549">
        <ele>856.2</ele>
        <time>2019-02-23T08:06:15.802Z</time>
      </trkpt>
      <trkpt lat="40.754144" lon="-3.410143">
        <ele>856.2</ele>
        <time>2019-02-23T08:06:19.802Z</time>
      </trkpt>
      <trkpt lat="40.754257" lon="-3.409429">
        <ele>856.2</ele>
        <time>2019-02-23T08:06:26.802Z</time>
      </trkpt>
      <trkpt lat="40.754324" lon="-3.409010">
        <ele>856.1</ele>
        <time>2019-02-23T08:06:30.802Z</time>
      </trkpt>
      <trkpt lat="40.754360" lon="-3.408798">
        <ele>856.5</ele>
        <time>2019-02-23T08:06:32.802Z</time>
      </trkpt>
      <trkpt lat="40.754376" lon="-3.408698">
        <ele>857.0</ele>
        <time>2019-02-23T08:06:33.802Z</time>
      </trkpt>
      <trkpt lat="40.754393" lon="-3.408596">
        <ele>857.5</ele>
        <time>2019-02-23T08:06:34.802Z</time>
      </trkpt>
      <trkpt lat="40.754410" lon="-3.408491">
        <ele>857.9</ele>
        <time>2019-02-23T08:06:35.802Z</time>
      </trkpt>
      <trkpt lat="40.754427" lon="-3.408383">
        <ele>858.4</ele>
        <time>2019-02-23T08:06:36.802Z</time>
      </trkpt>
      <trkpt lat="40.754521" lon="-3.407845">
        <ele>858.4</ele>
        <time>2019-02-23T08:06:41.802Z</time>
      </trkpt>
      <trkpt lat="40.754644" lon="-3.407087">
        <ele>858.4</ele>
        <time>2019-02-23T08:06:48.802Z</time>
      </trkpt>
      <trkpt lat="40.754708" lon="-3.406743">
        <ele>858.5</ele>
        <time>2019-02-23T08:06:51.802Z</time>
      </trkpt>
      <trkpt lat="40.754727" lon="-3.406630">
        <ele>857.8</ele>
        <time>2019-02-23T08:06:52.802Z</time>
      </trkpt>
      <trkpt lat="40.754746" lon="-3.406522">
        <ele>857.4</ele>
        <time>2019-02-23T08:06:53.802Z</time>
      </trkpt>
      <trkpt lat="40.754765" lon="-3.406419">
        <ele>857.0</ele>
        <time>2019-02-23T08:06:54.802Z</time>
      </trkpt>
      <trkpt lat="40.754783" lon="-3.406311">
        <ele>856.5</ele>
        <time>2019-02-23T08:06:55.802Z</time>
      </trkpt>
      <trkpt lat="40.754800" lon="-3.406213">
        <ele>856.1</ele>
        <time>2019-02-23T08:06:56.802Z</time>
      </trkpt>
      <trkpt lat="40.754830" lon="-3.406017">
        <ele>856.1</ele>
        <time>2019-02-23T08:06:58.802Z</time>
      </trkpt>
      <trkpt lat="40.754957" lon="-3.405251">
        <ele>856.2</ele>
        <time>2019-02-23T08:07:06.802Z</time>
      </trkpt>
      <trkpt lat="40.755002" lon="-3.404972">
        <ele>856.2</ele>
        <time>2019-02-23T08:07:09.802Z</time>
      </trkpt>
      <trkpt lat="40.755110" lon="-3.404247">
        <ele>856.1</ele>
        <time>2019-02-23T08:07:17.802Z</time>
      </trkpt>
      <trkpt lat="40.755125" lon="-3.404163">
        <ele>856.5</ele>
        <time>2019-02-23T08:07:18.802Z</time>
      </trkpt>
      <trkpt lat="40.755139" lon="-3.404077">
        <ele>857.0</ele>
        <time>2019-02-23T08:07:19.802Z</time>
      </trkpt>
      <trkpt lat="40.755156" lon="-3.403997">
        <ele>857.5</ele>
        <time>2019-02-23T08:07:20.802Z</time>
      </trkpt>
      <trkpt lat="40.755170" lon="-3.403921">
        <ele>857.8</ele>
        <time>2019-02-23T08:07:21.802Z</time>
      </trkpt>
      <trkpt lat="40.755181" lon="-3.403844">
        <ele>858.2</ele>
        <time>2019-02-23T08:07:22.802Z</time>
      </trkpt>
      <trkpt lat="40.755216" lon="-3.403713">
        <ele>858.1</ele>
        <time>2019-02-23T08:07:24.802Z</time>
      </trkpt>
      <trkpt lat="40.755261" lon="-3.403570">
        <ele>858.1</ele>
        <time>2019-02-23T08:07:26.802Z</time>
      </trkpt>
      <trkpt lat="40.755352" lon="-3.403065">
        <ele>858.1</ele>
        <time>2019-02-23T08:07:32.802Z</time>
      </trkpt>
      <trkpt lat="40.755463" lon="-3.402346">
        <ele>858.5</ele>
        <time>2019-02-23T08:07:41.802Z</time>
      </trkpt>
      <trkpt lat="40.755475" lon="-3.402269">
        <ele>859.1</ele>
        <time>2019-02-23T08:07:42.802Z</time>
      </trkpt>
      <trkpt lat="40.755487" lon="-3.402195">
        <ele>859.4</ele>
        <time>2019-02-23T08:07:43.802Z</time>
      </trkpt>
      <trkpt lat="40.755499" lon="-3.402124">
        <ele>859.9</ele>
        <time>2019-02-23T08:07:44.802Z</time>
      </trkpt>
      <trkpt lat="40.755511" lon="-3.402053">
        <ele>860.2</ele>
        <time>2019-02-23T08:07:45.802Z</time>
      </trkpt>
      <trkpt lat="40.755548" lon="-3.401829">
        <ele>860.2</ele>
        <time>2019-02-23T08:07:48.802Z</time>
      </trkpt>
      <trkpt lat="40.755600" lon="-3.401516">
        <ele>860.1</ele>
        <time>2019-02-23T08:07:52.802Z</time>
      </trkpt>
      <trkpt lat="40.755718" lon="-3.400792">
        <ele>860.2</ele>
        <time>2019-02-23T08:08:01.802Z</time>
      </trkpt>
      <trkpt lat="40.755731" lon="-3.400704">
        <ele>860.2</ele>
        <time>2019-02-23T08:08:02.802Z</time>
      </trkpt>
      <trkpt lat="40.755754" lon="-3.400549">
        <ele>860.5</ele>
        <time>2019-02-23T08:08:04.802Z</time>
      </trkpt>
      <trkpt lat="40.755766" lon="-3.400475">
        <ele>861.1</ele>
        <time>2019-02-23T08:08:05.802Z</time>
      </trkpt>
      <trkpt lat="40.755778" lon="-3.400400">
        <ele>861.5</ele>
        <time>2019-02-23T08:08:06.802Z</time>
      </trkpt>
      <trkpt lat="40.755791" lon="-3.400323">
        <ele>862.0</ele>
        <time>2019-02-23T08:08:07.802Z</time>
      </trkpt>
      <trkpt lat="40.755804" lon="-3.400248">
        <ele>862.5</ele>
        <time>2019-02-23T08:08:08.802Z</time>
      </trkpt>
      <trkpt lat="40.755918" lon="-3.399537">
        <ele>862.5</ele>
        <time>2019-02-23T08:08:17.802Z</time>
      </trkpt>
      <trkpt lat="40.756038" lon="-3.398828">
        <ele>862.4</ele>
        <time>2019-02-23T08:08:26.802Z</time>
      </trkpt>
      <trkpt lat="40.756052" lon="-3.398749">
        <ele>862.5</ele>
        <time>2019-02-23T08:08:27.802Z</time>
      </trkpt>
      <trkpt lat="40.756158" lon="-3.398127">
        <ele>862.8</ele>
        <time>2019-02-23T08:08:35.802Z</time>
      </trkpt>
      <trkpt lat="40.756171" lon="-3.398053">
        <ele>863.5</ele>
        <time>2019-02-23T08:08:36.802Z</time>
      </trkpt>
      <trkpt lat="40.756184" lon="-3.397979">
        <ele>863.8</ele>
        <time>2019-02-23T08:08:37.802Z</time>
      </trkpt>
      <trkpt lat="40.756198" lon="-3.397901">
        <ele>864.2</ele>
        <time>2019-02-23T08:08:38.802Z</time>
      </trkpt>
      <trkpt lat="40.756211" lon="-3.397825">
        <ele>864.9</ele>
        <time>2019-02-23T08:08:39.802Z</time>
      </trkpt>
      <trkpt lat="40.756281" lon="-3.397412">
        <ele>864.8</ele>
        <time>2019-02-23T08:08:44.802Z</time>
      </trkpt>
      <trkpt lat="40.756397" lon="-3.396709">
        <ele>864.8</ele>
        <time>2019-02-23T08:08:52.802Z</time>
      </trkpt>
      <trkpt lat="40.756440" lon="-3.396448">
        <ele>864.8</ele>
        <time>2019-02-23T08:08:55.802Z</time>
      </trkpt>
      <trkpt lat="40.756567" lon="-3.395690">
        <ele>864.9</ele>
        <time>2019-02-23T08:09:04.802Z</time>
      </trkpt>
      <trkpt lat="40.756612" lon="-3.395422">
        <ele>864.8</ele>
        <time>2019-02-23T08:09:07.802Z</time>
      </trkpt>
      <trkpt lat="40.756737" lon="-3.394674">
        <ele>864.9</ele>
        <time>2019-02-23T08:09:15.802Z</time>
      </trkpt>
      <trkpt lat="40.756796" lon="-3.394327">
        <ele>864.9</ele>
        <time>2019-02-23T08:09:19.802Z</time>
      </trkpt>
      <trkpt lat="40.756912" lon="-3.393635">
        <ele>864.9</ele>
        <time>2019-02-23T08:09:27.802Z</time>
      </trkpt>
      <trkpt lat="40.757041" lon="-3.392906">
        <ele>864.8</ele>
        <time>2019-02-23T08:09:35.802Z</time>
      </trkpt>
      <trkpt lat="40.757092" lon="-3.392614">
        <ele>864.9</ele>
        <time>2019-02-23T08:09:38.802Z</time>
      </trkpt>
      <trkpt lat="40.757186" lon="-3.392052">
        <ele>864.9</ele>
        <time>2019-02-23T08:09:44.802Z</time>
      </trkpt>
      <trkpt lat="40.757305" lon="-3.391338">
        <ele>864.9</ele>
        <time>2019-02-23T08:09:52.802Z</time>
      </trkpt>
      <trkpt lat="40.757321" lon="-3.391250">
        <ele>864.8</ele>
        <time>2019-02-23T08:09:53.802Z</time>
      </trkpt>
      <trkpt lat="40.757438" lon="-3.390514">
        <ele>864.8</ele>
        <time>2019-02-23T08:10:02.802Z</time>
      </trkpt>
      <trkpt lat="40.757451" lon="-3.390434">
        <ele>864.8</ele>
        <time>2019-02-23T08:10:03.802Z</time>
      </trkpt>
      <trkpt lat="40.757509" lon="-3.390103">
        <ele>865.1</ele>
        <time>2019-02-23T08:10:07.802Z</time>
      </trkpt>
      <trkpt lat="40.757523" lon="-3.390019">
        <ele>865.6</ele>
        <time>2019-02-23T08:10:08.802Z</time>
      </trkpt>
      <trkpt lat="40.757538" lon="-3.389935">
        <ele>866.0</ele>
        <time>2019-02-23T08:10:09.802Z</time>
      </trkpt>
      <trkpt lat="40.757552" lon="-3.389853">
        <ele>866.5</ele>
        <time>2019-02-23T08:10:10.802Z</time>
      </trkpt>
      <trkpt lat="40.757564" lon="-3.389772">
        <ele>866.8</ele>
        <time>2019-02-23T08:10:11.802Z</time>
      </trkpt>
      <trkpt lat="40.757593" lon="-3.389608">
        <ele>866.9</ele>
        <time>2019-02-23T08:10:13.802Z</time>
      </trkpt>
      <trkpt lat="40.757700" lon="-3.388994">
        <ele>866.9</ele>
        <time>2019-02-23T08:10:20.802Z</time>
      </trkpt>
      <trkpt lat="40.757827" lon="-3.388317">
        <ele>866.8</ele>
        <time>2019-02-23T08:10:28.802Z</time>
      </trkpt>
      <trkpt lat="40.757948" lon="-3.387593">
        <ele>866.9</ele>
        <time>2019-02-23T08:10:36.802Z</time>
      </trkpt>
      <trkpt lat="40.757968" lon="-3.387494">
        <ele>866.8</ele>
        <time>2019-02-23T08:10:37.802Z</time>
      </trkpt>
      <trkpt lat="40.758085" lon="-3.386793">
        <ele>866.8</ele>
        <time>2019-02-23T08:10:44.802Z</time>
      </trkpt>
      <trkpt lat="40.758187" lon="-3.386178">
        <ele>866.9</ele>
        <time>2019-02-23T08:10:50.802Z</time>
      </trkpt>
      <trkpt lat="40.758274" lon="-3.385658">
        <ele>867.2</ele>
        <time>2019-02-23T08:10:55.802Z</time>
      </trkpt>
      <trkpt lat="40.758291" lon="-3.385556">
        <ele>867.6</ele>
        <time>2019-02-23T08:10:56.802Z</time>
      </trkpt>
      <trkpt lat="40.758307" lon="-3.385461">
        <ele>868.1</ele>
        <time>2019-02-23T08:10:57.802Z</time>
      </trkpt>
      <trkpt lat="40.758323" lon="-3.385361">
        <ele>868.5</ele>
        <time>2019-02-23T08:10:58.802Z</time>
      </trkpt>
      <trkpt lat="40.758338" lon="-3.385265">
        <ele>868.8</ele>
        <time>2019-02-23T08:10:59.802Z</time>
      </trkpt>
      <trkpt lat="40.758404" lon="-3.384890">
        <ele>868.9</ele>
        <time>2019-02-23T08:11:03.802Z</time>
      </trkpt>
      <trkpt lat="40.758585" lon="-3.384151">
        <ele>868.9</ele>
        <time>2019-02-23T08:11:11.802Z</time>
      </trkpt>
      <trkpt lat="40.758631" lon="-3.384068">
        <ele>868.9</ele>
        <time>2019-02-23T08:11:12.802Z</time>
      </trkpt>
      <trkpt lat="40.758771" lon="-3.383843">
        <ele>868.8</ele>
        <time>2019-02-23T08:11:15.802Z</time>
      </trkpt>
      <trkpt lat="40.758891" lon="-3.383724">
        <ele>868.8</ele>
        <time>2019-02-23T08:11:17.802Z</time>
      </trkpt>
      <trkpt lat="40.759104" lon="-3.383572">
        <ele>868.8</ele>
        <time>2019-02-23T08:11:20.802Z</time>
      </trkpt>
      <trkpt lat="40.759266" lon="-3.383466">
        <ele>868.8</ele>
        <time>2019-02-23T08:11:22.802Z</time>
      </trkpt>
      <trkpt lat="40.759432" lon="-3.383360">
        <ele>868.5</ele>
        <time>2019-02-23T08:11:24.802Z</time>
      </trkpt>
      <trkpt lat="40.759515" lon="-3.383307">
        <ele>868.0</ele>
        <time>2019-02-23T08:11:25.802Z</time>
      </trkpt>
      <trkpt lat="40.759602" lon="-3.383251">
        <ele>867.6</ele>
        <time>2019-02-23T08:11:26.802Z</time>
      </trkpt>
      <trkpt lat="40.759690" lon="-3.383194">
        <ele>867.1</ele>
        <time>2019-02-23T08:11:27.802Z</time>
      </trkpt>
      <trkpt lat="40.759778" lon="-3.383137">
        <ele>866.1</ele>
        <time>2019-02-23T08:11:28.802Z</time>
      </trkpt>
      <trkpt lat="40.759866" lon="-3.383080">
        <ele>865.6</ele>
        <time>2019-02-23T08:11:29.802Z</time>
      </trkpt>
      <trkpt lat="40.759957" lon="-3.383020">
        <ele>865.0</ele>
        <time>2019-02-23T08:11:30.802Z</time>
      </trkpt>
      <trkpt lat="40.760048" lon="-3.382959">
        <ele>864.2</ele>
        <time>2019-02-23T08:11:31.802Z</time>
      </trkpt>
      <trkpt lat="40.760141" lon="-3.382896">
        <ele>863.8</ele>
        <time>2019-02-23T08:11:32.802Z</time>
      </trkpt>
      <trkpt lat="40.760232" lon="-3.382832">
        <ele>863.4</ele>
        <time>2019-02-23T08:11:33.802Z</time>
      </trkpt>
      <trkpt lat="40.760319" lon="-3.382770">
        <ele>863.0</ele>
        <time>2019-02-23T08:11:34.802Z</time>
      </trkpt>
      <trkpt lat="40.760402" lon="-3.382710">
        <ele>862.4</ele>
        <time>2019-02-23T08:11:35.802Z</time>
      </trkpt>
      <trkpt lat="40.760484" lon="-3.382652">
        <ele>862.0</ele>
        <time>2019-02-23T08:11:36.802Z</time>
      </trkpt>
      <trkpt lat="40.760567" lon="-3.382593">
        <ele>861.5</ele>
        <time>2019-02-23T08:11:37.802Z</time>
      </trkpt>
      <trkpt lat="40.760655" lon="-3.382532">
        <ele>861.0</ele>
        <time>2019-02-23T08:11:38.802Z</time>
      </trkpt>
      <trkpt lat="40.760740" lon="-3.382472">
        <ele>860.5</ele>
        <time>2019-02-23T08:11:39.802Z</time>
      </trkpt>
      <trkpt lat="40.760829" lon="-3.382406">
        <ele>859.9</ele>
        <time>2019-02-23T08:11:40.802Z</time>
      </trkpt>
      <trkpt lat="40.760919" lon="-3.382340">
        <ele>859.1</ele>
        <time>2019-02-23T08:11:41.802Z</time>
      </trkpt>
      <trkpt lat="40.761011" lon="-3.382276">
        <ele>858.4</ele>
        <time>2019-02-23T08:11:42.802Z</time>
      </trkpt>
      <trkpt lat="40.761107" lon="-3.382213">
        <ele>857.6</ele>
        <time>2019-02-23T08:11:43.802Z</time>
      </trkpt>
      <trkpt lat="40.761205" lon="-3.382151">
        <ele>857.1</ele>
        <time>2019-02-23T08:11:44.802Z</time>
      </trkpt>
      <trkpt lat="40.761304" lon="-3.382089">
        <ele>856.4</ele>
        <time>2019-02-23T08:11:45.802Z</time>
      </trkpt>
      <trkpt lat="40.761403" lon="-3.382025">
        <ele>856.0</ele>
        <time>2019-02-23T08:11:46.802Z</time>
      </trkpt>
      <trkpt lat="40.761500" lon="-3.381960">
        <ele>855.4</ele>
        <time>2019-02-23T08:11:47.802Z</time>
      </trkpt>
      <trkpt lat="40.761601" lon="-3.381893">
        <ele>854.8</ele>
        <time>2019-02-23T08:11:48.802Z</time>
      </trkpt>
      <trkpt lat="40.761705" lon="-3.381825">
        <ele>854.2</ele>
        <time>2019-02-23T08:11:49.802Z</time>
      </trkpt>
      <trkpt lat="40.761811" lon="-3.381754">
        <ele>853.6</ele>
        <time>2019-02-23T08:11:50.802Z</time>
      </trkpt>
      <trkpt lat="40.761915" lon="-3.381684">
        <ele>852.8</ele>
        <time>2019-02-23T08:11:51.802Z</time>
      </trkpt>
      <trkpt lat="40.762017" lon="-3.381616">
        <ele>852.0</ele>
        <time>2019-02-23T08:11:52.802Z</time>
      </trkpt>
      <trkpt lat="40.762118" lon="-3.381550">
        <ele>851.2</ele>
        <time>2019-02-23T08:11:53.802Z</time>
      </trkpt>
      <trkpt lat="40.762212" lon="-3.381488">
        <ele>850.4</ele>
        <time>2019-02-23T08:11:54.802Z</time>
      </trkpt>
      <trkpt lat="40.762302" lon="-3.381429">
        <ele>849.5</ele>
        <time>2019-02-23T08:11:55.802Z</time>
      </trkpt>
      <trkpt lat="40.762389" lon="-3.381371">
        <ele>848.9</ele>
        <time>2019-02-23T08:11:56.802Z</time>
      </trkpt>
      <trkpt lat="40.762477" lon="-3.381315">
        <ele>848.1</ele>
        <time>2019-02-23T08:11:57.802Z</time>
      </trkpt>
      <trkpt lat="40.762565" lon="-3.381257">
        <ele>847.4</ele>
        <time>2019-02-23T08:11:58.802Z</time>
      </trkpt>
      <trkpt lat="40.762660" lon="-3.381196">
        <ele>846.9</ele>
        <time>2019-02-23T08:11:59.802Z</time>
      </trkpt>
      <trkpt lat="40.762750" lon="-3.381135">
        <ele>846.2</ele>
        <time>2019-02-23T08:12:00.802Z</time>
      </trkpt>
      <trkpt lat="40.762848" lon="-3.381067">
        <ele>845.4</ele>
        <time>2019-02-23T08:12:01.802Z</time>
      </trkpt>
      <trkpt lat="40.762947" lon="-3.381001">
        <ele>844.9</ele>
        <time>2019-02-23T08:12:02.802Z</time>
      </trkpt>
      <trkpt lat="40.763048" lon="-3.380934">
        <ele>844.0</ele>
        <time>2019-02-23T08:12:03.802Z</time>
      </trkpt>
      <trkpt lat="40.763149" lon="-3.380868">
        <ele>843.2</ele>
        <time>2019-02-23T08:12:04.802Z</time>
      </trkpt>
      <trkpt lat="40.763252" lon="-3.380800">
        <ele>842.5</ele>
        <time>2019-02-23T08:12:05.802Z</time>
      </trkpt>
      <trkpt lat="40.763357" lon="-3.380734">
        <ele>841.9</ele>
        <time>2019-02-23T08:12:06.802Z</time>
      </trkpt>
      <trkpt lat="40.763454" lon="-3.380672">
        <ele>841.2</ele>
        <time>2019-02-23T08:12:07.802Z</time>
      </trkpt>
      <trkpt lat="40.763549" lon="-3.380613">
        <ele>840.5</ele>
        <time>2019-02-23T08:12:08.802Z</time>
      </trkpt>
      <trkpt lat="40.763727" lon="-3.380499">
        <ele>840.0</ele>
        <time>2019-02-23T08:12:10.802Z</time>
      </trkpt>
      <trkpt lat="40.763796" lon="-3.380453">
        <ele>839.4</ele>
        <time>2019-02-23T08:12:11.802Z</time>
      </trkpt>
      <trkpt lat="40.763856" lon="-3.380411">
        <ele>839.1</ele>
        <time>2019-02-23T08:12:12.802Z</time>
      </trkpt>
      <trkpt lat="40.763924" lon="-3.380375">
        <ele>838.6</ele>
        <time>2019-02-23T08:12:13.802Z</time>
      </trkpt>
      <trkpt lat="40.763994" lon="-3.380353">
        <ele>838.1</ele>
        <time>2019-02-23T08:12:14.802Z</time>
      </trkpt>
      <trkpt lat="40.764226" lon="-3.380342">
        <ele>838.0</ele>
        <time>2019-02-23T08:12:17.802Z</time>
      </trkpt>
      <trkpt lat="40.764791" lon="-3.380394">
        <ele>838.1</ele>
        <time>2019-02-23T08:12:24.802Z</time>
      </trkpt>
      <trkpt lat="40.764876" lon="-3.380411">
        <ele>838.1</ele>
        <time>2019-02-23T08:12:25.802Z</time>
      </trkpt>
      <trkpt lat="40.765388" lon="-3.380514">
        <ele>838.0</ele>
        <time>2019-02-23T08:12:31.802Z</time>
      </trkpt>
      <trkpt lat="40.765552" lon="-3.380512">
        <ele>838.0</ele>
        <time>2019-02-23T08:12:33.802Z</time>
      </trkpt>
      <trkpt lat="40.765665" lon="-3.380499">
        <ele>838.1</ele>
        <time>2019-02-23T08:12:35.802Z</time>
      </trkpt>
      <trkpt lat="40.765765" lon="-3.380471">
        <ele>838.0</ele>
        <time>2019-02-23T08:12:39.802Z</time>
      </trkpt>
      <trkpt lat="40.765821" lon="-3.380446">
        <ele>838.0</ele>
        <time>2019-02-23T08:12:44.802Z</time>
      </trkpt>
      <trkpt lat="40.765962" lon="-3.380406">
        <ele>838.0</ele>
        <time>2019-02-23T08:12:51.802Z</time>
      </trkpt>
      <trkpt lat="40.766174" lon="-3.380315">
        <ele>838.1</ele>
        <time>2019-02-23T08:12:56.802Z</time>
      </trkpt>
      <trkpt lat="40.766377" lon="-3.380247">
        <ele>838.5</ele>
        <time>2019-02-23T08:13:00.802Z</time>
      </trkpt>
      <trkpt lat="40.766426" lon="-3.380227">
        <ele>839.0</ele>
        <time>2019-02-23T08:13:01.802Z</time>
      </trkpt>
      <trkpt lat="40.766473" lon="-3.380208">
        <ele>839.4</ele>
        <time>2019-02-23T08:13:02.802Z</time>
      </trkpt>
      <trkpt lat="40.766525" lon="-3.380189">
        <ele>839.9</ele>
        <time>2019-02-23T08:13:03.802Z</time>
      </trkpt>
      <trkpt lat="40.766580" lon="-3.380171">
        <ele>840.4</ele>
        <time>2019-02-23T08:13:04.802Z</time>
      </trkpt>
      <trkpt lat="40.767028" lon="-3.380039">
        <ele>840.4</ele>
        <time>2019-02-23T08:13:11.802Z</time>
      </trkpt>
      <trkpt lat="40.767529" lon="-3.379987">
        <ele>840.5</ele>
        <time>2019-02-23T08:13:18.802Z</time>
      </trkpt>
      <trkpt lat="40.767944" lon="-3.379870">
        <ele>840.4</ele>
        <time>2019-02-23T08:13:24.802Z</time>
      </trkpt>
      <trkpt lat="40.768002" lon="-3.379824">
        <ele>840.4</ele>
        <time>2019-02-23T08:13:25.802Z</time>
      </trkpt>
      <trkpt lat="40.768175" lon="-3.379571">
        <ele>840.4</ele>
        <time>2019-02-23T08:13:29.802Z</time>
      </trkpt>
      <trkpt lat="40.768210" lon="-3.379500">
        <ele>840.4</ele>
        <time>2019-02-23T08:13:30.802Z</time>
      </trkpt>
      <trkpt lat="40.768426" lon="-3.378991">
        <ele>840.4</ele>
        <time>2019-02-23T08:13:37.802Z</time>
      </trkpt>
      <trkpt lat="40.768455" lon="-3.378921">
        <ele>840.8</ele>
        <time>2019-02-23T08:13:38.802Z</time>
      </trkpt>
      <trkpt lat="40.768483" lon="-3.378854">
        <ele>841.2</ele>
        <time>2019-02-23T08:13:39.802Z</time>
      </trkpt>
      <trkpt lat="40.768513" lon="-3.378790">
        <ele>841.6</ele>
        <time>2019-02-23T08:13:40.802Z</time>
      </trkpt>
      <trkpt lat="40.768542" lon="-3.378726">
        <ele>842.0</ele>
        <time>2019-02-23T08:13:41.802Z</time>
      </trkpt>
      <trkpt lat="40.768568" lon="-3.378665">
        <ele>842.5</ele>
        <time>2019-02-23T08:13:42.802Z</time>
      </trkpt>
      <trkpt lat="40.768662" lon="-3.378423">
        <ele>842.5</ele>
        <time>2019-02-23T08:13:46.802Z</time>
      </trkpt>
      <trkpt lat="40.768692" lon="-3.378362">
        <ele>843.0</ele>
        <time>2019-02-23T08:13:47.802Z</time>
      </trkpt>
      <trkpt lat="40.768744" lon="-3.378252">
        <ele>843.5</ele>
        <time>2019-02-23T08:13:49.802Z</time>
      </trkpt>
      <trkpt lat="40.768769" lon="-3.378198">
        <ele>844.1</ele>
        <time>2019-02-23T08:13:50.802Z</time>
      </trkpt>
      <trkpt lat="40.768791" lon="-3.378148">
        <ele>844.4</ele>
        <time>2019-02-23T08:13:51.802Z</time>
      </trkpt>
      <trkpt lat="40.768815" lon="-3.378097">
        <ele>844.8</ele>
        <time>2019-02-23T08:13:52.802Z</time>
      </trkpt>
      <trkpt lat="40.768861" lon="-3.377994">
        <ele>844.9</ele>
        <time>2019-02-23T08:13:54.802Z</time>
      </trkpt>
      <trkpt lat="40.768939" lon="-3.377797">
        <ele>845.8</ele>
        <time>2019-02-23T08:13:58.802Z</time>
      </trkpt>
      <trkpt lat="40.768980" lon="-3.377698">
        <ele>846.6</ele>
        <time>2019-02-23T08:14:00.802Z</time>
      </trkpt>
      <trkpt lat="40.769004" lon="-3.377645">
        <ele>847.2</ele>
        <time>2019-02-23T08:14:01.802Z</time>
      </trkpt>
      <trkpt lat="40.769027" lon="-3.377594">
        <ele>847.2</ele>
        <time>2019-02-23T08:14:02.802Z</time>
      </trkpt>
      <trkpt lat="40.769115" lon="-3.377386">
        <ele>847.2</ele>
        <time>2019-02-23T08:14:06.802Z</time>
      </trkpt>
      <trkpt lat="40.769166" lon="-3.377288">
        <ele>847.6</ele>
        <time>2019-02-23T08:14:08.802Z</time>
      </trkpt>
      <trkpt lat="40.769185" lon="-3.377242">
        <ele>848.0</ele>
        <time>2019-02-23T08:14:09.802Z</time>
      </trkpt>
      <trkpt lat="40.769212" lon="-3.377199">
        <ele>848.5</ele>
        <time>2019-02-23T08:14:10.802Z</time>
      </trkpt>
      <trkpt lat="40.769241" lon="-3.377156">
        <ele>848.8</ele>
        <time>2019-02-23T08:14:11.802Z</time>
      </trkpt>
      <trkpt lat="40.769263" lon="-3.377117">
        <ele>849.1</ele>
        <time>2019-02-23T08:14:12.802Z</time>
      </trkpt>
      <trkpt lat="40.769340" lon="-3.376998">
        <ele>849.1</ele>
        <time>2019-02-23T08:14:15.802Z</time>
      </trkpt>
      <trkpt lat="40.769490" lon="-3.376831">
        <ele>849.5</ele>
        <time>2019-02-23T08:14:20.802Z</time>
      </trkpt>
      <trkpt lat="40.769522" lon="-3.376795">
        <ele>850.1</ele>
        <time>2019-02-23T08:14:21.802Z</time>
      </trkpt>
      <trkpt lat="40.769552" lon="-3.376758">
        <ele>850.5</ele>
        <time>2019-02-23T08:14:22.802Z</time>
      </trkpt>
      <trkpt lat="40.769582" lon="-3.376718">
        <ele>851.0</ele>
        <time>2019-02-23T08:14:23.802Z</time>
      </trkpt>
      <trkpt lat="40.769611" lon="-3.376677">
        <ele>851.4</ele>
        <time>2019-02-23T08:14:24.802Z</time>
      </trkpt>
      <trkpt lat="40.769669" lon="-3.376581">
        <ele>851.9</ele>
        <time>2019-02-23T08:14:26.802Z</time>
      </trkpt>
      <trkpt lat="40.769691" lon="-3.376526">
        <ele>852.2</ele>
        <time>2019-02-23T08:14:27.802Z</time>
      </trkpt>
      <trkpt lat="40.769713" lon="-3.376471">
        <ele>852.5</ele>
        <time>2019-02-23T08:14:28.802Z</time>
      </trkpt>
      <trkpt lat="40.769736" lon="-3.376416">
        <ele>853.0</ele>
        <time>2019-02-23T08:14:29.802Z</time>
      </trkpt>
      <trkpt lat="40.769754" lon="-3.376358">
        <ele>853.5</ele>
        <time>2019-02-23T08:14:30.802Z</time>
      </trkpt>
      <trkpt lat="40.769839" lon="-3.376179">
        <ele>853.4</ele>
        <time>2019-02-23T08:14:34.802Z</time>
      </trkpt>
      <trkpt lat="40.769870" lon="-3.376138">
        <ele>854.0</ele>
        <time>2019-02-23T08:14:35.802Z</time>
      </trkpt>
      <trkpt lat="40.769900" lon="-3.376092">
        <ele>854.5</ele>
        <time>2019-02-23T08:14:36.802Z</time>
      </trkpt>
      <trkpt lat="40.769925" lon="-3.376048">
        <ele>854.9</ele>
        <time>2019-02-23T08:14:37.802Z</time>
      </trkpt>
      <trkpt lat="40.769954" lon="-3.376011">
        <ele>855.2</ele>
        <time>2019-02-23T08:14:38.802Z</time>
      </trkpt>
      <trkpt lat="40.769985" lon="-3.375966">
        <ele>855.9</ele>
        <time>2019-02-23T08:14:39.802Z</time>
      </trkpt>
      <trkpt lat="40.770020" lon="-3.375925">
        <ele>855.9</ele>
        <time>2019-02-23T08:14:40.802Z</time>
      </trkpt>
      <trkpt lat="40.770160" lon="-3.375832">
        <ele>855.9</ele>
        <time>2019-02-23T08:14:43.802Z</time>
      </trkpt>
      <trkpt lat="40.770294" lon="-3.375758">
        <ele>856.2</ele>
        <time>2019-02-23T08:14:46.802Z</time>
      </trkpt>
      <trkpt lat="40.770340" lon="-3.375727">
        <ele>856.6</ele>
        <time>2019-02-23T08:14:47.802Z</time>
      </trkpt>
      <trkpt lat="40.770379" lon="-3.375697">
        <ele>857.1</ele>
        <time>2019-02-23T08:14:48.802Z</time>
      </trkpt>
      <trkpt lat="40.770427" lon="-3.375660">
        <ele>857.4</ele>
        <time>2019-02-23T08:14:49.802Z</time>
      </trkpt>
      <trkpt lat="40.770473" lon="-3.375623">
        <ele>857.8</ele>
        <time>2019-02-23T08:14:50.802Z</time>
      </trkpt>
      <trkpt lat="40.770611" lon="-3.375501">
        <ele>858.1</ele>
        <time>2019-02-23T08:14:53.802Z</time>
      </trkpt>
      <trkpt lat="40.770650" lon="-3.375461">
        <ele>858.6</ele>
        <time>2019-02-23T08:14:54.802Z</time>
      </trkpt>
      <trkpt lat="40.770693" lon="-3.375418">
        <ele>859.2</ele>
        <time>2019-02-23T08:14:55.802Z</time>
      </trkpt>
      <trkpt lat="40.770734" lon="-3.375374">
        <ele>859.6</ele>
        <time>2019-02-23T08:14:56.802Z</time>
      </trkpt>
      <trkpt lat="40.770772" lon="-3.375329">
        <ele>860.0</ele>
        <time>2019-02-23T08:14:57.802Z</time>
      </trkpt>
      <trkpt lat="40.770942" lon="-3.375086">
        <ele>860.1</ele>
        <time>2019-02-23T08:15:02.802Z</time>
      </trkpt>
      <trkpt lat="40.770964" lon="-3.375032">
        <ele>860.5</ele>
        <time>2019-02-23T08:15:03.802Z</time>
      </trkpt>
      <trkpt lat="40.770989" lon="-3.374979">
        <ele>860.9</ele>
        <time>2019-02-23T08:15:04.802Z</time>
      </trkpt>
      <trkpt lat="40.771011" lon="-3.374925">
        <ele>861.5</ele>
        <time>2019-02-23T08:15:05.802Z</time>
      </trkpt>
      <trkpt lat="40.771035" lon="-3.374869">
        <ele>861.9</ele>
        <time>2019-02-23T08:15:06.802Z</time>
      </trkpt>
      <trkpt lat="40.771059" lon="-3.374815">
        <ele>862.2</ele>
        <time>2019-02-23T08:15:07.802Z</time>
      </trkpt>
      <trkpt lat="40.771129" lon="-3.374648">
        <ele>862.1</ele>
        <time>2019-02-23T08:15:10.802Z</time>
      </trkpt>
      <trkpt lat="40.771154" lon="-3.374592">
        <ele>862.5</ele>
        <time>2019-02-23T08:15:11.802Z</time>
      </trkpt>
      <trkpt lat="40.771179" lon="-3.374537">
        <ele>863.2</ele>
        <time>2019-02-23T08:15:12.802Z</time>
      </trkpt>
      <trkpt lat="40.771205" lon="-3.374482">
        <ele>863.5</ele>
        <time>2019-02-23T08:15:13.802Z</time>
      </trkpt>
      <trkpt lat="40.771228" lon="-3.374425">
        <ele>864.0</ele>
        <time>2019-02-23T08:15:14.802Z</time>
      </trkpt>
      <trkpt lat="40.771251" lon="-3.374366">
        <ele>864.4</ele>
        <time>2019-02-23T08:15:15.802Z</time>
      </trkpt>
      <trkpt lat="40.771302" lon="-3.374245">
        <ele>864.4</ele>
        <time>2019-02-23T08:15:17.802Z</time>
      </trkpt>
      <trkpt lat="40.771326" lon="-3.374185">
        <ele>864.5</ele>
        <time>2019-02-23T08:15:18.802Z</time>
      </trkpt>
      <trkpt lat="40.771390" lon="-3.374015">
        <ele>864.5</ele>
        <time>2019-02-23T08:15:21.802Z</time>
      </trkpt>
      <trkpt lat="40.771402" lon="-3.373905">
        <ele>864.9</ele>
        <time>2019-02-23T08:15:23.802Z</time>
      </trkpt>
      <trkpt lat="40.771400" lon="-3.373841">
        <ele>865.1</ele>
        <time>2019-02-23T08:15:24.802Z</time>
      </trkpt>
      <trkpt lat="40.771398" lon="-3.373778">
        <ele>865.6</ele>
        <time>2019-02-23T08:15:25.802Z</time>
      </trkpt>
      <trkpt lat="40.771398" lon="-3.373717">
        <ele>866.0</ele>
        <time>2019-02-23T08:15:26.802Z</time>
      </trkpt>
      <trkpt lat="40.771396" lon="-3.373656">
        <ele>866.4</ele>
        <time>2019-02-23T08:15:27.802Z</time>
      </trkpt>
      <trkpt lat="40.771398" lon="-3.373540">
        <ele>866.5</ele>
        <time>2019-02-23T08:15:29.802Z</time>
      </trkpt>
      <trkpt lat="40.771402" lon="-3.373481">
        <ele>866.8</ele>
        <time>2019-02-23T08:15:30.802Z</time>
      </trkpt>
      <trkpt lat="40.771409" lon="-3.373419">
        <ele>867.2</ele>
        <time>2019-02-23T08:15:31.802Z</time>
      </trkpt>
      <trkpt lat="40.771423" lon="-3.373360">
        <ele>867.5</ele>
        <time>2019-02-23T08:15:32.802Z</time>
      </trkpt>
      <trkpt lat="40.771437" lon="-3.373302">
        <ele>868.0</ele>
        <time>2019-02-23T08:15:33.802Z</time>
      </trkpt>
      <trkpt lat="40.771451" lon="-3.373247">
        <ele>868.4</ele>
        <time>2019-02-23T08:15:34.802Z</time>
      </trkpt>
      <trkpt lat="40.771472" lon="-3.373191">
        <ele>868.4</ele>
        <time>2019-02-23T08:15:35.802Z</time>
      </trkpt>
      <trkpt lat="40.771543" lon="-3.373023">
        <ele>869.0</ele>
        <time>2019-02-23T08:15:38.802Z</time>
      </trkpt>
      <trkpt lat="40.771563" lon="-3.372966">
        <ele>869.4</ele>
        <time>2019-02-23T08:15:39.802Z</time>
      </trkpt>
      <trkpt lat="40.771583" lon="-3.372909">
        <ele>870.0</ele>
        <time>2019-02-23T08:15:40.802Z</time>
      </trkpt>
      <trkpt lat="40.771603" lon="-3.372854">
        <ele>870.4</ele>
        <time>2019-02-23T08:15:41.802Z</time>
      </trkpt>
      <trkpt lat="40.771628" lon="-3.372801">
        <ele>871.0</ele>
        <time>2019-02-23T08:15:42.802Z</time>
      </trkpt>
      <trkpt lat="40.771676" lon="-3.372709">
        <ele>871.0</ele>
        <time>2019-02-23T08:15:44.802Z</time>
      </trkpt>
      <trkpt lat="40.771744" lon="-3.372512">
        <ele>871.5</ele>
        <time>2019-02-23T08:15:48.802Z</time>
      </trkpt>
      <trkpt lat="40.771768" lon="-3.372467">
        <ele>871.9</ele>
        <time>2019-02-23T08:15:49.802Z</time>
      </trkpt>
      <trkpt lat="40.771801" lon="-3.372415">
        <ele>872.2</ele>
        <time>2019-02-23T08:15:50.802Z</time>
      </trkpt>
      <trkpt lat="40.771826" lon="-3.372360">
        <ele>872.6</ele>
        <time>2019-02-23T08:15:51.802Z</time>
      </trkpt>
      <trkpt lat="40.771857" lon="-3.372310">
        <ele>873.1</ele>
        <time>2019-02-23T08:15:52.802Z</time>
      </trkpt>
      <trkpt lat="40.772041" lon="-3.371941">
        <ele>873.0</ele>
        <time>2019-02-23T08:15:59.802Z</time>
      </trkpt>
      <trkpt lat="40.772067" lon="-3.371884">
        <ele>873.5</ele>
        <time>2019-02-23T08:16:00.802Z</time>
      </trkpt>
      <trkpt lat="40.772084" lon="-3.371828">
        <ele>874.1</ele>
        <time>2019-02-23T08:16:01.802Z</time>
      </trkpt>
      <trkpt lat="40.772108" lon="-3.371772">
        <ele>874.4</ele>
        <time>2019-02-23T08:16:02.802Z</time>
      </trkpt>
      <trkpt lat="40.772122" lon="-3.371715">
        <ele>874.8</ele>
        <time>2019-02-23T08:16:03.802Z</time>
      </trkpt>
      <trkpt lat="40.772160" lon="-3.371612">
        <ele>875.4</ele>
        <time>2019-02-23T08:16:05.802Z</time>
      </trkpt>
      <trkpt lat="40.772225" lon="-3.371460">
        <ele>875.5</ele>
        <time>2019-02-23T08:16:08.802Z</time>
      </trkpt>
      <trkpt lat="40.772354" lon="-3.371222">
        <ele>875.8</ele>
        <time>2019-02-23T08:16:13.802Z</time>
      </trkpt>
      <trkpt lat="40.772385" lon="-3.371176">
        <ele>876.1</ele>
        <time>2019-02-23T08:16:14.802Z</time>
      </trkpt>
      <trkpt lat="40.772418" lon="-3.371129">
        <ele>876.6</ele>
        <time>2019-02-23T08:16:15.802Z</time>
      </trkpt>
      <trkpt lat="40.772450" lon="-3.371078">
        <ele>877.0</ele>
        <time>2019-02-23T08:16:16.802Z</time>
      </trkpt>
      <trkpt lat="40.772483" lon="-3.371027">
        <ele>877.5</ele>
        <time>2019-02-23T08:16:17.802Z</time>
      </trkpt>
      <trkpt lat="40.772772" lon="-3.370651">
        <ele>878.0</ele>
        <time>2019-02-23T08:16:25.802Z</time>
      </trkpt>
      <trkpt lat="40.772806" lon="-3.370607">
        <ele>878.5</ele>
        <time>2019-02-23T08:16:26.802Z</time>
      </trkpt>
      <trkpt lat="40.772841" lon="-3.370560">
        <ele>878.8</ele>
        <time>2019-02-23T08:16:27.802Z</time>
      </trkpt>
      <trkpt lat="40.772877" lon="-3.370512">
        <ele>879.1</ele>
        <time>2019-02-23T08:16:28.802Z</time>
      </trkpt>
      <trkpt lat="40.772914" lon="-3.370464">
        <ele>879.8</ele>
        <time>2019-02-23T08:16:29.802Z</time>
      </trkpt>
      <trkpt lat="40.773134" lon="-3.370191">
        <ele>879.8</ele>
        <time>2019-02-23T08:16:35.802Z</time>
      </trkpt>
      <trkpt lat="40.773281" lon="-3.370004">
        <ele>880.2</ele>
        <time>2019-02-23T08:16:39.802Z</time>
      </trkpt>
      <trkpt lat="40.773320" lon="-3.369959">
        <ele>880.5</ele>
        <time>2019-02-23T08:16:40.802Z</time>
      </trkpt>
      <trkpt lat="40.773360" lon="-3.369912">
        <ele>881.1</ele>
        <time>2019-02-23T08:16:41.802Z</time>
      </trkpt>
      <trkpt lat="40.773398" lon="-3.369862">
        <ele>881.4</ele>
        <time>2019-02-23T08:16:42.802Z</time>
      </trkpt>
      <trkpt lat="40.773433" lon="-3.369816">
        <ele>881.8</ele>
        <time>2019-02-23T08:16:43.802Z</time>
      </trkpt>
      <trkpt lat="40.773582" lon="-3.369634">
        <ele>881.9</ele>
        <time>2019-02-23T08:16:47.802Z</time>
      </trkpt>
      <trkpt lat="40.773613" lon="-3.369581">
        <ele>881.8</ele>
        <time>2019-02-23T08:16:48.802Z</time>
      </trkpt>
      <trkpt lat="40.773712" lon="-3.369331">
        <ele>881.9</ele>
        <time>2019-02-23T08:16:52.802Z</time>
      </trkpt>
      <trkpt lat="40.773878" lon="-3.368763">
        <ele>881.9</ele>
        <time>2019-02-23T08:17:00.802Z</time>
      </trkpt>
      <trkpt lat="40.774092" lon="-3.368058">
        <ele>881.8</ele>
        <time>2019-02-23T08:17:09.802Z</time>
      </trkpt>
      <trkpt lat="40.774115" lon="-3.367978">
        <ele>881.8</ele>
        <time>2019-02-23T08:17:10.802Z</time>
      </trkpt>
      <trkpt lat="40.774324" lon="-3.367317">
        <ele>881.8</ele>
        <time>2019-02-23T08:17:18.802Z</time>
      </trkpt>
      <trkpt lat="40.774348" lon="-3.367235">
        <ele>881.9</ele>
        <time>2019-02-23T08:17:19.802Z</time>
      </trkpt>
      <trkpt lat="40.774547" lon="-3.366570">
        <ele>881.9</ele>
        <time>2019-02-23T08:17:27.802Z</time>
      </trkpt>
      <trkpt lat="40.774619" lon="-3.366322">
        <ele>881.8</ele>
        <time>2019-02-23T08:17:30.802Z</time>
      </trkpt>
      <trkpt lat="40.774833" lon="-3.365639">
        <ele>881.8</ele>
        <time>2019-02-23T08:17:38.802Z</time>
      </trkpt>
      <trkpt lat="40.774860" lon="-3.365552">
        <ele>881.9</ele>
        <time>2019-02-23T08:17:39.802Z</time>
      </trkpt>
      <trkpt lat="40.775043" lon="-3.364951">
        <ele>882.1</ele>
        <time>2019-02-23T08:17:46.802Z</time>
      </trkpt>
      <trkpt lat="40.775067" lon="-3.364873">
        <ele>882.6</ele>
        <time>2019-02-23T08:17:47.802Z</time>
      </trkpt>
      <trkpt lat="40.775091" lon="-3.364797">
        <ele>883.1</ele>
        <time>2019-02-23T08:17:48.802Z</time>
      </trkpt>
      <trkpt lat="40.775114" lon="-3.364720">
        <ele>883.5</ele>
        <time>2019-02-23T08:17:49.802Z</time>
      </trkpt>
      <trkpt lat="40.775138" lon="-3.364639">
        <ele>884.1</ele>
        <time>2019-02-23T08:17:50.802Z</time>
      </trkpt>
      <trkpt lat="40.775471" lon="-3.363992">
        <ele>884.0</ele>
        <time>2019-02-23T08:17:59.802Z</time>
      </trkpt>
      <trkpt lat="40.775732" lon="-3.363555">
        <ele>884.0</ele>
        <time>2019-02-23T08:18:05.802Z</time>
      </trkpt>
      <trkpt lat="40.776071" lon="-3.362992">
        <ele>884.1</ele>
        <time>2019-02-23T08:18:13.802Z</time>
      </trkpt>
      <trkpt lat="40.776435" lon="-3.362394">
        <ele>884.0</ele>
        <time>2019-02-23T08:18:21.802Z</time>
      </trkpt>
      <trkpt lat="40.776477" lon="-3.362326">
        <ele>884.1</ele>
        <time>2019-02-23T08:18:22.802Z</time>
      </trkpt>
      <trkpt lat="40.776834" lon="-3.361744">
        <ele>884.1</ele>
        <time>2019-02-23T08:18:31.802Z</time>
      </trkpt>
      <trkpt lat="40.776873" lon="-3.361680">
        <ele>884.1</ele>
        <time>2019-02-23T08:18:32.802Z</time>
      </trkpt>
      <trkpt lat="40.777234" lon="-3.361090">
        <ele>884.4</ele>
        <time>2019-02-23T08:18:41.802Z</time>
      </trkpt>
      <trkpt lat="40.777266" lon="-3.361039">
        <ele>884.8</ele>
        <time>2019-02-23T08:18:42.802Z</time>
      </trkpt>
      <trkpt lat="40.777296" lon="-3.360991">
        <ele>885.1</ele>
        <time>2019-02-23T08:18:43.802Z</time>
      </trkpt>
      <trkpt lat="40.777328" lon="-3.360945">
        <ele>885.5</ele>
        <time>2019-02-23T08:18:44.802Z</time>
      </trkpt>
      <trkpt lat="40.777359" lon="-3.360903">
        <ele>886.0</ele>
        <time>2019-02-23T08:18:45.802Z</time>
      </trkpt>
      <trkpt lat="40.777456" lon="-3.360768">
        <ele>886.0</ele>
        <time>2019-02-23T08:18:48.802Z</time>
      </trkpt>
      <trkpt lat="40.777707" lon="-3.360344">
        <ele>886.0</ele>
        <time>2019-02-23T08:18:55.802Z</time>
      </trkpt>
      <trkpt lat="40.778019" lon="-3.359792">
        <ele>886.1</ele>
        <time>2019-02-23T08:19:03.802Z</time>
      </trkpt>
      <trkpt lat="40.778363" lon="-3.359221">
        <ele>886.0</ele>
        <time>2019-02-23T08:19:11.802Z</time>
      </trkpt>
      <trkpt lat="40.778732" lon="-3.358636">
        <ele>886.1</ele>
        <time>2019-02-23T08:19:19.802Z</time>
      </trkpt>
      <trkpt lat="40.778874" lon="-3.358446">
        <ele>886.1</ele>
        <time>2019-02-23T08:19:22.802Z</time>
      </trkpt>
      <trkpt lat="40.779228" lon="-3.358021">
        <ele>886.1</ele>
        <time>2019-02-23T08:19:30.802Z</time>
      </trkpt>
      <trkpt lat="40.779550" lon="-3.357651">
        <ele>886.1</ele>
        <time>2019-02-23T08:19:37.802Z</time>
      </trkpt>
      <trkpt lat="40.779956" lon="-3.357162">
        <ele>886.0</ele>
        <time>2019-02-23T08:19:46.802Z</time>
      </trkpt>
      <trkpt lat="40.780046" lon="-3.357056">
        <ele>886.1</ele>
        <time>2019-02-23T08:19:48.802Z</time>
      </trkpt>
      <trkpt lat="40.780459" lon="-3.356583">
        <ele>886.1</ele>
        <time>2019-02-23T08:19:57.802Z</time>
      </trkpt>
      <trkpt lat="40.780549" lon="-3.356478">
        <ele>886.4</ele>
        <time>2019-02-23T08:19:59.802Z</time>
      </trkpt>
      <trkpt lat="40.780595" lon="-3.356426">
        <ele>887.0</ele>
        <time>2019-02-23T08:20:00.802Z</time>
      </trkpt>
      <trkpt lat="40.780639" lon="-3.356378">
        <ele>887.4</ele>
        <time>2019-02-23T08:20:01.802Z</time>
      </trkpt>
      <trkpt lat="40.780686" lon="-3.356326">
        <ele>887.9</ele>
        <time>2019-02-23T08:20:02.802Z</time>
      </trkpt>
      <trkpt lat="40.780730" lon="-3.356277">
        <ele>888.1</ele>
        <time>2019-02-23T08:20:03.802Z</time>
      </trkpt>
      <trkpt lat="40.780772" lon="-3.356228">
        <ele>888.1</ele>
        <time>2019-02-23T08:20:04.802Z</time>
      </trkpt>
      <trkpt lat="40.781196" lon="-3.355725">
        <ele>888.2</ele>
        <time>2019-02-23T08:20:14.802Z</time>
      </trkpt>
      <trkpt lat="40.781377" lon="-3.355521">
        <ele>888.1</ele>
        <time>2019-02-23T08:20:18.802Z</time>
      </trkpt>
      <trkpt lat="40.781679" lon="-3.355092">
        <ele>888.2</ele>
        <time>2019-02-23T08:20:26.802Z</time>
      </trkpt>
      <trkpt lat="40.781879" lon="-3.354469">
        <ele>888.1</ele>
        <time>2019-02-23T08:20:35.802Z</time>
      </trkpt>
      <trkpt lat="40.782031" lon="-3.353887">
        <ele>888.1</ele>
        <time>2019-02-23T08:20:43.802Z</time>
      </trkpt>
      <trkpt lat="40.782229" lon="-3.353148">
        <ele>888.2</ele>
        <time>2019-02-23T08:20:54.802Z</time>
      </trkpt>
      <trkpt lat="40.782433" lon="-3.352570">
        <ele>888.1</ele>
        <time>2019-02-23T08:21:02.802Z</time>
      </trkpt>
      <trkpt lat="40.782474" lon="-3.352505">
        <ele>888.1</ele>
        <time>2019-02-23T08:21:03.802Z</time>
      </trkpt>
      <trkpt lat="40.782681" lon="-3.352301">
        <ele>888.1</ele>
        <time>2019-02-23T08:21:07.802Z</time>
      </trkpt>
      <trkpt lat="40.782738" lon="-3.352258">
        <ele>888.2</ele>
        <time>2019-02-23T08:21:08.802Z</time>
      </trkpt>
      <trkpt lat="40.783073" lon="-3.352031">
        <ele>888.2</ele>
        <time>2019-02-23T08:21:14.802Z</time>
      </trkpt>
      <trkpt lat="40.783323" lon="-3.352014">
        <ele>888.1</ele>
        <time>2019-02-23T08:21:18.802Z</time>
      </trkpt>
      <trkpt lat="40.783510" lon="-3.352079">
        <ele>888.2</ele>
        <time>2019-02-23T08:21:21.802Z</time>
      </trkpt>
      <trkpt lat="40.783636" lon="-3.352136">
        <ele>888.2</ele>
        <time>2019-02-23T08:21:23.802Z</time>
      </trkpt>
      <trkpt lat="40.784167" lon="-3.352382">
        <ele>888.2</ele>
        <time>2019-02-23T08:21:31.802Z</time>
      </trkpt>
      <trkpt lat="40.784380" lon="-3.352479">
        <ele>887.9</ele>
        <time>2019-02-23T08:21:34.802Z</time>
      </trkpt>
      <trkpt lat="40.784455" lon="-3.352511">
        <ele>887.1</ele>
        <time>2019-02-23T08:21:35.802Z</time>
      </trkpt>
      <trkpt lat="40.784530" lon="-3.352546">
        <ele>886.8</ele>
        <time>2019-02-23T08:21:36.802Z</time>
      </trkpt>
      <trkpt lat="40.784610" lon="-3.352578">
        <ele>886.5</ele>
        <time>2019-02-23T08:21:37.802Z</time>
      </trkpt>
      <trkpt lat="40.784692" lon="-3.352595">
        <ele>886.0</ele>
        <time>2019-02-23T08:21:38.802Z</time>
      </trkpt>
      <trkpt lat="40.784859" lon="-3.352581">
        <ele>885.4</ele>
        <time>2019-02-23T08:21:40.802Z</time>
      </trkpt>
      <trkpt lat="40.784942" lon="-3.352551">
        <ele>885.1</ele>
        <time>2019-02-23T08:21:41.802Z</time>
      </trkpt>
      <trkpt lat="40.785025" lon="-3.352514">
        <ele>884.5</ele>
        <time>2019-02-23T08:21:42.802Z</time>
      </trkpt>
      <trkpt lat="40.785106" lon="-3.352472">
        <ele>884.1</ele>
        <time>2019-02-23T08:21:43.802Z</time>
      </trkpt>
      <trkpt lat="40.785185" lon="-3.352431">
        <ele>883.9</ele>
        <time>2019-02-23T08:21:44.802Z</time>
      </trkpt>
      <trkpt lat="40.785646" lon="-3.352188">
        <ele>883.5</ele>
        <time>2019-02-23T08:21:50.802Z</time>
      </trkpt>
      <trkpt lat="40.785729" lon="-3.352155">
        <ele>882.9</ele>
        <time>2019-02-23T08:21:51.802Z</time>
      </trkpt>
      <trkpt lat="40.785815" lon="-3.352124">
        <ele>882.5</ele>
        <time>2019-02-23T08:21:52.802Z</time>
      </trkpt>
      <trkpt lat="40.785903" lon="-3.352099">
        <ele>882.1</ele>
        <time>2019-02-23T08:21:53.802Z</time>
      </trkpt>
      <trkpt lat="40.785994" lon="-3.352079">
        <ele>881.6</ele>
        <time>2019-02-23T08:21:54.802Z</time>
      </trkpt>
      <trkpt lat="40.786085" lon="-3.352065">
        <ele>881.1</ele>
        <time>2019-02-23T08:21:55.802Z</time>
      </trkpt>
      <trkpt lat="40.786182" lon="-3.352053">
        <ele>880.4</ele>
        <time>2019-02-23T08:21:56.802Z</time>
      </trkpt>
      <trkpt lat="40.786277" lon="-3.352043">
        <ele>879.8</ele>
        <time>2019-02-23T08:21:57.802Z</time>
      </trkpt>
      <trkpt lat="40.786368" lon="-3.352033">
        <ele>879.5</ele>
        <time>2019-02-23T08:21:58.802Z</time>
      </trkpt>
      <trkpt lat="40.786457" lon="-3.352022">
        <ele>878.8</ele>
        <time>2019-02-23T08:21:59.802Z</time>
      </trkpt>
      <trkpt lat="40.786631" lon="-3.351998">
        <ele>878.1</ele>
        <time>2019-02-23T08:22:01.802Z</time>
      </trkpt>
      <trkpt lat="40.786722" lon="-3.351986">
        <ele>877.8</ele>
        <time>2019-02-23T08:22:02.802Z</time>
      </trkpt>
      <trkpt lat="40.786811" lon="-3.351975">
        <ele>877.5</ele>
        <time>2019-02-23T08:22:03.802Z</time>
      </trkpt>
      <trkpt lat="40.786901" lon="-3.351964">
        <ele>876.9</ele>
        <time>2019-02-23T08:22:04.802Z</time>
      </trkpt>
      <trkpt lat="40.786990" lon="-3.351952">
        <ele>876.5</ele>
        <time>2019-02-23T08:22:05.802Z</time>
      </trkpt>
      <trkpt lat="40.787358" lon="-3.351898">
        <ele>876.0</ele>
        <time>2019-02-23T08:22:09.802Z</time>
      </trkpt>
      <trkpt lat="40.787446" lon="-3.351890">
        <ele>875.5</ele>
        <time>2019-02-23T08:22:10.802Z</time>
      </trkpt>
      <trkpt lat="40.787529" lon="-3.351884">
        <ele>875.0</ele>
        <time>2019-02-23T08:22:11.802Z</time>
      </trkpt>
      <trkpt lat="40.787611" lon="-3.351889">
        <ele>874.5</ele>
        <time>2019-02-23T08:22:12.802Z</time>
      </trkpt>
      <trkpt lat="40.787695" lon="-3.351907">
        <ele>874.0</ele>
        <time>2019-02-23T08:22:13.802Z</time>
      </trkpt>
      <trkpt lat="40.787778" lon="-3.351936">
        <ele>874.1</ele>
        <time>2019-02-23T08:22:14.802Z</time>
      </trkpt>
      <trkpt lat="40.787861" lon="-3.351977">
        <ele>873.6</ele>
        <time>2019-02-23T08:22:15.802Z</time>
      </trkpt>
      <trkpt lat="40.787943" lon="-3.352029">
        <ele>873.1</ele>
        <time>2019-02-23T08:22:16.802Z</time>
      </trkpt>
      <trkpt lat="40.788030" lon="-3.352091">
        <ele>872.9</ele>
        <time>2019-02-23T08:22:17.802Z</time>
      </trkpt>
      <trkpt lat="40.788117" lon="-3.352147">
        <ele>872.5</ele>
        <time>2019-02-23T08:22:18.802Z</time>
      </trkpt>
      <trkpt lat="40.788203" lon="-3.352196">
        <ele>871.8</ele>
        <time>2019-02-23T08:22:19.802Z</time>
      </trkpt>
      <trkpt lat="40.788305" lon="-3.352222">
        <ele>871.2</ele>
        <time>2019-02-23T08:22:20.802Z</time>
      </trkpt>
      <trkpt lat="40.788405" lon="-3.352235">
        <ele>870.5</ele>
        <time>2019-02-23T08:22:21.802Z</time>
      </trkpt>
      <trkpt lat="40.788508" lon="-3.352236">
        <ele>869.9</ele>
        <time>2019-02-23T08:22:22.802Z</time>
      </trkpt>
      <trkpt lat="40.788609" lon="-3.352232">
        <ele>869.0</ele>
        <time>2019-02-23T08:22:23.802Z</time>
      </trkpt>
      <trkpt lat="40.788712" lon="-3.352202">
        <ele>868.1</ele>
        <time>2019-02-23T08:22:24.802Z</time>
      </trkpt>
      <trkpt lat="40.788808" lon="-3.352143">
        <ele>867.4</ele>
        <time>2019-02-23T08:22:25.802Z</time>
      </trkpt>
      <trkpt lat="40.788891" lon="-3.352057">
        <ele>866.9</ele>
        <time>2019-02-23T08:22:26.802Z</time>
      </trkpt>
      <trkpt lat="40.788964" lon="-3.351956">
        <ele>866.0</ele>
        <time>2019-02-23T08:22:27.802Z</time>
      </trkpt>
      <trkpt lat="40.789020" lon="-3.351841">
        <ele>865.4</ele>
        <time>2019-02-23T08:22:28.802Z</time>
      </trkpt>
      <trkpt lat="40.789053" lon="-3.351716">
        <ele>864.5</ele>
        <time>2019-02-23T08:22:29.802Z</time>
      </trkpt>
      <trkpt lat="40.789065" lon="-3.351584">
        <ele>864.6</ele>
        <time>2019-02-23T08:22:30.802Z</time>
      </trkpt>
      <trkpt lat="40.789030" lon="-3.351232">
        <ele>864.6</ele>
        <time>2019-02-23T08:22:33.802Z</time>
      </trkpt>
      <trkpt lat="40.789015" lon="-3.351123">
        <ele>865.1</ele>
        <time>2019-02-23T08:22:34.802Z</time>
      </trkpt>
      <trkpt lat="40.789004" lon="-3.351021">
        <ele>865.4</ele>
        <time>2019-02-23T08:22:35.802Z</time>
      </trkpt>
      <trkpt lat="40.788998" lon="-3.350924">
        <ele>865.9</ele>
        <time>2019-02-23T08:22:36.802Z</time>
      </trkpt>
      <trkpt lat="40.788988" lon="-3.350734">
        <ele>866.8</ele>
        <time>2019-02-23T08:22:38.802Z</time>
      </trkpt>
      <trkpt lat="40.788986" lon="-3.350506">
        <ele>867.1</ele>
        <time>2019-02-23T08:22:41.802Z</time>
      </trkpt>
      <trkpt lat="40.788983" lon="-3.350439">
        <ele>867.5</ele>
        <time>2019-02-23T08:22:42.802Z</time>
      </trkpt>
      <trkpt lat="40.788983" lon="-3.350373">
        <ele>868.0</ele>
        <time>2019-02-23T08:22:43.802Z</time>
      </trkpt>
      <trkpt lat="40.788983" lon="-3.350314">
        <ele>868.5</ele>
        <time>2019-02-23T08:22:44.802Z</time>
      </trkpt>
      <trkpt lat="40.788980" lon="-3.350263">
        <ele>869.0</ele>
        <time>2019-02-23T08:22:45.802Z</time>
      </trkpt>
      <trkpt lat="40.788969" lon="-3.350152">
        <ele>869.0</ele>
        <time>2019-02-23T08:22:47.802Z</time>
      </trkpt>
      <trkpt lat="40.788965" lon="-3.349974">
        <ele>869.4</ele>
        <time>2019-02-23T08:22:50.802Z</time>
      </trkpt>
      <trkpt lat="40.788965" lon="-3.349918">
        <ele>870.0</ele>
        <time>2019-02-23T08:22:51.802Z</time>
      </trkpt>
      <trkpt lat="40.788970" lon="-3.349865">
        <ele>870.6</ele>
        <time>2019-02-23T08:22:52.802Z</time>
      </trkpt>
      <trkpt lat="40.788977" lon="-3.349814">
        <ele>871.1</ele>
        <time>2019-02-23T08:22:53.802Z</time>
      </trkpt>
      <trkpt lat="40.788990" lon="-3.349767">
        <ele>871.6</ele>
        <time>2019-02-23T08:22:54.802Z</time>
      </trkpt>
      <trkpt lat="40.789024" lon="-3.349677">
        <ele>871.5</ele>
        <time>2019-02-23T08:22:56.802Z</time>
      </trkpt>
      <trkpt lat="40.789043" lon="-3.349637">
        <ele>872.0</ele>
        <time>2019-02-23T08:22:57.802Z</time>
      </trkpt>
      <trkpt lat="40.789065" lon="-3.349594">
        <ele>872.4</ele>
        <time>2019-02-23T08:22:58.802Z</time>
      </trkpt>
      <trkpt lat="40.789090" lon="-3.349554">
        <ele>873.1</ele>
        <time>2019-02-23T08:22:59.802Z</time>
      </trkpt>
      <trkpt lat="40.789122" lon="-3.349524">
        <ele>873.4</ele>
        <time>2019-02-23T08:23:00.802Z</time>
      </trkpt>
      <trkpt lat="40.789161" lon="-3.349485">
        <ele>873.9</ele>
        <time>2019-02-23T08:23:01.802Z</time>
      </trkpt>
      <trkpt lat="40.789343" lon="-3.349340">
        <ele>873.9</ele>
        <time>2019-02-23T08:23:05.802Z</time>
      </trkpt>
      <trkpt lat="40.789445" lon="-3.349294">
        <ele>873.8</ele>
        <time>2019-02-23T08:23:07.802Z</time>
      </trkpt>
      <trkpt lat="40.789562" lon="-3.349297">
        <ele>873.9</ele>
        <time>2019-02-23T08:23:09.802Z</time>
      </trkpt>
      <trkpt lat="40.789790" lon="-3.349392">
        <ele>873.8</ele>
        <time>2019-02-23T08:23:13.802Z</time>
      </trkpt>
      <trkpt lat="40.790324" lon="-3.349672">
        <ele>873.9</ele>
        <time>2019-02-23T08:23:23.802Z</time>
      </trkpt>
      <trkpt lat="40.790670" lon="-3.349948">
        <ele>873.8</ele>
        <time>2019-02-23T08:23:30.802Z</time>
      </trkpt>
      <trkpt lat="40.791046" lon="-3.350305">
        <ele>873.8</ele>
        <time>2019-02-23T08:23:38.802Z</time>
      </trkpt>
      <trkpt lat="40.791345" lon="-3.350554">
        <ele>873.8</ele>
        <time>2019-02-23T08:23:45.802Z</time>
      </trkpt>
      <trkpt lat="40.791396" lon="-3.350576">
        <ele>873.8</ele>
        <time>2019-02-23T08:23:46.802Z</time>
      </trkpt>
      <trkpt lat="40.791570" lon="-3.350599">
        <ele>873.9</ele>
        <time>2019-02-23T08:23:49.802Z</time>
      </trkpt>
      <trkpt lat="40.791629" lon="-3.350598">
        <ele>873.9</ele>
        <time>2019-02-23T08:23:50.802Z</time>
      </trkpt>
      <trkpt lat="40.791744" lon="-3.350591">
        <ele>873.8</ele>
        <time>2019-02-23T08:23:52.802Z</time>
      </trkpt>
      <trkpt lat="40.791802" lon="-3.350577">
        <ele>873.9</ele>
        <time>2019-02-23T08:23:53.802Z</time>
      </trkpt>
      <trkpt lat="40.791918" lon="-3.350506">
        <ele>873.8</ele>
        <time>2019-02-23T08:23:55.802Z</time>
      </trkpt>
      <trkpt lat="40.792035" lon="-3.350279">
        <ele>873.9</ele>
        <time>2019-02-23T08:23:58.802Z</time>
      </trkpt>
      <trkpt lat="40.791999" lon="-3.350020">
        <ele>873.8</ele>
        <time>2019-02-23T08:24:01.802Z</time>
      </trkpt>
      <trkpt lat="40.791902" lon="-3.349890">
        <ele>873.9</ele>
        <time>2019-02-23T08:24:03.802Z</time>
      </trkpt>
      <trkpt lat="40.791805" lon="-3.349780">
        <ele>873.8</ele>
        <time>2019-02-23T08:24:05.802Z</time>
      </trkpt>
      <trkpt lat="40.791536" lon="-3.349524">
        <ele>874.5</ele>
        <time>2019-02-23T08:24:11.802Z</time>
      </trkpt>
      <trkpt lat="40.791498" lon="-3.349486">
        <ele>874.8</ele>
        <time>2019-02-23T08:24:12.802Z</time>
      </trkpt>
      <trkpt lat="40.791461" lon="-3.349450">
        <ele>875.1</ele>
        <time>2019-02-23T08:24:13.802Z</time>
      </trkpt>
      <trkpt lat="40.791424" lon="-3.349416">
        <ele>875.5</ele>
        <time>2019-02-23T08:24:14.802Z</time>
      </trkpt>
      <trkpt lat="40.791388" lon="-3.349380">
        <ele>876.0</ele>
        <time>2019-02-23T08:24:15.802Z</time>
      </trkpt>
      <trkpt lat="40.791255" lon="-3.349228">
        <ele>876.4</ele>
        <time>2019-02-23T08:24:19.802Z</time>
      </trkpt>
      <trkpt lat="40.791222" lon="-3.349182">
        <ele>876.8</ele>
        <time>2019-02-23T08:24:20.802Z</time>
      </trkpt>
      <trkpt lat="40.791198" lon="-3.349130">
        <ele>877.2</ele>
        <time>2019-02-23T08:24:21.802Z</time>
      </trkpt>
      <trkpt lat="40.791172" lon="-3.349077">
        <ele>877.6</ele>
        <time>2019-02-23T08:24:22.802Z</time>
      </trkpt>
      <trkpt lat="40.791151" lon="-3.349019">
        <ele>878.0</ele>
        <time>2019-02-23T08:24:23.802Z</time>
      </trkpt>
      <trkpt lat="40.791133" lon="-3.348960">
        <ele>878.0</ele>
        <time>2019-02-23T08:24:24.802Z</time>
      </trkpt>
      <trkpt lat="40.791066" lon="-3.348674">
        <ele>878.1</ele>
        <time>2019-02-23T08:24:29.802Z</time>
      </trkpt>
      <trkpt lat="40.791072" lon="-3.348562">
        <ele>878.5</ele>
        <time>2019-02-23T08:24:31.802Z</time>
      </trkpt>
      <trkpt lat="40.791084" lon="-3.348510">
        <ele>879.0</ele>
        <time>2019-02-23T08:24:32.802Z</time>
      </trkpt>
      <trkpt lat="40.791099" lon="-3.348461">
        <ele>879.4</ele>
        <time>2019-02-23T08:24:33.802Z</time>
      </trkpt>
      <trkpt lat="40.791116" lon="-3.348418">
        <ele>879.9</ele>
        <time>2019-02-23T08:24:34.802Z</time>
      </trkpt>
      <trkpt lat="40.791137" lon="-3.348374">
        <ele>880.5</ele>
        <time>2019-02-23T08:24:35.802Z</time>
      </trkpt>
      <trkpt lat="40.791165" lon="-3.348331">
        <ele>880.4</ele>
        <time>2019-02-23T08:24:36.802Z</time>
      </trkpt>
      <trkpt lat="40.791360" lon="-3.348190">
        <ele>880.4</ele>
        <time>2019-02-23T08:24:41.802Z</time>
      </trkpt>
      <trkpt lat="40.791438" lon="-3.348161">
        <ele>880.8</ele>
        <time>2019-02-23T08:24:43.802Z</time>
      </trkpt>
      <trkpt lat="40.791480" lon="-3.348147">
        <ele>881.2</ele>
        <time>2019-02-23T08:24:44.802Z</time>
      </trkpt>
      <trkpt lat="40.791517" lon="-3.348131">
        <ele>881.6</ele>
        <time>2019-02-23T08:24:45.802Z</time>
      </trkpt>
      <trkpt lat="40.791556" lon="-3.348124">
        <ele>882.1</ele>
        <time>2019-02-23T08:24:46.802Z</time>
      </trkpt>
      <trkpt lat="40.791591" lon="-3.348112">
        <ele>882.5</ele>
        <time>2019-02-23T08:24:47.802Z</time>
      </trkpt>
      <trkpt lat="40.791739" lon="-3.348056">
        <ele>882.8</ele>
        <time>2019-02-23T08:24:51.802Z</time>
      </trkpt>
      <trkpt lat="40.791773" lon="-3.348042">
        <ele>883.1</ele>
        <time>2019-02-23T08:24:52.802Z</time>
      </trkpt>
      <trkpt lat="40.791812" lon="-3.348028">
        <ele>883.8</ele>
        <time>2019-02-23T08:24:53.802Z</time>
      </trkpt>
      <trkpt lat="40.791847" lon="-3.348014">
        <ele>884.2</ele>
        <time>2019-02-23T08:24:54.802Z</time>
      </trkpt>
      <trkpt lat="40.791880" lon="-3.347997">
        <ele>884.5</ele>
        <time>2019-02-23T08:24:55.802Z</time>
      </trkpt>
      <trkpt lat="40.791916" lon="-3.347980">
        <ele>884.5</ele>
        <time>2019-02-23T08:24:56.802Z</time>
      </trkpt>
      <trkpt lat="40.792052" lon="-3.347909">
        <ele>885.0</ele>
        <time>2019-02-23T08:25:00.802Z</time>
      </trkpt>
      <trkpt lat="40.792084" lon="-3.347891">
        <ele>885.4</ele>
        <time>2019-02-23T08:25:01.802Z</time>
      </trkpt>
      <trkpt lat="40.792121" lon="-3.347870">
        <ele>885.9</ele>
        <time>2019-02-23T08:25:02.802Z</time>
      </trkpt>
      <trkpt lat="40.792156" lon="-3.347846">
        <ele>886.2</ele>
        <time>2019-02-23T08:25:03.802Z</time>
      </trkpt>
      <trkpt lat="40.792188" lon="-3.347823">
        <ele>886.6</ele>
        <time>2019-02-23T08:25:04.802Z</time>
      </trkpt>
      <trkpt lat="40.792271" lon="-3.347738">
        <ele>886.5</ele>
        <time>2019-02-23T08:25:07.802Z</time>
      </trkpt>
      <trkpt lat="40.792299" lon="-3.347709">
        <ele>887.1</ele>
        <time>2019-02-23T08:25:08.802Z</time>
      </trkpt>
      <trkpt lat="40.792329" lon="-3.347681">
        <ele>887.5</ele>
        <time>2019-02-23T08:25:09.802Z</time>
      </trkpt>
      <trkpt lat="40.792359" lon="-3.347651">
        <ele>888.0</ele>
        <time>2019-02-23T08:25:10.802Z</time>
      </trkpt>
      <trkpt lat="40.792389" lon="-3.347622">
        <ele>888.4</ele>
        <time>2019-02-23T08:25:11.802Z</time>
      </trkpt>
      <trkpt lat="40.792420" lon="-3.347593">
        <ele>888.9</ele>
        <time>2019-02-23T08:25:12.802Z</time>
      </trkpt>
      <trkpt lat="40.792533" lon="-3.347484">
        <ele>888.8</ele>
        <time>2019-02-23T08:25:16.802Z</time>
      </trkpt>
      <trkpt lat="40.792586" lon="-3.347425">
        <ele>889.2</ele>
        <time>2019-02-23T08:25:18.802Z</time>
      </trkpt>
      <trkpt lat="40.792608" lon="-3.347391">
        <ele>889.6</ele>
        <time>2019-02-23T08:25:19.802Z</time>
      </trkpt>
      <trkpt lat="40.792632" lon="-3.347355">
        <ele>890.0</ele>
        <time>2019-02-23T08:25:20.802Z</time>
      </trkpt>
      <trkpt lat="40.792651" lon="-3.347316">
        <ele>890.6</ele>
        <time>2019-02-23T08:25:21.802Z</time>
      </trkpt>
      <trkpt lat="40.792671" lon="-3.347278">
        <ele>891.1</ele>
        <time>2019-02-23T08:25:22.802Z</time>
      </trkpt>
      <trkpt lat="40.792683" lon="-3.347234">
        <ele>891.1</ele>
        <time>2019-02-23T08:25:23.802Z</time>
      </trkpt>
      <trkpt lat="40.792686" lon="-3.347103">
        <ele>891.4</ele>
        <time>2019-02-23T08:25:26.802Z</time>
      </trkpt>
      <trkpt lat="40.792682" lon="-3.347060">
        <ele>891.8</ele>
        <time>2019-02-23T08:25:27.802Z</time>
      </trkpt>
      <trkpt lat="40.792676" lon="-3.347017">
        <ele>892.1</ele>
        <time>2019-02-23T08:25:28.802Z</time>
      </trkpt>
      <trkpt lat="40.792668" lon="-3.346973">
        <ele>892.8</ele>
        <time>2019-02-23T08:25:29.802Z</time>
      </trkpt>
      <trkpt lat="40.792658" lon="-3.346927">
        <ele>893.2</ele>
        <time>2019-02-23T08:25:30.802Z</time>
      </trkpt>
      <trkpt lat="40.792590" lon="-3.346659">
        <ele>893.2</ele>
        <time>2019-02-23T08:25:35.802Z</time>
      </trkpt>
      <trkpt lat="40.792557" lon="-3.346481">
        <ele>893.2</ele>
        <time>2019-02-23T08:25:38.802Z</time>
      </trkpt>
      <trkpt lat="40.792551" lon="-3.346350">
        <ele>893.2</ele>
        <time>2019-02-23T08:25:40.802Z</time>
      </trkpt>
      <trkpt lat="40.792568" lon="-3.346214">
        <ele>893.1</ele>
        <time>2019-02-23T08:25:42.802Z</time>
      </trkpt>
      <trkpt lat="40.792644" lon="-3.346018">
        <ele>893.1</ele>
        <time>2019-02-23T08:25:45.802Z</time>
      </trkpt>
      <trkpt lat="40.792676" lon="-3.345956">
        <ele>893.1</ele>
        <time>2019-02-23T08:25:46.802Z</time>
      </trkpt>
      <trkpt lat="40.792934" lon="-3.345509">
        <ele>893.1</ele>
        <time>2019-02-23T08:25:54.802Z</time>
      </trkpt>
      <trkpt lat="40.793029" lon="-3.345342">
        <ele>893.5</ele>
        <time>2019-02-23T08:25:57.802Z</time>
      </trkpt>
      <trkpt lat="40.793061" lon="-3.345287">
        <ele>894.0</ele>
        <time>2019-02-23T08:25:58.802Z</time>
      </trkpt>
      <trkpt lat="40.793093" lon="-3.345231">
        <ele>894.4</ele>
        <time>2019-02-23T08:25:59.802Z</time>
      </trkpt>
      <trkpt lat="40.793122" lon="-3.345176">
        <ele>894.8</ele>
        <time>2019-02-23T08:26:00.802Z</time>
      </trkpt>
      <trkpt lat="40.793157" lon="-3.345116">
        <ele>895.1</ele>
        <time>2019-02-23T08:26:01.802Z</time>
      </trkpt>
      <trkpt lat="40.793254" lon="-3.344939">
        <ele>895.2</ele>
        <time>2019-02-23T08:26:04.802Z</time>
      </trkpt>
      <trkpt lat="40.793528" lon="-3.344486">
        <ele>895.1</ele>
        <time>2019-02-23T08:26:12.802Z</time>
      </trkpt>
      <trkpt lat="40.793617" lon="-3.344380">
        <ele>895.1</ele>
        <time>2019-02-23T08:26:14.802Z</time>
      </trkpt>
      <trkpt lat="40.793780" lon="-3.344275">
        <ele>895.2</ele>
        <time>2019-02-23T08:26:17.802Z</time>
      </trkpt>
      <trkpt lat="40.793780" lon="-3.344264">
        <ele>902.1</ele>
        <time>2019-02-23T08:26:17.931Z</time>
      </trkpt>
      <trkpt lat="40.793955" lon="-3.344269">
        <ele>902.1</ele>
        <time>2019-02-23T08:26:20.642Z</time>
      </trkpt>
      <trkpt lat="40.794476" lon="-3.344260">
        <ele>903.0</ele>
        <time>2019-02-23T08:26:28.713Z</time>
      </trkpt>
      <trkpt lat="40.794548" lon="-3.344259">
        <ele>903.0</ele>
        <time>2019-02-23T08:26:29.828Z</time>
      </trkpt>
      <trkpt lat="40.795218" lon="-3.344443">
        <ele>904.2</ele>
        <time>2019-02-23T08:26:40.429Z</time>
      </trkpt>
      <trkpt lat="40.795786" lon="-3.344619">
        <ele>905.2</ele>
        <time>2019-02-23T08:26:49.467Z</time>
      </trkpt>
      <trkpt lat="40.796245" lon="-3.344808">
        <ele>902.9</ele>
        <time>2019-02-23T08:26:56.915Z</time>
      </trkpt>
      <trkpt lat="40.796731" lon="-3.344962">
        <ele>902.6</ele>
        <time>2019-02-23T08:27:04.657Z</time>
      </trkpt>
      <trkpt lat="40.797553" lon="-3.345241">
        <ele>901.7</ele>
        <time>2019-02-23T08:27:17.804Z</time>
      </trkpt>
      <trkpt lat="40.797720" lon="-3.345295">
        <ele>902.5</ele>
        <time>2019-02-23T08:27:20.467Z</time>
      </trkpt>
      <trkpt lat="40.797789" lon="-3.345244">
        <ele>902.8</ele>
        <time>2019-02-23T08:27:21.691Z</time>
      </trkpt>
      <trkpt lat="40.797833" lon="-3.345201">
        <ele>902.9</ele>
        <time>2019-02-23T08:27:22.538Z</time>
      </trkpt>
      <trkpt lat="40.797892" lon="-3.345143">
        <ele>902.9</ele>
        <time>2019-02-23T08:27:23.677Z</time>
      </trkpt>
      <trkpt lat="40.797924" lon="-3.345123">
        <ele>902.8</ele>
        <time>2019-02-23T08:27:24.225Z</time>
      </trkpt>
      <trkpt lat="40.798048" lon="-3.345425">
        <ele>902.7</ele>
        <time>2019-02-23T08:27:28.254Z</time>
      </trkpt>
      <trkpt lat="40.798115" lon="-3.345588">
        <ele>902.7</ele>
        <time>2019-02-23T08:27:30.429Z</time>
      </trkpt>
      <trkpt lat="40.798174" lon="-3.345728">
        <ele>902.9</ele>
        <time>2019-02-23T08:27:32.308Z</time>
      </trkpt>
      <trkpt lat="40.798314" lon="-3.346060">
        <ele>902.8</ele>
        <time>2019-02-23T08:27:36.764Z</time>
      </trkpt>
      <trkpt lat="40.798693" lon="-3.346952">
        <ele>901.1</ele>
        <time>2019-02-23T08:27:48.760Z</time>
      </trkpt>
      <trkpt lat="40.798829" lon="-3.347293">
        <ele>901.6</ele>
        <time>2019-02-23T08:27:53.280Z</time>
      </trkpt>
      <trkpt lat="40.799111" lon="-3.347084">
        <ele>901.5</ele>
        <time>2019-02-23T08:27:58.289Z</time>
      </trkpt>
      <trkpt lat="40.799282" lon="-3.347083">
        <ele>902.0</ele>
        <time>2019-02-23T08:28:00.938Z</time>
      </trkpt>
      <trkpt lat="40.799677" lon="-3.347163">
        <ele>903.0</ele>
        <time>2019-02-23T08:28:07.128Z</time>
      </trkpt>
      <trkpt lat="40.807688" lon="-3.349183">
        <ele>907.0</ele>
        <time>2019-02-23T08:30:13.473Z</time>
      </trkpt>
      <trkpt lat="40.819165" lon="-3.352105">
        <ele>914.1</ele>
        <time>2019-02-23T08:33:14.543Z</time>
      </trkpt>
      <trkpt lat="40.819741" lon="-3.352200">
        <ele>914.6</ele>
        <time>2019-02-23T08:33:23.535Z</time>
      </trkpt>
      <trkpt lat="40.820029" lon="-3.352273">
        <ele>914.8</ele>
        <time>2019-02-23T08:33:28.077Z</time>
      </trkpt>
      <trkpt lat="40.820114" lon="-3.352317">
        <ele>914.9</ele>
        <time>2019-02-23T08:33:29.491Z</time>
      </trkpt>
      <trkpt lat="40.820426" lon="-3.352596">
        <ele>915.1</ele>
        <time>2019-02-23T08:33:35.327Z</time>
      </trkpt>
      <trkpt lat="40.820627" lon="-3.352787">
        <ele>915.4</ele>
        <time>2019-02-23T08:33:39.162Z</time>
      </trkpt>
      <trkpt lat="40.821168" lon="-3.352968">
        <ele>915.4</ele>
        <time>2019-02-23T08:33:47.807Z</time>
      </trkpt>
      <trkpt lat="40.821742" lon="-3.353159">
        <ele>917.6</ele>
        <time>2019-02-23T08:33:56.976Z</time>
      </trkpt>
      <trkpt lat="40.826827" lon="-3.354961">
        <ele>917.0</ele>
        <time>2019-02-23T08:35:18.535Z</time>
      </trkpt>
      <trkpt lat="40.830269" lon="-3.356205">
        <ele>919.6</ele>
        <time>2019-02-23T08:36:13.815Z</time>
      </trkpt>
      <trkpt lat="40.832658" lon="-3.357040">
        <ele>919.8</ele>
        <time>2019-02-23T08:36:52.097Z</time>
      </trkpt>
      <trkpt lat="40.837077" lon="-3.358641">
        <ele>922.4</ele>
        <time>2019-02-23T08:38:03.080Z</time>
      </trkpt>
      <trkpt lat="40.842438" lon="-3.360569">
        <ele>923.0</ele>
        <time>2019-02-23T08:39:29.150Z</time>
      </trkpt>
      <trkpt lat="40.842434" lon="-3.361471">
        <ele>922.6</ele>
        <time>2019-02-23T08:39:39.721Z</time>
      </trkpt>
      <trkpt lat="40.842438" lon="-3.360569">
        <ele>923.0</ele>
        <time>2019-02-23T08:39:50.292Z</time>
      </trkpt>
      <trkpt lat="40.837077" lon="-3.358641">
        <ele>922.4</ele>
        <time>2019-02-23T08:41:16.362Z</time>
      </trkpt>
      <trkpt lat="40.832658" lon="-3.357040">
        <ele>919.8</ele>
        <time>2019-02-23T08:42:27.345Z</time>
      </trkpt>
      <trkpt lat="40.830269" lon="-3.356205">
        <ele>919.6</ele>
        <time>2019-02-23T08:43:05.627Z</time>
      </trkpt>
      <trkpt lat="40.826827" lon="-3.354961">
        <ele>917.0</ele>
        <time>2019-02-23T08:44:00.907Z</time>
      </trkpt>
      <trkpt lat="40.821742" lon="-3.353159">
        <ele>917.6</ele>
        <time>2019-02-23T08:45:22.466Z</time>
      </trkpt>
      <trkpt lat="40.821168" lon="-3.352968">
        <ele>915.4</ele>
        <time>2019-02-23T08:45:31.635Z</time>
      </trkpt>
      <trkpt lat="40.820627" lon="-3.352787">
        <ele>915.4</ele>
        <time>2019-02-23T08:45:40.280Z</time>
      </trkpt>
      <trkpt lat="40.820426" lon="-3.352596">
        <ele>915.1</ele>
        <time>2019-02-23T08:45:44.115Z</time>
      </trkpt>
      <trkpt lat="40.820114" lon="-3.352317">
        <ele>914.9</ele>
        <time>2019-02-23T08:45:49.951Z</time>
      </trkpt>
      <trkpt lat="40.820029" lon="-3.352273">
        <ele>914.8</ele>
        <time>2019-02-23T08:45:51.365Z</time>
      </trkpt>
      <trkpt lat="40.819741" lon="-3.352200">
        <ele>914.6</ele>
        <time>2019-02-23T08:45:55.907Z</time>
      </trkpt>
      <trkpt lat="40.819165" lon="-3.352105">
        <ele>914.1</ele>
        <time>2019-02-23T08:46:04.899Z</time>
      </trkpt>
      <trkpt lat="40.807688" lon="-3.349183">
        <ele>907.0</ele>
        <time>2019-02-23T08:49:05.969Z</time>
      </trkpt>
      <trkpt lat="40.799677" lon="-3.347163">
        <ele>903.0</ele>
        <time>2019-02-23T08:51:12.314Z</time>
      </trkpt>
      <trkpt lat="40.799282" lon="-3.347083">
        <ele>902.0</ele>
        <time>2019-02-23T08:51:18.504Z</time>
      </trkpt>
      <trkpt lat="40.799111" lon="-3.347084">
        <ele>901.5</ele>
        <time>2019-02-23T08:51:21.153Z</time>
      </trkpt>
      <trkpt lat="40.798829" lon="-3.347293">
        <ele>901.6</ele>
        <time>2019-02-23T08:51:26.162Z</time>
      </trkpt>
      <trkpt lat="40.798693" lon="-3.346952">
        <ele>901.1</ele>
        <time>2019-02-23T08:51:30.682Z</time>
      </trkpt>
      <trkpt lat="40.798314" lon="-3.346060">
        <ele>902.8</ele>
        <time>2019-02-23T08:51:42.678Z</time>
      </trkpt>
      <trkpt lat="40.798174" lon="-3.345728">
        <ele>902.9</ele>
        <time>2019-02-23T08:51:47.134Z</time>
      </trkpt>
      <trkpt lat="40.798115" lon="-3.345588">
        <ele>902.7</ele>
        <time>2019-02-23T08:51:49.013Z</time>
      </trkpt>
      <trkpt lat="40.798048" lon="-3.345425">
        <ele>902.7</ele>
        <time>2019-02-23T08:51:51.188Z</time>
      </trkpt>
      <trkpt lat="40.797976" lon="-3.345444">
        <ele>903.3</ele>
        <time>2019-02-23T08:51:52.325Z</time>
      </trkpt>
      <trkpt lat="40.797974" lon="-3.345444">
        <ele>903.3</ele>
        <time>2019-02-23T08:51:52.355Z</time>
      </trkpt>
      <trkpt lat="40.797973" lon="-3.345427">
        <ele>899.1</ele>
        <time>2019-02-23T08:51:52.554Z</time>
      </trkpt>
      <trkpt lat="40.797974" lon="-3.345444">
        <ele>903.3</ele>
        <time>2019-02-23T08:51:52.754Z</time>
      </trkpt>
      <trkpt lat="40.797976" lon="-3.345444">
        <ele>903.3</ele>
        <time>2019-02-23T08:51:52.785Z</time>
      </trkpt>
      <trkpt lat="40.798048" lon="-3.345425">
        <ele>902.7</ele>
        <time>2019-02-23T08:51:53.924Z</time>
      </trkpt>
      <trkpt lat="40.798115" lon="-3.345588">
        <ele>902.7</ele>
        <time>2019-02-23T08:51:56.103Z</time>
      </trkpt>
      <trkpt lat="40.798174" lon="-3.345728">
        <ele>902.9</ele>
        <time>2019-02-23T08:51:57.985Z</time>
      </trkpt>
      <trkpt lat="40.798314" lon="-3.346060">
        <ele>902.8</ele>
        <time>2019-02-23T08:52:02.449Z</time>
      </trkpt>
      <trkpt lat="40.798693" lon="-3.346952">
        <ele>901.1</ele>
        <time>2019-02-23T08:52:14.466Z</time>
      </trkpt>
      <trkpt lat="40.798829" lon="-3.347293">
        <ele>901.6</ele>
        <time>2019-02-23T08:52:18.994Z</time>
      </trkpt>
      <trkpt lat="40.799111" lon="-3.347084">
        <ele>901.5</ele>
        <time>2019-02-23T08:52:24.012Z</time>
      </trkpt>
      <trkpt lat="40.799282" lon="-3.347083">
        <ele>902.0</ele>
        <time>2019-02-23T08:52:26.665Z</time>
      </trkpt>
      <trkpt lat="40.799677" lon="-3.347163">
        <ele>903.0</ele>
        <time>2019-02-23T08:52:32.866Z</time>
      </trkpt>
      <trkpt lat="40.807688" lon="-3.349183">
        <ele>907.0</ele>
        <time>2019-02-23T08:54:39.436Z</time>
      </trkpt>
      <trkpt lat="40.819165" lon="-3.352105">
        <ele>914.1</ele>
        <time>2019-02-23T08:57:40.829Z</time>
      </trkpt>
      <trkpt lat="40.819741" lon="-3.352200">
        <ele>914.6</ele>
        <time>2019-02-23T08:57:49.837Z</time>
      </trkpt>
      <trkpt lat="40.820029" lon="-3.352273">
        <ele>914.8</ele>
        <time>2019-02-23T08:57:54.388Z</time>
      </trkpt>
      <trkpt lat="40.820114" lon="-3.352317">
        <ele>914.9</ele>
        <time>2019-02-23T08:57:55.804Z</time>
      </trkpt>
      <trkpt lat="40.820426" lon="-3.352596">
        <ele>915.1</ele>
        <time>2019-02-23T08:58:01.650Z</time>
      </trkpt>
      <trkpt lat="40.820627" lon="-3.352787">
        <ele>915.4</ele>
        <time>2019-02-23T08:58:05.492Z</time>
      </trkpt>
      <trkpt lat="40.821168" lon="-3.352968">
        <ele>915.4</ele>
        <time>2019-02-23T08:58:14.152Z</time>
      </trkpt>
      <trkpt lat="40.821742" lon="-3.353159">
        <ele>917.6</ele>
        <time>2019-02-23T08:58:23.338Z</time>
      </trkpt>
      <trkpt lat="40.826827" lon="-3.354961">
        <ele>917.0</ele>
        <time>2019-02-23T08:59:45.042Z</time>
      </trkpt>
      <trkpt lat="40.830269" lon="-3.356205">
        <ele>919.6</ele>
        <time>2019-02-23T09:00:40.421Z</time>
      </trkpt>
      <trkpt lat="40.832658" lon="-3.357040">
        <ele>919.8</ele>
        <time>2019-02-23T09:01:18.771Z</time>
      </trkpt>
      <trkpt lat="40.837077" lon="-3.358641">
        <ele>922.4</ele>
        <time>2019-02-23T09:02:29.881Z</time>
      </trkpt>
      <trkpt lat="40.842438" lon="-3.360569">
        <ele>923.0</ele>
        <time>2019-02-23T09:03:56.105Z</time>
      </trkpt>
      <trkpt lat="40.842442" lon="-3.360305">
        <ele>923.4</ele>
        <time>2019-02-23T09:03:59.205Z</time>
      </trkpt>
      <trkpt lat="40.842468" lon="-3.358504">
        <ele>926.0</ele>
        <time>2019-02-23T09:04:20.353Z</time>
      </trkpt>
      <trkpt lat="40.842472" lon="-3.357697">
        <ele>924.5</ele>
        <time>2019-02-23T09:04:29.827Z</time>
      </trkpt>
      <trkpt lat="40.842531" lon="-3.346029">
        <ele>924.4</ele>
        <time>2019-02-23T09:06:46.819Z</time>
      </trkpt>
      <trkpt lat="40.842531" lon="-3.346029">
        <ele>924.4</ele>
        <time>2019-02-23T09:06:46.819Z</time>
      </trkpt>
      <trkpt lat="40.842531" lon="-3.346029">
        <ele>924.4</ele>
        <time>2019-02-23T09:06:46.819Z</time>
      </trkpt>
      <trkpt lat="40.842543" lon="-3.343735">
        <ele>924.3</ele>
        <time>2019-02-23T09:07:13.752Z</time>
      </trkpt>
      <trkpt lat="40.842567" lon="-3.331891">
        <ele>928.4</ele>
        <time>2019-02-23T09:09:32.808Z</time>
      </trkpt>
      <trkpt lat="40.842578" lon="-3.327842">
        <ele>932.8</ele>
        <time>2019-02-23T09:10:20.346Z</time>
      </trkpt>
      <trkpt lat="40.842765" lon="-3.324979">
        <ele>933.9</ele>
        <time>2019-02-23T09:10:54.084Z</time>
      </trkpt>
      <trkpt lat="40.843207" lon="-3.322010">
        <ele>937.0</ele>
        <time>2019-02-23T09:11:29.610Z</time>
      </trkpt>
      <trkpt lat="40.844581" lon="-3.312848">
        <ele>945.7</ele>
        <time>2019-02-23T09:13:19.268Z</time>
      </trkpt>
      <trkpt lat="40.844998" lon="-3.311381">
        <ele>945.4</ele>
        <time>2019-02-23T09:13:37.666Z</time>
      </trkpt>
      <trkpt lat="40.845373" lon="-3.310415">
        <ele>943.2</ele>
        <time>2019-02-23T09:13:50.413Z</time>
      </trkpt>
      <trkpt lat="40.851853" lon="-3.293498">
        <ele>935.5</ele>
        <time>2019-02-23T09:17:33.021Z</time>
      </trkpt>
      <trkpt lat="40.853076" lon="-3.290375">
        <ele>940.1</ele>
        <time>2019-02-23T09:18:14.303Z</time>
      </trkpt>
      <trkpt lat="40.853866" lon="-3.288547">
        <ele>941.0</ele>
        <time>2019-02-23T09:18:39.016Z</time>
      </trkpt>
      <trkpt lat="40.865262" lon="-3.269768">
        <ele>955.5</ele>
        <time>2019-02-23T09:23:21.619Z</time>
      </trkpt>
      <trkpt lat="40.865711" lon="-3.269121">
        <ele>954.8</ele>
        <time>2019-02-23T09:23:31.925Z</time>
      </trkpt>
      <trkpt lat="40.866726" lon="-3.267670">
        <ele>955.0</ele>
        <time>2019-02-23T09:23:55.122Z</time>
      </trkpt>
      <trkpt lat="40.869449" lon="-3.264143">
        <ele>942.1</ele>
        <time>2019-02-23T09:24:54.276Z</time>
      </trkpt>
      <trkpt lat="40.869902" lon="-3.263631">
        <ele>937.9</ele>
        <time>2019-02-23T09:25:03.524Z</time>
      </trkpt>
      <trkpt lat="40.871071" lon="-3.262601">
        <ele>934.4</ele>
        <time>2019-02-23T09:25:25.324Z</time>
      </trkpt>
      <trkpt lat="40.871727" lon="-3.262005">
        <ele>934.3</ele>
        <time>2019-02-23T09:25:37.675Z</time>
      </trkpt>
      <trkpt lat="40.876846" lon="-3.257310">
        <ele>946.6</ele>
        <time>2019-02-23T09:27:14.354Z</time>
      </trkpt>
      <trkpt lat="40.878233" lon="-3.256063">
        <ele>949.7</ele>
        <time>2019-02-23T09:27:40.382Z</time>
      </trkpt>
      <trkpt lat="40.878749" lon="-3.255348">
        <ele>946.9</ele>
        <time>2019-02-23T09:27:51.980Z</time>
      </trkpt>
      <trkpt lat="40.879315" lon="-3.253950">
        <ele>948.0</ele>
        <time>2019-02-23T09:28:10.588Z</time>
      </trkpt>
      <trkpt lat="40.881585" lon="-3.247048">
        <ele>947.5</ele>
        <time>2019-02-23T09:29:38.905Z</time>
      </trkpt>
      <trkpt lat="40.881980" lon="-3.245524">
        <ele>949.3</ele>
        <time>2019-02-23T09:29:57.808Z</time>
      </trkpt>
      <trkpt lat="40.882197" lon="-3.244589">
        <ele>949.8</ele>
        <time>2019-02-23T09:30:09.284Z</time>
      </trkpt>
      <trkpt lat="40.882400" lon="-3.243829">
        <ele>949.9</ele>
        <time>2019-02-23T09:30:18.741Z</time>
      </trkpt>
      <trkpt lat="40.882977" lon="-3.241128">
        <ele>952.9</ele>
        <time>2019-02-23T09:30:51.674Z</time>
      </trkpt>
      <trkpt lat="40.883087" lon="-3.239959">
        <ele>953.8</ele>
        <time>2019-02-23T09:31:05.496Z</time>
      </trkpt>
      <trkpt lat="40.883097" lon="-3.238578">
        <ele>952.1</ele>
        <time>2019-02-23T09:31:21.700Z</time>
      </trkpt>
      <trkpt lat="40.883308" lon="-3.237157">
        <ele>949.1</ele>
        <time>2019-02-23T09:31:38.691Z</time>
      </trkpt>
      <trkpt lat="40.883900" lon="-3.235484">
        <ele>940.7</ele>
        <time>2019-02-23T09:32:00.364Z</time>
      </trkpt>
      <trkpt lat="40.885931" lon="-3.230572">
        <ele>938.9</ele>
        <time>2019-02-23T09:33:06.053Z</time>
      </trkpt>
      <trkpt lat="40.886537" lon="-3.229092">
        <ele>935.5</ele>
        <time>2019-02-23T09:33:25.800Z</time>
      </trkpt>
      <trkpt lat="40.886774" lon="-3.228542">
        <ele>936.9</ele>
        <time>2019-02-23T09:33:33.227Z</time>
      </trkpt>
      <trkpt lat="40.886989" lon="-3.227866">
        <ele>938.0</ele>
        <time>2019-02-23T09:33:41.831Z</time>
      </trkpt>
      <trkpt lat="40.887338" lon="-3.227465">
        <ele>934.8</ele>
        <time>2019-02-23T09:33:49.005Z</time>
      </trkpt>
      <trkpt lat="40.887517" lon="-3.227331">
        <ele>933.6</ele>
        <time>2019-02-23T09:33:52.197Z</time>
      </trkpt>
      <trkpt lat="40.887655" lon="-3.227185">
        <ele>932.9</ele>
        <time>2019-02-23T09:33:54.939Z</time>
      </trkpt>
      <trkpt lat="40.887808" lon="-3.226933">
        <ele>932.1</ele>
        <time>2019-02-23T09:33:58.731Z</time>
      </trkpt>
      <trkpt lat="40.887838" lon="-3.226658">
        <ele>930.2</ele>
        <time>2019-02-23T09:34:01.990Z</time>
      </trkpt>
      <trkpt lat="40.887829" lon="-3.226426">
        <ele>927.8</ele>
        <time>2019-02-23T09:34:04.715Z</time>
      </trkpt>
      <trkpt lat="40.887809" lon="-3.226196">
        <ele>925.9</ele>
        <time>2019-02-23T09:34:07.431Z</time>
      </trkpt>
      <trkpt lat="40.887815" lon="-3.225962">
        <ele>925.1</ele>
        <time>2019-02-23T09:34:10.178Z</time>
      </trkpt>
      <trkpt lat="40.887842" lon="-3.225480">
        <ele>924.3</ele>
        <time>2019-02-23T09:34:15.848Z</time>
      </trkpt>
      <trkpt lat="40.887898" lon="-3.225045">
        <ele>921.8</ele>
        <time>2019-02-23T09:34:21.025Z</time>
      </trkpt>
      <trkpt lat="40.888101" lon="-3.224895">
        <ele>922.1</ele>
        <time>2019-02-23T09:34:24.633Z</time>
      </trkpt>
      <trkpt lat="40.888095" lon="-3.224848">
        <ele>921.7</ele>
        <time>2019-02-23T09:34:25.192Z</time>
      </trkpt>
      <trkpt lat="40.888095" lon="-3.224736">
        <ele>920.6</ele>
        <time>2019-02-23T09:34:26.506Z</time>
      </trkpt>
      <trkpt lat="40.888112" lon="-3.224649">
        <ele>919.8</ele>
        <time>2019-02-23T09:34:27.560Z</time>
      </trkpt>
      <trkpt lat="40.888125" lon="-3.224538">
        <ele>918.6</ele>
        <time>2019-02-23T09:34:28.877Z</time>
      </trkpt>
      <trkpt lat="40.888174" lon="-3.224396">
        <ele>917.2</ele>
        <time>2019-02-23T09:34:30.708Z</time>
      </trkpt>
      <trkpt lat="40.888216" lon="-3.224261">
        <ele>915.9</ele>
        <time>2019-02-23T09:34:32.420Z</time>
      </trkpt>
      <trkpt lat="40.888264" lon="-3.224180">
        <ele>915.1</ele>
        <time>2019-02-23T09:34:33.627Z</time>
      </trkpt>
      <trkpt lat="40.888379" lon="-3.224038">
        <ele>914.2</ele>
        <time>2019-02-23T09:34:36.068Z</time>
      </trkpt>
      <trkpt lat="40.888479" lon="-3.223911">
        <ele>913.2</ele>
        <time>2019-02-23T09:34:38.219Z</time>
      </trkpt>
      <trkpt lat="40.888550" lon="-3.223789">
        <ele>912.0</ele>
        <time>2019-02-23T09:34:40.025Z</time>
      </trkpt>
      <trkpt lat="40.888606" lon="-3.223662">
        <ele>910.8</ele>
        <time>2019-02-23T09:34:41.749Z</time>
      </trkpt>
      <trkpt lat="40.888648" lon="-3.223555">
        <ele>909.6</ele>
        <time>2019-02-23T09:34:43.163Z</time>
      </trkpt>
      <trkpt lat="40.888696" lon="-3.223516">
        <ele>908.7</ele>
        <time>2019-02-23T09:34:44.037Z</time>
      </trkpt>
      <trkpt lat="40.888747" lon="-3.223441">
        <ele>907.2</ele>
        <time>2019-02-23T09:34:45.220Z</time>
      </trkpt>
      <trkpt lat="40.888792" lon="-3.223334">
        <ele>905.4</ele>
        <time>2019-02-23T09:34:46.656Z</time>
      </trkpt>
      <trkpt lat="40.888887" lon="-3.223105">
        <ele>902.0</ele>
        <time>2019-02-23T09:34:49.720Z</time>
      </trkpt>
      <trkpt lat="40.888973" lon="-3.222901">
        <ele>899.6</ele>
        <time>2019-02-23T09:34:52.460Z</time>
      </trkpt>
      <trkpt lat="40.889022" lon="-3.222713">
        <ele>898.4</ele>
        <time>2019-02-23T09:34:54.793Z</time>
      </trkpt>
      <trkpt lat="40.889038" lon="-3.222589">
        <ele>898.3</ele>
        <time>2019-02-23T09:34:56.268Z</time>
      </trkpt>
      <trkpt lat="40.889026" lon="-3.222490">
        <ele>898.6</ele>
        <time>2019-02-23T09:34:57.444Z</time>
      </trkpt>
      <trkpt lat="40.888994" lon="-3.222379">
        <ele>898.8</ele>
        <time>2019-02-23T09:34:58.837Z</time>
      </trkpt>
      <trkpt lat="40.888979" lon="-3.222328">
        <ele>898.8</ele>
        <time>2019-02-23T09:34:59.479Z</time>
      </trkpt>
      <trkpt lat="40.888985" lon="-3.222278">
        <ele>898.9</ele>
        <time>2019-02-23T09:35:00.072Z</time>
      </trkpt>
      <trkpt lat="40.889001" lon="-3.222209">
        <ele>899.1</ele>
        <time>2019-02-23T09:35:00.918Z</time>
      </trkpt>
      <trkpt lat="40.889029" lon="-3.222163">
        <ele>899.4</ele>
        <time>2019-02-23T09:35:01.610Z</time>
      </trkpt>
      <trkpt lat="40.889064" lon="-3.222080">
        <ele>899.7</ele>
        <time>2019-02-23T09:35:02.725Z</time>
      </trkpt>
      <trkpt lat="40.889134" lon="-3.221891">
        <ele>900.8</ele>
        <time>2019-02-23T09:35:05.194Z</time>
      </trkpt>
      <trkpt lat="40.889212" lon="-3.221645">
        <ele>902.4</ele>
        <time>2019-02-23T09:35:08.323Z</time>
      </trkpt>
      <trkpt lat="40.889285" lon="-3.221386">
        <ele>904.8</ele>
        <time>2019-02-23T09:35:11.566Z</time>
      </trkpt>
      <trkpt lat="40.889327" lon="-3.221116">
        <ele>908.1</ele>
        <time>2019-02-23T09:35:14.800Z</time>
      </trkpt>
      <trkpt lat="40.889346" lon="-3.220805">
        <ele>912.4</ele>
        <time>2019-02-23T09:35:18.460Z</time>
      </trkpt>
      <trkpt lat="40.889369" lon="-3.220485">
        <ele>916.0</ele>
        <time>2019-02-23T09:35:22.231Z</time>
      </trkpt>
      <trkpt lat="40.889400" lon="-3.220227">
        <ele>917.3</ele>
        <time>2019-02-23T09:35:25.295Z</time>
      </trkpt>
      <trkpt lat="40.889396" lon="-3.220203">
        <ele>917.4</ele>
        <time>2019-02-23T09:35:25.583Z</time>
      </trkpt>
      <trkpt lat="40.889397" lon="-3.220063">
        <ele>918.1</ele>
        <time>2019-02-23T09:35:27.225Z</time>
      </trkpt>
      <trkpt lat="40.889431" lon="-3.219813">
        <ele>919.2</ele>
        <time>2019-02-23T09:35:30.205Z</time>
      </trkpt>
      <trkpt lat="40.889437" lon="-3.219768">
        <ele>919.4</ele>
        <time>2019-02-23T09:35:30.741Z</time>
      </trkpt>
      <trkpt lat="40.889538" lon="-3.219399">
        <ele>920.0</ele>
        <time>2019-02-23T09:35:35.345Z</time>
      </trkpt>
      <trkpt lat="40.889701" lon="-3.218968">
        <ele>920.5</ele>
        <time>2019-02-23T09:35:40.999Z</time>
      </trkpt>
      <trkpt lat="40.889821" lon="-3.218698">
        <ele>921.8</ele>
        <time>2019-02-23T09:35:44.673Z</time>
      </trkpt>
      <trkpt lat="40.889907" lon="-3.218514">
        <ele>922.5</ele>
        <time>2019-02-23T09:35:47.211Z</time>
      </trkpt>
      <trkpt lat="40.889932" lon="-3.218459">
        <ele>922.7</ele>
        <time>2019-02-23T09:35:47.963Z</time>
      </trkpt>
      <trkpt lat="40.890048" lon="-3.218240">
        <ele>923.6</ele>
        <time>2019-02-23T09:35:51.100Z</time>
      </trkpt>
      <trkpt lat="40.890096" lon="-3.218146">
        <ele>923.8</ele>
        <time>2019-02-23T09:35:52.430Z</time>
      </trkpt>
      <trkpt lat="40.890225" lon="-3.217962">
        <ele>924.0</ele>
        <time>2019-02-23T09:35:55.374Z</time>
      </trkpt>
      <trkpt lat="40.890300" lon="-3.217874">
        <ele>923.7</ele>
        <time>2019-02-23T09:35:56.929Z</time>
      </trkpt>
      <trkpt lat="40.890371" lon="-3.217832">
        <ele>923.6</ele>
        <time>2019-02-23T09:35:58.136Z</time>
      </trkpt>
      <trkpt lat="40.890150" lon="-3.217463">
        <ele>921.2</ele>
        <time>2019-02-23T09:36:03.659Z</time>
      </trkpt>
      <trkpt lat="40.890068" lon="-3.217223">
        <ele>920.3</ele>
        <time>2019-02-23T09:36:06.748Z</time>
      </trkpt>
      <trkpt lat="40.890031" lon="-3.217034">
        <ele>919.3</ele>
        <time>2019-02-23T09:36:09.038Z</time>
      </trkpt>
      <trkpt lat="40.889953" lon="-3.216850">
        <ele>918.0</ele>
        <time>2019-02-23T09:36:11.512Z</time>
      </trkpt>
      <trkpt lat="40.889913" lon="-3.216779">
        <ele>917.8</ele>
        <time>2019-02-23T09:36:12.550Z</time>
      </trkpt>
      <trkpt lat="40.889892" lon="-3.216676">
        <ele>917.4</ele>
        <time>2019-02-23T09:36:13.801Z</time>
      </trkpt>
      <trkpt lat="40.889900" lon="-3.216589">
        <ele>917.1</ele>
        <time>2019-02-23T09:36:14.829Z</time>
      </trkpt>
      <trkpt lat="40.889913" lon="-3.216547">
        <ele>916.9</ele>
        <time>2019-02-23T09:36:15.361Z</time>
      </trkpt>
      <trkpt lat="40.889953" lon="-3.216477">
        <ele>916.5</ele>
        <time>2019-02-23T09:36:16.390Z</time>
      </trkpt>
      <trkpt lat="40.890018" lon="-3.216424">
        <ele>916.2</ele>
        <time>2019-02-23T09:36:17.575Z</time>
      </trkpt>
      <trkpt lat="40.890084" lon="-3.216409">
        <ele>916.0</ele>
        <time>2019-02-23T09:36:18.614Z</time>
      </trkpt>
      <trkpt lat="40.890148" lon="-3.216424">
        <ele>916.0</ele>
        <time>2019-02-23T09:36:19.622Z</time>
      </trkpt>
      <trkpt lat="40.890206" lon="-3.216468">
        <ele>916.2</ele>
        <time>2019-02-23T09:36:20.659Z</time>
      </trkpt>
      <trkpt lat="40.890245" lon="-3.216524">
        <ele>916.3</ele>
        <time>2019-02-23T09:36:21.552Z</time>
      </trkpt>
      <trkpt lat="40.890331" lon="-3.216570">
        <ele>916.4</ele>
        <time>2019-02-23T09:36:22.991Z</time>
      </trkpt>
      <trkpt lat="40.890448" lon="-3.216618">
        <ele>916.6</ele>
        <time>2019-02-23T09:36:24.892Z</time>
      </trkpt>
      <trkpt lat="40.890511" lon="-3.216674">
        <ele>916.7</ele>
        <time>2019-02-23T09:36:26.069Z</time>
      </trkpt>
      <trkpt lat="40.890673" lon="-3.216679">
        <ele>917.1</ele>
        <time>2019-02-23T09:36:28.583Z</time>
      </trkpt>
      <trkpt lat="40.891126" lon="-3.216663">
        <ele>918.0</ele>
        <time>2019-02-23T09:36:35.615Z</time>
      </trkpt>
      <trkpt lat="40.891450" lon="-3.216633">
        <ele>918.8</ele>
        <time>2019-02-23T09:36:40.655Z</time>
      </trkpt>
      <trkpt lat="40.891771" lon="-3.216541">
        <ele>920.0</ele>
        <time>2019-02-23T09:36:45.752Z</time>
      </trkpt>
      <trkpt lat="40.891983" lon="-3.216438">
        <ele>921.1</ele>
        <time>2019-02-23T09:36:49.257Z</time>
      </trkpt>
      <trkpt lat="40.892163" lon="-3.216320">
        <ele>922.1</ele>
        <time>2019-02-23T09:36:52.374Z</time>
      </trkpt>
      <trkpt lat="40.892293" lon="-3.216241">
        <ele>922.6</ele>
        <time>2019-02-23T09:36:54.594Z</time>
      </trkpt>
      <trkpt lat="40.892492" lon="-3.216102">
        <ele>924.8</ele>
        <time>2019-02-23T09:36:58.086Z</time>
      </trkpt>
      <trkpt lat="40.892613" lon="-3.215902">
        <ele>927.4</ele>
        <time>2019-02-23T09:37:01.091Z</time>
      </trkpt>
      <trkpt lat="40.892654" lon="-3.215853">
        <ele>928.2</ele>
        <time>2019-02-23T09:37:01.948Z</time>
      </trkpt>
      <trkpt lat="40.892667" lon="-3.215761">
        <ele>929.3</ele>
        <time>2019-02-23T09:37:03.046Z</time>
      </trkpt>
      <trkpt lat="40.892696" lon="-3.215694">
        <ele>930.0</ele>
        <time>2019-02-23T09:37:03.951Z</time>
      </trkpt>
      <trkpt lat="40.892848" lon="-3.215869">
        <ele>928.7</ele>
        <time>2019-02-23T09:37:07.078Z</time>
      </trkpt>
      <trkpt lat="40.892991" lon="-3.216035">
        <ele>928.3</ele>
        <time>2019-02-23T09:37:10.030Z</time>
      </trkpt>
      <trkpt lat="40.893216" lon="-3.216292">
        <ele>928.8</ele>
        <time>2019-02-23T09:37:14.643Z</time>
      </trkpt>
      <trkpt lat="40.893086" lon="-3.216226">
        <ele>927.8</ele>
        <time>2019-02-23T09:37:16.804Z</time>
      </trkpt>
      <trkpt lat="40.893077" lon="-3.216248">
        <ele>934.9</ele>
        <time>2019-02-23T09:37:17.063Z</time>
      </trkpt>
      <trkpt lat="40.893086" lon="-3.216226">
        <ele>927.8</ele>
        <time>2019-02-23T09:37:17.386Z</time>
      </trkpt>
      <trkpt lat="40.893216" lon="-3.216292">
        <ele>928.8</ele>
        <time>2019-02-23T09:37:19.546Z</time>
      </trkpt>
      <trkpt lat="40.893543" lon="-3.216665">
        <ele>930.1</ele>
        <time>2019-02-23T09:37:26.246Z</time>
      </trkpt>
      <trkpt lat="40.895768" lon="-3.219138">
        <ele>940.3</ele>
        <time>2019-02-23T09:38:11.346Z</time>
      </trkpt>
      <trkpt lat="40.900331" lon="-3.225595">
        <ele>948.9</ele>
        <time>2019-02-23T09:39:55.038Z</time>
      </trkpt>
      <trkpt lat="40.900701" lon="-3.226149">
        <ele>950.8</ele>
        <time>2019-02-23T09:40:03.710Z</time>
      </trkpt>
      <trkpt lat="40.900970" lon="-3.226698">
        <ele>952.5</ele>
        <time>2019-02-23T09:40:11.384Z</time>
      </trkpt>
      <trkpt lat="40.903083" lon="-3.235043">
        <ele>964.5</ele>
        <time>2019-02-23T09:41:54.617Z</time>
      </trkpt>
      <trkpt lat="40.903105" lon="-3.235478">
        <ele>963.7</ele>
        <time>2019-02-23T09:41:59.730Z</time>
      </trkpt>
      <trkpt lat="40.902982" lon="-3.236899">
        <ele>960.5</ele>
        <time>2019-02-23T09:42:16.507Z</time>
      </trkpt>
      <trkpt lat="40.902996" lon="-3.237453">
        <ele>958.2</ele>
        <time>2019-02-23T09:42:23.008Z</time>
      </trkpt>
      <trkpt lat="40.903109" lon="-3.237926">
        <ele>955.0</ele>
        <time>2019-02-23T09:42:28.826Z</time>
      </trkpt>
      <trkpt lat="40.903373" lon="-3.238491">
        <ele>950.7</ele>
        <time>2019-02-23T09:42:36.617Z</time>
      </trkpt>
      <trkpt lat="40.905642" lon="-3.242502">
        <ele>946.7</ele>
        <time>2019-02-23T09:43:35.383Z</time>
      </trkpt>
      <trkpt lat="40.906920" lon="-3.244913">
        <ele>961.3</ele>
        <time>2019-02-23T09:44:09.924Z</time>
      </trkpt>
      <trkpt lat="40.908556" lon="-3.247777">
        <ele>964.5</ele>
        <time>2019-02-23T09:44:52.031Z</time>
      </trkpt>
      <trkpt lat="40.908838" lon="-3.248147">
        <ele>963.2</ele>
        <time>2019-02-23T09:44:58.194Z</time>
      </trkpt>
      <trkpt lat="40.909991" lon="-3.249215">
        <ele>967.3</ele>
        <time>2019-02-23T09:45:20.036Z</time>
      </trkpt>
      <trkpt lat="40.910540" lon="-3.249634">
        <ele>971.1</ele>
        <time>2019-02-23T09:45:29.871Z</time>
      </trkpt>
      <trkpt lat="40.911256" lon="-3.250047">
        <ele>973.4</ele>
        <time>2019-02-23T09:45:41.992Z</time>
      </trkpt>
      <trkpt lat="40.911886" lon="-3.250295">
        <ele>972.8</ele>
        <time>2019-02-23T09:45:52.192Z</time>
      </trkpt>
      <trkpt lat="40.912339" lon="-3.250395">
        <ele>974.2</ele>
        <time>2019-02-23T09:45:59.319Z</time>
      </trkpt>
      <trkpt lat="40.915911" lon="-3.250817">
        <ele>982.8</ele>
        <time>2019-02-23T09:46:54.974Z</time>
      </trkpt>
      <trkpt lat="40.916337" lon="-3.250993">
        <ele>983.0</ele>
        <time>2019-02-23T09:47:01.899Z</time>
      </trkpt>
      <trkpt lat="40.916823" lon="-3.251364">
        <ele>984.9</ele>
        <time>2019-02-23T09:47:10.606Z</time>
      </trkpt>
      <trkpt lat="40.917258" lon="-3.251810">
        <ele>986.1</ele>
        <time>2019-02-23T09:47:19.146Z</time>
      </trkpt>
      <trkpt lat="40.919313" lon="-3.254606">
        <ele>992.7</ele>
        <time>2019-02-23T09:48:04.887Z</time>
      </trkpt>
      <trkpt lat="40.920211" lon="-3.255911">
        <ele>996.3</ele>
        <time>2019-02-23T09:48:25.585Z</time>
      </trkpt>
      <trkpt lat="40.921938" lon="-3.259154">
        <ele>996.8</ele>
        <time>2019-02-23T09:49:12.110Z</time>
      </trkpt>
      <trkpt lat="40.922058" lon="-3.259364">
        <ele>996.2</ele>
        <time>2019-02-23T09:49:15.197Z</time>
      </trkpt>
      <trkpt lat="40.924684" lon="-3.264063">
        <ele>1002.6</ele>
        <time>2019-02-23T09:50:23.732Z</time>
      </trkpt>
      <trkpt lat="40.924978" lon="-3.264517">
        <ele>1000.2</ele>
        <time>2019-02-23T09:50:30.743Z</time>
      </trkpt>
      <trkpt lat="40.927215" lon="-3.267373">
        <ele>995.5</ele>
        <time>2019-02-23T09:51:18.979Z</time>
      </trkpt>
      <trkpt lat="40.927814" lon="-3.268018">
        <ele>998.3</ele>
        <time>2019-02-23T09:51:30.963Z</time>
      </trkpt>
      <trkpt lat="40.928203" lon="-3.268333">
        <ele>998.9</ele>
        <time>2019-02-23T09:51:38.040Z</time>
      </trkpt>
      <trkpt lat="40.929128" lon="-3.268776">
        <ele>998.2</ele>
        <time>2019-02-23T09:51:53.306Z</time>
      </trkpt>
      <trkpt lat="40.928945" lon="-3.269886">
        <ele>1005.7</ele>
        <time>2019-02-23T09:52:06.627Z</time>
      </trkpt>
      <trkpt lat="40.929265" lon="-3.269978">
        <ele>1006.0</ele>
        <time>2019-02-23T09:52:11.665Z</time>
      </trkpt>
      <trkpt lat="40.928945" lon="-3.269886">
        <ele>1005.7</ele>
        <time>2019-02-23T09:52:16.747Z</time>
      </trkpt>
      <trkpt lat="40.929128" lon="-3.268776">
        <ele>998.2</ele>
        <time>2019-02-23T09:52:30.068Z</time>
      </trkpt>
      <trkpt lat="40.929977" lon="-3.269218">
        <ele>1003.1</ele>
        <time>2019-02-23T09:52:44.226Z</time>
      </trkpt>
      <trkpt lat="40.931177" lon="-3.269741">
        <ele>1002.5</ele>
        <time>2019-02-23T09:53:03.832Z</time>
      </trkpt>
      <trkpt lat="40.931667" lon="-3.269721">
        <ele>1001.7</ele>
        <time>2019-02-23T09:53:11.440Z</time>
      </trkpt>
      <trkpt lat="40.932082" lon="-3.269500">
        <ele>1002.5</ele>
        <time>2019-02-23T09:53:18.382Z</time>
      </trkpt>
      <trkpt lat="40.935333" lon="-3.267667">
        <ele>1001.2</ele>
        <time>2019-02-23T09:54:13.221Z</time>
      </trkpt>
      <trkpt lat="40.936026" lon="-3.267224">
        <ele>1001.4</ele>
        <time>2019-02-23T09:54:25.164Z</time>
      </trkpt>
      <trkpt lat="40.936511" lon="-3.266637">
        <ele>1004.9</ele>
        <time>2019-02-23T09:54:35.362Z</time>
      </trkpt>
      <trkpt lat="40.936933" lon="-3.266440">
        <ele>1009.9</ele>
        <time>2019-02-23T09:54:42.306Z</time>
      </trkpt>
      <trkpt lat="40.937387" lon="-3.266477">
        <ele>1008.4</ele>
        <time>2019-02-23T09:54:49.365Z</time>
      </trkpt>
      <trkpt lat="40.937666" lon="-3.266643">
        <ele>1005.4</ele>
        <time>2019-02-23T09:54:54.112Z</time>
      </trkpt>
      <trkpt lat="40.937919" lon="-3.266988">
        <ele>1002.9</ele>
        <time>2019-02-23T09:54:59.749Z</time>
      </trkpt>
      <trkpt lat="40.938616" lon="-3.268258">
        <ele>1001.1</ele>
        <time>2019-02-23T09:55:18.152Z</time>
      </trkpt>
      <trkpt lat="40.939098" lon="-3.268758">
        <ele>1003.5</ele>
        <time>2019-02-23T09:55:27.655Z</time>
      </trkpt>
      <trkpt lat="40.939398" lon="-3.268907">
        <ele>1007.6</ele>
        <time>2019-02-23T09:55:32.627Z</time>
      </trkpt>
      <trkpt lat="40.941533" lon="-3.269182">
        <ele>1017.3</ele>
        <time>2019-02-23T09:56:05.917Z</time>
      </trkpt>
      <trkpt lat="40.942372" lon="-3.268986">
        <ele>1013.4</ele>
        <time>2019-02-23T09:56:19.138Z</time>
      </trkpt>
      <trkpt lat="40.943102" lon="-3.268499">
        <ele>1016.4</ele>
        <time>2019-02-23T09:56:31.824Z</time>
      </trkpt>
      <trkpt lat="40.943570" lon="-3.268002">
        <ele>1020.4</ele>
        <time>2019-02-23T09:56:41.135Z</time>
      </trkpt>
      <trkpt lat="40.944056" lon="-3.267213">
        <ele>1029.3</ele>
        <time>2019-02-23T09:56:53.069Z</time>
      </trkpt>
      <trkpt lat="40.944653" lon="-3.265432">
        <ele>1037.9</ele>
        <time>2019-02-23T09:57:15.910Z</time>
      </trkpt>
      <trkpt lat="40.945097" lon="-3.264357">
        <ele>1039.2</ele>
        <time>2019-02-23T09:57:30.272Z</time>
      </trkpt>
      <trkpt lat="40.945692" lon="-3.263778">
        <ele>1030.7</ele>
        <time>2019-02-23T09:57:41.732Z</time>
      </trkpt>
      <trkpt lat="40.946365" lon="-3.263537">
        <ele>1032.6</ele>
        <time>2019-02-23T09:57:52.551Z</time>
      </trkpt>
      <trkpt lat="40.948111" lon="-3.263718">
        <ele>1041.0</ele>
        <time>2019-02-23T09:58:19.730Z</time>
      </trkpt>
      <trkpt lat="40.948566" lon="-3.263704">
        <ele>1043.5</ele>
        <time>2019-02-23T09:58:26.793Z</time>
      </trkpt>
      <trkpt lat="40.949308" lon="-3.263384">
        <ele>1049.1</ele>
        <time>2019-02-23T09:58:38.903Z</time>
      </trkpt>
      <trkpt lat="40.950489" lon="-3.262347">
        <ele>1055.1</ele>
        <time>2019-02-23T09:59:00.895Z</time>
      </trkpt>
      <trkpt lat="40.950994" lon="-3.262095">
        <ele>1055.6</ele>
        <time>2019-02-23T09:59:09.270Z</time>
      </trkpt>
      <trkpt lat="40.951476" lon="-3.262082">
        <ele>1055.5</ele>
        <time>2019-02-23T09:59:16.751Z</time>
      </trkpt>
      <trkpt lat="40.951986" lon="-3.262239">
        <ele>1055.5</ele>
        <time>2019-02-23T09:59:24.877Z</time>
      </trkpt>
      <trkpt lat="40.952892" lon="-3.262536">
        <ele>1052.7</ele>
        <time>2019-02-23T09:59:39.362Z</time>
      </trkpt>
      <trkpt lat="40.953401" lon="-3.262512">
        <ele>1054.6</ele>
        <time>2019-02-23T09:59:47.266Z</time>
      </trkpt>
      <trkpt lat="40.954462" lon="-3.262209">
        <ele>1057.4</ele>
        <time>2019-02-23T10:00:04.110Z</time>
      </trkpt>
      <trkpt lat="40.956178" lon="-3.261530">
        <ele>1051.8</ele>
        <time>2019-02-23T10:00:31.904Z</time>
      </trkpt>
      <trkpt lat="40.958065" lon="-3.260595">
        <ele>1047.4</ele>
        <time>2019-02-23T10:01:03.172Z</time>
      </trkpt>
      <trkpt lat="40.959236" lon="-3.259924">
        <ele>1041.3</ele>
        <time>2019-02-23T10:01:22.973Z</time>
      </trkpt>
      <trkpt lat="40.960853" lon="-3.258902">
        <ele>1033.1</ele>
        <time>2019-02-23T10:01:50.779Z</time>
      </trkpt>
      <trkpt lat="40.961184" lon="-3.258659">
        <ele>1029.6</ele>
        <time>2019-02-23T10:01:56.652Z</time>
      </trkpt>
      <trkpt lat="40.961633" lon="-3.258082">
        <ele>1025.9</ele>
        <time>2019-02-23T10:02:06.361Z</time>
      </trkpt>
      <trkpt lat="40.961956" lon="-3.257490">
        <ele>1023.8</ele>
        <time>2019-02-23T10:02:14.920Z</time>
      </trkpt>
      <trkpt lat="40.963557" lon="-3.255790">
        <ele>1019.4</ele>
        <time>2019-02-23T10:02:46.767Z</time>
      </trkpt>
      <trkpt lat="40.964202" lon="-3.255094">
        <ele>1020.0</ele>
        <time>2019-02-23T10:02:59.679Z</time>
      </trkpt>
      <trkpt lat="40.964318" lon="-3.254957">
        <ele>1019.1</ele>
        <time>2019-02-23T10:03:02.091Z</time>
      </trkpt>
      <trkpt lat="40.964457" lon="-3.254774">
        <ele>1018.2</ele>
        <time>2019-02-23T10:03:05.132Z</time>
      </trkpt>
      <trkpt lat="40.964576" lon="-3.254591">
        <ele>1018.2</ele>
        <time>2019-02-23T10:03:07.962Z</time>
      </trkpt>
      <trkpt lat="40.964654" lon="-3.254454">
        <ele>1019.0</ele>
        <time>2019-02-23T10:03:09.972Z</time>
      </trkpt>
      <trkpt lat="40.964902" lon="-3.254700">
        <ele>1021.1</ele>
        <time>2019-02-23T10:03:14.774Z</time>
      </trkpt>
      <trkpt lat="40.964654" lon="-3.254454">
        <ele>1019.0</ele>
        <time>2019-02-23T10:03:19.582Z</time>
      </trkpt>
      <trkpt lat="40.964670" lon="-3.254425">
        <ele>1019.1</ele>
        <time>2019-02-23T10:03:20.003Z</time>
      </trkpt>
      <trkpt lat="40.964753" lon="-3.254262">
        <ele>1020.4</ele>
        <time>2019-02-23T10:03:22.308Z</time>
      </trkpt>
      <trkpt lat="40.964881" lon="-3.253921">
        <ele>1023.0</ele>
        <time>2019-02-23T10:03:26.774Z</time>
      </trkpt>
      <trkpt lat="40.964926" lon="-3.253795">
        <ele>1023.9</ele>
        <time>2019-02-23T10:03:28.408Z</time>
      </trkpt>
      <trkpt lat="40.964950" lon="-3.253717">
        <ele>1024.3</ele>
        <time>2019-02-23T10:03:29.395Z</time>
      </trkpt>
      <trkpt lat="40.964984" lon="-3.253601">
        <ele>1024.9</ele>
        <time>2019-02-23T10:03:30.854Z</time>
      </trkpt>
      <trkpt lat="40.965036" lon="-3.253421">
        <ele>1025.5</ele>
        <time>2019-02-23T10:03:33.114Z</time>
      </trkpt>
      <trkpt lat="40.965639" lon="-3.251440">
        <ele>1032.8</ele>
        <time>2019-02-23T10:03:58.164Z</time>
      </trkpt>
      <trkpt lat="40.965669" lon="-3.251438">
        <ele>1035.1</ele>
        <time>2019-02-23T10:03:58.164Z</time>
      </trkpt>
      <trkpt lat="40.965992" lon="-3.250271">
        <ele>1037.5</ele>
        <time>2019-02-23T10:03:58.164Z</time>
      </trkpt>
      <trkpt lat="40.966344" lon="-3.249089">
        <ele>1037.6</ele>
        <time>2019-02-23T10:03:58.164Z</time>
      </trkpt>
      <trkpt lat="40.966653" lon="-3.248089">
        <ele>1036.4</ele>
        <time>2019-02-23T10:04:10.702Z</time>
      </trkpt>
      <trkpt lat="40.966728" lon="-3.247885">
        <ele>1035.0</ele>
        <time>2019-02-23T10:04:13.363Z</time>
      </trkpt>
      <trkpt lat="40.966810" lon="-3.247718">
        <ele>1033.6</ele>
        <time>2019-02-23T10:04:15.699Z</time>
      </trkpt>
      <trkpt lat="40.966917" lon="-3.247527">
        <ele>1032.3</ele>
        <time>2019-02-23T10:04:18.488Z</time>
      </trkpt>
      <trkpt lat="40.967038" lon="-3.247348">
        <ele>1031.9</ele>
        <time>2019-02-23T10:04:21.305Z</time>
      </trkpt>
      <trkpt lat="40.967181" lon="-3.247181">
        <ele>1031.8</ele>
        <time>2019-02-23T10:04:24.266Z</time>
      </trkpt>
      <trkpt lat="40.967278" lon="-3.247099">
        <ele>1032.0</ele>
        <time>2019-02-23T10:04:26.053Z</time>
      </trkpt>
      <trkpt lat="40.967414" lon="-3.247003">
        <ele>1031.7</ele>
        <time>2019-02-23T10:04:28.446Z</time>
      </trkpt>
      <trkpt lat="40.967551" lon="-3.246929">
        <ele>1031.0</ele>
        <time>2019-02-23T10:04:30.744Z</time>
      </trkpt>
      <trkpt lat="40.967693" lon="-3.246863">
        <ele>1030.3</ele>
        <time>2019-02-23T10:04:33.081Z</time>
      </trkpt>
      <trkpt lat="40.967824" lon="-3.246824">
        <ele>1029.5</ele>
        <time>2019-02-23T10:04:35.166Z</time>
      </trkpt>
      <trkpt lat="40.967989" lon="-3.246802">
        <ele>1028.4</ele>
        <time>2019-02-23T10:04:37.741Z</time>
      </trkpt>
      <trkpt lat="40.968122" lon="-3.246801">
        <ele>1027.7</ele>
        <time>2019-02-23T10:04:39.806Z</time>
      </trkpt>
      <trkpt lat="40.968244" lon="-3.246812">
        <ele>1026.9</ele>
        <time>2019-02-23T10:04:41.705Z</time>
      </trkpt>
      <trkpt lat="40.968394" lon="-3.246841">
        <ele>1026.3</ele>
        <time>2019-02-23T10:04:44.059Z</time>
      </trkpt>
      <trkpt lat="40.968532" lon="-3.246884">
        <ele>1026.0</ele>
        <time>2019-02-23T10:04:46.260Z</time>
      </trkpt>
      <trkpt lat="40.968665" lon="-3.246940">
        <ele>1026.1</ele>
        <time>2019-02-23T10:04:48.427Z</time>
      </trkpt>
      <trkpt lat="40.968835" lon="-3.247020">
        <ele>1026.3</ele>
        <time>2019-02-23T10:04:51.229Z</time>
      </trkpt>
      <trkpt lat="40.969231" lon="-3.247211">
        <ele>1027.8</ele>
        <time>2019-02-23T10:04:57.774Z</time>
      </trkpt>
      <trkpt lat="40.969395" lon="-3.247265">
        <ele>1028.9</ele>
        <time>2019-02-23T10:05:00.398Z</time>
      </trkpt>
      <trkpt lat="40.969571" lon="-3.247306">
        <ele>1030.4</ele>
        <time>2019-02-23T10:05:03.173Z</time>
      </trkpt>
      <trkpt lat="40.969740" lon="-3.247315">
        <ele>1032.7</ele>
        <time>2019-02-23T10:05:05.800Z</time>
      </trkpt>
      <trkpt lat="40.969882" lon="-3.247305">
        <ele>1034.9</ele>
        <time>2019-02-23T10:05:08.008Z</time>
      </trkpt>
      <trkpt lat="40.970054" lon="-3.247274">
        <ele>1037.8</ele>
        <time>2019-02-23T10:05:10.704Z</time>
      </trkpt>
      <trkpt lat="40.970196" lon="-3.247221">
        <ele>1038.7</ele>
        <time>2019-02-23T10:05:12.995Z</time>
      </trkpt>
      <trkpt lat="40.970403" lon="-3.247141">
        <ele>1039.1</ele>
        <time>2019-02-23T10:05:16.344Z</time>
      </trkpt>
      <trkpt lat="40.970686" lon="-3.247011">
        <ele>1039.7</ele>
        <time>2019-02-23T10:05:20.996Z</time>
      </trkpt>
      <trkpt lat="40.971706" lon="-3.246552">
        <ele>1038.0</ele>
        <time>2019-02-23T10:05:37.728Z</time>
      </trkpt>
      <trkpt lat="40.972941" lon="-3.245993">
        <ele>1033.2</ele>
        <time>2019-02-23T10:05:57.999Z</time>
      </trkpt>
      <trkpt lat="40.973260" lon="-3.245853">
        <ele>1033.4</ele>
        <time>2019-02-23T10:06:03.218Z</time>
      </trkpt>
      <trkpt lat="40.973390" lon="-3.245796">
        <ele>1033.8</ele>
        <time>2019-02-23T10:06:05.344Z</time>
      </trkpt>
      <trkpt lat="40.973915" lon="-3.245561">
        <ele>1036.4</ele>
        <time>2019-02-23T10:06:13.951Z</time>
      </trkpt>
      <trkpt lat="40.974873" lon="-3.245134">
        <ele>1044.3</ele>
        <time>2019-02-23T10:06:29.650Z</time>
      </trkpt>
      <trkpt lat="40.975536" lon="-3.244816">
        <ele>1044.5</ele>
        <time>2019-02-23T10:06:40.602Z</time>
      </trkpt>
      <trkpt lat="40.976166" lon="-3.244491">
        <ele>1043.7</ele>
        <time>2019-02-23T10:06:51.103Z</time>
      </trkpt>
      <trkpt lat="40.976754" lon="-3.244162">
        <ele>1043.3</ele>
        <time>2019-02-23T10:07:01.017Z</time>
      </trkpt>
      <trkpt lat="40.977139" lon="-3.243955">
        <ele>1043.6</ele>
        <time>2019-02-23T10:07:07.470Z</time>
      </trkpt>
      <trkpt lat="40.977612" lon="-3.243703">
        <ele>1043.4</ele>
        <time>2019-02-23T10:07:15.388Z</time>
      </trkpt>
      <trkpt lat="40.978332" lon="-3.243316">
        <ele>1045.9</ele>
        <time>2019-02-23T10:07:27.456Z</time>
      </trkpt>
      <trkpt lat="40.979158" lon="-3.242864">
        <ele>1047.4</ele>
        <time>2019-02-23T10:07:41.337Z</time>
      </trkpt>
      <trkpt lat="40.979632" lon="-3.242619">
        <ele>1050.6</ele>
        <time>2019-02-23T10:07:49.239Z</time>
      </trkpt>
      <trkpt lat="40.979813" lon="-3.242537">
        <ele>1050.5</ele>
        <time>2019-02-23T10:07:52.210Z</time>
      </trkpt>
      <trkpt lat="40.979976" lon="-3.242479">
        <ele>1050.4</ele>
        <time>2019-02-23T10:07:54.831Z</time>
      </trkpt>
      <trkpt lat="40.980153" lon="-3.242437">
        <ele>1049.8</ele>
        <time>2019-02-23T10:07:57.623Z</time>
      </trkpt>
      <trkpt lat="40.980325" lon="-3.242414">
        <ele>1048.9</ele>
        <time>2019-02-23T10:08:00.308Z</time>
      </trkpt>
      <trkpt lat="40.980498" lon="-3.242406">
        <ele>1047.7</ele>
        <time>2019-02-23T10:08:02.996Z</time>
      </trkpt>
      <trkpt lat="40.980679" lon="-3.242414">
        <ele>1046.7</ele>
        <time>2019-02-23T10:08:05.808Z</time>
      </trkpt>
      <trkpt lat="40.980831" lon="-3.242439">
        <ele>1045.9</ele>
        <time>2019-02-23T10:08:08.187Z</time>
      </trkpt>
      <trkpt lat="40.980969" lon="-3.242472">
        <ele>1045.3</ele>
        <time>2019-02-23T10:08:10.365Z</time>
      </trkpt>
      <trkpt lat="40.981163" lon="-3.242530">
        <ele>1044.6</ele>
        <time>2019-02-23T10:08:13.454Z</time>
      </trkpt>
      <trkpt lat="40.981451" lon="-3.242633">
        <ele>1043.9</ele>
        <time>2019-02-23T10:08:18.087Z</time>
      </trkpt>
      <trkpt lat="40.982008" lon="-3.242840">
        <ele>1042.4</ele>
        <time>2019-02-23T10:08:27.072Z</time>
      </trkpt>
      <trkpt lat="40.982418" lon="-3.242983">
        <ele>1041.0</ele>
        <time>2019-02-23T10:08:33.657Z</time>
      </trkpt>
      <trkpt lat="40.982657" lon="-3.243061">
        <ele>1040.2</ele>
        <time>2019-02-23T10:08:37.480Z</time>
      </trkpt>
      <trkpt lat="40.982908" lon="-3.243133">
        <ele>1039.2</ele>
        <time>2019-02-23T10:08:41.468Z</time>
      </trkpt>
      <trkpt lat="40.983116" lon="-3.243166">
        <ele>1038.8</ele>
        <time>2019-02-23T10:08:44.721Z</time>
      </trkpt>
      <trkpt lat="40.983317" lon="-3.243178">
        <ele>1038.8</ele>
        <time>2019-02-23T10:08:47.846Z</time>
      </trkpt>
      <trkpt lat="40.983477" lon="-3.243175">
        <ele>1038.9</ele>
        <time>2019-02-23T10:08:50.331Z</time>
      </trkpt>
      <trkpt lat="40.983634" lon="-3.243164">
        <ele>1038.9</ele>
        <time>2019-02-23T10:08:52.772Z</time>
      </trkpt>
      <trkpt lat="40.983829" lon="-3.243134">
        <ele>1038.8</ele>
        <time>2019-02-23T10:08:55.821Z</time>
      </trkpt>
      <trkpt lat="40.984035" lon="-3.243082">
        <ele>1039.0</ele>
        <time>2019-02-23T10:08:59.078Z</time>
      </trkpt>
      <trkpt lat="40.984208" lon="-3.243017">
        <ele>1039.4</ele>
        <time>2019-02-23T10:09:01.871Z</time>
      </trkpt>
      <trkpt lat="40.984384" lon="-3.242944">
        <ele>1040.0</ele>
        <time>2019-02-23T10:09:04.735Z</time>
      </trkpt>
      <trkpt lat="40.984605" lon="-3.242829">
        <ele>1041.3</ele>
        <time>2019-02-23T10:09:08.422Z</time>
      </trkpt>
      <trkpt lat="40.984775" lon="-3.242730">
        <ele>1042.6</ele>
        <time>2019-02-23T10:09:11.306Z</time>
      </trkpt>
      <trkpt lat="40.985526" lon="-3.242255">
        <ele>1044.9</ele>
        <time>2019-02-23T10:09:24.232Z</time>
      </trkpt>
      <trkpt lat="40.986364" lon="-3.241746">
        <ele>1051.0</ele>
        <time>2019-02-23T10:09:38.551Z</time>
      </trkpt>
      <trkpt lat="40.986539" lon="-3.241663">
        <ele>1052.0</ele>
        <time>2019-02-23T10:09:41.438Z</time>
      </trkpt>
      <trkpt lat="40.986677" lon="-3.241609">
        <ele>1052.9</ele>
        <time>2019-02-23T10:09:43.673Z</time>
      </trkpt>
      <trkpt lat="40.986792" lon="-3.241584">
        <ele>1053.8</ele>
        <time>2019-02-23T10:09:45.483Z</time>
      </trkpt>
      <trkpt lat="40.986899" lon="-3.241567">
        <ele>1054.7</ele>
        <time>2019-02-23T10:09:47.156Z</time>
      </trkpt>
      <trkpt lat="40.987016" lon="-3.241563">
        <ele>1055.3</ele>
        <time>2019-02-23T10:09:48.973Z</time>
      </trkpt>
      <trkpt lat="40.987134" lon="-3.241570">
        <ele>1055.9</ele>
        <time>2019-02-23T10:09:50.807Z</time>
      </trkpt>
      <trkpt lat="40.987260" lon="-3.241587">
        <ele>1056.1</ele>
        <time>2019-02-23T10:09:52.774Z</time>
      </trkpt>
      <trkpt lat="40.987379" lon="-3.241617">
        <ele>1056.2</ele>
        <time>2019-02-23T10:09:54.655Z</time>
      </trkpt>
      <trkpt lat="40.987502" lon="-3.241662">
        <ele>1056.0</ele>
        <time>2019-02-23T10:09:56.636Z</time>
      </trkpt>
      <trkpt lat="40.987631" lon="-3.241724">
        <ele>1055.7</ele>
        <time>2019-02-23T10:09:58.767Z</time>
      </trkpt>
      <trkpt lat="40.987726" lon="-3.241782">
        <ele>1055.7</ele>
        <time>2019-02-23T10:10:00.391Z</time>
      </trkpt>
      <trkpt lat="40.987832" lon="-3.241863">
        <ele>1055.7</ele>
        <time>2019-02-23T10:10:02.291Z</time>
      </trkpt>
      <trkpt lat="40.987949" lon="-3.241967">
        <ele>1055.9</ele>
        <time>2019-02-23T10:10:04.479Z</time>
      </trkpt>
      <trkpt lat="40.988111" lon="-3.242144">
        <ele>1055.9</ele>
        <time>2019-02-23T10:10:07.740Z</time>
      </trkpt>
      <trkpt lat="40.988361" lon="-3.242444">
        <ele>1054.9</ele>
        <time>2019-02-23T10:10:12.979Z</time>
      </trkpt>
      <trkpt lat="40.988829" lon="-3.243025">
        <ele>1052.2</ele>
        <time>2019-02-23T10:10:22.941Z</time>
      </trkpt>
      <trkpt lat="40.989134" lon="-3.243404">
        <ele>1052.1</ele>
        <time>2019-02-23T10:10:29.436Z</time>
      </trkpt>
      <trkpt lat="40.989243" lon="-3.243559">
        <ele>1051.6</ele>
        <time>2019-02-23T10:10:31.919Z</time>
      </trkpt>
      <trkpt lat="40.989340" lon="-3.243715">
        <ele>1050.9</ele>
        <time>2019-02-23T10:10:34.288Z</time>
      </trkpt>
      <trkpt lat="40.989464" lon="-3.243925">
        <ele>1049.0</ele>
        <time>2019-02-23T10:10:37.413Z</time>
      </trkpt>
      <trkpt lat="40.989609" lon="-3.244222">
        <ele>1046.9</ele>
        <time>2019-02-23T10:10:41.559Z</time>
      </trkpt>
      <trkpt lat="40.989729" lon="-3.244508">
        <ele>1045.3</ele>
        <time>2019-02-23T10:10:45.395Z</time>
      </trkpt>
      <trkpt lat="40.989807" lon="-3.244726">
        <ele>1044.4</ele>
        <time>2019-02-23T10:10:48.223Z</time>
      </trkpt>
      <trkpt lat="40.989868" lon="-3.244927">
        <ele>1043.8</ele>
        <time>2019-02-23T10:10:50.762Z</time>
      </trkpt>
      <trkpt lat="40.989878" lon="-3.244961">
        <ele>1043.8</ele>
        <time>2019-02-23T10:10:51.189Z</time>
      </trkpt>
      <trkpt lat="40.989930" lon="-3.245153">
        <ele>1043.8</ele>
        <time>2019-02-23T10:10:53.580Z</time>
      </trkpt>
      <trkpt lat="40.990164" lon="-3.246307">
        <ele>1046.6</ele>
        <time>2019-02-23T10:11:07.589Z</time>
      </trkpt>
      <trkpt lat="40.990254" lon="-3.246780">
        <ele>1046.8</ele>
        <time>2019-02-23T10:11:13.307Z</time>
      </trkpt>
      <trkpt lat="40.990348" lon="-3.247129">
        <ele>1047.2</ele>
        <time>2019-02-23T10:11:17.651Z</time>
      </trkpt>
      <trkpt lat="40.990350" lon="-3.247348">
        <ele>1046.9</ele>
        <time>2019-02-23T10:11:20.218Z</time>
      </trkpt>
      <trkpt lat="40.990393" lon="-3.247678">
        <ele>1046.1</ele>
        <time>2019-02-23T10:11:24.144Z</time>
      </trkpt>
      <trkpt lat="40.990543" lon="-3.248366">
        <ele>1045.0</ele>
        <time>2019-02-23T10:11:32.539Z</time>
      </trkpt>
      <trkpt lat="40.990574" lon="-3.248456">
        <ele>1045.2</ele>
        <time>2019-02-23T10:11:33.698Z</time>
      </trkpt>
      <trkpt lat="40.990625" lon="-3.248509">
        <ele>1045.5</ele>
        <time>2019-02-23T10:11:34.704Z</time>
      </trkpt>
      <trkpt lat="40.990691" lon="-3.248556">
        <ele>1045.9</ele>
        <time>2019-02-23T10:11:35.867Z</time>
      </trkpt>
      <trkpt lat="40.990763" lon="-3.248587">
        <ele>1046.4</ele>
        <time>2019-02-23T10:11:37.042Z</time>
      </trkpt>
      <trkpt lat="40.990887" lon="-3.248587">
        <ele>1046.6</ele>
        <time>2019-02-23T10:11:38.968Z</time>
      </trkpt>
      <trkpt lat="40.991265" lon="-3.248532">
        <ele>1045.4</ele>
        <time>2019-02-23T10:11:44.874Z</time>
      </trkpt>
      <trkpt lat="40.991809" lon="-3.248403">
        <ele>1044.9</ele>
        <time>2019-02-23T10:11:53.457Z</time>
      </trkpt>
      <trkpt lat="40.992073" lon="-3.248374">
        <ele>1044.7</ele>
        <time>2019-02-23T10:11:57.571Z</time>
      </trkpt>
      <trkpt lat="40.993285" lon="-3.248162">
        <ele>1041.6</ele>
        <time>2019-02-23T10:12:16.559Z</time>
      </trkpt>
      <trkpt lat="40.993556" lon="-3.248115">
        <ele>1041.7</ele>
        <time>2019-02-23T10:12:20.804Z</time>
      </trkpt>
      <trkpt lat="40.994724" lon="-3.247919">
        <ele>1040.2</ele>
        <time>2019-02-23T10:12:39.090Z</time>
      </trkpt>
      <trkpt lat="40.995756" lon="-3.247744">
        <ele>1038.9</ele>
        <time>2019-02-23T10:12:55.250Z</time>
      </trkpt>
      <trkpt lat="40.996349" lon="-3.248125">
        <ele>1037.5</ele>
        <time>2019-02-23T10:13:05.486Z</time>
      </trkpt>
      <trkpt lat="40.996877" lon="-3.248502">
        <ele>1034.3</ele>
        <time>2019-02-23T10:13:14.802Z</time>
      </trkpt>
      <trkpt lat="40.997519" lon="-3.248575">
        <ele>1035.2</ele>
        <time>2019-02-23T10:13:24.810Z</time>
      </trkpt>
      <trkpt lat="40.998063" lon="-3.248632">
        <ele>1034.4</ele>
        <time>2019-02-23T10:13:33.285Z</time>
      </trkpt>
      <trkpt lat="40.998776" lon="-3.248686">
        <ele>1034.2</ele>
        <time>2019-02-23T10:13:44.377Z</time>
      </trkpt>
      <trkpt lat="40.999836" lon="-3.248763">
        <ele>1035.1</ele>
        <time>2019-02-23T10:14:00.865Z</time>
      </trkpt>
      <trkpt lat="41.000411" lon="-3.248804">
        <ele>1034.8</ele>
        <time>2019-02-23T10:14:09.808Z</time>
      </trkpt>
      <trkpt lat="41.000899" lon="-3.248834">
        <ele>1033.9</ele>
        <time>2019-02-23T10:14:17.395Z</time>
      </trkpt>
      <trkpt lat="41.000898" lon="-3.248863">
        <ele>1034.6</ele>
        <time>2019-02-23T10:14:17.395Z</time>
      </trkpt>
      <trkpt lat="41.000898" lon="-3.248863">
        <ele>1034.6</ele>
        <time>2019-02-23T07:10:33.802Z</time>
      </trkpt>
      <trkpt lat="41.000899" lon="-3.248834">
        <ele>1033.9</ele>
        <time>2019-02-23T07:10:33.802Z</time>
      </trkpt>
      <trkpt lat="41.000411" lon="-3.248804">
        <ele>1034.8</ele>
        <time>2019-02-23T07:10:41.389Z</time>
      </trkpt>
      <trkpt lat="40.999836" lon="-3.248763">
        <ele>1035.1</ele>
        <time>2019-02-23T07:10:50.332Z</time>
      </trkpt>
      <trkpt lat="40.998776" lon="-3.248686">
        <ele>1034.2</ele>
        <time>2019-02-23T07:11:06.820Z</time>
      </trkpt>
      <trkpt lat="40.998063" lon="-3.248632">
        <ele>1034.4</ele>
        <time>2019-02-23T07:11:17.912Z</time>
      </trkpt>
      <trkpt lat="40.997519" lon="-3.248575">
        <ele>1035.2</ele>
        <time>2019-02-23T07:11:26.387Z</time>
      </trkpt>
      <trkpt lat="40.996877" lon="-3.248502">
        <ele>1034.3</ele>
        <time>2019-02-23T07:11:36.395Z</time>
      </trkpt>
      <trkpt lat="40.996349" lon="-3.248125">
        <ele>1037.5</ele>
        <time>2019-02-23T07:11:45.711Z</time>
      </trkpt>
      <trkpt lat="40.995756" lon="-3.247744">
        <ele>1038.9</ele>
        <time>2019-02-23T07:11:55.947Z</time>
      </trkpt>
      <trkpt lat="40.994724" lon="-3.247919">
        <ele>1040.2</ele>
        <time>2019-02-23T07:12:12.107Z</time>
      </trkpt>
      <trkpt lat="40.993556" lon="-3.248115">
        <ele>1041.7</ele>
        <time>2019-02-23T07:12:30.393Z</time>
      </trkpt>
      <trkpt lat="40.993285" lon="-3.248162">
        <ele>1041.6</ele>
        <time>2019-02-23T07:12:34.638Z</time>
      </trkpt>
      <trkpt lat="40.992073" lon="-3.248374">
        <ele>1044.7</ele>
        <time>2019-02-23T07:12:53.626Z</time>
      </trkpt>
      <trkpt lat="40.991809" lon="-3.248403">
        <ele>1044.9</ele>
        <time>2019-02-23T07:12:57.740Z</time>
      </trkpt>
      <trkpt lat="40.991265" lon="-3.248532">
        <ele>1045.4</ele>
        <time>2019-02-23T07:13:06.323Z</time>
      </trkpt>
      <trkpt lat="40.990887" lon="-3.248587">
        <ele>1046.6</ele>
        <time>2019-02-23T07:13:12.229Z</time>
      </trkpt>
      <trkpt lat="40.990763" lon="-3.248587">
        <ele>1046.4</ele>
        <time>2019-02-23T07:13:14.155Z</time>
      </trkpt>
      <trkpt lat="40.990691" lon="-3.248556">
        <ele>1045.9</ele>
        <time>2019-02-23T07:13:15.330Z</time>
      </trkpt>
      <trkpt lat="40.990625" lon="-3.248509">
        <ele>1045.5</ele>
        <time>2019-02-23T07:13:16.493Z</time>
      </trkpt>
      <trkpt lat="40.990574" lon="-3.248456">
        <ele>1045.2</ele>
        <time>2019-02-23T07:13:17.499Z</time>
      </trkpt>
      <trkpt lat="40.990543" lon="-3.248366">
        <ele>1045.0</ele>
        <time>2019-02-23T07:13:18.658Z</time>
      </trkpt>
      <trkpt lat="40.990393" lon="-3.247678">
        <ele>1046.1</ele>
        <time>2019-02-23T07:13:27.053Z</time>
      </trkpt>
      <trkpt lat="40.990350" lon="-3.247348">
        <ele>1046.9</ele>
        <time>2019-02-23T07:13:30.979Z</time>
      </trkpt>
      <trkpt lat="40.990348" lon="-3.247129">
        <ele>1047.2</ele>
        <time>2019-02-23T07:13:33.546Z</time>
      </trkpt>
      <trkpt lat="40.990254" lon="-3.246780">
        <ele>1046.8</ele>
        <time>2019-02-23T07:13:37.890Z</time>
      </trkpt>
      <trkpt lat="40.990164" lon="-3.246307">
        <ele>1046.6</ele>
        <time>2019-02-23T07:13:43.608Z</time>
      </trkpt>
      <trkpt lat="40.989930" lon="-3.245153">
        <ele>1043.8</ele>
        <time>2019-02-23T07:13:57.617Z</time>
      </trkpt>
      <trkpt lat="40.989878" lon="-3.244961">
        <ele>1043.8</ele>
        <time>2019-02-23T07:14:00.008Z</time>
      </trkpt>
      <trkpt lat="40.989868" lon="-3.244927">
        <ele>1043.8</ele>
        <time>2019-02-23T07:14:00.435Z</time>
      </trkpt>
      <trkpt lat="40.989807" lon="-3.244726">
        <ele>1044.4</ele>
        <time>2019-02-23T07:14:02.974Z</time>
      </trkpt>
      <trkpt lat="40.989729" lon="-3.244508">
        <ele>1045.3</ele>
        <time>2019-02-23T07:14:05.802Z</time>
      </trkpt>
      <trkpt lat="40.989609" lon="-3.244222">
        <ele>1046.9</ele>
        <time>2019-02-23T07:14:09.638Z</time>
      </trkpt>
      <trkpt lat="40.989464" lon="-3.243925">
        <ele>1049.0</ele>
        <time>2019-02-23T07:14:13.784Z</time>
      </trkpt>
      <trkpt lat="40.989340" lon="-3.243715">
        <ele>1050.9</ele>
        <time>2019-02-23T07:14:16.909Z</time>
      </trkpt>
      <trkpt lat="40.989243" lon="-3.243559">
        <ele>1051.6</ele>
        <time>2019-02-23T07:14:19.278Z</time>
      </trkpt>
      <trkpt lat="40.989134" lon="-3.243404">
        <ele>1052.1</ele>
        <time>2019-02-23T07:14:21.761Z</time>
      </trkpt>
      <trkpt lat="40.988829" lon="-3.243025">
        <ele>1052.2</ele>
        <time>2019-02-23T07:14:28.256Z</time>
      </trkpt>
      <trkpt lat="40.988361" lon="-3.242444">
        <ele>1054.9</ele>
        <time>2019-02-23T07:14:38.218Z</time>
      </trkpt>
      <trkpt lat="40.988111" lon="-3.242144">
        <ele>1055.9</ele>
        <time>2019-02-23T07:14:43.457Z</time>
      </trkpt>
      <trkpt lat="40.987949" lon="-3.241967">
        <ele>1055.9</ele>
        <time>2019-02-23T07:14:46.718Z</time>
      </trkpt>
      <trkpt lat="40.987832" lon="-3.241863">
        <ele>1055.7</ele>
        <time>2019-02-23T07:14:48.906Z</time>
      </trkpt>
      <trkpt lat="40.987726" lon="-3.241782">
        <ele>1055.7</ele>
        <time>2019-02-23T07:14:50.806Z</time>
      </trkpt>
      <trkpt lat="40.987631" lon="-3.241724">
        <ele>1055.7</ele>
        <time>2019-02-23T07:14:52.430Z</time>
      </trkpt>
      <trkpt lat="40.987502" lon="-3.241662">
        <ele>1056.0</ele>
        <time>2019-02-23T07:14:54.561Z</time>
      </trkpt>
      <trkpt lat="40.987379" lon="-3.241617">
        <ele>1056.2</ele>
        <time>2019-02-23T07:14:56.542Z</time>
      </trkpt>
      <trkpt lat="40.987260" lon="-3.241587">
        <ele>1056.1</ele>
        <time>2019-02-23T07:14:58.423Z</time>
      </trkpt>
      <trkpt lat="40.987134" lon="-3.241570">
        <ele>1055.9</ele>
        <time>2019-02-23T07:15:00.390Z</time>
      </trkpt>
      <trkpt lat="40.987016" lon="-3.241563">
        <ele>1055.3</ele>
        <time>2019-02-23T07:15:02.224Z</time>
      </trkpt>
      <trkpt lat="40.986899" lon="-3.241567">
        <ele>1054.7</ele>
        <time>2019-02-23T07:15:04.041Z</time>
      </trkpt>
      <trkpt lat="40.986792" lon="-3.241584">
        <ele>1053.8</ele>
        <time>2019-02-23T07:15:05.714Z</time>
      </trkpt>
      <trkpt lat="40.986677" lon="-3.241609">
        <ele>1052.9</ele>
        <time>2019-02-23T07:15:07.524Z</time>
      </trkpt>
      <trkpt lat="40.986539" lon="-3.241663">
        <ele>1052.0</ele>
        <time>2019-02-23T07:15:09.759Z</time>
      </trkpt>
      <trkpt lat="40.986364" lon="-3.241746">
        <ele>1051.0</ele>
        <time>2019-02-23T07:15:12.646Z</time>
      </trkpt>
      <trkpt lat="40.985526" lon="-3.242255">
        <ele>1044.9</ele>
        <time>2019-02-23T07:15:26.965Z</time>
      </trkpt>
      <trkpt lat="40.984775" lon="-3.242730">
        <ele>1042.6</ele>
        <time>2019-02-23T07:15:39.891Z</time>
      </trkpt>
      <trkpt lat="40.984605" lon="-3.242829">
        <ele>1041.3</ele>
        <time>2019-02-23T07:15:42.775Z</time>
      </trkpt>
      <trkpt lat="40.984384" lon="-3.242944">
        <ele>1040.0</ele>
        <time>2019-02-23T07:15:46.462Z</time>
      </trkpt>
      <trkpt lat="40.984208" lon="-3.243017">
        <ele>1039.4</ele>
        <time>2019-02-23T07:15:49.326Z</time>
      </trkpt>
      <trkpt lat="40.984035" lon="-3.243082">
        <ele>1039.0</ele>
        <time>2019-02-23T07:15:52.119Z</time>
      </trkpt>
      <trkpt lat="40.983829" lon="-3.243134">
        <ele>1038.8</ele>
        <time>2019-02-23T07:15:55.376Z</time>
      </trkpt>
      <trkpt lat="40.983634" lon="-3.243164">
        <ele>1038.9</ele>
        <time>2019-02-23T07:15:58.425Z</time>
      </trkpt>
      <trkpt lat="40.983477" lon="-3.243175">
        <ele>1038.9</ele>
        <time>2019-02-23T07:16:00.866Z</time>
      </trkpt>
      <trkpt lat="40.983317" lon="-3.243178">
        <ele>1038.8</ele>
        <time>2019-02-23T07:16:03.351Z</time>
      </trkpt>
      <trkpt lat="40.983116" lon="-3.243166">
        <ele>1038.8</ele>
        <time>2019-02-23T07:16:06.476Z</time>
      </trkpt>
      <trkpt lat="40.982908" lon="-3.243133">
        <ele>1039.2</ele>
        <time>2019-02-23T07:16:09.729Z</time>
      </trkpt>
      <trkpt lat="40.982657" lon="-3.243061">
        <ele>1040.2</ele>
        <time>2019-02-23T07:16:13.717Z</time>
      </trkpt>
      <trkpt lat="40.982418" lon="-3.242983">
        <ele>1041.0</ele>
        <time>2019-02-23T07:16:17.540Z</time>
      </trkpt>
      <trkpt lat="40.982008" lon="-3.242840">
        <ele>1042.4</ele>
        <time>2019-02-23T07:16:24.125Z</time>
      </trkpt>
      <trkpt lat="40.981451" lon="-3.242633">
        <ele>1043.9</ele>
        <time>2019-02-23T07:16:33.110Z</time>
      </trkpt>
      <trkpt lat="40.981163" lon="-3.242530">
        <ele>1044.6</ele>
        <time>2019-02-23T07:16:37.743Z</time>
      </trkpt>
      <trkpt lat="40.980969" lon="-3.242472">
        <ele>1045.3</ele>
        <time>2019-02-23T07:16:40.832Z</time>
      </trkpt>
      <trkpt lat="40.980831" lon="-3.242439">
        <ele>1045.9</ele>
        <time>2019-02-23T07:16:43.010Z</time>
      </trkpt>
      <trkpt lat="40.980679" lon="-3.242414">
        <ele>1046.7</ele>
        <time>2019-02-23T07:16:45.389Z</time>
      </trkpt>
      <trkpt lat="40.980498" lon="-3.242406">
        <ele>1047.7</ele>
        <time>2019-02-23T07:16:48.201Z</time>
      </trkpt>
      <trkpt lat="40.980325" lon="-3.242414">
        <ele>1048.9</ele>
        <time>2019-02-23T07:16:50.889Z</time>
      </trkpt>
      <trkpt lat="40.980153" lon="-3.242437">
        <ele>1049.8</ele>
        <time>2019-02-23T07:16:53.574Z</time>
      </trkpt>
      <trkpt lat="40.979976" lon="-3.242479">
        <ele>1050.4</ele>
        <time>2019-02-23T07:16:56.366Z</time>
      </trkpt>
      <trkpt lat="40.979813" lon="-3.242537">
        <ele>1050.5</ele>
        <time>2019-02-23T07:16:58.987Z</time>
      </trkpt>
      <trkpt lat="40.979632" lon="-3.242619">
        <ele>1050.6</ele>
        <time>2019-02-23T07:17:01.958Z</time>
      </trkpt>
      <trkpt lat="40.979158" lon="-3.242864">
        <ele>1047.4</ele>
        <time>2019-02-23T07:17:09.860Z</time>
      </trkpt>
      <trkpt lat="40.978332" lon="-3.243316">
        <ele>1045.9</ele>
        <time>2019-02-23T07:17:23.741Z</time>
      </trkpt>
      <trkpt lat="40.977612" lon="-3.243703">
        <ele>1043.4</ele>
        <time>2019-02-23T07:17:35.809Z</time>
      </trkpt>
      <trkpt lat="40.977139" lon="-3.243955">
        <ele>1043.6</ele>
        <time>2019-02-23T07:17:43.727Z</time>
      </trkpt>
      <trkpt lat="40.976754" lon="-3.244162">
        <ele>1043.3</ele>
        <time>2019-02-23T07:17:50.180Z</time>
      </trkpt>
      <trkpt lat="40.976166" lon="-3.244491">
        <ele>1043.7</ele>
        <time>2019-02-23T07:18:00.094Z</time>
      </trkpt>
      <trkpt lat="40.975536" lon="-3.244816">
        <ele>1044.5</ele>
        <time>2019-02-23T07:18:10.595Z</time>
      </trkpt>
      <trkpt lat="40.974873" lon="-3.245134">
        <ele>1044.3</ele>
        <time>2019-02-23T07:18:21.547Z</time>
      </trkpt>
      <trkpt lat="40.973915" lon="-3.245561">
        <ele>1036.4</ele>
        <time>2019-02-23T07:18:37.246Z</time>
      </trkpt>
      <trkpt lat="40.973390" lon="-3.245796">
        <ele>1033.8</ele>
        <time>2019-02-23T07:18:45.853Z</time>
      </trkpt>
      <trkpt lat="40.973260" lon="-3.245853">
        <ele>1033.4</ele>
        <time>2019-02-23T07:18:47.979Z</time>
      </trkpt>
      <trkpt lat="40.972941" lon="-3.245993">
        <ele>1033.2</ele>
        <time>2019-02-23T07:18:53.198Z</time>
      </trkpt>
      <trkpt lat="40.971706" lon="-3.246552">
        <ele>1038.0</ele>
        <time>2019-02-23T07:19:13.469Z</time>
      </trkpt>
      <trkpt lat="40.970686" lon="-3.247011">
        <ele>1039.7</ele>
        <time>2019-02-23T07:19:30.201Z</time>
      </trkpt>
      <trkpt lat="40.970403" lon="-3.247141">
        <ele>1039.1</ele>
        <time>2019-02-23T07:19:34.853Z</time>
      </trkpt>
      <trkpt lat="40.970196" lon="-3.247221">
        <ele>1038.7</ele>
        <time>2019-02-23T07:19:38.202Z</time>
      </trkpt>
      <trkpt lat="40.970054" lon="-3.247274">
        <ele>1037.8</ele>
        <time>2019-02-23T07:19:40.493Z</time>
      </trkpt>
      <trkpt lat="40.969882" lon="-3.247305">
        <ele>1034.9</ele>
        <time>2019-02-23T07:19:43.189Z</time>
      </trkpt>
      <trkpt lat="40.969740" lon="-3.247315">
        <ele>1032.7</ele>
        <time>2019-02-23T07:19:45.397Z</time>
      </trkpt>
      <trkpt lat="40.969571" lon="-3.247306">
        <ele>1030.4</ele>
        <time>2019-02-23T07:19:48.024Z</time>
      </trkpt>
      <trkpt lat="40.969395" lon="-3.247265">
        <ele>1028.9</ele>
        <time>2019-02-23T07:19:50.799Z</time>
      </trkpt>
      <trkpt lat="40.969231" lon="-3.247211">
        <ele>1027.8</ele>
        <time>2019-02-23T07:19:53.423Z</time>
      </trkpt>
      <trkpt lat="40.968835" lon="-3.247020">
        <ele>1026.3</ele>
        <time>2019-02-23T07:19:59.968Z</time>
      </trkpt>
      <trkpt lat="40.968665" lon="-3.246940">
        <ele>1026.1</ele>
        <time>2019-02-23T07:20:02.770Z</time>
      </trkpt>
      <trkpt lat="40.968532" lon="-3.246884">
        <ele>1026.0</ele>
        <time>2019-02-23T07:20:04.937Z</time>
      </trkpt>
      <trkpt lat="40.968394" lon="-3.246841">
        <ele>1026.3</ele>
        <time>2019-02-23T07:20:07.138Z</time>
      </trkpt>
      <trkpt lat="40.968244" lon="-3.246812">
        <ele>1026.9</ele>
        <time>2019-02-23T07:20:09.492Z</time>
      </trkpt>
      <trkpt lat="40.968122" lon="-3.246801">
        <ele>1027.7</ele>
        <time>2019-02-23T07:20:11.391Z</time>
      </trkpt>
      <trkpt lat="40.967989" lon="-3.246802">
        <ele>1028.4</ele>
        <time>2019-02-23T07:20:13.456Z</time>
      </trkpt>
      <trkpt lat="40.967824" lon="-3.246824">
        <ele>1029.5</ele>
        <time>2019-02-23T07:20:16.031Z</time>
      </trkpt>
      <trkpt lat="40.967693" lon="-3.246863">
        <ele>1030.3</ele>
        <time>2019-02-23T07:20:18.116Z</time>
      </trkpt>
      <trkpt lat="40.967551" lon="-3.246929">
        <ele>1031.0</ele>
        <time>2019-02-23T07:20:20.453Z</time>
      </trkpt>
      <trkpt lat="40.967414" lon="-3.247003">
        <ele>1031.7</ele>
        <time>2019-02-23T07:20:22.751Z</time>
      </trkpt>
      <trkpt lat="40.967278" lon="-3.247099">
        <ele>1032.0</ele>
        <time>2019-02-23T07:20:25.144Z</time>
      </trkpt>
      <trkpt lat="40.967181" lon="-3.247181">
        <ele>1031.8</ele>
        <time>2019-02-23T07:20:26.931Z</time>
      </trkpt>
      <trkpt lat="40.967038" lon="-3.247348">
        <ele>1031.9</ele>
        <time>2019-02-23T07:20:29.892Z</time>
      </trkpt>
      <trkpt lat="40.966917" lon="-3.247527">
        <ele>1032.3</ele>
        <time>2019-02-23T07:20:32.709Z</time>
      </trkpt>
      <trkpt lat="40.966810" lon="-3.247718">
        <ele>1033.6</ele>
        <time>2019-02-23T07:20:35.498Z</time>
      </trkpt>
      <trkpt lat="40.966728" lon="-3.247885">
        <ele>1035.0</ele>
        <time>2019-02-23T07:20:37.834Z</time>
      </trkpt>
      <trkpt lat="40.966653" lon="-3.248089">
        <ele>1036.4</ele>
        <time>2019-02-23T07:20:40.495Z</time>
      </trkpt>
      <trkpt lat="40.966344" lon="-3.249089">
        <ele>1037.6</ele>
        <time>2019-02-23T07:20:53.033Z</time>
      </trkpt>
      <trkpt lat="40.965992" lon="-3.250271">
        <ele>1037.5</ele>
        <time>2019-02-23T07:20:53.033Z</time>
      </trkpt>
      <trkpt lat="40.965669" lon="-3.251438">
        <ele>1035.1</ele>
        <time>2019-02-23T07:20:53.033Z</time>
      </trkpt>
      <trkpt lat="40.965639" lon="-3.251440">
        <ele>1032.8</ele>
        <time>2019-02-23T07:20:53.033Z</time>
      </trkpt>
      <trkpt lat="40.965036" lon="-3.253421">
        <ele>1025.5</ele>
        <time>2019-02-23T07:21:18.083Z</time>
      </trkpt>
      <trkpt lat="40.964984" lon="-3.253601">
        <ele>1024.9</ele>
        <time>2019-02-23T07:21:20.343Z</time>
      </trkpt>
      <trkpt lat="40.964950" lon="-3.253717">
        <ele>1024.3</ele>
        <time>2019-02-23T07:21:21.802Z</time>
      </trkpt>
      <trkpt lat="40.964926" lon="-3.253795">
        <ele>1023.9</ele>
        <time>2019-02-23T07:21:22.789Z</time>
      </trkpt>
      <trkpt lat="40.964881" lon="-3.253921">
        <ele>1023.0</ele>
        <time>2019-02-23T07:21:24.423Z</time>
      </trkpt>
      <trkpt lat="40.964753" lon="-3.254262">
        <ele>1020.4</ele>
        <time>2019-02-23T07:21:28.889Z</time>
      </trkpt>
      <trkpt lat="40.964670" lon="-3.254425">
        <ele>1019.1</ele>
        <time>2019-02-23T07:21:31.194Z</time>
      </trkpt>
      <trkpt lat="40.964654" lon="-3.254454">
        <ele>1019.0</ele>
        <time>2019-02-23T07:21:31.615Z</time>
      </trkpt>
      <trkpt lat="40.964902" lon="-3.254700">
        <ele>1021.1</ele>
        <time>2019-02-23T07:21:36.423Z</time>
      </trkpt>
      <trkpt lat="40.964654" lon="-3.254454">
        <ele>1019.0</ele>
        <time>2019-02-23T07:21:41.225Z</time>
      </trkpt>
      <trkpt lat="40.964576" lon="-3.254591">
        <ele>1018.2</ele>
        <time>2019-02-23T07:21:43.235Z</time>
      </trkpt>
      <trkpt lat="40.964457" lon="-3.254774">
        <ele>1018.2</ele>
        <time>2019-02-23T07:21:46.065Z</time>
      </trkpt>
      <trkpt lat="40.964318" lon="-3.254957">
        <ele>1019.1</ele>
        <time>2019-02-23T07:21:49.106Z</time>
      </trkpt>
      <trkpt lat="40.964202" lon="-3.255094">
        <ele>1020.0</ele>
        <time>2019-02-23T07:21:51.518Z</time>
      </trkpt>
      <trkpt lat="40.963557" lon="-3.255790">
        <ele>1019.4</ele>
        <time>2019-02-23T07:22:04.430Z</time>
      </trkpt>
      <trkpt lat="40.961956" lon="-3.257490">
        <ele>1023.8</ele>
        <time>2019-02-23T07:22:36.277Z</time>
      </trkpt>
      <trkpt lat="40.961633" lon="-3.258082">
        <ele>1025.9</ele>
        <time>2019-02-23T07:22:44.836Z</time>
      </trkpt>
      <trkpt lat="40.961184" lon="-3.258659">
        <ele>1029.6</ele>
        <time>2019-02-23T07:22:54.545Z</time>
      </trkpt>
      <trkpt lat="40.960853" lon="-3.258902">
        <ele>1033.1</ele>
        <time>2019-02-23T07:23:00.418Z</time>
      </trkpt>
      <trkpt lat="40.959236" lon="-3.259924">
        <ele>1041.3</ele>
        <time>2019-02-23T07:23:28.224Z</time>
      </trkpt>
      <trkpt lat="40.958065" lon="-3.260595">
        <ele>1047.4</ele>
        <time>2019-02-23T07:23:48.025Z</time>
      </trkpt>
      <trkpt lat="40.956178" lon="-3.261530">
        <ele>1051.8</ele>
        <time>2019-02-23T07:24:19.293Z</time>
      </trkpt>
      <trkpt lat="40.954462" lon="-3.262209">
        <ele>1057.4</ele>
        <time>2019-02-23T07:24:47.087Z</time>
      </trkpt>
      <trkpt lat="40.953401" lon="-3.262512">
        <ele>1054.6</ele>
        <time>2019-02-23T07:25:03.931Z</time>
      </trkpt>
      <trkpt lat="40.952892" lon="-3.262536">
        <ele>1052.7</ele>
        <time>2019-02-23T07:25:11.835Z</time>
      </trkpt>
      <trkpt lat="40.951986" lon="-3.262239">
        <ele>1055.5</ele>
        <time>2019-02-23T07:25:26.320Z</time>
      </trkpt>
      <trkpt lat="40.951476" lon="-3.262082">
        <ele>1055.5</ele>
        <time>2019-02-23T07:25:34.446Z</time>
      </trkpt>
      <trkpt lat="40.950994" lon="-3.262095">
        <ele>1055.6</ele>
        <time>2019-02-23T07:25:41.927Z</time>
      </trkpt>
      <trkpt lat="40.950489" lon="-3.262347">
        <ele>1055.1</ele>
        <time>2019-02-23T07:25:50.302Z</time>
      </trkpt>
      <trkpt lat="40.949308" lon="-3.263384">
        <ele>1049.1</ele>
        <time>2019-02-23T07:26:12.294Z</time>
      </trkpt>
      <trkpt lat="40.948566" lon="-3.263704">
        <ele>1043.5</ele>
        <time>2019-02-23T07:26:24.404Z</time>
      </trkpt>
      <trkpt lat="40.948111" lon="-3.263718">
        <ele>1041.0</ele>
        <time>2019-02-23T07:26:31.467Z</time>
      </trkpt>
      <trkpt lat="40.946365" lon="-3.263537">
        <ele>1032.6</ele>
        <time>2019-02-23T07:26:58.646Z</time>
      </trkpt>
      <trkpt lat="40.945692" lon="-3.263778">
        <ele>1030.7</ele>
        <time>2019-02-23T07:27:09.465Z</time>
      </trkpt>
      <trkpt lat="40.945097" lon="-3.264357">
        <ele>1039.2</ele>
        <time>2019-02-23T07:27:20.925Z</time>
      </trkpt>
      <trkpt lat="40.944653" lon="-3.265432">
        <ele>1037.9</ele>
        <time>2019-02-23T07:27:35.287Z</time>
      </trkpt>
      <trkpt lat="40.944056" lon="-3.267213">
        <ele>1029.3</ele>
        <time>2019-02-23T07:27:58.128Z</time>
      </trkpt>
      <trkpt lat="40.943570" lon="-3.268002">
        <ele>1020.4</ele>
        <time>2019-02-23T07:28:10.062Z</time>
      </trkpt>
      <trkpt lat="40.943102" lon="-3.268499">
        <ele>1016.4</ele>
        <time>2019-02-23T07:28:19.373Z</time>
      </trkpt>
      <trkpt lat="40.942372" lon="-3.268986">
        <ele>1013.4</ele>
        <time>2019-02-23T07:28:32.059Z</time>
      </trkpt>
      <trkpt lat="40.941533" lon="-3.269182">
        <ele>1017.3</ele>
        <time>2019-02-23T07:28:45.280Z</time>
      </trkpt>
      <trkpt lat="40.939398" lon="-3.268907">
        <ele>1007.6</ele>
        <time>2019-02-23T07:29:18.570Z</time>
      </trkpt>
      <trkpt lat="40.939098" lon="-3.268758">
        <ele>1003.5</ele>
        <time>2019-02-23T07:29:23.542Z</time>
      </trkpt>
      <trkpt lat="40.938616" lon="-3.268258">
        <ele>1001.1</ele>
        <time>2019-02-23T07:29:33.045Z</time>
      </trkpt>
      <trkpt lat="40.937919" lon="-3.266988">
        <ele>1002.9</ele>
        <time>2019-02-23T07:29:51.448Z</time>
      </trkpt>
      <trkpt lat="40.937666" lon="-3.266643">
        <ele>1005.4</ele>
        <time>2019-02-23T07:29:57.085Z</time>
      </trkpt>
      <trkpt lat="40.937387" lon="-3.266477">
        <ele>1008.4</ele>
        <time>2019-02-23T07:30:01.832Z</time>
      </trkpt>
      <trkpt lat="40.936933" lon="-3.266440">
        <ele>1009.9</ele>
        <time>2019-02-23T07:30:08.891Z</time>
      </trkpt>
      <trkpt lat="40.936511" lon="-3.266637">
        <ele>1004.9</ele>
        <time>2019-02-23T07:30:15.835Z</time>
      </trkpt>
      <trkpt lat="40.936026" lon="-3.267224">
        <ele>1001.4</ele>
        <time>2019-02-23T07:30:26.033Z</time>
      </trkpt>
      <trkpt lat="40.935333" lon="-3.267667">
        <ele>1001.2</ele>
        <time>2019-02-23T07:30:37.976Z</time>
      </trkpt>
      <trkpt lat="40.932082" lon="-3.269500">
        <ele>1002.5</ele>
        <time>2019-02-23T07:31:32.815Z</time>
      </trkpt>
      <trkpt lat="40.931667" lon="-3.269721">
        <ele>1001.7</ele>
        <time>2019-02-23T07:31:39.757Z</time>
      </trkpt>
      <trkpt lat="40.931177" lon="-3.269741">
        <ele>1002.5</ele>
        <time>2019-02-23T07:31:47.365Z</time>
      </trkpt>
      <trkpt lat="40.929977" lon="-3.269218">
        <ele>1003.1</ele>
        <time>2019-02-23T07:32:06.971Z</time>
      </trkpt>
      <trkpt lat="40.929128" lon="-3.268776">
        <ele>998.2</ele>
        <time>2019-02-23T07:32:21.129Z</time>
      </trkpt>
      <trkpt lat="40.928945" lon="-3.269886">
        <ele>1005.7</ele>
        <time>2019-02-23T07:32:34.450Z</time>
      </trkpt>
      <trkpt lat="40.929265" lon="-3.269978">
        <ele>1006.0</ele>
        <time>2019-02-23T07:32:39.532Z</time>
      </trkpt>
      <trkpt lat="40.928945" lon="-3.269886">
        <ele>1005.7</ele>
        <time>2019-02-23T07:32:44.570Z</time>
      </trkpt>
      <trkpt lat="40.929128" lon="-3.268776">
        <ele>998.2</ele>
        <time>2019-02-23T07:32:57.891Z</time>
      </trkpt>
      <trkpt lat="40.928203" lon="-3.268333">
        <ele>998.9</ele>
        <time>2019-02-23T07:33:13.157Z</time>
      </trkpt>
      <trkpt lat="40.927814" lon="-3.268018">
        <ele>998.3</ele>
        <time>2019-02-23T07:33:20.234Z</time>
      </trkpt>
      <trkpt lat="40.927215" lon="-3.267373">
        <ele>995.5</ele>
        <time>2019-02-23T07:33:32.218Z</time>
      </trkpt>
      <trkpt lat="40.924978" lon="-3.264517">
        <ele>1000.2</ele>
        <time>2019-02-23T07:34:20.454Z</time>
      </trkpt>
      <trkpt lat="40.924684" lon="-3.264063">
        <ele>1002.6</ele>
        <time>2019-02-23T07:34:27.465Z</time>
      </trkpt>
      <trkpt lat="40.922058" lon="-3.259364">
        <ele>996.2</ele>
        <time>2019-02-23T07:35:36.000Z</time>
      </trkpt>
      <trkpt lat="40.921938" lon="-3.259154">
        <ele>996.8</ele>
        <time>2019-02-23T07:35:39.087Z</time>
      </trkpt>
      <trkpt lat="40.920211" lon="-3.255911">
        <ele>996.3</ele>
        <time>2019-02-23T07:36:25.612Z</time>
      </trkpt>
      <trkpt lat="40.919313" lon="-3.254606">
        <ele>992.7</ele>
        <time>2019-02-23T07:36:46.310Z</time>
      </trkpt>
      <trkpt lat="40.917258" lon="-3.251810">
        <ele>986.1</ele>
        <time>2019-02-23T07:37:32.051Z</time>
      </trkpt>
      <trkpt lat="40.916823" lon="-3.251364">
        <ele>984.9</ele>
        <time>2019-02-23T07:37:40.591Z</time>
      </trkpt>
      <trkpt lat="40.916337" lon="-3.250993">
        <ele>983.0</ele>
        <time>2019-02-23T07:37:49.298Z</time>
      </trkpt>
      <trkpt lat="40.915911" lon="-3.250817">
        <ele>982.8</ele>
        <time>2019-02-23T07:37:56.223Z</time>
      </trkpt>
      <trkpt lat="40.912339" lon="-3.250395">
        <ele>974.2</ele>
        <time>2019-02-23T07:38:51.878Z</time>
      </trkpt>
      <trkpt lat="40.911886" lon="-3.250295">
        <ele>972.8</ele>
        <time>2019-02-23T07:38:59.005Z</time>
      </trkpt>
      <trkpt lat="40.911256" lon="-3.250047">
        <ele>973.4</ele>
        <time>2019-02-23T07:39:09.205Z</time>
      </trkpt>
      <trkpt lat="40.910540" lon="-3.249634">
        <ele>971.1</ele>
        <time>2019-02-23T07:39:21.326Z</time>
      </trkpt>
      <trkpt lat="40.909991" lon="-3.249215">
        <ele>967.3</ele>
        <time>2019-02-23T07:39:31.161Z</time>
      </trkpt>
      <trkpt lat="40.908838" lon="-3.248147">
        <ele>963.2</ele>
        <time>2019-02-23T07:39:53.003Z</time>
      </trkpt>
      <trkpt lat="40.908556" lon="-3.247777">
        <ele>964.5</ele>
        <time>2019-02-23T07:39:59.166Z</time>
      </trkpt>
      <trkpt lat="40.906920" lon="-3.244913">
        <ele>961.3</ele>
        <time>2019-02-23T07:40:41.273Z</time>
      </trkpt>
      <trkpt lat="40.905642" lon="-3.242502">
        <ele>946.7</ele>
        <time>2019-02-23T07:41:15.814Z</time>
      </trkpt>
      <trkpt lat="40.903373" lon="-3.238491">
        <ele>950.7</ele>
        <time>2019-02-23T07:42:14.580Z</time>
      </trkpt>
      <trkpt lat="40.903109" lon="-3.237926">
        <ele>955.0</ele>
        <time>2019-02-23T07:42:22.371Z</time>
      </trkpt>
      <trkpt lat="40.902996" lon="-3.237453">
        <ele>958.2</ele>
        <time>2019-02-23T07:42:28.189Z</time>
      </trkpt>
      <trkpt lat="40.902982" lon="-3.236899">
        <ele>960.5</ele>
        <time>2019-02-23T07:42:34.690Z</time>
      </trkpt>
      <trkpt lat="40.903105" lon="-3.235478">
        <ele>963.7</ele>
        <time>2019-02-23T07:42:51.467Z</time>
      </trkpt>
      <trkpt lat="40.903083" lon="-3.235043">
        <ele>964.5</ele>
        <time>2019-02-23T07:42:56.580Z</time>
      </trkpt>
      <trkpt lat="40.900970" lon="-3.226698">
        <ele>952.5</ele>
        <time>2019-02-23T07:44:39.813Z</time>
      </trkpt>
      <trkpt lat="40.900701" lon="-3.226149">
        <ele>950.8</ele>
        <time>2019-02-23T07:44:47.487Z</time>
      </trkpt>
      <trkpt lat="40.900331" lon="-3.225595">
        <ele>948.9</ele>
        <time>2019-02-23T07:44:56.159Z</time>
      </trkpt>
      <trkpt lat="40.895768" lon="-3.219138">
        <ele>940.3</ele>
        <time>2019-02-23T07:46:39.851Z</time>
      </trkpt>
      <trkpt lat="40.893543" lon="-3.216665">
        <ele>930.1</ele>
        <time>2019-02-23T07:47:24.951Z</time>
      </trkpt>
      <trkpt lat="40.893216" lon="-3.216292">
        <ele>928.8</ele>
        <time>2019-02-23T07:47:31.651Z</time>
      </trkpt>
      <trkpt lat="40.893086" lon="-3.216226">
        <ele>927.8</ele>
        <time>2019-02-23T07:47:33.811Z</time>
      </trkpt>
      <trkpt lat="40.893077" lon="-3.216248">
        <ele>934.9</ele>
        <time>2019-02-23T07:47:34.134Z</time>
      </trkpt>
      <trkpt lat="40.893086" lon="-3.216226">
        <ele>927.8</ele>
        <time>2019-02-23T07:47:34.393Z</time>
      </trkpt>
      <trkpt lat="40.893216" lon="-3.216292">
        <ele>928.8</ele>
        <time>2019-02-23T07:47:36.554Z</time>
      </trkpt>
      <trkpt lat="40.892991" lon="-3.216035">
        <ele>928.3</ele>
        <time>2019-02-23T07:47:41.167Z</time>
      </trkpt>
      <trkpt lat="40.892848" lon="-3.215869">
        <ele>928.7</ele>
        <time>2019-02-23T07:47:44.119Z</time>
      </trkpt>
      <trkpt lat="40.892696" lon="-3.215694">
        <ele>930.0</ele>
        <time>2019-02-23T07:47:47.246Z</time>
      </trkpt>
      <trkpt lat="40.892667" lon="-3.215761">
        <ele>929.3</ele>
        <time>2019-02-23T07:47:48.151Z</time>
      </trkpt>
      <trkpt lat="40.892654" lon="-3.215853">
        <ele>928.2</ele>
        <time>2019-02-23T07:47:49.249Z</time>
      </trkpt>
      <trkpt lat="40.892613" lon="-3.215902">
        <ele>927.4</ele>
        <time>2019-02-23T07:47:50.106Z</time>
      </trkpt>
      <trkpt lat="40.892492" lon="-3.216102">
        <ele>924.8</ele>
        <time>2019-02-23T07:47:53.111Z</time>
      </trkpt>
      <trkpt lat="40.892293" lon="-3.216241">
        <ele>922.6</ele>
        <time>2019-02-23T07:47:56.603Z</time>
      </trkpt>
      <trkpt lat="40.892163" lon="-3.216320">
        <ele>922.1</ele>
        <time>2019-02-23T07:47:58.823Z</time>
      </trkpt>
      <trkpt lat="40.891983" lon="-3.216438">
        <ele>921.1</ele>
        <time>2019-02-23T07:48:01.940Z</time>
      </trkpt>
      <trkpt lat="40.891771" lon="-3.216541">
        <ele>920.0</ele>
        <time>2019-02-23T07:48:05.445Z</time>
      </trkpt>
      <trkpt lat="40.891450" lon="-3.216633">
        <ele>918.8</ele>
        <time>2019-02-23T07:48:10.542Z</time>
      </trkpt>
      <trkpt lat="40.891126" lon="-3.216663">
        <ele>918.0</ele>
        <time>2019-02-23T07:48:15.582Z</time>
      </trkpt>
      <trkpt lat="40.890673" lon="-3.216679">
        <ele>917.1</ele>
        <time>2019-02-23T07:48:22.614Z</time>
      </trkpt>
      <trkpt lat="40.890511" lon="-3.216674">
        <ele>916.7</ele>
        <time>2019-02-23T07:48:25.128Z</time>
      </trkpt>
      <trkpt lat="40.890448" lon="-3.216618">
        <ele>916.6</ele>
        <time>2019-02-23T07:48:26.305Z</time>
      </trkpt>
      <trkpt lat="40.890331" lon="-3.216570">
        <ele>916.4</ele>
        <time>2019-02-23T07:48:28.206Z</time>
      </trkpt>
      <trkpt lat="40.890245" lon="-3.216524">
        <ele>916.3</ele>
        <time>2019-02-23T07:48:29.645Z</time>
      </trkpt>
      <trkpt lat="40.890206" lon="-3.216468">
        <ele>916.2</ele>
        <time>2019-02-23T07:48:30.538Z</time>
      </trkpt>
      <trkpt lat="40.890148" lon="-3.216424">
        <ele>916.0</ele>
        <time>2019-02-23T07:48:31.575Z</time>
      </trkpt>
      <trkpt lat="40.890084" lon="-3.216409">
        <ele>916.0</ele>
        <time>2019-02-23T07:48:32.583Z</time>
      </trkpt>
      <trkpt lat="40.890018" lon="-3.216424">
        <ele>916.2</ele>
        <time>2019-02-23T07:48:33.622Z</time>
      </trkpt>
      <trkpt lat="40.889953" lon="-3.216477">
        <ele>916.5</ele>
        <time>2019-02-23T07:48:34.807Z</time>
      </trkpt>
      <trkpt lat="40.889913" lon="-3.216547">
        <ele>916.9</ele>
        <time>2019-02-23T07:48:35.836Z</time>
      </trkpt>
      <trkpt lat="40.889900" lon="-3.216589">
        <ele>917.1</ele>
        <time>2019-02-23T07:48:36.368Z</time>
      </trkpt>
      <trkpt lat="40.889892" lon="-3.216676">
        <ele>917.4</ele>
        <time>2019-02-23T07:48:37.396Z</time>
      </trkpt>
      <trkpt lat="40.889913" lon="-3.216779">
        <ele>917.8</ele>
        <time>2019-02-23T07:48:38.647Z</time>
      </trkpt>
      <trkpt lat="40.889953" lon="-3.216850">
        <ele>918.0</ele>
        <time>2019-02-23T07:48:39.685Z</time>
      </trkpt>
      <trkpt lat="40.890031" lon="-3.217034">
        <ele>919.3</ele>
        <time>2019-02-23T07:48:42.159Z</time>
      </trkpt>
      <trkpt lat="40.890068" lon="-3.217223">
        <ele>920.3</ele>
        <time>2019-02-23T07:48:44.449Z</time>
      </trkpt>
      <trkpt lat="40.890150" lon="-3.217463">
        <ele>921.2</ele>
        <time>2019-02-23T07:48:47.538Z</time>
      </trkpt>
      <trkpt lat="40.890371" lon="-3.217832">
        <ele>923.6</ele>
        <time>2019-02-23T07:48:53.061Z</time>
      </trkpt>
      <trkpt lat="40.890300" lon="-3.217874">
        <ele>923.7</ele>
        <time>2019-02-23T07:48:54.268Z</time>
      </trkpt>
      <trkpt lat="40.890225" lon="-3.217962">
        <ele>924.0</ele>
        <time>2019-02-23T07:48:55.823Z</time>
      </trkpt>
      <trkpt lat="40.890096" lon="-3.218146">
        <ele>923.8</ele>
        <time>2019-02-23T07:48:58.767Z</time>
      </trkpt>
      <trkpt lat="40.890048" lon="-3.218240">
        <ele>923.6</ele>
        <time>2019-02-23T07:49:00.097Z</time>
      </trkpt>
      <trkpt lat="40.889932" lon="-3.218459">
        <ele>922.7</ele>
        <time>2019-02-23T07:49:03.234Z</time>
      </trkpt>
      <trkpt lat="40.889907" lon="-3.218514">
        <ele>922.5</ele>
        <time>2019-02-23T07:49:03.986Z</time>
      </trkpt>
      <trkpt lat="40.889821" lon="-3.218698">
        <ele>921.8</ele>
        <time>2019-02-23T07:49:06.524Z</time>
      </trkpt>
      <trkpt lat="40.889701" lon="-3.218968">
        <ele>920.5</ele>
        <time>2019-02-23T07:49:10.198Z</time>
      </trkpt>
      <trkpt lat="40.889538" lon="-3.219399">
        <ele>920.0</ele>
        <time>2019-02-23T07:49:15.852Z</time>
      </trkpt>
      <trkpt lat="40.889437" lon="-3.219768">
        <ele>919.4</ele>
        <time>2019-02-23T07:49:20.456Z</time>
      </trkpt>
      <trkpt lat="40.889431" lon="-3.219813">
        <ele>919.2</ele>
        <time>2019-02-23T07:49:20.992Z</time>
      </trkpt>
      <trkpt lat="40.889397" lon="-3.220063">
        <ele>918.1</ele>
        <time>2019-02-23T07:49:23.972Z</time>
      </trkpt>
      <trkpt lat="40.889396" lon="-3.220203">
        <ele>917.4</ele>
        <time>2019-02-23T07:49:25.614Z</time>
      </trkpt>
      <trkpt lat="40.889400" lon="-3.220227">
        <ele>917.3</ele>
        <time>2019-02-23T07:49:25.902Z</time>
      </trkpt>
      <trkpt lat="40.889369" lon="-3.220485">
        <ele>916.0</ele>
        <time>2019-02-23T07:49:28.966Z</time>
      </trkpt>
      <trkpt lat="40.889346" lon="-3.220805">
        <ele>912.4</ele>
        <time>2019-02-23T07:49:32.737Z</time>
      </trkpt>
      <trkpt lat="40.889327" lon="-3.221116">
        <ele>908.1</ele>
        <time>2019-02-23T07:49:36.397Z</time>
      </trkpt>
      <trkpt lat="40.889285" lon="-3.221386">
        <ele>904.8</ele>
        <time>2019-02-23T07:49:39.631Z</time>
      </trkpt>
      <trkpt lat="40.889212" lon="-3.221645">
        <ele>902.4</ele>
        <time>2019-02-23T07:49:42.874Z</time>
      </trkpt>
      <trkpt lat="40.889134" lon="-3.221891">
        <ele>900.8</ele>
        <time>2019-02-23T07:49:46.003Z</time>
      </trkpt>
      <trkpt lat="40.889064" lon="-3.222080">
        <ele>899.7</ele>
        <time>2019-02-23T07:49:48.472Z</time>
      </trkpt>
      <trkpt lat="40.889029" lon="-3.222163">
        <ele>899.4</ele>
        <time>2019-02-23T07:49:49.587Z</time>
      </trkpt>
      <trkpt lat="40.889001" lon="-3.222209">
        <ele>899.1</ele>
        <time>2019-02-23T07:49:50.279Z</time>
      </trkpt>
      <trkpt lat="40.888985" lon="-3.222278">
        <ele>898.9</ele>
        <time>2019-02-23T07:49:51.125Z</time>
      </trkpt>
      <trkpt lat="40.888979" lon="-3.222328">
        <ele>898.8</ele>
        <time>2019-02-23T07:49:51.718Z</time>
      </trkpt>
      <trkpt lat="40.888994" lon="-3.222379">
        <ele>898.8</ele>
        <time>2019-02-23T07:49:52.360Z</time>
      </trkpt>
      <trkpt lat="40.889026" lon="-3.222490">
        <ele>898.6</ele>
        <time>2019-02-23T07:49:53.753Z</time>
      </trkpt>
      <trkpt lat="40.889038" lon="-3.222589">
        <ele>898.3</ele>
        <time>2019-02-23T07:49:54.929Z</time>
      </trkpt>
      <trkpt lat="40.889022" lon="-3.222713">
        <ele>898.4</ele>
        <time>2019-02-23T07:49:56.404Z</time>
      </trkpt>
      <trkpt lat="40.888973" lon="-3.222901">
        <ele>899.6</ele>
        <time>2019-02-23T07:49:58.737Z</time>
      </trkpt>
      <trkpt lat="40.888887" lon="-3.223105">
        <ele>902.0</ele>
        <time>2019-02-23T07:50:01.477Z</time>
      </trkpt>
      <trkpt lat="40.888792" lon="-3.223334">
        <ele>905.4</ele>
        <time>2019-02-23T07:50:04.541Z</time>
      </trkpt>
      <trkpt lat="40.888747" lon="-3.223441">
        <ele>907.2</ele>
        <time>2019-02-23T07:50:05.977Z</time>
      </trkpt>
      <trkpt lat="40.888696" lon="-3.223516">
        <ele>908.7</ele>
        <time>2019-02-23T07:50:07.160Z</time>
      </trkpt>
      <trkpt lat="40.888648" lon="-3.223555">
        <ele>909.6</ele>
        <time>2019-02-23T07:50:08.034Z</time>
      </trkpt>
      <trkpt lat="40.888606" lon="-3.223662">
        <ele>910.8</ele>
        <time>2019-02-23T07:50:09.448Z</time>
      </trkpt>
      <trkpt lat="40.888550" lon="-3.223789">
        <ele>912.0</ele>
        <time>2019-02-23T07:50:11.172Z</time>
      </trkpt>
      <trkpt lat="40.888479" lon="-3.223911">
        <ele>913.2</ele>
        <time>2019-02-23T07:50:12.978Z</time>
      </trkpt>
      <trkpt lat="40.888379" lon="-3.224038">
        <ele>914.2</ele>
        <time>2019-02-23T07:50:15.129Z</time>
      </trkpt>
      <trkpt lat="40.888264" lon="-3.224180">
        <ele>915.1</ele>
        <time>2019-02-23T07:50:17.570Z</time>
      </trkpt>
      <trkpt lat="40.888216" lon="-3.224261">
        <ele>915.9</ele>
        <time>2019-02-23T07:50:18.777Z</time>
      </trkpt>
      <trkpt lat="40.888174" lon="-3.224396">
        <ele>917.2</ele>
        <time>2019-02-23T07:50:20.489Z</time>
      </trkpt>
      <trkpt lat="40.888125" lon="-3.224538">
        <ele>918.6</ele>
        <time>2019-02-23T07:50:22.320Z</time>
      </trkpt>
      <trkpt lat="40.888112" lon="-3.224649">
        <ele>919.8</ele>
        <time>2019-02-23T07:50:23.637Z</time>
      </trkpt>
      <trkpt lat="40.888095" lon="-3.224736">
        <ele>920.6</ele>
        <time>2019-02-23T07:50:24.691Z</time>
      </trkpt>
      <trkpt lat="40.888095" lon="-3.224848">
        <ele>921.7</ele>
        <time>2019-02-23T07:50:26.005Z</time>
      </trkpt>
      <trkpt lat="40.888101" lon="-3.224895">
        <ele>922.1</ele>
        <time>2019-02-23T07:50:26.564Z</time>
      </trkpt>
      <trkpt lat="40.887898" lon="-3.225045">
        <ele>921.8</ele>
        <time>2019-02-23T07:50:30.172Z</time>
      </trkpt>
      <trkpt lat="40.887842" lon="-3.225480">
        <ele>924.3</ele>
        <time>2019-02-23T07:50:35.349Z</time>
      </trkpt>
      <trkpt lat="40.887815" lon="-3.225962">
        <ele>925.1</ele>
        <time>2019-02-23T07:50:41.019Z</time>
      </trkpt>
      <trkpt lat="40.887809" lon="-3.226196">
        <ele>925.9</ele>
        <time>2019-02-23T07:50:43.766Z</time>
      </trkpt>
      <trkpt lat="40.887829" lon="-3.226426">
        <ele>927.8</ele>
        <time>2019-02-23T07:50:46.482Z</time>
      </trkpt>
      <trkpt lat="40.887838" lon="-3.226658">
        <ele>930.2</ele>
        <time>2019-02-23T07:50:49.207Z</time>
      </trkpt>
      <trkpt lat="40.887808" lon="-3.226933">
        <ele>932.1</ele>
        <time>2019-02-23T07:50:52.466Z</time>
      </trkpt>
      <trkpt lat="40.887655" lon="-3.227185">
        <ele>932.9</ele>
        <time>2019-02-23T07:50:56.258Z</time>
      </trkpt>
      <trkpt lat="40.887517" lon="-3.227331">
        <ele>933.6</ele>
        <time>2019-02-23T07:50:59.000Z</time>
      </trkpt>
      <trkpt lat="40.887338" lon="-3.227465">
        <ele>934.8</ele>
        <time>2019-02-23T07:51:02.192Z</time>
      </trkpt>
      <trkpt lat="40.886989" lon="-3.227866">
        <ele>938.0</ele>
        <time>2019-02-23T07:51:09.366Z</time>
      </trkpt>
      <trkpt lat="40.886774" lon="-3.228542">
        <ele>936.9</ele>
        <time>2019-02-23T07:51:17.970Z</time>
      </trkpt>
      <trkpt lat="40.886537" lon="-3.229092">
        <ele>935.5</ele>
        <time>2019-02-23T07:51:25.397Z</time>
      </trkpt>
      <trkpt lat="40.885931" lon="-3.230572">
        <ele>938.9</ele>
        <time>2019-02-23T07:51:45.144Z</time>
      </trkpt>
      <trkpt lat="40.883900" lon="-3.235484">
        <ele>940.7</ele>
        <time>2019-02-23T07:52:50.833Z</time>
      </trkpt>
      <trkpt lat="40.883308" lon="-3.237157">
        <ele>949.1</ele>
        <time>2019-02-23T07:53:12.506Z</time>
      </trkpt>
      <trkpt lat="40.883097" lon="-3.238578">
        <ele>952.1</ele>
        <time>2019-02-23T07:53:29.497Z</time>
      </trkpt>
      <trkpt lat="40.883087" lon="-3.239959">
        <ele>953.8</ele>
        <time>2019-02-23T07:53:45.701Z</time>
      </trkpt>
      <trkpt lat="40.882977" lon="-3.241128">
        <ele>952.9</ele>
        <time>2019-02-23T07:53:59.523Z</time>
      </trkpt>
      <trkpt lat="40.882400" lon="-3.243829">
        <ele>949.9</ele>
        <time>2019-02-23T07:54:32.456Z</time>
      </trkpt>
      <trkpt lat="40.882197" lon="-3.244589">
        <ele>949.8</ele>
        <time>2019-02-23T07:54:41.913Z</time>
      </trkpt>
      <trkpt lat="40.881980" lon="-3.245524">
        <ele>949.3</ele>
        <time>2019-02-23T07:54:53.389Z</time>
      </trkpt>
      <trkpt lat="40.881585" lon="-3.247048">
        <ele>947.5</ele>
        <time>2019-02-23T07:55:12.292Z</time>
      </trkpt>
      <trkpt lat="40.879315" lon="-3.253950">
        <ele>948.0</ele>
        <time>2019-02-23T07:56:40.609Z</time>
      </trkpt>
      <trkpt lat="40.878749" lon="-3.255348">
        <ele>946.9</ele>
        <time>2019-02-23T07:56:59.217Z</time>
      </trkpt>
      <trkpt lat="40.878233" lon="-3.256063">
        <ele>949.7</ele>
        <time>2019-02-23T07:57:10.815Z</time>
      </trkpt>
      <trkpt lat="40.876846" lon="-3.257310">
        <ele>946.6</ele>
        <time>2019-02-23T07:57:36.843Z</time>
      </trkpt>
      <trkpt lat="40.871727" lon="-3.262005">
        <ele>934.3</ele>
        <time>2019-02-23T07:59:13.522Z</time>
      </trkpt>
      <trkpt lat="40.871071" lon="-3.262601">
        <ele>934.4</ele>
        <time>2019-02-23T07:59:25.873Z</time>
      </trkpt>
      <trkpt lat="40.869902" lon="-3.263631">
        <ele>937.9</ele>
        <time>2019-02-23T07:59:47.673Z</time>
      </trkpt>
      <trkpt lat="40.869449" lon="-3.264143">
        <ele>942.1</ele>
        <time>2019-02-23T07:59:56.921Z</time>
      </trkpt>
      <trkpt lat="40.866726" lon="-3.267670">
        <ele>955.0</ele>
        <time>2019-02-23T08:00:56.075Z</time>
      </trkpt>
      <trkpt lat="40.865711" lon="-3.269121">
        <ele>954.8</ele>
        <time>2019-02-23T08:01:19.272Z</time>
      </trkpt>
      <trkpt lat="40.865262" lon="-3.269768">
        <ele>955.5</ele>
        <time>2019-02-23T08:01:29.578Z</time>
      </trkpt>
      <trkpt lat="40.853866" lon="-3.288547">
        <ele>941.0</ele>
        <time>2019-02-23T08:06:12.181Z</time>
      </trkpt>
      <trkpt lat="40.853076" lon="-3.290375">
        <ele>940.1</ele>
        <time>2019-02-23T08:06:36.894Z</time>
      </trkpt>
      <trkpt lat="40.851853" lon="-3.293498">
        <ele>935.5</ele>
        <time>2019-02-23T08:07:18.176Z</time>
      </trkpt>
      <trkpt lat="40.845373" lon="-3.310415">
        <ele>943.2</ele>
        <time>2019-02-23T08:11:00.784Z</time>
      </trkpt>
      <trkpt lat="40.844998" lon="-3.311381">
        <ele>945.4</ele>
        <time>2019-02-23T08:11:13.531Z</time>
      </trkpt>
      <trkpt lat="40.844581" lon="-3.312848">
        <ele>945.7</ele>
        <time>2019-02-23T08:11:31.929Z</time>
      </trkpt>
      <trkpt lat="40.843207" lon="-3.322010">
        <ele>937.0</ele>
        <time>2019-02-23T08:13:21.587Z</time>
      </trkpt>
      <trkpt lat="40.842765" lon="-3.324979">
        <ele>933.9</ele>
        <time>2019-02-23T08:13:57.113Z</time>
      </trkpt>
      <trkpt lat="40.842578" lon="-3.327842">
        <ele>932.8</ele>
        <time>2019-02-23T08:14:30.851Z</time>
      </trkpt>
      <trkpt lat="40.842567" lon="-3.331891">
        <ele>928.4</ele>
        <time>2019-02-23T08:15:18.389Z</time>
      </trkpt>
      <trkpt lat="40.842543" lon="-3.343735">
        <ele>924.3</ele>
        <time>2019-02-23T08:17:37.445Z</time>
      </trkpt>
      <trkpt lat="40.842531" lon="-3.346029">
        <ele>924.4</ele>
        <time>2019-02-23T08:18:04.378Z</time>
      </trkpt>
      <trkpt lat="40.842531" lon="-3.346029">
        <ele>924.4</ele>
        <time>2019-02-23T08:18:04.378Z</time>
      </trkpt>
      <trkpt lat="40.842531" lon="-3.346029">
        <ele>924.4</ele>
        <time>2019-02-23T08:18:04.378Z</time>
      </trkpt>
      <trkpt lat="40.842472" lon="-3.357697">
        <ele>924.5</ele>
        <time>2019-02-23T08:20:21.370Z</time>
      </trkpt>
      <trkpt lat="40.842468" lon="-3.358504">
        <ele>926.0</ele>
        <time>2019-02-23T08:20:30.844Z</time>
      </trkpt>
      <trkpt lat="40.842442" lon="-3.360305">
        <ele>923.4</ele>
        <time>2019-02-23T08:20:51.992Z</time>
      </trkpt>
      <trkpt lat="40.842438" lon="-3.360569">
        <ele>923.0</ele>
        <time>2019-02-23T08:20:55.092Z</time>
      </trkpt>
      <trkpt lat="40.837077" lon="-3.358641">
        <ele>922.4</ele>
        <time>2019-02-23T08:22:21.316Z</time>
      </trkpt>
      <trkpt lat="40.832658" lon="-3.357040">
        <ele>919.8</ele>
        <time>2019-02-23T08:23:32.426Z</time>
      </trkpt>
      <trkpt lat="40.830269" lon="-3.356205">
        <ele>919.6</ele>
        <time>2019-02-23T08:24:10.776Z</time>
      </trkpt>
      <trkpt lat="40.826827" lon="-3.354961">
        <ele>917.0</ele>
        <time>2019-02-23T08:25:06.155Z</time>
      </trkpt>
      <trkpt lat="40.821742" lon="-3.353159">
        <ele>917.6</ele>
        <time>2019-02-23T08:26:27.859Z</time>
      </trkpt>
      <trkpt lat="40.821168" lon="-3.352968">
        <ele>915.4</ele>
        <time>2019-02-23T08:26:37.045Z</time>
      </trkpt>
      <trkpt lat="40.820627" lon="-3.352787">
        <ele>915.4</ele>
        <time>2019-02-23T08:26:45.705Z</time>
      </trkpt>
      <trkpt lat="40.820426" lon="-3.352596">
        <ele>915.1</ele>
        <time>2019-02-23T08:26:49.547Z</time>
      </trkpt>
      <trkpt lat="40.820114" lon="-3.352317">
        <ele>914.9</ele>
        <time>2019-02-23T08:26:55.393Z</time>
      </trkpt>
      <trkpt lat="40.820029" lon="-3.352273">
        <ele>914.8</ele>
        <time>2019-02-23T08:26:56.809Z</time>
      </trkpt>
      <trkpt lat="40.819741" lon="-3.352200">
        <ele>914.6</ele>
        <time>2019-02-23T08:27:01.360Z</time>
      </trkpt>
      <trkpt lat="40.819165" lon="-3.352105">
        <ele>914.1</ele>
        <time>2019-02-23T08:27:10.368Z</time>
      </trkpt>
      <trkpt lat="40.807688" lon="-3.349183">
        <ele>907.0</ele>
        <time>2019-02-23T08:30:11.761Z</time>
      </trkpt>
      <trkpt lat="40.799677" lon="-3.347163">
        <ele>903.0</ele>
        <time>2019-02-23T08:32:18.331Z</time>
      </trkpt>
      <trkpt lat="40.799282" lon="-3.347083">
        <ele>902.0</ele>
        <time>2019-02-23T08:32:24.532Z</time>
      </trkpt>
      <trkpt lat="40.799111" lon="-3.347084">
        <ele>901.5</ele>
        <time>2019-02-23T08:32:27.185Z</time>
      </trkpt>
      <trkpt lat="40.798829" lon="-3.347293">
        <ele>901.6</ele>
        <time>2019-02-23T08:32:32.203Z</time>
      </trkpt>
      <trkpt lat="40.798693" lon="-3.346952">
        <ele>901.1</ele>
        <time>2019-02-23T08:32:36.731Z</time>
      </trkpt>
      <trkpt lat="40.798314" lon="-3.346060">
        <ele>902.8</ele>
        <time>2019-02-23T08:32:48.748Z</time>
      </trkpt>
      <trkpt lat="40.798174" lon="-3.345728">
        <ele>902.9</ele>
        <time>2019-02-23T08:32:53.212Z</time>
      </trkpt>
      <trkpt lat="40.798115" lon="-3.345588">
        <ele>902.7</ele>
        <time>2019-02-23T08:32:55.094Z</time>
      </trkpt>
      <trkpt lat="40.798048" lon="-3.345425">
        <ele>902.7</ele>
        <time>2019-02-23T08:32:57.273Z</time>
      </trkpt>
      <trkpt lat="40.797976" lon="-3.345444">
        <ele>903.3</ele>
        <time>2019-02-23T08:32:58.412Z</time>
      </trkpt>
      <trkpt lat="40.797974" lon="-3.345444">
        <ele>903.3</ele>
        <time>2019-02-23T08:32:58.443Z</time>
      </trkpt>
      <trkpt lat="40.797973" lon="-3.345427">
        <ele>899.1</ele>
        <time>2019-02-23T08:32:58.643Z</time>
      </trkpt>
      <trkpt lat="40.797974" lon="-3.345444">
        <ele>903.3</ele>
        <time>2019-02-23T08:32:58.842Z</time>
      </trkpt>
      <trkpt lat="40.797976" lon="-3.345444">
        <ele>903.3</ele>
        <time>2019-02-23T08:32:58.872Z</time>
      </trkpt>
      <trkpt lat="40.798048" lon="-3.345425">
        <ele>902.7</ele>
        <time>2019-02-23T08:33:00.009Z</time>
      </trkpt>
      <trkpt lat="40.798115" lon="-3.345588">
        <ele>902.7</ele>
        <time>2019-02-23T08:33:02.184Z</time>
      </trkpt>
      <trkpt lat="40.798174" lon="-3.345728">
        <ele>902.9</ele>
        <time>2019-02-23T08:33:04.063Z</time>
      </trkpt>
      <trkpt lat="40.798314" lon="-3.346060">
        <ele>902.8</ele>
        <time>2019-02-23T08:33:08.519Z</time>
      </trkpt>
      <trkpt lat="40.798693" lon="-3.346952">
        <ele>901.1</ele>
        <time>2019-02-23T08:33:20.515Z</time>
      </trkpt>
      <trkpt lat="40.798829" lon="-3.347293">
        <ele>901.6</ele>
        <time>2019-02-23T08:33:25.035Z</time>
      </trkpt>
      <trkpt lat="40.799111" lon="-3.347084">
        <ele>901.5</ele>
        <time>2019-02-23T08:33:30.044Z</time>
      </trkpt>
      <trkpt lat="40.799282" lon="-3.347083">
        <ele>902.0</ele>
        <time>2019-02-23T08:33:32.693Z</time>
      </trkpt>
      <trkpt lat="40.799677" lon="-3.347163">
        <ele>903.0</ele>
        <time>2019-02-23T08:33:38.883Z</time>
      </trkpt>
      <trkpt lat="40.807688" lon="-3.349183">
        <ele>907.0</ele>
        <time>2019-02-23T08:35:45.228Z</time>
      </trkpt>
      <trkpt lat="40.819165" lon="-3.352105">
        <ele>914.1</ele>
        <time>2019-02-23T08:38:46.298Z</time>
      </trkpt>
      <trkpt lat="40.819741" lon="-3.352200">
        <ele>914.6</ele>
        <time>2019-02-23T08:38:55.290Z</time>
      </trkpt>
      <trkpt lat="40.820029" lon="-3.352273">
        <ele>914.8</ele>
        <time>2019-02-23T08:38:59.832Z</time>
      </trkpt>
      <trkpt lat="40.820114" lon="-3.352317">
        <ele>914.9</ele>
        <time>2019-02-23T08:39:01.246Z</time>
      </trkpt>
      <trkpt lat="40.820426" lon="-3.352596">
        <ele>915.1</ele>
        <time>2019-02-23T08:39:07.082Z</time>
      </trkpt>
      <trkpt lat="40.820627" lon="-3.352787">
        <ele>915.4</ele>
        <time>2019-02-23T08:39:10.917Z</time>
      </trkpt>
      <trkpt lat="40.821168" lon="-3.352968">
        <ele>915.4</ele>
        <time>2019-02-23T08:39:19.562Z</time>
      </trkpt>
      <trkpt lat="40.821742" lon="-3.353159">
        <ele>917.6</ele>
        <time>2019-02-23T08:39:28.731Z</time>
      </trkpt>
      <trkpt lat="40.826827" lon="-3.354961">
        <ele>917.0</ele>
        <time>2019-02-23T08:40:50.290Z</time>
      </trkpt>
      <trkpt lat="40.830269" lon="-3.356205">
        <ele>919.6</ele>
        <time>2019-02-23T08:41:45.570Z</time>
      </trkpt>
      <trkpt lat="40.832658" lon="-3.357040">
        <ele>919.8</ele>
        <time>2019-02-23T08:42:23.852Z</time>
      </trkpt>
      <trkpt lat="40.837077" lon="-3.358641">
        <ele>922.4</ele>
        <time>2019-02-23T08:43:34.835Z</time>
      </trkpt>
      <trkpt lat="40.842438" lon="-3.360569">
        <ele>923.0</ele>
        <time>2019-02-23T08:45:00.905Z</time>
      </trkpt>
      <trkpt lat="40.842434" lon="-3.361471">
        <ele>922.6</ele>
        <time>2019-02-23T08:45:11.476Z</time>
      </trkpt>
      <trkpt lat="40.842438" lon="-3.360569">
        <ele>923.0</ele>
        <time>2019-02-23T08:45:22.047Z</time>
      </trkpt>
      <trkpt lat="40.837077" lon="-3.358641">
        <ele>922.4</ele>
        <time>2019-02-23T08:46:48.117Z</time>
      </trkpt>
      <trkpt lat="40.832658" lon="-3.357040">
        <ele>919.8</ele>
        <time>2019-02-23T08:47:59.100Z</time>
      </trkpt>
      <trkpt lat="40.830269" lon="-3.356205">
        <ele>919.6</ele>
        <time>2019-02-23T08:48:37.382Z</time>
      </trkpt>
      <trkpt lat="40.826827" lon="-3.354961">
        <ele>917.0</ele>
        <time>2019-02-23T08:49:32.662Z</time>
      </trkpt>
      <trkpt lat="40.821742" lon="-3.353159">
        <ele>917.6</ele>
        <time>2019-02-23T08:50:54.221Z</time>
      </trkpt>
      <trkpt lat="40.821168" lon="-3.352968">
        <ele>915.4</ele>
        <time>2019-02-23T08:51:03.390Z</time>
      </trkpt>
      <trkpt lat="40.820627" lon="-3.352787">
        <ele>915.4</ele>
        <time>2019-02-23T08:51:12.035Z</time>
      </trkpt>
      <trkpt lat="40.820426" lon="-3.352596">
        <ele>915.1</ele>
        <time>2019-02-23T08:51:15.870Z</time>
      </trkpt>
      <trkpt lat="40.820114" lon="-3.352317">
        <ele>914.9</ele>
        <time>2019-02-23T08:51:21.706Z</time>
      </trkpt>
      <trkpt lat="40.820029" lon="-3.352273">
        <ele>914.8</ele>
        <time>2019-02-23T08:51:23.120Z</time>
      </trkpt>
      <trkpt lat="40.819741" lon="-3.352200">
        <ele>914.6</ele>
        <time>2019-02-23T08:51:27.662Z</time>
      </trkpt>
      <trkpt lat="40.819165" lon="-3.352105">
        <ele>914.1</ele>
        <time>2019-02-23T08:51:36.654Z</time>
      </trkpt>
      <trkpt lat="40.807688" lon="-3.349183">
        <ele>907.0</ele>
        <time>2019-02-23T08:54:37.724Z</time>
      </trkpt>
      <trkpt lat="40.799677" lon="-3.347163">
        <ele>903.0</ele>
        <time>2019-02-23T08:56:44.069Z</time>
      </trkpt>
      <trkpt lat="40.799282" lon="-3.347083">
        <ele>902.0</ele>
        <time>2019-02-23T08:56:50.259Z</time>
      </trkpt>
      <trkpt lat="40.799111" lon="-3.347084">
        <ele>901.5</ele>
        <time>2019-02-23T08:56:52.908Z</time>
      </trkpt>
      <trkpt lat="40.798829" lon="-3.347293">
        <ele>901.6</ele>
        <time>2019-02-23T08:56:57.917Z</time>
      </trkpt>
      <trkpt lat="40.798693" lon="-3.346952">
        <ele>901.1</ele>
        <time>2019-02-23T08:57:02.437Z</time>
      </trkpt>
      <trkpt lat="40.798314" lon="-3.346060">
        <ele>902.8</ele>
        <time>2019-02-23T08:57:14.433Z</time>
      </trkpt>
      <trkpt lat="40.798174" lon="-3.345728">
        <ele>902.9</ele>
        <time>2019-02-23T08:57:18.889Z</time>
      </trkpt>
      <trkpt lat="40.798115" lon="-3.345588">
        <ele>902.7</ele>
        <time>2019-02-23T08:57:20.768Z</time>
      </trkpt>
      <trkpt lat="40.798048" lon="-3.345425">
        <ele>902.7</ele>
        <time>2019-02-23T08:57:22.943Z</time>
      </trkpt>
      <trkpt lat="40.797924" lon="-3.345123">
        <ele>902.8</ele>
        <time>2019-02-23T08:57:26.972Z</time>
      </trkpt>
      <trkpt lat="40.797892" lon="-3.345143">
        <ele>902.9</ele>
        <time>2019-02-23T08:57:27.520Z</time>
      </trkpt>
      <trkpt lat="40.797833" lon="-3.345201">
        <ele>902.9</ele>
        <time>2019-02-23T08:57:28.659Z</time>
      </trkpt>
      <trkpt lat="40.797789" lon="-3.345244">
        <ele>902.8</ele>
        <time>2019-02-23T08:57:29.506Z</time>
      </trkpt>
      <trkpt lat="40.797720" lon="-3.345295">
        <ele>902.5</ele>
        <time>2019-02-23T08:57:30.730Z</time>
      </trkpt>
      <trkpt lat="40.797553" lon="-3.345241">
        <ele>901.7</ele>
        <time>2019-02-23T08:57:33.393Z</time>
      </trkpt>
      <trkpt lat="40.796731" lon="-3.344962">
        <ele>902.6</ele>
        <time>2019-02-23T08:57:46.540Z</time>
      </trkpt>
      <trkpt lat="40.796245" lon="-3.344808">
        <ele>902.9</ele>
        <time>2019-02-23T08:57:54.282Z</time>
      </trkpt>
      <trkpt lat="40.795786" lon="-3.344619">
        <ele>905.2</ele>
        <time>2019-02-23T08:58:01.730Z</time>
      </trkpt>
      <trkpt lat="40.795218" lon="-3.344443">
        <ele>904.2</ele>
        <time>2019-02-23T08:58:10.768Z</time>
      </trkpt>
      <trkpt lat="40.794548" lon="-3.344259">
        <ele>903.0</ele>
        <time>2019-02-23T08:58:21.369Z</time>
      </trkpt>
      <trkpt lat="40.794476" lon="-3.344260">
        <ele>903.0</ele>
        <time>2019-02-23T08:58:22.484Z</time>
      </trkpt>
      <trkpt lat="40.793955" lon="-3.344269">
        <ele>902.1</ele>
        <time>2019-02-23T08:58:30.555Z</time>
      </trkpt>
      <trkpt lat="40.793780" lon="-3.344264">
        <ele>902.1</ele>
        <time>2019-02-23T08:58:33.266Z</time>
      </trkpt>
      <trkpt lat="40.793780" lon="-3.344275">
        <ele>895.2</ele>
        <time>2019-02-23T08:58:33.395Z</time>
      </trkpt>
      <trkpt lat="40.793617" lon="-3.344380">
        <ele>895.1</ele>
        <time>2019-02-23T08:58:36.395Z</time>
      </trkpt>
      <trkpt lat="40.793528" lon="-3.344486">
        <ele>895.1</ele>
        <time>2019-02-23T08:58:38.395Z</time>
      </trkpt>
      <trkpt lat="40.793254" lon="-3.344939">
        <ele>895.2</ele>
        <time>2019-02-23T08:58:46.395Z</time>
      </trkpt>
      <trkpt lat="40.793157" lon="-3.345116">
        <ele>895.1</ele>
        <time>2019-02-23T08:58:49.395Z</time>
      </trkpt>
      <trkpt lat="40.793122" lon="-3.345176">
        <ele>894.8</ele>
        <time>2019-02-23T08:58:50.395Z</time>
      </trkpt>
      <trkpt lat="40.793093" lon="-3.345231">
        <ele>894.4</ele>
        <time>2019-02-23T08:58:51.395Z</time>
      </trkpt>
      <trkpt lat="40.793061" lon="-3.345287">
        <ele>894.0</ele>
        <time>2019-02-23T08:58:52.395Z</time>
      </trkpt>
      <trkpt lat="40.793029" lon="-3.345342">
        <ele>893.5</ele>
        <time>2019-02-23T08:58:53.395Z</time>
      </trkpt>
      <trkpt lat="40.792934" lon="-3.345509">
        <ele>893.1</ele>
        <time>2019-02-23T08:58:56.395Z</time>
      </trkpt>
      <trkpt lat="40.792676" lon="-3.345956">
        <ele>893.1</ele>
        <time>2019-02-23T08:59:04.395Z</time>
      </trkpt>
      <trkpt lat="40.792644" lon="-3.346018">
        <ele>893.1</ele>
        <time>2019-02-23T08:59:05.395Z</time>
      </trkpt>
      <trkpt lat="40.792568" lon="-3.346214">
        <ele>893.1</ele>
        <time>2019-02-23T08:59:08.395Z</time>
      </trkpt>
      <trkpt lat="40.792551" lon="-3.346350">
        <ele>893.2</ele>
        <time>2019-02-23T08:59:10.395Z</time>
      </trkpt>
      <trkpt lat="40.792557" lon="-3.346481">
        <ele>893.2</ele>
        <time>2019-02-23T08:59:12.395Z</time>
      </trkpt>
      <trkpt lat="40.792590" lon="-3.346659">
        <ele>893.2</ele>
        <time>2019-02-23T08:59:15.395Z</time>
      </trkpt>
      <trkpt lat="40.792658" lon="-3.346927">
        <ele>893.2</ele>
        <time>2019-02-23T08:59:20.395Z</time>
      </trkpt>
      <trkpt lat="40.792668" lon="-3.346973">
        <ele>892.8</ele>
        <time>2019-02-23T08:59:21.395Z</time>
      </trkpt>
      <trkpt lat="40.792676" lon="-3.347017">
        <ele>892.1</ele>
        <time>2019-02-23T08:59:22.395Z</time>
      </trkpt>
      <trkpt lat="40.792682" lon="-3.347060">
        <ele>891.8</ele>
        <time>2019-02-23T08:59:23.395Z</time>
      </trkpt>
      <trkpt lat="40.792686" lon="-3.347103">
        <ele>891.4</ele>
        <time>2019-02-23T08:59:24.395Z</time>
      </trkpt>
      <trkpt lat="40.792683" lon="-3.347234">
        <ele>891.1</ele>
        <time>2019-02-23T08:59:27.395Z</time>
      </trkpt>
      <trkpt lat="40.792671" lon="-3.347278">
        <ele>891.1</ele>
        <time>2019-02-23T08:59:28.395Z</time>
      </trkpt>
      <trkpt lat="40.792651" lon="-3.347316">
        <ele>890.6</ele>
        <time>2019-02-23T08:59:29.395Z</time>
      </trkpt>
      <trkpt lat="40.792632" lon="-3.347355">
        <ele>890.0</ele>
        <time>2019-02-23T08:59:30.395Z</time>
      </trkpt>
      <trkpt lat="40.792608" lon="-3.347391">
        <ele>889.6</ele>
        <time>2019-02-23T08:59:31.395Z</time>
      </trkpt>
      <trkpt lat="40.792586" lon="-3.347425">
        <ele>889.2</ele>
        <time>2019-02-23T08:59:32.395Z</time>
      </trkpt>
      <trkpt lat="40.792533" lon="-3.347484">
        <ele>888.8</ele>
        <time>2019-02-23T08:59:34.395Z</time>
      </trkpt>
      <trkpt lat="40.792420" lon="-3.347593">
        <ele>888.9</ele>
        <time>2019-02-23T08:59:38.395Z</time>
      </trkpt>
      <trkpt lat="40.792389" lon="-3.347622">
        <ele>888.4</ele>
        <time>2019-02-23T08:59:39.395Z</time>
      </trkpt>
      <trkpt lat="40.792359" lon="-3.347651">
        <ele>888.0</ele>
        <time>2019-02-23T08:59:40.395Z</time>
      </trkpt>
      <trkpt lat="40.792329" lon="-3.347681">
        <ele>887.5</ele>
        <time>2019-02-23T08:59:41.395Z</time>
      </trkpt>
      <trkpt lat="40.792299" lon="-3.347709">
        <ele>887.1</ele>
        <time>2019-02-23T08:59:42.395Z</time>
      </trkpt>
      <trkpt lat="40.792271" lon="-3.347738">
        <ele>886.5</ele>
        <time>2019-02-23T08:59:43.395Z</time>
      </trkpt>
      <trkpt lat="40.792188" lon="-3.347823">
        <ele>886.6</ele>
        <time>2019-02-23T08:59:46.395Z</time>
      </trkpt>
      <trkpt lat="40.792156" lon="-3.347846">
        <ele>886.2</ele>
        <time>2019-02-23T08:59:47.395Z</time>
      </trkpt>
      <trkpt lat="40.792121" lon="-3.347870">
        <ele>885.9</ele>
        <time>2019-02-23T08:59:48.395Z</time>
      </trkpt>
      <trkpt lat="40.792084" lon="-3.347891">
        <ele>885.4</ele>
        <time>2019-02-23T08:59:49.395Z</time>
      </trkpt>
      <trkpt lat="40.792052" lon="-3.347909">
        <ele>885.0</ele>
        <time>2019-02-23T08:59:50.395Z</time>
      </trkpt>
      <trkpt lat="40.791916" lon="-3.347980">
        <ele>884.5</ele>
        <time>2019-02-23T08:59:54.395Z</time>
      </trkpt>
      <trkpt lat="40.791880" lon="-3.347997">
        <ele>884.5</ele>
        <time>2019-02-23T08:59:55.395Z</time>
      </trkpt>
      <trkpt lat="40.791847" lon="-3.348014">
        <ele>884.2</ele>
        <time>2019-02-23T08:59:56.395Z</time>
      </trkpt>
      <trkpt lat="40.791812" lon="-3.348028">
        <ele>883.8</ele>
        <time>2019-02-23T08:59:57.395Z</time>
      </trkpt>
      <trkpt lat="40.791773" lon="-3.348042">
        <ele>883.1</ele>
        <time>2019-02-23T08:59:58.395Z</time>
      </trkpt>
      <trkpt lat="40.791739" lon="-3.348056">
        <ele>882.8</ele>
        <time>2019-02-23T08:59:59.395Z</time>
      </trkpt>
      <trkpt lat="40.791591" lon="-3.348112">
        <ele>882.5</ele>
        <time>2019-02-23T09:00:03.395Z</time>
      </trkpt>
      <trkpt lat="40.791556" lon="-3.348124">
        <ele>882.1</ele>
        <time>2019-02-23T09:00:04.395Z</time>
      </trkpt>
      <trkpt lat="40.791517" lon="-3.348131">
        <ele>881.6</ele>
        <time>2019-02-23T09:00:05.395Z</time>
      </trkpt>
      <trkpt lat="40.791480" lon="-3.348147">
        <ele>881.2</ele>
        <time>2019-02-23T09:00:06.395Z</time>
      </trkpt>
      <trkpt lat="40.791438" lon="-3.348161">
        <ele>880.8</ele>
        <time>2019-02-23T09:00:07.395Z</time>
      </trkpt>
      <trkpt lat="40.791360" lon="-3.348190">
        <ele>880.4</ele>
        <time>2019-02-23T09:00:09.395Z</time>
      </trkpt>
      <trkpt lat="40.791165" lon="-3.348331">
        <ele>880.4</ele>
        <time>2019-02-23T09:00:14.395Z</time>
      </trkpt>
      <trkpt lat="40.791137" lon="-3.348374">
        <ele>880.5</ele>
        <time>2019-02-23T09:00:15.395Z</time>
      </trkpt>
      <trkpt lat="40.791116" lon="-3.348418">
        <ele>879.9</ele>
        <time>2019-02-23T09:00:16.395Z</time>
      </trkpt>
      <trkpt lat="40.791099" lon="-3.348461">
        <ele>879.4</ele>
        <time>2019-02-23T09:00:17.395Z</time>
      </trkpt>
      <trkpt lat="40.791084" lon="-3.348510">
        <ele>879.0</ele>
        <time>2019-02-23T09:00:18.395Z</time>
      </trkpt>
      <trkpt lat="40.791072" lon="-3.348562">
        <ele>878.5</ele>
        <time>2019-02-23T09:00:19.395Z</time>
      </trkpt>
      <trkpt lat="40.791066" lon="-3.348674">
        <ele>878.1</ele>
        <time>2019-02-23T09:00:21.395Z</time>
      </trkpt>
      <trkpt lat="40.791133" lon="-3.348960">
        <ele>878.0</ele>
        <time>2019-02-23T09:00:26.395Z</time>
      </trkpt>
      <trkpt lat="40.791151" lon="-3.349019">
        <ele>878.0</ele>
        <time>2019-02-23T09:00:27.395Z</time>
      </trkpt>
      <trkpt lat="40.791172" lon="-3.349077">
        <ele>877.6</ele>
        <time>2019-02-23T09:00:28.395Z</time>
      </trkpt>
      <trkpt lat="40.791198" lon="-3.349130">
        <ele>877.2</ele>
        <time>2019-02-23T09:00:29.395Z</time>
      </trkpt>
      <trkpt lat="40.791222" lon="-3.349182">
        <ele>876.8</ele>
        <time>2019-02-23T09:00:30.395Z</time>
      </trkpt>
      <trkpt lat="40.791255" lon="-3.349228">
        <ele>876.4</ele>
        <time>2019-02-23T09:00:31.395Z</time>
      </trkpt>
      <trkpt lat="40.791388" lon="-3.349380">
        <ele>876.0</ele>
        <time>2019-02-23T09:00:35.395Z</time>
      </trkpt>
      <trkpt lat="40.791424" lon="-3.349416">
        <ele>875.5</ele>
        <time>2019-02-23T09:00:36.395Z</time>
      </trkpt>
      <trkpt lat="40.791461" lon="-3.349450">
        <ele>875.1</ele>
        <time>2019-02-23T09:00:37.395Z</time>
      </trkpt>
      <trkpt lat="40.791498" lon="-3.349486">
        <ele>874.8</ele>
        <time>2019-02-23T09:00:38.395Z</time>
      </trkpt>
      <trkpt lat="40.791536" lon="-3.349524">
        <ele>874.5</ele>
        <time>2019-02-23T09:00:39.395Z</time>
      </trkpt>
      <trkpt lat="40.791805" lon="-3.349780">
        <ele>873.8</ele>
        <time>2019-02-23T09:00:45.395Z</time>
      </trkpt>
      <trkpt lat="40.791902" lon="-3.349890">
        <ele>873.9</ele>
        <time>2019-02-23T09:00:47.395Z</time>
      </trkpt>
      <trkpt lat="40.791999" lon="-3.350020">
        <ele>873.8</ele>
        <time>2019-02-23T09:00:49.395Z</time>
      </trkpt>
      <trkpt lat="40.792035" lon="-3.350279">
        <ele>873.9</ele>
        <time>2019-02-23T09:00:52.395Z</time>
      </trkpt>
      <trkpt lat="40.791918" lon="-3.350506">
        <ele>873.8</ele>
        <time>2019-02-23T09:00:55.395Z</time>
      </trkpt>
      <trkpt lat="40.791802" lon="-3.350577">
        <ele>873.9</ele>
        <time>2019-02-23T09:00:57.395Z</time>
      </trkpt>
      <trkpt lat="40.791744" lon="-3.350591">
        <ele>873.8</ele>
        <time>2019-02-23T09:00:58.395Z</time>
      </trkpt>
      <trkpt lat="40.791629" lon="-3.350598">
        <ele>873.9</ele>
        <time>2019-02-23T09:01:00.395Z</time>
      </trkpt>
      <trkpt lat="40.791570" lon="-3.350599">
        <ele>873.9</ele>
        <time>2019-02-23T09:01:01.395Z</time>
      </trkpt>
      <trkpt lat="40.791396" lon="-3.350576">
        <ele>873.8</ele>
        <time>2019-02-23T09:01:04.395Z</time>
      </trkpt>
      <trkpt lat="40.791345" lon="-3.350554">
        <ele>873.8</ele>
        <time>2019-02-23T09:01:05.395Z</time>
      </trkpt>
      <trkpt lat="40.791046" lon="-3.350305">
        <ele>873.8</ele>
        <time>2019-02-23T09:01:12.395Z</time>
      </trkpt>
      <trkpt lat="40.790670" lon="-3.349948">
        <ele>873.8</ele>
        <time>2019-02-23T09:01:20.395Z</time>
      </trkpt>
      <trkpt lat="40.790324" lon="-3.349672">
        <ele>873.9</ele>
        <time>2019-02-23T09:01:27.395Z</time>
      </trkpt>
      <trkpt lat="40.789790" lon="-3.349392">
        <ele>873.8</ele>
        <time>2019-02-23T09:01:37.395Z</time>
      </trkpt>
      <trkpt lat="40.789562" lon="-3.349297">
        <ele>873.9</ele>
        <time>2019-02-23T09:01:41.395Z</time>
      </trkpt>
      <trkpt lat="40.789445" lon="-3.349294">
        <ele>873.8</ele>
        <time>2019-02-23T09:01:43.395Z</time>
      </trkpt>
      <trkpt lat="40.789343" lon="-3.349340">
        <ele>873.9</ele>
        <time>2019-02-23T09:01:45.395Z</time>
      </trkpt>
      <trkpt lat="40.789161" lon="-3.349485">
        <ele>873.9</ele>
        <time>2019-02-23T09:01:49.395Z</time>
      </trkpt>
      <trkpt lat="40.789122" lon="-3.349524">
        <ele>873.4</ele>
        <time>2019-02-23T09:01:50.395Z</time>
      </trkpt>
      <trkpt lat="40.789090" lon="-3.349554">
        <ele>873.1</ele>
        <time>2019-02-23T09:01:51.395Z</time>
      </trkpt>
      <trkpt lat="40.789065" lon="-3.349594">
        <ele>872.4</ele>
        <time>2019-02-23T09:01:52.395Z</time>
      </trkpt>
      <trkpt lat="40.789043" lon="-3.349637">
        <ele>872.0</ele>
        <time>2019-02-23T09:01:53.395Z</time>
      </trkpt>
      <trkpt lat="40.789024" lon="-3.349677">
        <ele>871.5</ele>
        <time>2019-02-23T09:01:54.395Z</time>
      </trkpt>
      <trkpt lat="40.788990" lon="-3.349767">
        <ele>871.6</ele>
        <time>2019-02-23T09:01:56.395Z</time>
      </trkpt>
      <trkpt lat="40.788977" lon="-3.349814">
        <ele>871.1</ele>
        <time>2019-02-23T09:01:57.395Z</time>
      </trkpt>
      <trkpt lat="40.788970" lon="-3.349865">
        <ele>870.6</ele>
        <time>2019-02-23T09:01:58.395Z</time>
      </trkpt>
      <trkpt lat="40.788965" lon="-3.349918">
        <ele>870.0</ele>
        <time>2019-02-23T09:01:59.395Z</time>
      </trkpt>
      <trkpt lat="40.788965" lon="-3.349974">
        <ele>869.4</ele>
        <time>2019-02-23T09:02:00.395Z</time>
      </trkpt>
      <trkpt lat="40.788969" lon="-3.350152">
        <ele>869.0</ele>
        <time>2019-02-23T09:02:03.395Z</time>
      </trkpt>
      <trkpt lat="40.788980" lon="-3.350263">
        <ele>869.0</ele>
        <time>2019-02-23T09:02:05.395Z</time>
      </trkpt>
      <trkpt lat="40.788983" lon="-3.350314">
        <ele>868.5</ele>
        <time>2019-02-23T09:02:06.395Z</time>
      </trkpt>
      <trkpt lat="40.788983" lon="-3.350373">
        <ele>868.0</ele>
        <time>2019-02-23T09:02:07.395Z</time>
      </trkpt>
      <trkpt lat="40.788983" lon="-3.350439">
        <ele>867.5</ele>
        <time>2019-02-23T09:02:08.395Z</time>
      </trkpt>
      <trkpt lat="40.788986" lon="-3.350506">
        <ele>867.1</ele>
        <time>2019-02-23T09:02:09.395Z</time>
      </trkpt>
      <trkpt lat="40.788988" lon="-3.350734">
        <ele>866.8</ele>
        <time>2019-02-23T09:02:12.395Z</time>
      </trkpt>
      <trkpt lat="40.788998" lon="-3.350924">
        <ele>865.9</ele>
        <time>2019-02-23T09:02:14.395Z</time>
      </trkpt>
      <trkpt lat="40.789004" lon="-3.351021">
        <ele>865.4</ele>
        <time>2019-02-23T09:02:15.395Z</time>
      </trkpt>
      <trkpt lat="40.789015" lon="-3.351123">
        <ele>865.1</ele>
        <time>2019-02-23T09:02:16.395Z</time>
      </trkpt>
      <trkpt lat="40.789030" lon="-3.351232">
        <ele>864.6</ele>
        <time>2019-02-23T09:02:17.395Z</time>
      </trkpt>
      <trkpt lat="40.789065" lon="-3.351584">
        <ele>864.6</ele>
        <time>2019-02-23T09:02:20.395Z</time>
      </trkpt>
      <trkpt lat="40.789053" lon="-3.351716">
        <ele>864.5</ele>
        <time>2019-02-23T09:02:21.395Z</time>
      </trkpt>
      <trkpt lat="40.789020" lon="-3.351841">
        <ele>865.4</ele>
        <time>2019-02-23T09:02:22.395Z</time>
      </trkpt>
      <trkpt lat="40.788964" lon="-3.351956">
        <ele>866.0</ele>
        <time>2019-02-23T09:02:23.395Z</time>
      </trkpt>
      <trkpt lat="40.788891" lon="-3.352057">
        <ele>866.9</ele>
        <time>2019-02-23T09:02:24.395Z</time>
      </trkpt>
      <trkpt lat="40.788808" lon="-3.352143">
        <ele>867.4</ele>
        <time>2019-02-23T09:02:25.395Z</time>
      </trkpt>
      <trkpt lat="40.788712" lon="-3.352202">
        <ele>868.1</ele>
        <time>2019-02-23T09:02:26.395Z</time>
      </trkpt>
      <trkpt lat="40.788609" lon="-3.352232">
        <ele>869.0</ele>
        <time>2019-02-23T09:02:27.395Z</time>
      </trkpt>
      <trkpt lat="40.788508" lon="-3.352236">
        <ele>869.9</ele>
        <time>2019-02-23T09:02:28.395Z</time>
      </trkpt>
      <trkpt lat="40.788405" lon="-3.352235">
        <ele>870.5</ele>
        <time>2019-02-23T09:02:29.395Z</time>
      </trkpt>
      <trkpt lat="40.788305" lon="-3.352222">
        <ele>871.2</ele>
        <time>2019-02-23T09:02:30.395Z</time>
      </trkpt>
      <trkpt lat="40.788203" lon="-3.352196">
        <ele>871.8</ele>
        <time>2019-02-23T09:02:31.395Z</time>
      </trkpt>
      <trkpt lat="40.788117" lon="-3.352147">
        <ele>872.5</ele>
        <time>2019-02-23T09:02:32.395Z</time>
      </trkpt>
      <trkpt lat="40.788030" lon="-3.352091">
        <ele>872.9</ele>
        <time>2019-02-23T09:02:33.395Z</time>
      </trkpt>
      <trkpt lat="40.787943" lon="-3.352029">
        <ele>873.1</ele>
        <time>2019-02-23T09:02:34.395Z</time>
      </trkpt>
      <trkpt lat="40.787861" lon="-3.351977">
        <ele>873.6</ele>
        <time>2019-02-23T09:02:35.395Z</time>
      </trkpt>
      <trkpt lat="40.787778" lon="-3.351936">
        <ele>874.1</ele>
        <time>2019-02-23T09:02:36.395Z</time>
      </trkpt>
      <trkpt lat="40.787695" lon="-3.351907">
        <ele>874.0</ele>
        <time>2019-02-23T09:02:37.395Z</time>
      </trkpt>
      <trkpt lat="40.787611" lon="-3.351889">
        <ele>874.5</ele>
        <time>2019-02-23T09:02:38.395Z</time>
      </trkpt>
      <trkpt lat="40.787529" lon="-3.351884">
        <ele>875.0</ele>
        <time>2019-02-23T09:02:39.395Z</time>
      </trkpt>
      <trkpt lat="40.787446" lon="-3.351890">
        <ele>875.5</ele>
        <time>2019-02-23T09:02:40.395Z</time>
      </trkpt>
      <trkpt lat="40.787358" lon="-3.351898">
        <ele>876.0</ele>
        <time>2019-02-23T09:02:41.395Z</time>
      </trkpt>
      <trkpt lat="40.786990" lon="-3.351952">
        <ele>876.5</ele>
        <time>2019-02-23T09:02:45.395Z</time>
      </trkpt>
      <trkpt lat="40.786901" lon="-3.351964">
        <ele>876.9</ele>
        <time>2019-02-23T09:02:46.395Z</time>
      </trkpt>
      <trkpt lat="40.786811" lon="-3.351975">
        <ele>877.5</ele>
        <time>2019-02-23T09:02:47.395Z</time>
      </trkpt>
      <trkpt lat="40.786722" lon="-3.351986">
        <ele>877.8</ele>
        <time>2019-02-23T09:02:48.395Z</time>
      </trkpt>
      <trkpt lat="40.786631" lon="-3.351998">
        <ele>878.1</ele>
        <time>2019-02-23T09:02:49.395Z</time>
      </trkpt>
      <trkpt lat="40.786457" lon="-3.352022">
        <ele>878.8</ele>
        <time>2019-02-23T09:02:51.395Z</time>
      </trkpt>
      <trkpt lat="40.786368" lon="-3.352033">
        <ele>879.5</ele>
        <time>2019-02-23T09:02:52.395Z</time>
      </trkpt>
      <trkpt lat="40.786277" lon="-3.352043">
        <ele>879.8</ele>
        <time>2019-02-23T09:02:53.395Z</time>
      </trkpt>
      <trkpt lat="40.786182" lon="-3.352053">
        <ele>880.4</ele>
        <time>2019-02-23T09:02:54.395Z</time>
      </trkpt>
      <trkpt lat="40.786085" lon="-3.352065">
        <ele>881.1</ele>
        <time>2019-02-23T09:02:55.395Z</time>
      </trkpt>
      <trkpt lat="40.785994" lon="-3.352079">
        <ele>881.6</ele>
        <time>2019-02-23T09:02:56.395Z</time>
      </trkpt>
      <trkpt lat="40.785903" lon="-3.352099">
        <ele>882.1</ele>
        <time>2019-02-23T09:02:57.395Z</time>
      </trkpt>
      <trkpt lat="40.785815" lon="-3.352124">
        <ele>882.5</ele>
        <time>2019-02-23T09:02:58.395Z</time>
      </trkpt>
      <trkpt lat="40.785729" lon="-3.352155">
        <ele>882.9</ele>
        <time>2019-02-23T09:02:59.395Z</time>
      </trkpt>
      <trkpt lat="40.785646" lon="-3.352188">
        <ele>883.5</ele>
        <time>2019-02-23T09:03:00.395Z</time>
      </trkpt>
      <trkpt lat="40.785185" lon="-3.352431">
        <ele>883.9</ele>
        <time>2019-02-23T09:03:06.395Z</time>
      </trkpt>
      <trkpt lat="40.785106" lon="-3.352472">
        <ele>884.1</ele>
        <time>2019-02-23T09:03:07.395Z</time>
      </trkpt>
      <trkpt lat="40.785025" lon="-3.352514">
        <ele>884.5</ele>
        <time>2019-02-23T09:03:08.395Z</time>
      </trkpt>
      <trkpt lat="40.784942" lon="-3.352551">
        <ele>885.1</ele>
        <time>2019-02-23T09:03:09.395Z</time>
      </trkpt>
      <trkpt lat="40.784859" lon="-3.352581">
        <ele>885.4</ele>
        <time>2019-02-23T09:03:10.395Z</time>
      </trkpt>
      <trkpt lat="40.784692" lon="-3.352595">
        <ele>886.0</ele>
        <time>2019-02-23T09:03:12.395Z</time>
      </trkpt>
      <trkpt lat="40.784610" lon="-3.352578">
        <ele>886.5</ele>
        <time>2019-02-23T09:03:13.395Z</time>
      </trkpt>
      <trkpt lat="40.784530" lon="-3.352546">
        <ele>886.8</ele>
        <time>2019-02-23T09:03:14.395Z</time>
      </trkpt>
      <trkpt lat="40.784455" lon="-3.352511">
        <ele>887.1</ele>
        <time>2019-02-23T09:03:15.395Z</time>
      </trkpt>
      <trkpt lat="40.784380" lon="-3.352479">
        <ele>887.9</ele>
        <time>2019-02-23T09:03:16.395Z</time>
      </trkpt>
      <trkpt lat="40.784167" lon="-3.352382">
        <ele>888.2</ele>
        <time>2019-02-23T09:03:19.395Z</time>
      </trkpt>
      <trkpt lat="40.783636" lon="-3.352136">
        <ele>888.2</ele>
        <time>2019-02-23T09:03:27.395Z</time>
      </trkpt>
      <trkpt lat="40.783510" lon="-3.352079">
        <ele>888.2</ele>
        <time>2019-02-23T09:03:29.395Z</time>
      </trkpt>
      <trkpt lat="40.783323" lon="-3.352014">
        <ele>888.1</ele>
        <time>2019-02-23T09:03:32.395Z</time>
      </trkpt>
      <trkpt lat="40.783073" lon="-3.352031">
        <ele>888.2</ele>
        <time>2019-02-23T09:03:36.395Z</time>
      </trkpt>
      <trkpt lat="40.782738" lon="-3.352258">
        <ele>888.2</ele>
        <time>2019-02-23T09:03:42.395Z</time>
      </trkpt>
      <trkpt lat="40.782681" lon="-3.352301">
        <ele>888.1</ele>
        <time>2019-02-23T09:03:43.395Z</time>
      </trkpt>
      <trkpt lat="40.782474" lon="-3.352505">
        <ele>888.1</ele>
        <time>2019-02-23T09:03:47.395Z</time>
      </trkpt>
      <trkpt lat="40.782433" lon="-3.352570">
        <ele>888.1</ele>
        <time>2019-02-23T09:03:48.395Z</time>
      </trkpt>
      <trkpt lat="40.782229" lon="-3.353148">
        <ele>888.2</ele>
        <time>2019-02-23T09:03:56.395Z</time>
      </trkpt>
      <trkpt lat="40.782031" lon="-3.353887">
        <ele>888.1</ele>
        <time>2019-02-23T09:04:07.395Z</time>
      </trkpt>
      <trkpt lat="40.781879" lon="-3.354469">
        <ele>888.1</ele>
        <time>2019-02-23T09:04:15.395Z</time>
      </trkpt>
      <trkpt lat="40.781679" lon="-3.355092">
        <ele>888.2</ele>
        <time>2019-02-23T09:04:24.395Z</time>
      </trkpt>
      <trkpt lat="40.781377" lon="-3.355521">
        <ele>888.1</ele>
        <time>2019-02-23T09:04:32.395Z</time>
      </trkpt>
      <trkpt lat="40.781196" lon="-3.355725">
        <ele>888.2</ele>
        <time>2019-02-23T09:04:36.395Z</time>
      </trkpt>
      <trkpt lat="40.780772" lon="-3.356228">
        <ele>888.1</ele>
        <time>2019-02-23T09:04:46.395Z</time>
      </trkpt>
      <trkpt lat="40.780730" lon="-3.356277">
        <ele>888.1</ele>
        <time>2019-02-23T09:04:47.395Z</time>
      </trkpt>
      <trkpt lat="40.780686" lon="-3.356326">
        <ele>887.9</ele>
        <time>2019-02-23T09:04:48.395Z</time>
      </trkpt>
      <trkpt lat="40.780639" lon="-3.356378">
        <ele>887.4</ele>
        <time>2019-02-23T09:04:49.395Z</time>
      </trkpt>
      <trkpt lat="40.780595" lon="-3.356426">
        <ele>887.0</ele>
        <time>2019-02-23T09:04:50.395Z</time>
      </trkpt>
      <trkpt lat="40.780549" lon="-3.356478">
        <ele>886.4</ele>
        <time>2019-02-23T09:04:51.395Z</time>
      </trkpt>
      <trkpt lat="40.780459" lon="-3.356583">
        <ele>886.1</ele>
        <time>2019-02-23T09:04:53.395Z</time>
      </trkpt>
      <trkpt lat="40.780046" lon="-3.357056">
        <ele>886.1</ele>
        <time>2019-02-23T09:05:02.395Z</time>
      </trkpt>
      <trkpt lat="40.779956" lon="-3.357162">
        <ele>886.0</ele>
        <time>2019-02-23T09:05:04.395Z</time>
      </trkpt>
      <trkpt lat="40.779550" lon="-3.357651">
        <ele>886.1</ele>
        <time>2019-02-23T09:05:13.395Z</time>
      </trkpt>
      <trkpt lat="40.779228" lon="-3.358021">
        <ele>886.1</ele>
        <time>2019-02-23T09:05:20.395Z</time>
      </trkpt>
      <trkpt lat="40.778874" lon="-3.358446">
        <ele>886.1</ele>
        <time>2019-02-23T09:05:28.395Z</time>
      </trkpt>
      <trkpt lat="40.778732" lon="-3.358636">
        <ele>886.1</ele>
        <time>2019-02-23T09:05:31.395Z</time>
      </trkpt>
      <trkpt lat="40.778363" lon="-3.359221">
        <ele>886.0</ele>
        <time>2019-02-23T09:05:39.395Z</time>
      </trkpt>
      <trkpt lat="40.778019" lon="-3.359792">
        <ele>886.1</ele>
        <time>2019-02-23T09:05:47.395Z</time>
      </trkpt>
      <trkpt lat="40.777707" lon="-3.360344">
        <ele>886.0</ele>
        <time>2019-02-23T09:05:55.395Z</time>
      </trkpt>
      <trkpt lat="40.777456" lon="-3.360768">
        <ele>886.0</ele>
        <time>2019-02-23T09:06:02.395Z</time>
      </trkpt>
      <trkpt lat="40.777359" lon="-3.360903">
        <ele>886.0</ele>
        <time>2019-02-23T09:06:05.395Z</time>
      </trkpt>
      <trkpt lat="40.777328" lon="-3.360945">
        <ele>885.5</ele>
        <time>2019-02-23T09:06:06.395Z</time>
      </trkpt>
      <trkpt lat="40.777296" lon="-3.360991">
        <ele>885.1</ele>
        <time>2019-02-23T09:06:07.395Z</time>
      </trkpt>
      <trkpt lat="40.777266" lon="-3.361039">
        <ele>884.8</ele>
        <time>2019-02-23T09:06:08.395Z</time>
      </trkpt>
      <trkpt lat="40.777234" lon="-3.361090">
        <ele>884.4</ele>
        <time>2019-02-23T09:06:09.395Z</time>
      </trkpt>
      <trkpt lat="40.776873" lon="-3.361680">
        <ele>884.1</ele>
        <time>2019-02-23T09:06:18.395Z</time>
      </trkpt>
      <trkpt lat="40.776834" lon="-3.361744">
        <ele>884.1</ele>
        <time>2019-02-23T09:06:19.395Z</time>
      </trkpt>
      <trkpt lat="40.776477" lon="-3.362326">
        <ele>884.1</ele>
        <time>2019-02-23T09:06:28.395Z</time>
      </trkpt>
      <trkpt lat="40.776435" lon="-3.362394">
        <ele>884.0</ele>
        <time>2019-02-23T09:06:29.395Z</time>
      </trkpt>
      <trkpt lat="40.776071" lon="-3.362992">
        <ele>884.1</ele>
        <time>2019-02-23T09:06:37.395Z</time>
      </trkpt>
      <trkpt lat="40.775732" lon="-3.363555">
        <ele>884.0</ele>
        <time>2019-02-23T09:06:45.395Z</time>
      </trkpt>
      <trkpt lat="40.775471" lon="-3.363992">
        <ele>884.0</ele>
        <time>2019-02-23T09:06:51.395Z</time>
      </trkpt>
      <trkpt lat="40.775138" lon="-3.364639">
        <ele>884.1</ele>
        <time>2019-02-23T09:07:00.395Z</time>
      </trkpt>
      <trkpt lat="40.775114" lon="-3.364720">
        <ele>883.5</ele>
        <time>2019-02-23T09:07:01.395Z</time>
      </trkpt>
      <trkpt lat="40.775091" lon="-3.364797">
        <ele>883.1</ele>
        <time>2019-02-23T09:07:02.395Z</time>
      </trkpt>
      <trkpt lat="40.775067" lon="-3.364873">
        <ele>882.6</ele>
        <time>2019-02-23T09:07:03.395Z</time>
      </trkpt>
      <trkpt lat="40.775043" lon="-3.364951">
        <ele>882.1</ele>
        <time>2019-02-23T09:07:04.395Z</time>
      </trkpt>
      <trkpt lat="40.774860" lon="-3.365552">
        <ele>881.9</ele>
        <time>2019-02-23T09:07:11.395Z</time>
      </trkpt>
      <trkpt lat="40.774833" lon="-3.365639">
        <ele>881.8</ele>
        <time>2019-02-23T09:07:12.395Z</time>
      </trkpt>
      <trkpt lat="40.774619" lon="-3.366322">
        <ele>881.8</ele>
        <time>2019-02-23T09:07:20.395Z</time>
      </trkpt>
      <trkpt lat="40.774547" lon="-3.366570">
        <ele>881.9</ele>
        <time>2019-02-23T09:07:23.395Z</time>
      </trkpt>
      <trkpt lat="40.774348" lon="-3.367235">
        <ele>881.9</ele>
        <time>2019-02-23T09:07:31.395Z</time>
      </trkpt>
      <trkpt lat="40.774324" lon="-3.367317">
        <ele>881.8</ele>
        <time>2019-02-23T09:07:32.395Z</time>
      </trkpt>
      <trkpt lat="40.774115" lon="-3.367978">
        <ele>881.8</ele>
        <time>2019-02-23T09:07:40.395Z</time>
      </trkpt>
      <trkpt lat="40.774092" lon="-3.368058">
        <ele>881.8</ele>
        <time>2019-02-23T09:07:41.395Z</time>
      </trkpt>
      <trkpt lat="40.773878" lon="-3.368763">
        <ele>881.9</ele>
        <time>2019-02-23T09:07:50.395Z</time>
      </trkpt>
      <trkpt lat="40.773712" lon="-3.369331">
        <ele>881.9</ele>
        <time>2019-02-23T09:07:58.395Z</time>
      </trkpt>
      <trkpt lat="40.773613" lon="-3.369581">
        <ele>881.8</ele>
        <time>2019-02-23T09:08:02.395Z</time>
      </trkpt>
      <trkpt lat="40.773582" lon="-3.369634">
        <ele>881.9</ele>
        <time>2019-02-23T09:08:03.395Z</time>
      </trkpt>
      <trkpt lat="40.773433" lon="-3.369816">
        <ele>881.8</ele>
        <time>2019-02-23T09:08:07.395Z</time>
      </trkpt>
      <trkpt lat="40.773398" lon="-3.369862">
        <ele>881.4</ele>
        <time>2019-02-23T09:08:08.395Z</time>
      </trkpt>
      <trkpt lat="40.773360" lon="-3.369912">
        <ele>881.1</ele>
        <time>2019-02-23T09:08:09.395Z</time>
      </trkpt>
      <trkpt lat="40.773320" lon="-3.369959">
        <ele>880.5</ele>
        <time>2019-02-23T09:08:10.395Z</time>
      </trkpt>
      <trkpt lat="40.773281" lon="-3.370004">
        <ele>880.2</ele>
        <time>2019-02-23T09:08:11.395Z</time>
      </trkpt>
      <trkpt lat="40.773134" lon="-3.370191">
        <ele>879.8</ele>
        <time>2019-02-23T09:08:15.395Z</time>
      </trkpt>
      <trkpt lat="40.772914" lon="-3.370464">
        <ele>879.8</ele>
        <time>2019-02-23T09:08:21.395Z</time>
      </trkpt>
      <trkpt lat="40.772877" lon="-3.370512">
        <ele>879.1</ele>
        <time>2019-02-23T09:08:22.395Z</time>
      </trkpt>
      <trkpt lat="40.772841" lon="-3.370560">
        <ele>878.8</ele>
        <time>2019-02-23T09:08:23.395Z</time>
      </trkpt>
      <trkpt lat="40.772806" lon="-3.370607">
        <ele>878.5</ele>
        <time>2019-02-23T09:08:24.395Z</time>
      </trkpt>
      <trkpt lat="40.772772" lon="-3.370651">
        <ele>878.0</ele>
        <time>2019-02-23T09:08:25.395Z</time>
      </trkpt>
      <trkpt lat="40.772483" lon="-3.371027">
        <ele>877.5</ele>
        <time>2019-02-23T09:08:33.395Z</time>
      </trkpt>
      <trkpt lat="40.772450" lon="-3.371078">
        <ele>877.0</ele>
        <time>2019-02-23T09:08:34.395Z</time>
      </trkpt>
      <trkpt lat="40.772418" lon="-3.371129">
        <ele>876.6</ele>
        <time>2019-02-23T09:08:35.395Z</time>
      </trkpt>
      <trkpt lat="40.772385" lon="-3.371176">
        <ele>876.1</ele>
        <time>2019-02-23T09:08:36.395Z</time>
      </trkpt>
      <trkpt lat="40.772354" lon="-3.371222">
        <ele>875.8</ele>
        <time>2019-02-23T09:08:37.395Z</time>
      </trkpt>
      <trkpt lat="40.772225" lon="-3.371460">
        <ele>875.5</ele>
        <time>2019-02-23T09:08:42.395Z</time>
      </trkpt>
      <trkpt lat="40.772160" lon="-3.371612">
        <ele>875.4</ele>
        <time>2019-02-23T09:08:45.395Z</time>
      </trkpt>
      <trkpt lat="40.772122" lon="-3.371715">
        <ele>874.8</ele>
        <time>2019-02-23T09:08:47.395Z</time>
      </trkpt>
      <trkpt lat="40.772108" lon="-3.371772">
        <ele>874.4</ele>
        <time>2019-02-23T09:08:48.395Z</time>
      </trkpt>
      <trkpt lat="40.772084" lon="-3.371828">
        <ele>874.1</ele>
        <time>2019-02-23T09:08:49.395Z</time>
      </trkpt>
      <trkpt lat="40.772067" lon="-3.371884">
        <ele>873.5</ele>
        <time>2019-02-23T09:08:50.395Z</time>
      </trkpt>
      <trkpt lat="40.772041" lon="-3.371941">
        <ele>873.0</ele>
        <time>2019-02-23T09:08:51.395Z</time>
      </trkpt>
      <trkpt lat="40.771857" lon="-3.372310">
        <ele>873.1</ele>
        <time>2019-02-23T09:08:58.395Z</time>
      </trkpt>
      <trkpt lat="40.771826" lon="-3.372360">
        <ele>872.6</ele>
        <time>2019-02-23T09:08:59.395Z</time>
      </trkpt>
      <trkpt lat="40.771801" lon="-3.372415">
        <ele>872.2</ele>
        <time>2019-02-23T09:09:00.395Z</time>
      </trkpt>
      <trkpt lat="40.771768" lon="-3.372467">
        <ele>871.9</ele>
        <time>2019-02-23T09:09:01.395Z</time>
      </trkpt>
      <trkpt lat="40.771744" lon="-3.372512">
        <ele>871.5</ele>
        <time>2019-02-23T09:09:02.395Z</time>
      </trkpt>
      <trkpt lat="40.771676" lon="-3.372709">
        <ele>871.0</ele>
        <time>2019-02-23T09:09:06.395Z</time>
      </trkpt>
      <trkpt lat="40.771628" lon="-3.372801">
        <ele>871.0</ele>
        <time>2019-02-23T09:09:08.395Z</time>
      </trkpt>
      <trkpt lat="40.771603" lon="-3.372854">
        <ele>870.4</ele>
        <time>2019-02-23T09:09:09.395Z</time>
      </trkpt>
      <trkpt lat="40.771583" lon="-3.372909">
        <ele>870.0</ele>
        <time>2019-02-23T09:09:10.395Z</time>
      </trkpt>
      <trkpt lat="40.771563" lon="-3.372966">
        <ele>869.4</ele>
        <time>2019-02-23T09:09:11.395Z</time>
      </trkpt>
      <trkpt lat="40.771543" lon="-3.373023">
        <ele>869.0</ele>
        <time>2019-02-23T09:09:12.395Z</time>
      </trkpt>
      <trkpt lat="40.771472" lon="-3.373191">
        <ele>868.4</ele>
        <time>2019-02-23T09:09:15.395Z</time>
      </trkpt>
      <trkpt lat="40.771451" lon="-3.373247">
        <ele>868.4</ele>
        <time>2019-02-23T09:09:16.395Z</time>
      </trkpt>
      <trkpt lat="40.771437" lon="-3.373302">
        <ele>868.0</ele>
        <time>2019-02-23T09:09:17.395Z</time>
      </trkpt>
      <trkpt lat="40.771423" lon="-3.373360">
        <ele>867.5</ele>
        <time>2019-02-23T09:09:18.395Z</time>
      </trkpt>
      <trkpt lat="40.771409" lon="-3.373419">
        <ele>867.2</ele>
        <time>2019-02-23T09:09:19.395Z</time>
      </trkpt>
      <trkpt lat="40.771402" lon="-3.373481">
        <ele>866.8</ele>
        <time>2019-02-23T09:09:20.395Z</time>
      </trkpt>
      <trkpt lat="40.771398" lon="-3.373540">
        <ele>866.5</ele>
        <time>2019-02-23T09:09:21.395Z</time>
      </trkpt>
      <trkpt lat="40.771396" lon="-3.373656">
        <ele>866.4</ele>
        <time>2019-02-23T09:09:23.395Z</time>
      </trkpt>
      <trkpt lat="40.771398" lon="-3.373717">
        <ele>866.0</ele>
        <time>2019-02-23T09:09:24.395Z</time>
      </trkpt>
      <trkpt lat="40.771398" lon="-3.373778">
        <ele>865.6</ele>
        <time>2019-02-23T09:09:25.395Z</time>
      </trkpt>
      <trkpt lat="40.771400" lon="-3.373841">
        <ele>865.1</ele>
        <time>2019-02-23T09:09:26.395Z</time>
      </trkpt>
      <trkpt lat="40.771402" lon="-3.373905">
        <ele>864.9</ele>
        <time>2019-02-23T09:09:27.395Z</time>
      </trkpt>
      <trkpt lat="40.771390" lon="-3.374015">
        <ele>864.5</ele>
        <time>2019-02-23T09:09:29.395Z</time>
      </trkpt>
      <trkpt lat="40.771326" lon="-3.374185">
        <ele>864.5</ele>
        <time>2019-02-23T09:09:32.395Z</time>
      </trkpt>
      <trkpt lat="40.771302" lon="-3.374245">
        <ele>864.4</ele>
        <time>2019-02-23T09:09:33.395Z</time>
      </trkpt>
      <trkpt lat="40.771251" lon="-3.374366">
        <ele>864.4</ele>
        <time>2019-02-23T09:09:35.395Z</time>
      </trkpt>
      <trkpt lat="40.771228" lon="-3.374425">
        <ele>864.0</ele>
        <time>2019-02-23T09:09:36.395Z</time>
      </trkpt>
      <trkpt lat="40.771205" lon="-3.374482">
        <ele>863.5</ele>
        <time>2019-02-23T09:09:37.395Z</time>
      </trkpt>
      <trkpt lat="40.771179" lon="-3.374537">
        <ele>863.2</ele>
        <time>2019-02-23T09:09:38.395Z</time>
      </trkpt>
      <trkpt lat="40.771154" lon="-3.374592">
        <ele>862.5</ele>
        <time>2019-02-23T09:09:39.395Z</time>
      </trkpt>
      <trkpt lat="40.771129" lon="-3.374648">
        <ele>862.1</ele>
        <time>2019-02-23T09:09:40.395Z</time>
      </trkpt>
      <trkpt lat="40.771059" lon="-3.374815">
        <ele>862.2</ele>
        <time>2019-02-23T09:09:43.395Z</time>
      </trkpt>
      <trkpt lat="40.771035" lon="-3.374869">
        <ele>861.9</ele>
        <time>2019-02-23T09:09:44.395Z</time>
      </trkpt>
      <trkpt lat="40.771011" lon="-3.374925">
        <ele>861.5</ele>
        <time>2019-02-23T09:09:45.395Z</time>
      </trkpt>
      <trkpt lat="40.770989" lon="-3.374979">
        <ele>860.9</ele>
        <time>2019-02-23T09:09:46.395Z</time>
      </trkpt>
      <trkpt lat="40.770964" lon="-3.375032">
        <ele>860.5</ele>
        <time>2019-02-23T09:09:47.395Z</time>
      </trkpt>
      <trkpt lat="40.770942" lon="-3.375086">
        <ele>860.1</ele>
        <time>2019-02-23T09:09:48.395Z</time>
      </trkpt>
      <trkpt lat="40.770772" lon="-3.375329">
        <ele>860.0</ele>
        <time>2019-02-23T09:09:53.395Z</time>
      </trkpt>
      <trkpt lat="40.770734" lon="-3.375374">
        <ele>859.6</ele>
        <time>2019-02-23T09:09:54.395Z</time>
      </trkpt>
      <trkpt lat="40.770693" lon="-3.375418">
        <ele>859.2</ele>
        <time>2019-02-23T09:09:55.395Z</time>
      </trkpt>
      <trkpt lat="40.770650" lon="-3.375461">
        <ele>858.6</ele>
        <time>2019-02-23T09:09:56.395Z</time>
      </trkpt>
      <trkpt lat="40.770611" lon="-3.375501">
        <ele>858.1</ele>
        <time>2019-02-23T09:09:57.395Z</time>
      </trkpt>
      <trkpt lat="40.770473" lon="-3.375623">
        <ele>857.8</ele>
        <time>2019-02-23T09:10:00.395Z</time>
      </trkpt>
      <trkpt lat="40.770427" lon="-3.375660">
        <ele>857.4</ele>
        <time>2019-02-23T09:10:01.395Z</time>
      </trkpt>
      <trkpt lat="40.770379" lon="-3.375697">
        <ele>857.1</ele>
        <time>2019-02-23T09:10:02.395Z</time>
      </trkpt>
      <trkpt lat="40.770340" lon="-3.375727">
        <ele>856.6</ele>
        <time>2019-02-23T09:10:03.395Z</time>
      </trkpt>
      <trkpt lat="40.770294" lon="-3.375758">
        <ele>856.2</ele>
        <time>2019-02-23T09:10:04.395Z</time>
      </trkpt>
      <trkpt lat="40.770160" lon="-3.375832">
        <ele>855.9</ele>
        <time>2019-02-23T09:10:07.395Z</time>
      </trkpt>
      <trkpt lat="40.770020" lon="-3.375925">
        <ele>855.9</ele>
        <time>2019-02-23T09:10:10.395Z</time>
      </trkpt>
      <trkpt lat="40.769985" lon="-3.375966">
        <ele>855.9</ele>
        <time>2019-02-23T09:10:11.395Z</time>
      </trkpt>
      <trkpt lat="40.769954" lon="-3.376011">
        <ele>855.2</ele>
        <time>2019-02-23T09:10:12.395Z</time>
      </trkpt>
      <trkpt lat="40.769925" lon="-3.376048">
        <ele>854.9</ele>
        <time>2019-02-23T09:10:13.395Z</time>
      </trkpt>
      <trkpt lat="40.769900" lon="-3.376092">
        <ele>854.5</ele>
        <time>2019-02-23T09:10:14.395Z</time>
      </trkpt>
      <trkpt lat="40.769870" lon="-3.376138">
        <ele>854.0</ele>
        <time>2019-02-23T09:10:15.395Z</time>
      </trkpt>
      <trkpt lat="40.769839" lon="-3.376179">
        <ele>853.4</ele>
        <time>2019-02-23T09:10:16.395Z</time>
      </trkpt>
      <trkpt lat="40.769754" lon="-3.376358">
        <ele>853.5</ele>
        <time>2019-02-23T09:10:20.395Z</time>
      </trkpt>
      <trkpt lat="40.769736" lon="-3.376416">
        <ele>853.0</ele>
        <time>2019-02-23T09:10:21.395Z</time>
      </trkpt>
      <trkpt lat="40.769713" lon="-3.376471">
        <ele>852.5</ele>
        <time>2019-02-23T09:10:22.395Z</time>
      </trkpt>
      <trkpt lat="40.769691" lon="-3.376526">
        <ele>852.2</ele>
        <time>2019-02-23T09:10:23.395Z</time>
      </trkpt>
      <trkpt lat="40.769669" lon="-3.376581">
        <ele>851.9</ele>
        <time>2019-02-23T09:10:24.395Z</time>
      </trkpt>
      <trkpt lat="40.769611" lon="-3.376677">
        <ele>851.4</ele>
        <time>2019-02-23T09:10:26.395Z</time>
      </trkpt>
      <trkpt lat="40.769582" lon="-3.376718">
        <ele>851.0</ele>
        <time>2019-02-23T09:10:27.395Z</time>
      </trkpt>
      <trkpt lat="40.769552" lon="-3.376758">
        <ele>850.5</ele>
        <time>2019-02-23T09:10:28.395Z</time>
      </trkpt>
      <trkpt lat="40.769522" lon="-3.376795">
        <ele>850.1</ele>
        <time>2019-02-23T09:10:29.395Z</time>
      </trkpt>
      <trkpt lat="40.769490" lon="-3.376831">
        <ele>849.5</ele>
        <time>2019-02-23T09:10:30.395Z</time>
      </trkpt>
      <trkpt lat="40.769340" lon="-3.376998">
        <ele>849.1</ele>
        <time>2019-02-23T09:10:35.395Z</time>
      </trkpt>
      <trkpt lat="40.769263" lon="-3.377117">
        <ele>849.1</ele>
        <time>2019-02-23T09:10:38.395Z</time>
      </trkpt>
      <trkpt lat="40.769241" lon="-3.377156">
        <ele>848.8</ele>
        <time>2019-02-23T09:10:39.395Z</time>
      </trkpt>
      <trkpt lat="40.769212" lon="-3.377199">
        <ele>848.5</ele>
        <time>2019-02-23T09:10:40.395Z</time>
      </trkpt>
      <trkpt lat="40.769185" lon="-3.377242">
        <ele>848.0</ele>
        <time>2019-02-23T09:10:41.395Z</time>
      </trkpt>
      <trkpt lat="40.769166" lon="-3.377288">
        <ele>847.6</ele>
        <time>2019-02-23T09:10:42.395Z</time>
      </trkpt>
      <trkpt lat="40.769115" lon="-3.377386">
        <ele>847.2</ele>
        <time>2019-02-23T09:10:44.395Z</time>
      </trkpt>
      <trkpt lat="40.769027" lon="-3.377594">
        <ele>847.2</ele>
        <time>2019-02-23T09:10:48.395Z</time>
      </trkpt>
      <trkpt lat="40.769004" lon="-3.377645">
        <ele>847.2</ele>
        <time>2019-02-23T09:10:49.395Z</time>
      </trkpt>
      <trkpt lat="40.768980" lon="-3.377698">
        <ele>846.6</ele>
        <time>2019-02-23T09:10:50.395Z</time>
      </trkpt>
      <trkpt lat="40.768939" lon="-3.377797">
        <ele>845.8</ele>
        <time>2019-02-23T09:10:52.395Z</time>
      </trkpt>
      <trkpt lat="40.768861" lon="-3.377994">
        <ele>844.9</ele>
        <time>2019-02-23T09:10:56.395Z</time>
      </trkpt>
      <trkpt lat="40.768815" lon="-3.378097">
        <ele>844.8</ele>
        <time>2019-02-23T09:10:58.395Z</time>
      </trkpt>
      <trkpt lat="40.768791" lon="-3.378148">
        <ele>844.4</ele>
        <time>2019-02-23T09:10:59.395Z</time>
      </trkpt>
      <trkpt lat="40.768769" lon="-3.378198">
        <ele>844.1</ele>
        <time>2019-02-23T09:11:00.395Z</time>
      </trkpt>
      <trkpt lat="40.768744" lon="-3.378252">
        <ele>843.5</ele>
        <time>2019-02-23T09:11:01.395Z</time>
      </trkpt>
      <trkpt lat="40.768692" lon="-3.378362">
        <ele>843.0</ele>
        <time>2019-02-23T09:11:03.395Z</time>
      </trkpt>
      <trkpt lat="40.768662" lon="-3.378423">
        <ele>842.5</ele>
        <time>2019-02-23T09:11:04.395Z</time>
      </trkpt>
      <trkpt lat="40.768568" lon="-3.378665">
        <ele>842.5</ele>
        <time>2019-02-23T09:11:08.395Z</time>
      </trkpt>
      <trkpt lat="40.768542" lon="-3.378726">
        <ele>842.0</ele>
        <time>2019-02-23T09:11:09.395Z</time>
      </trkpt>
      <trkpt lat="40.768513" lon="-3.378790">
        <ele>841.6</ele>
        <time>2019-02-23T09:11:10.395Z</time>
      </trkpt>
      <trkpt lat="40.768483" lon="-3.378854">
        <ele>841.2</ele>
        <time>2019-02-23T09:11:11.395Z</time>
      </trkpt>
      <trkpt lat="40.768455" lon="-3.378921">
        <ele>840.8</ele>
        <time>2019-02-23T09:11:12.395Z</time>
      </trkpt>
      <trkpt lat="40.768426" lon="-3.378991">
        <ele>840.4</ele>
        <time>2019-02-23T09:11:13.395Z</time>
      </trkpt>
      <trkpt lat="40.768210" lon="-3.379500">
        <ele>840.4</ele>
        <time>2019-02-23T09:11:20.395Z</time>
      </trkpt>
      <trkpt lat="40.768175" lon="-3.379571">
        <ele>840.4</ele>
        <time>2019-02-23T09:11:21.395Z</time>
      </trkpt>
      <trkpt lat="40.768002" lon="-3.379824">
        <ele>840.4</ele>
        <time>2019-02-23T09:11:25.395Z</time>
      </trkpt>
      <trkpt lat="40.767944" lon="-3.379870">
        <ele>840.4</ele>
        <time>2019-02-23T09:11:26.395Z</time>
      </trkpt>
      <trkpt lat="40.767529" lon="-3.379987">
        <ele>840.5</ele>
        <time>2019-02-23T09:11:32.395Z</time>
      </trkpt>
      <trkpt lat="40.767028" lon="-3.380039">
        <ele>840.4</ele>
        <time>2019-02-23T09:11:39.395Z</time>
      </trkpt>
      <trkpt lat="40.766580" lon="-3.380171">
        <ele>840.4</ele>
        <time>2019-02-23T09:11:46.395Z</time>
      </trkpt>
      <trkpt lat="40.766525" lon="-3.380189">
        <ele>839.9</ele>
        <time>2019-02-23T09:11:47.395Z</time>
      </trkpt>
      <trkpt lat="40.766473" lon="-3.380208">
        <ele>839.4</ele>
        <time>2019-02-23T09:11:48.395Z</time>
      </trkpt>
      <trkpt lat="40.766426" lon="-3.380227">
        <ele>839.0</ele>
        <time>2019-02-23T09:11:49.395Z</time>
      </trkpt>
      <trkpt lat="40.766377" lon="-3.380247">
        <ele>838.5</ele>
        <time>2019-02-23T09:11:50.395Z</time>
      </trkpt>
      <trkpt lat="40.766174" lon="-3.380315">
        <ele>838.1</ele>
        <time>2019-02-23T09:11:54.395Z</time>
      </trkpt>
      <trkpt lat="40.765962" lon="-3.380406">
        <ele>838.0</ele>
        <time>2019-02-23T09:11:59.395Z</time>
      </trkpt>
      <trkpt lat="40.765821" lon="-3.380446">
        <ele>838.0</ele>
        <time>2019-02-23T09:12:06.395Z</time>
      </trkpt>
      <trkpt lat="40.765765" lon="-3.380471">
        <ele>838.0</ele>
        <time>2019-02-23T09:12:11.395Z</time>
      </trkpt>
      <trkpt lat="40.765665" lon="-3.380499">
        <ele>838.1</ele>
        <time>2019-02-23T09:12:15.395Z</time>
      </trkpt>
      <trkpt lat="40.765552" lon="-3.380512">
        <ele>838.0</ele>
        <time>2019-02-23T09:12:17.395Z</time>
      </trkpt>
      <trkpt lat="40.765388" lon="-3.380514">
        <ele>838.0</ele>
        <time>2019-02-23T09:12:19.395Z</time>
      </trkpt>
      <trkpt lat="40.764876" lon="-3.380411">
        <ele>838.1</ele>
        <time>2019-02-23T09:12:25.395Z</time>
      </trkpt>
      <trkpt lat="40.764791" lon="-3.380394">
        <ele>838.1</ele>
        <time>2019-02-23T09:12:26.395Z</time>
      </trkpt>
      <trkpt lat="40.764226" lon="-3.380342">
        <ele>838.0</ele>
        <time>2019-02-23T09:12:33.395Z</time>
      </trkpt>
      <trkpt lat="40.763994" lon="-3.380353">
        <ele>838.1</ele>
        <time>2019-02-23T09:12:36.395Z</time>
      </trkpt>
      <trkpt lat="40.763924" lon="-3.380375">
        <ele>838.6</ele>
        <time>2019-02-23T09:12:37.395Z</time>
      </trkpt>
      <trkpt lat="40.763856" lon="-3.380411">
        <ele>839.1</ele>
        <time>2019-02-23T09:12:38.395Z</time>
      </trkpt>
      <trkpt lat="40.763796" lon="-3.380453">
        <ele>839.4</ele>
        <time>2019-02-23T09:12:39.395Z</time>
      </trkpt>
      <trkpt lat="40.763727" lon="-3.380499">
        <ele>840.0</ele>
        <time>2019-02-23T09:12:40.395Z</time>
      </trkpt>
      <trkpt lat="40.763549" lon="-3.380613">
        <ele>840.5</ele>
        <time>2019-02-23T09:12:42.395Z</time>
      </trkpt>
      <trkpt lat="40.763454" lon="-3.380672">
        <ele>841.2</ele>
        <time>2019-02-23T09:12:43.395Z</time>
      </trkpt>
      <trkpt lat="40.763357" lon="-3.380734">
        <ele>841.9</ele>
        <time>2019-02-23T09:12:44.395Z</time>
      </trkpt>
      <trkpt lat="40.763252" lon="-3.380800">
        <ele>842.5</ele>
        <time>2019-02-23T09:12:45.395Z</time>
      </trkpt>
      <trkpt lat="40.763149" lon="-3.380868">
        <ele>843.2</ele>
        <time>2019-02-23T09:12:46.395Z</time>
      </trkpt>
      <trkpt lat="40.763048" lon="-3.380934">
        <ele>844.0</ele>
        <time>2019-02-23T09:12:47.395Z</time>
      </trkpt>
      <trkpt lat="40.762947" lon="-3.381001">
        <ele>844.9</ele>
        <time>2019-02-23T09:12:48.395Z</time>
      </trkpt>
      <trkpt lat="40.762848" lon="-3.381067">
        <ele>845.4</ele>
        <time>2019-02-23T09:12:49.395Z</time>
      </trkpt>
      <trkpt lat="40.762750" lon="-3.381135">
        <ele>846.2</ele>
        <time>2019-02-23T09:12:50.395Z</time>
      </trkpt>
      <trkpt lat="40.762660" lon="-3.381196">
        <ele>846.9</ele>
        <time>2019-02-23T09:12:51.395Z</time>
      </trkpt>
      <trkpt lat="40.762565" lon="-3.381257">
        <ele>847.4</ele>
        <time>2019-02-23T09:12:52.395Z</time>
      </trkpt>
      <trkpt lat="40.762477" lon="-3.381315">
        <ele>848.1</ele>
        <time>2019-02-23T09:12:53.395Z</time>
      </trkpt>
      <trkpt lat="40.762389" lon="-3.381371">
        <ele>848.9</ele>
        <time>2019-02-23T09:12:54.395Z</time>
      </trkpt>
      <trkpt lat="40.762302" lon="-3.381429">
        <ele>849.5</ele>
        <time>2019-02-23T09:12:55.395Z</time>
      </trkpt>
      <trkpt lat="40.762212" lon="-3.381488">
        <ele>850.4</ele>
        <time>2019-02-23T09:12:56.395Z</time>
      </trkpt>
      <trkpt lat="40.762118" lon="-3.381550">
        <ele>851.2</ele>
        <time>2019-02-23T09:12:57.395Z</time>
      </trkpt>
      <trkpt lat="40.762017" lon="-3.381616">
        <ele>852.0</ele>
        <time>2019-02-23T09:12:58.395Z</time>
      </trkpt>
      <trkpt lat="40.761915" lon="-3.381684">
        <ele>852.8</ele>
        <time>2019-02-23T09:12:59.395Z</time>
      </trkpt>
      <trkpt lat="40.761811" lon="-3.381754">
        <ele>853.6</ele>
        <time>2019-02-23T09:13:00.395Z</time>
      </trkpt>
      <trkpt lat="40.761705" lon="-3.381825">
        <ele>854.2</ele>
        <time>2019-02-23T09:13:01.395Z</time>
      </trkpt>
      <trkpt lat="40.761601" lon="-3.381893">
        <ele>854.8</ele>
        <time>2019-02-23T09:13:02.395Z</time>
      </trkpt>
      <trkpt lat="40.761500" lon="-3.381960">
        <ele>855.4</ele>
        <time>2019-02-23T09:13:03.395Z</time>
      </trkpt>
      <trkpt lat="40.761403" lon="-3.382025">
        <ele>856.0</ele>
        <time>2019-02-23T09:13:04.395Z</time>
      </trkpt>
      <trkpt lat="40.761304" lon="-3.382089">
        <ele>856.4</ele>
        <time>2019-02-23T09:13:05.395Z</time>
      </trkpt>
      <trkpt lat="40.761205" lon="-3.382151">
        <ele>857.1</ele>
        <time>2019-02-23T09:13:06.395Z</time>
      </trkpt>
      <trkpt lat="40.761107" lon="-3.382213">
        <ele>857.6</ele>
        <time>2019-02-23T09:13:07.395Z</time>
      </trkpt>
      <trkpt lat="40.761011" lon="-3.382276">
        <ele>858.4</ele>
        <time>2019-02-23T09:13:08.395Z</time>
      </trkpt>
      <trkpt lat="40.760919" lon="-3.382340">
        <ele>859.1</ele>
        <time>2019-02-23T09:13:09.395Z</time>
      </trkpt>
      <trkpt lat="40.760829" lon="-3.382406">
        <ele>859.9</ele>
        <time>2019-02-23T09:13:10.395Z</time>
      </trkpt>
      <trkpt lat="40.760740" lon="-3.382472">
        <ele>860.5</ele>
        <time>2019-02-23T09:13:11.395Z</time>
      </trkpt>
      <trkpt lat="40.760655" lon="-3.382532">
        <ele>861.0</ele>
        <time>2019-02-23T09:13:12.395Z</time>
      </trkpt>
      <trkpt lat="40.760567" lon="-3.382593">
        <ele>861.5</ele>
        <time>2019-02-23T09:13:13.395Z</time>
      </trkpt>
      <trkpt lat="40.760484" lon="-3.382652">
        <ele>862.0</ele>
        <time>2019-02-23T09:13:14.395Z</time>
      </trkpt>
      <trkpt lat="40.760402" lon="-3.382710">
        <ele>862.4</ele>
        <time>2019-02-23T09:13:15.395Z</time>
      </trkpt>
      <trkpt lat="40.760319" lon="-3.382770">
        <ele>863.0</ele>
        <time>2019-02-23T09:13:16.395Z</time>
      </trkpt>
      <trkpt lat="40.760232" lon="-3.382832">
        <ele>863.4</ele>
        <time>2019-02-23T09:13:17.395Z</time>
      </trkpt>
      <trkpt lat="40.760141" lon="-3.382896">
        <ele>863.8</ele>
        <time>2019-02-23T09:13:18.395Z</time>
      </trkpt>
      <trkpt lat="40.760048" lon="-3.382959">
        <ele>864.2</ele>
        <time>2019-02-23T09:13:19.395Z</time>
      </trkpt>
      <trkpt lat="40.759957" lon="-3.383020">
        <ele>865.0</ele>
        <time>2019-02-23T09:13:20.395Z</time>
      </trkpt>
      <trkpt lat="40.759866" lon="-3.383080">
        <ele>865.6</ele>
        <time>2019-02-23T09:13:21.395Z</time>
      </trkpt>
      <trkpt lat="40.759778" lon="-3.383137">
        <ele>866.1</ele>
        <time>2019-02-23T09:13:22.395Z</time>
      </trkpt>
      <trkpt lat="40.759690" lon="-3.383194">
        <ele>867.1</ele>
        <time>2019-02-23T09:13:23.395Z</time>
      </trkpt>
      <trkpt lat="40.759602" lon="-3.383251">
        <ele>867.6</ele>
        <time>2019-02-23T09:13:24.395Z</time>
      </trkpt>
      <trkpt lat="40.759515" lon="-3.383307">
        <ele>868.0</ele>
        <time>2019-02-23T09:13:25.395Z</time>
      </trkpt>
      <trkpt lat="40.759432" lon="-3.383360">
        <ele>868.5</ele>
        <time>2019-02-23T09:13:26.395Z</time>
      </trkpt>
      <trkpt lat="40.759266" lon="-3.383466">
        <ele>868.8</ele>
        <time>2019-02-23T09:13:28.395Z</time>
      </trkpt>
      <trkpt lat="40.759104" lon="-3.383572">
        <ele>868.8</ele>
        <time>2019-02-23T09:13:30.395Z</time>
      </trkpt>
      <trkpt lat="40.758891" lon="-3.383724">
        <ele>868.8</ele>
        <time>2019-02-23T09:13:33.395Z</time>
      </trkpt>
      <trkpt lat="40.758771" lon="-3.383843">
        <ele>868.8</ele>
        <time>2019-02-23T09:13:35.395Z</time>
      </trkpt>
      <trkpt lat="40.758631" lon="-3.384068">
        <ele>868.9</ele>
        <time>2019-02-23T09:13:38.395Z</time>
      </trkpt>
      <trkpt lat="40.758585" lon="-3.384151">
        <ele>868.9</ele>
        <time>2019-02-23T09:13:39.395Z</time>
      </trkpt>
      <trkpt lat="40.758404" lon="-3.384890">
        <ele>868.9</ele>
        <time>2019-02-23T09:13:47.395Z</time>
      </trkpt>
      <trkpt lat="40.758338" lon="-3.385265">
        <ele>868.8</ele>
        <time>2019-02-23T09:13:51.395Z</time>
      </trkpt>
      <trkpt lat="40.758323" lon="-3.385361">
        <ele>868.5</ele>
        <time>2019-02-23T09:13:52.395Z</time>
      </trkpt>
      <trkpt lat="40.758307" lon="-3.385461">
        <ele>868.1</ele>
        <time>2019-02-23T09:13:53.395Z</time>
      </trkpt>
      <trkpt lat="40.758291" lon="-3.385556">
        <ele>867.6</ele>
        <time>2019-02-23T09:13:54.395Z</time>
      </trkpt>
      <trkpt lat="40.758274" lon="-3.385658">
        <ele>867.2</ele>
        <time>2019-02-23T09:13:55.395Z</time>
      </trkpt>
      <trkpt lat="40.758187" lon="-3.386178">
        <ele>866.9</ele>
        <time>2019-02-23T09:14:00.395Z</time>
      </trkpt>
      <trkpt lat="40.758085" lon="-3.386793">
        <ele>866.8</ele>
        <time>2019-02-23T09:14:06.395Z</time>
      </trkpt>
      <trkpt lat="40.757968" lon="-3.387494">
        <ele>866.8</ele>
        <time>2019-02-23T09:14:13.395Z</time>
      </trkpt>
      <trkpt lat="40.757948" lon="-3.387593">
        <ele>866.9</ele>
        <time>2019-02-23T09:14:14.395Z</time>
      </trkpt>
      <trkpt lat="40.757827" lon="-3.388317">
        <ele>866.8</ele>
        <time>2019-02-23T09:14:22.395Z</time>
      </trkpt>
      <trkpt lat="40.757700" lon="-3.388994">
        <ele>866.9</ele>
        <time>2019-02-23T09:14:30.395Z</time>
      </trkpt>
      <trkpt lat="40.757593" lon="-3.389608">
        <ele>866.9</ele>
        <time>2019-02-23T09:14:37.395Z</time>
      </trkpt>
      <trkpt lat="40.757564" lon="-3.389772">
        <ele>866.8</ele>
        <time>2019-02-23T09:14:39.395Z</time>
      </trkpt>
      <trkpt lat="40.757552" lon="-3.389853">
        <ele>866.5</ele>
        <time>2019-02-23T09:14:40.395Z</time>
      </trkpt>
      <trkpt lat="40.757538" lon="-3.389935">
        <ele>866.0</ele>
        <time>2019-02-23T09:14:41.395Z</time>
      </trkpt>
      <trkpt lat="40.757523" lon="-3.390019">
        <ele>865.6</ele>
        <time>2019-02-23T09:14:42.395Z</time>
      </trkpt>
      <trkpt lat="40.757509" lon="-3.390103">
        <ele>865.1</ele>
        <time>2019-02-23T09:14:43.395Z</time>
      </trkpt>
      <trkpt lat="40.757451" lon="-3.390434">
        <ele>864.8</ele>
        <time>2019-02-23T09:14:47.395Z</time>
      </trkpt>
      <trkpt lat="40.757438" lon="-3.390514">
        <ele>864.8</ele>
        <time>2019-02-23T09:14:48.395Z</time>
      </trkpt>
      <trkpt lat="40.757321" lon="-3.391250">
        <ele>864.8</ele>
        <time>2019-02-23T09:14:57.395Z</time>
      </trkpt>
      <trkpt lat="40.757305" lon="-3.391338">
        <ele>864.9</ele>
        <time>2019-02-23T09:14:58.395Z</time>
      </trkpt>
      <trkpt lat="40.757186" lon="-3.392052">
        <ele>864.9</ele>
        <time>2019-02-23T09:15:06.395Z</time>
      </trkpt>
      <trkpt lat="40.757092" lon="-3.392614">
        <ele>864.9</ele>
        <time>2019-02-23T09:15:12.395Z</time>
      </trkpt>
      <trkpt lat="40.757041" lon="-3.392906">
        <ele>864.8</ele>
        <time>2019-02-23T09:15:15.395Z</time>
      </trkpt>
      <trkpt lat="40.756912" lon="-3.393635">
        <ele>864.9</ele>
        <time>2019-02-23T09:15:23.395Z</time>
      </trkpt>
      <trkpt lat="40.756796" lon="-3.394327">
        <ele>864.9</ele>
        <time>2019-02-23T09:15:31.395Z</time>
      </trkpt>
      <trkpt lat="40.756737" lon="-3.394674">
        <ele>864.9</ele>
        <time>2019-02-23T09:15:35.395Z</time>
      </trkpt>
      <trkpt lat="40.756612" lon="-3.395422">
        <ele>864.8</ele>
        <time>2019-02-23T09:15:43.395Z</time>
      </trkpt>
      <trkpt lat="40.756567" lon="-3.395690">
        <ele>864.9</ele>
        <time>2019-02-23T09:15:46.395Z</time>
      </trkpt>
      <trkpt lat="40.756440" lon="-3.396448">
        <ele>864.8</ele>
        <time>2019-02-23T09:15:55.395Z</time>
      </trkpt>
      <trkpt lat="40.756397" lon="-3.396709">
        <ele>864.8</ele>
        <time>2019-02-23T09:15:58.395Z</time>
      </trkpt>
      <trkpt lat="40.756281" lon="-3.397412">
        <ele>864.8</ele>
        <time>2019-02-23T09:16:06.395Z</time>
      </trkpt>
      <trkpt lat="40.756211" lon="-3.397825">
        <ele>864.9</ele>
        <time>2019-02-23T09:16:11.395Z</time>
      </trkpt>
      <trkpt lat="40.756198" lon="-3.397901">
        <ele>864.2</ele>
        <time>2019-02-23T09:16:12.395Z</time>
      </trkpt>
      <trkpt lat="40.756184" lon="-3.397979">
        <ele>863.8</ele>
        <time>2019-02-23T09:16:13.395Z</time>
      </trkpt>
      <trkpt lat="40.756171" lon="-3.398053">
        <ele>863.5</ele>
        <time>2019-02-23T09:16:14.395Z</time>
      </trkpt>
      <trkpt lat="40.756158" lon="-3.398127">
        <ele>862.8</ele>
        <time>2019-02-23T09:16:15.395Z</time>
      </trkpt>
      <trkpt lat="40.756052" lon="-3.398749">
        <ele>862.5</ele>
        <time>2019-02-23T09:16:23.395Z</time>
      </trkpt>
      <trkpt lat="40.756038" lon="-3.398828">
        <ele>862.4</ele>
        <time>2019-02-23T09:16:24.395Z</time>
      </trkpt>
      <trkpt lat="40.755918" lon="-3.399537">
        <ele>862.5</ele>
        <time>2019-02-23T09:16:33.395Z</time>
      </trkpt>
      <trkpt lat="40.755804" lon="-3.400248">
        <ele>862.5</ele>
        <time>2019-02-23T09:16:42.395Z</time>
      </trkpt>
      <trkpt lat="40.755791" lon="-3.400323">
        <ele>862.0</ele>
        <time>2019-02-23T09:16:43.395Z</time>
      </trkpt>
      <trkpt lat="40.755778" lon="-3.400400">
        <ele>861.5</ele>
        <time>2019-02-23T09:16:44.395Z</time>
      </trkpt>
      <trkpt lat="40.755766" lon="-3.400475">
        <ele>861.1</ele>
        <time>2019-02-23T09:16:45.395Z</time>
      </trkpt>
      <trkpt lat="40.755754" lon="-3.400549">
        <ele>860.5</ele>
        <time>2019-02-23T09:16:46.395Z</time>
      </trkpt>
      <trkpt lat="40.755731" lon="-3.400704">
        <ele>860.2</ele>
        <time>2019-02-23T09:16:48.395Z</time>
      </trkpt>
      <trkpt lat="40.755718" lon="-3.400792">
        <ele>860.2</ele>
        <time>2019-02-23T09:16:49.395Z</time>
      </trkpt>
      <trkpt lat="40.755600" lon="-3.401516">
        <ele>860.1</ele>
        <time>2019-02-23T09:16:58.395Z</time>
      </trkpt>
      <trkpt lat="40.755548" lon="-3.401829">
        <ele>860.2</ele>
        <time>2019-02-23T09:17:02.395Z</time>
      </trkpt>
      <trkpt lat="40.755511" lon="-3.402053">
        <ele>860.2</ele>
        <time>2019-02-23T09:17:05.395Z</time>
      </trkpt>
      <trkpt lat="40.755499" lon="-3.402124">
        <ele>859.9</ele>
        <time>2019-02-23T09:17:06.395Z</time>
      </trkpt>
      <trkpt lat="40.755487" lon="-3.402195">
        <ele>859.4</ele>
        <time>2019-02-23T09:17:07.395Z</time>
      </trkpt>
      <trkpt lat="40.755475" lon="-3.402269">
        <ele>859.1</ele>
        <time>2019-02-23T09:17:08.395Z</time>
      </trkpt>
      <trkpt lat="40.755463" lon="-3.402346">
        <ele>858.5</ele>
        <time>2019-02-23T09:17:09.395Z</time>
      </trkpt>
      <trkpt lat="40.755352" lon="-3.403065">
        <ele>858.1</ele>
        <time>2019-02-23T09:17:18.395Z</time>
      </trkpt>
      <trkpt lat="40.755261" lon="-3.403570">
        <ele>858.1</ele>
        <time>2019-02-23T09:17:24.395Z</time>
      </trkpt>
      <trkpt lat="40.755216" lon="-3.403713">
        <ele>858.1</ele>
        <time>2019-02-23T09:17:26.395Z</time>
      </trkpt>
      <trkpt lat="40.755181" lon="-3.403844">
        <ele>858.2</ele>
        <time>2019-02-23T09:17:28.395Z</time>
      </trkpt>
      <trkpt lat="40.755170" lon="-3.403921">
        <ele>857.8</ele>
        <time>2019-02-23T09:17:29.395Z</time>
      </trkpt>
      <trkpt lat="40.755156" lon="-3.403997">
        <ele>857.5</ele>
        <time>2019-02-23T09:17:30.395Z</time>
      </trkpt>
      <trkpt lat="40.755139" lon="-3.404077">
        <ele>857.0</ele>
        <time>2019-02-23T09:17:31.395Z</time>
      </trkpt>
      <trkpt lat="40.755125" lon="-3.404163">
        <ele>856.5</ele>
        <time>2019-02-23T09:17:32.395Z</time>
      </trkpt>
      <trkpt lat="40.755110" lon="-3.404247">
        <ele>856.1</ele>
        <time>2019-02-23T09:17:33.395Z</time>
      </trkpt>
      <trkpt lat="40.755002" lon="-3.404972">
        <ele>856.2</ele>
        <time>2019-02-23T09:17:41.395Z</time>
      </trkpt>
      <trkpt lat="40.754957" lon="-3.405251">
        <ele>856.2</ele>
        <time>2019-02-23T09:17:44.395Z</time>
      </trkpt>
      <trkpt lat="40.754830" lon="-3.406017">
        <ele>856.1</ele>
        <time>2019-02-23T09:17:52.395Z</time>
      </trkpt>
      <trkpt lat="40.754800" lon="-3.406213">
        <ele>856.1</ele>
        <time>2019-02-23T09:17:54.395Z</time>
      </trkpt>
      <trkpt lat="40.754783" lon="-3.406311">
        <ele>856.5</ele>
        <time>2019-02-23T09:17:55.395Z</time>
      </trkpt>
      <trkpt lat="40.754765" lon="-3.406419">
        <ele>857.0</ele>
        <time>2019-02-23T09:17:56.395Z</time>
      </trkpt>
      <trkpt lat="40.754746" lon="-3.406522">
        <ele>857.4</ele>
        <time>2019-02-23T09:17:57.395Z</time>
      </trkpt>
      <trkpt lat="40.754727" lon="-3.406630">
        <ele>857.8</ele>
        <time>2019-02-23T09:17:58.395Z</time>
      </trkpt>
      <trkpt lat="40.754708" lon="-3.406743">
        <ele>858.5</ele>
        <time>2019-02-23T09:17:59.395Z</time>
      </trkpt>
      <trkpt lat="40.754644" lon="-3.407087">
        <ele>858.4</ele>
        <time>2019-02-23T09:18:02.395Z</time>
      </trkpt>
      <trkpt lat="40.754521" lon="-3.407845">
        <ele>858.4</ele>
        <time>2019-02-23T09:18:09.395Z</time>
      </trkpt>
      <trkpt lat="40.754427" lon="-3.408383">
        <ele>858.4</ele>
        <time>2019-02-23T09:18:14.395Z</time>
      </trkpt>
      <trkpt lat="40.754410" lon="-3.408491">
        <ele>857.9</ele>
        <time>2019-02-23T09:18:15.395Z</time>
      </trkpt>
      <trkpt lat="40.754393" lon="-3.408596">
        <ele>857.5</ele>
        <time>2019-02-23T09:18:16.395Z</time>
      </trkpt>
      <trkpt lat="40.754376" lon="-3.408698">
        <ele>857.0</ele>
        <time>2019-02-23T09:18:17.395Z</time>
      </trkpt>
      <trkpt lat="40.754360" lon="-3.408798">
        <ele>856.5</ele>
        <time>2019-02-23T09:18:18.395Z</time>
      </trkpt>
      <trkpt lat="40.754324" lon="-3.409010">
        <ele>856.1</ele>
        <time>2019-02-23T09:18:20.395Z</time>
      </trkpt>
      <trkpt lat="40.754257" lon="-3.409429">
        <ele>856.2</ele>
        <time>2019-02-23T09:18:24.395Z</time>
      </trkpt>
      <trkpt lat="40.754144" lon="-3.410143">
        <ele>856.2</ele>
        <time>2019-02-23T09:18:31.395Z</time>
      </trkpt>
      <trkpt lat="40.754081" lon="-3.410549">
        <ele>856.2</ele>
        <time>2019-02-23T09:18:35.395Z</time>
      </trkpt>
      <trkpt lat="40.754064" lon="-3.410649">
        <ele>855.8</ele>
        <time>2019-02-23T09:18:36.395Z</time>
      </trkpt>
      <trkpt lat="40.754047" lon="-3.410749">
        <ele>855.5</ele>
        <time>2019-02-23T09:18:37.395Z</time>
      </trkpt>
      <trkpt lat="40.754029" lon="-3.410849">
        <ele>855.1</ele>
        <time>2019-02-23T09:18:38.395Z</time>
      </trkpt>
      <trkpt lat="40.754017" lon="-3.410944">
        <ele>854.5</ele>
        <time>2019-02-23T09:18:39.395Z</time>
      </trkpt>
      <trkpt lat="40.753993" lon="-3.411141">
        <ele>854.0</ele>
        <time>2019-02-23T09:18:41.395Z</time>
      </trkpt>
      <trkpt lat="40.753947" lon="-3.411339">
        <ele>854.1</ele>
        <time>2019-02-23T09:18:43.395Z</time>
      </trkpt>
      <trkpt lat="40.753918" lon="-3.411436">
        <ele>854.0</ele>
        <time>2019-02-23T09:18:44.395Z</time>
      </trkpt>
      <trkpt lat="40.753850" lon="-3.411608">
        <ele>854.0</ele>
        <time>2019-02-23T09:18:46.395Z</time>
      </trkpt>
      <trkpt lat="40.753802" lon="-3.411680">
        <ele>853.5</ele>
        <time>2019-02-23T09:18:47.395Z</time>
      </trkpt>
      <trkpt lat="40.753750" lon="-3.411747">
        <ele>853.2</ele>
        <time>2019-02-23T09:18:48.395Z</time>
      </trkpt>
      <trkpt lat="40.753694" lon="-3.411810">
        <ele>852.8</ele>
        <time>2019-02-23T09:18:49.395Z</time>
      </trkpt>
      <trkpt lat="40.753630" lon="-3.411870">
        <ele>852.5</ele>
        <time>2019-02-23T09:18:50.395Z</time>
      </trkpt>
      <trkpt lat="40.753375" lon="-3.412101">
        <ele>852.0</ele>
        <time>2019-02-23T09:18:54.395Z</time>
      </trkpt>
      <trkpt lat="40.752915" lon="-3.412503">
        <ele>852.0</ele>
        <time>2019-02-23T09:19:01.395Z</time>
      </trkpt>
      <trkpt lat="40.752508" lon="-3.412856">
        <ele>852.1</ele>
        <time>2019-02-23T09:19:07.395Z</time>
      </trkpt>
      <trkpt lat="40.751978" lon="-3.413212">
        <ele>852.1</ele>
        <time>2019-02-23T09:19:15.395Z</time>
      </trkpt>
      <trkpt lat="40.751834" lon="-3.413247">
        <ele>852.1</ele>
        <time>2019-02-23T09:19:17.395Z</time>
      </trkpt>
      <trkpt lat="40.751259" lon="-3.413299">
        <ele>852.1</ele>
        <time>2019-02-23T09:19:25.395Z</time>
      </trkpt>
      <trkpt lat="40.751183" lon="-3.413304">
        <ele>852.0</ele>
        <time>2019-02-23T09:19:26.395Z</time>
      </trkpt>
      <trkpt lat="40.750639" lon="-3.413310">
        <ele>852.0</ele>
        <time>2019-02-23T09:19:33.395Z</time>
      </trkpt>
      <trkpt lat="40.750562" lon="-3.413309">
        <ele>851.5</ele>
        <time>2019-02-23T09:19:34.395Z</time>
      </trkpt>
      <trkpt lat="40.750484" lon="-3.413309">
        <ele>851.1</ele>
        <time>2019-02-23T09:19:35.395Z</time>
      </trkpt>
      <trkpt lat="40.750404" lon="-3.413307">
        <ele>850.4</ele>
        <time>2019-02-23T09:19:36.395Z</time>
      </trkpt>
      <trkpt lat="40.750327" lon="-3.413306">
        <ele>850.1</ele>
        <time>2019-02-23T09:19:37.395Z</time>
      </trkpt>
      <trkpt lat="40.749756" lon="-3.413293">
        <ele>850.0</ele>
        <time>2019-02-23T09:19:44.395Z</time>
      </trkpt>
      <trkpt lat="40.749201" lon="-3.413286">
        <ele>850.1</ele>
        <time>2019-02-23T09:19:51.395Z</time>
      </trkpt>
      <trkpt lat="40.748686" lon="-3.413307">
        <ele>850.1</ele>
        <time>2019-02-23T09:19:58.395Z</time>
      </trkpt>
      <trkpt lat="40.748141" lon="-3.413326">
        <ele>850.0</ele>
        <time>2019-02-23T09:20:05.395Z</time>
      </trkpt>
      <trkpt lat="40.748066" lon="-3.413327">
        <ele>849.6</ele>
        <time>2019-02-23T09:20:06.395Z</time>
      </trkpt>
      <trkpt lat="40.747991" lon="-3.413330">
        <ele>849.1</ele>
        <time>2019-02-23T09:20:07.395Z</time>
      </trkpt>
      <trkpt lat="40.747845" lon="-3.413335">
        <ele>848.6</ele>
        <time>2019-02-23T09:20:09.395Z</time>
      </trkpt>
      <trkpt lat="40.747770" lon="-3.413337">
        <ele>848.1</ele>
        <time>2019-02-23T09:20:10.395Z</time>
      </trkpt>
      <trkpt lat="40.747305" lon="-3.413349">
        <ele>847.8</ele>
        <time>2019-02-23T09:20:16.395Z</time>
      </trkpt>
      <trkpt lat="40.746978" lon="-3.413348">
        <ele>847.8</ele>
        <time>2019-02-23T09:20:20.395Z</time>
      </trkpt>
      <trkpt lat="40.746418" lon="-3.413325">
        <ele>847.9</ele>
        <time>2019-02-23T09:20:27.395Z</time>
      </trkpt>
      <trkpt lat="40.746259" lon="-3.413318">
        <ele>847.9</ele>
        <time>2019-02-23T09:20:29.395Z</time>
      </trkpt>
      <trkpt lat="40.745921" lon="-3.413344">
        <ele>847.9</ele>
        <time>2019-02-23T09:20:33.395Z</time>
      </trkpt>
      <trkpt lat="40.745437" lon="-3.413472">
        <ele>847.9</ele>
        <time>2019-02-23T09:20:39.395Z</time>
      </trkpt>
      <trkpt lat="40.744905" lon="-3.413626">
        <ele>847.9</ele>
        <time>2019-02-23T09:20:46.395Z</time>
      </trkpt>
      <trkpt lat="40.744824" lon="-3.413649">
        <ele>847.8</ele>
        <time>2019-02-23T09:20:47.395Z</time>
      </trkpt>
      <trkpt lat="40.744273" lon="-3.413808">
        <ele>847.9</ele>
        <time>2019-02-23T09:20:54.395Z</time>
      </trkpt>
      <trkpt lat="40.744049" lon="-3.413909">
        <ele>847.9</ele>
        <time>2019-02-23T09:20:57.395Z</time>
      </trkpt>
      <trkpt lat="40.743567" lon="-3.414263">
        <ele>847.8</ele>
        <time>2019-02-23T09:21:04.395Z</time>
      </trkpt>
      <trkpt lat="40.743501" lon="-3.414316">
        <ele>847.8</ele>
        <time>2019-02-23T09:21:05.395Z</time>
      </trkpt>
      <trkpt lat="40.743022" lon="-3.414712">
        <ele>847.8</ele>
        <time>2019-02-23T09:21:12.395Z</time>
      </trkpt>
      <trkpt lat="40.742530" lon="-3.415110">
        <ele>847.9</ele>
        <time>2019-02-23T09:21:19.395Z</time>
      </trkpt>
      <trkpt lat="40.741963" lon="-3.415353">
        <ele>847.9</ele>
        <time>2019-02-23T09:21:26.395Z</time>
      </trkpt>
      <trkpt lat="40.741803" lon="-3.415403">
        <ele>847.8</ele>
        <time>2019-02-23T09:21:28.395Z</time>
      </trkpt>
      <trkpt lat="40.741254" lon="-3.415561">
        <ele>847.9</ele>
        <time>2019-02-23T09:21:35.395Z</time>
      </trkpt>
      <trkpt lat="40.741089" lon="-3.415603">
        <ele>847.8</ele>
        <time>2019-02-23T09:21:37.395Z</time>
      </trkpt>
      <trkpt lat="40.740520" lon="-3.415670">
        <ele>847.8</ele>
        <time>2019-02-23T09:21:44.395Z</time>
      </trkpt>
      <trkpt lat="40.740121" lon="-3.415688">
        <ele>847.9</ele>
        <time>2019-02-23T09:21:49.395Z</time>
      </trkpt>
      <trkpt lat="40.739535" lon="-3.415707">
        <ele>847.9</ele>
        <time>2019-02-23T09:21:56.395Z</time>
      </trkpt>
      <trkpt lat="40.739455" lon="-3.415711">
        <ele>847.5</ele>
        <time>2019-02-23T09:21:57.395Z</time>
      </trkpt>
      <trkpt lat="40.739375" lon="-3.415714">
        <ele>846.8</ele>
        <time>2019-02-23T09:21:58.395Z</time>
      </trkpt>
      <trkpt lat="40.739296" lon="-3.415717">
        <ele>846.4</ele>
        <time>2019-02-23T09:21:59.395Z</time>
      </trkpt>
      <trkpt lat="40.739218" lon="-3.415719">
        <ele>846.0</ele>
        <time>2019-02-23T09:22:00.395Z</time>
      </trkpt>
      <trkpt lat="40.738767" lon="-3.415740">
        <ele>845.5</ele>
        <time>2019-02-23T09:22:06.395Z</time>
      </trkpt>
      <trkpt lat="40.738251" lon="-3.415761">
        <ele>845.6</ele>
        <time>2019-02-23T09:22:13.395Z</time>
      </trkpt>
      <trkpt lat="40.738017" lon="-3.415760">
        <ele>845.6</ele>
        <time>2019-02-23T09:22:16.395Z</time>
      </trkpt>
      <trkpt lat="40.737462" lon="-3.415758">
        <ele>845.5</ele>
        <time>2019-02-23T09:22:23.395Z</time>
      </trkpt>
      <trkpt lat="40.737379" lon="-3.415757">
        <ele>845.2</ele>
        <time>2019-02-23T09:22:24.395Z</time>
      </trkpt>
      <trkpt lat="40.737298" lon="-3.415758">
        <ele>844.8</ele>
        <time>2019-02-23T09:22:25.395Z</time>
      </trkpt>
      <trkpt lat="40.737212" lon="-3.415756">
        <ele>844.5</ele>
        <time>2019-02-23T09:22:26.395Z</time>
      </trkpt>
      <trkpt lat="40.737129" lon="-3.415753">
        <ele>844.0</ele>
        <time>2019-02-23T09:22:27.395Z</time>
      </trkpt>
      <trkpt lat="40.736540" lon="-3.415744">
        <ele>843.6</ele>
        <time>2019-02-23T09:22:34.395Z</time>
      </trkpt>
      <trkpt lat="40.736202" lon="-3.415744">
        <ele>843.6</ele>
        <time>2019-02-23T09:22:38.395Z</time>
      </trkpt>
      <trkpt lat="40.735612" lon="-3.415740">
        <ele>843.5</ele>
        <time>2019-02-23T09:22:45.395Z</time>
      </trkpt>
      <trkpt lat="40.735359" lon="-3.415734">
        <ele>843.5</ele>
        <time>2019-02-23T09:22:48.395Z</time>
      </trkpt>
      <trkpt lat="40.734769" lon="-3.415691">
        <ele>843.6</ele>
        <time>2019-02-23T09:22:55.395Z</time>
      </trkpt>
      <trkpt lat="40.734603" lon="-3.415672">
        <ele>843.6</ele>
        <time>2019-02-23T09:22:57.395Z</time>
      </trkpt>
      <trkpt lat="40.734039" lon="-3.415656">
        <ele>843.6</ele>
        <time>2019-02-23T09:23:04.395Z</time>
      </trkpt>
      <trkpt lat="40.733647" lon="-3.415659">
        <ele>843.6</ele>
        <time>2019-02-23T09:23:09.395Z</time>
      </trkpt>
      <trkpt lat="40.733041" lon="-3.415669">
        <ele>843.5</ele>
        <time>2019-02-23T09:23:17.395Z</time>
      </trkpt>
      <trkpt lat="40.732596" lon="-3.415678">
        <ele>843.6</ele>
        <time>2019-02-23T09:23:23.395Z</time>
      </trkpt>
      <trkpt lat="40.732044" lon="-3.415683">
        <ele>843.5</ele>
        <time>2019-02-23T09:23:30.395Z</time>
      </trkpt>
      <trkpt lat="40.731584" lon="-3.415685">
        <ele>843.6</ele>
        <time>2019-02-23T09:23:36.395Z</time>
      </trkpt>
      <trkpt lat="40.731507" lon="-3.415691">
        <ele>843.1</ele>
        <time>2019-02-23T09:23:37.395Z</time>
      </trkpt>
      <trkpt lat="40.731432" lon="-3.415700">
        <ele>842.9</ele>
        <time>2019-02-23T09:23:38.395Z</time>
      </trkpt>
      <trkpt lat="40.731359" lon="-3.415712">
        <ele>842.4</ele>
        <time>2019-02-23T09:23:39.395Z</time>
      </trkpt>
      <trkpt lat="40.731285" lon="-3.415728">
        <ele>841.8</ele>
        <time>2019-02-23T09:23:40.395Z</time>
      </trkpt>
      <trkpt lat="40.730853" lon="-3.415804">
        <ele>841.5</ele>
        <time>2019-02-23T09:23:46.395Z</time>
      </trkpt>
      <trkpt lat="40.730418" lon="-3.415922">
        <ele>841.4</ele>
        <time>2019-02-23T09:23:52.395Z</time>
      </trkpt>
      <trkpt lat="40.729943" lon="-3.416200">
        <ele>841.5</ele>
        <time>2019-02-23T09:23:59.395Z</time>
      </trkpt>
      <trkpt lat="40.729878" lon="-3.416252">
        <ele>841.5</ele>
        <time>2019-02-23T09:24:00.395Z</time>
      </trkpt>
      <trkpt lat="40.729369" lon="-3.416659">
        <ele>841.5</ele>
        <time>2019-02-23T09:24:08.395Z</time>
      </trkpt>
      <trkpt lat="40.728900" lon="-3.416947">
        <ele>841.5</ele>
        <time>2019-02-23T09:24:15.395Z</time>
      </trkpt>
      <trkpt lat="40.728684" lon="-3.417043">
        <ele>841.5</ele>
        <time>2019-02-23T09:24:18.395Z</time>
      </trkpt>
      <trkpt lat="40.728099" lon="-3.417223">
        <ele>841.5</ele>
        <time>2019-02-23T09:24:26.395Z</time>
      </trkpt>
      <trkpt lat="40.727723" lon="-3.417313">
        <ele>841.4</ele>
        <time>2019-02-23T09:24:31.395Z</time>
      </trkpt>
      <trkpt lat="40.727190" lon="-3.417436">
        <ele>841.4</ele>
        <time>2019-02-23T09:24:38.395Z</time>
      </trkpt>
      <trkpt lat="40.726747" lon="-3.417493">
        <ele>841.4</ele>
        <time>2019-02-23T09:24:44.395Z</time>
      </trkpt>
      <trkpt lat="40.726144" lon="-3.417511">
        <ele>841.4</ele>
        <time>2019-02-23T09:24:52.395Z</time>
      </trkpt>
      <trkpt lat="40.725689" lon="-3.417520">
        <ele>841.4</ele>
        <time>2019-02-23T09:24:58.395Z</time>
      </trkpt>
      <trkpt lat="40.725073" lon="-3.417529">
        <ele>841.5</ele>
        <time>2019-02-23T09:25:06.395Z</time>
      </trkpt>
      <trkpt lat="40.724992" lon="-3.417529">
        <ele>841.5</ele>
        <time>2019-02-23T09:25:07.395Z</time>
      </trkpt>
      <trkpt lat="40.724916" lon="-3.417530">
        <ele>841.0</ele>
        <time>2019-02-23T09:25:08.395Z</time>
      </trkpt>
      <trkpt lat="40.724839" lon="-3.417532">
        <ele>840.6</ele>
        <time>2019-02-23T09:25:09.395Z</time>
      </trkpt>
      <trkpt lat="40.724762" lon="-3.417534">
        <ele>840.1</ele>
        <time>2019-02-23T09:25:10.395Z</time>
      </trkpt>
      <trkpt lat="40.724686" lon="-3.417536">
        <ele>839.8</ele>
        <time>2019-02-23T09:25:11.395Z</time>
      </trkpt>
      <trkpt lat="40.724241" lon="-3.417539">
        <ele>839.4</ele>
        <time>2019-02-23T09:25:17.395Z</time>
      </trkpt>
      <trkpt lat="40.724168" lon="-3.417540">
        <ele>839.4</ele>
        <time>2019-02-23T09:25:18.395Z</time>
      </trkpt>
      <trkpt lat="40.723729" lon="-3.417579">
        <ele>839.5</ele>
        <time>2019-02-23T09:25:24.395Z</time>
      </trkpt>
      <trkpt lat="40.723382" lon="-3.417703">
        <ele>839.4</ele>
        <time>2019-02-23T09:25:29.395Z</time>
      </trkpt>
      <trkpt lat="40.723318" lon="-3.417736">
        <ele>839.0</ele>
        <time>2019-02-23T09:25:30.395Z</time>
      </trkpt>
      <trkpt lat="40.723250" lon="-3.417771">
        <ele>838.5</ele>
        <time>2019-02-23T09:25:31.395Z</time>
      </trkpt>
      <trkpt lat="40.723185" lon="-3.417805">
        <ele>838.2</ele>
        <time>2019-02-23T09:25:32.395Z</time>
      </trkpt>
      <trkpt lat="40.723121" lon="-3.417839">
        <ele>837.6</ele>
        <time>2019-02-23T09:25:33.395Z</time>
      </trkpt>
      <trkpt lat="40.722841" lon="-3.417973">
        <ele>837.2</ele>
        <time>2019-02-23T09:25:37.395Z</time>
      </trkpt>
      <trkpt lat="40.722612" lon="-3.418042">
        <ele>837.1</ele>
        <time>2019-02-23T09:25:40.395Z</time>
      </trkpt>
      <trkpt lat="40.722069" lon="-3.418089">
        <ele>837.1</ele>
        <time>2019-02-23T09:25:47.395Z</time>
      </trkpt>
      <trkpt lat="40.721757" lon="-3.418095">
        <ele>837.2</ele>
        <time>2019-02-23T09:25:51.395Z</time>
      </trkpt>
      <trkpt lat="40.721206" lon="-3.418099">
        <ele>837.2</ele>
        <time>2019-02-23T09:25:58.395Z</time>
      </trkpt>
      <trkpt lat="40.721043" lon="-3.418096">
        <ele>837.2</ele>
        <time>2019-02-23T09:26:00.395Z</time>
      </trkpt>
      <trkpt lat="40.720491" lon="-3.418128">
        <ele>837.2</ele>
        <time>2019-02-23T09:26:07.395Z</time>
      </trkpt>
      <trkpt lat="40.719884" lon="-3.418258">
        <ele>837.1</ele>
        <time>2019-02-23T09:26:15.395Z</time>
      </trkpt>
      <trkpt lat="40.719735" lon="-3.418306">
        <ele>837.1</ele>
        <time>2019-02-23T09:26:17.395Z</time>
      </trkpt>
      <trkpt lat="40.719590" lon="-3.418370">
        <ele>837.1</ele>
        <time>2019-02-23T09:26:19.395Z</time>
      </trkpt>
      <trkpt lat="40.719523" lon="-3.418418">
        <ele>837.1</ele>
        <time>2019-02-23T09:26:20.395Z</time>
      </trkpt>
      <trkpt lat="40.719066" lon="-3.418936">
        <ele>837.2</ele>
        <time>2019-02-23T09:26:28.395Z</time>
      </trkpt>
      <trkpt lat="40.718904" lon="-3.419152">
        <ele>837.1</ele>
        <time>2019-02-23T09:26:31.395Z</time>
      </trkpt>
      <trkpt lat="40.718547" lon="-3.419694">
        <ele>837.2</ele>
        <time>2019-02-23T09:26:38.395Z</time>
      </trkpt>
      <trkpt lat="40.718496" lon="-3.419772">
        <ele>837.2</ele>
        <time>2019-02-23T09:26:39.395Z</time>
      </trkpt>
      <trkpt lat="40.718183" lon="-3.420225">
        <ele>837.2</ele>
        <time>2019-02-23T09:26:45.395Z</time>
      </trkpt>
      <trkpt lat="40.717860" lon="-3.420540">
        <ele>837.1</ele>
        <time>2019-02-23T09:26:50.395Z</time>
      </trkpt>
      <trkpt lat="40.717720" lon="-3.420627">
        <ele>837.1</ele>
        <time>2019-02-23T09:26:52.395Z</time>
      </trkpt>
      <trkpt lat="40.717207" lon="-3.420856">
        <ele>837.2</ele>
        <time>2019-02-23T09:26:59.395Z</time>
      </trkpt>
      <trkpt lat="40.717131" lon="-3.420888">
        <ele>837.1</ele>
        <time>2019-02-23T09:27:00.395Z</time>
      </trkpt>
      <trkpt lat="40.717058" lon="-3.420919">
        <ele>836.8</ele>
        <time>2019-02-23T09:27:01.395Z</time>
      </trkpt>
      <trkpt lat="40.716982" lon="-3.420952">
        <ele>836.4</ele>
        <time>2019-02-23T09:27:02.395Z</time>
      </trkpt>
      <trkpt lat="40.716911" lon="-3.420985">
        <ele>836.0</ele>
        <time>2019-02-23T09:27:03.395Z</time>
      </trkpt>
      <trkpt lat="40.716840" lon="-3.421021">
        <ele>835.6</ele>
        <time>2019-02-23T09:27:04.395Z</time>
      </trkpt>
      <trkpt lat="40.716770" lon="-3.421062">
        <ele>835.2</ele>
        <time>2019-02-23T09:27:05.395Z</time>
      </trkpt>
      <trkpt lat="40.716569" lon="-3.421206">
        <ele>835.2</ele>
        <time>2019-02-23T09:27:08.395Z</time>
      </trkpt>
      <trkpt lat="40.716132" lon="-3.421625">
        <ele>835.2</ele>
        <time>2019-02-23T09:27:15.395Z</time>
      </trkpt>
      <trkpt lat="40.716001" lon="-3.421747">
        <ele>835.1</ele>
        <time>2019-02-23T09:27:17.395Z</time>
      </trkpt>
      <trkpt lat="40.715546" lon="-3.422179">
        <ele>835.1</ele>
        <time>2019-02-23T09:27:24.395Z</time>
      </trkpt>
      <trkpt lat="40.715060" lon="-3.422532">
        <ele>835.1</ele>
        <time>2019-02-23T09:27:31.395Z</time>
      </trkpt>
      <trkpt lat="40.714520" lon="-3.422744">
        <ele>835.1</ele>
        <time>2019-02-23T09:27:38.395Z</time>
      </trkpt>
      <trkpt lat="40.714278" lon="-3.422789">
        <ele>835.1</ele>
        <time>2019-02-23T09:27:41.395Z</time>
      </trkpt>
      <trkpt lat="40.714116" lon="-3.422787">
        <ele>835.1</ele>
        <time>2019-02-23T09:27:43.395Z</time>
      </trkpt>
      <trkpt lat="40.714033" lon="-3.422778">
        <ele>835.1</ele>
        <time>2019-02-23T09:27:44.395Z</time>
      </trkpt>
      <trkpt lat="40.713465" lon="-3.422698">
        <ele>835.2</ele>
        <time>2019-02-23T09:27:51.395Z</time>
      </trkpt>
      <trkpt lat="40.712697" lon="-3.422737">
        <ele>835.2</ele>
        <time>2019-02-23T09:28:01.395Z</time>
      </trkpt>
      <trkpt lat="40.712279" lon="-3.422888">
        <ele>835.2</ele>
        <time>2019-02-23T09:28:07.395Z</time>
      </trkpt>
      <trkpt lat="40.712017" lon="-3.423054">
        <ele>835.2</ele>
        <time>2019-02-23T09:28:11.395Z</time>
      </trkpt>
      <trkpt lat="40.711953" lon="-3.423102">
        <ele>835.2</ele>
        <time>2019-02-23T09:28:12.395Z</time>
      </trkpt>
      <trkpt lat="40.711776" lon="-3.423285">
        <ele>835.2</ele>
        <time>2019-02-23T09:28:15.395Z</time>
      </trkpt>
      <trkpt lat="40.711383" lon="-3.423785">
        <ele>835.2</ele>
        <time>2019-02-23T09:28:22.395Z</time>
      </trkpt>
      <trkpt lat="40.711139" lon="-3.424042">
        <ele>835.2</ele>
        <time>2019-02-23T09:28:26.395Z</time>
      </trkpt>
      <trkpt lat="40.711070" lon="-3.424084">
        <ele>835.2</ele>
        <time>2019-02-23T09:28:27.395Z</time>
      </trkpt>
      <trkpt lat="40.710560" lon="-3.424202">
        <ele>835.1</ele>
        <time>2019-02-23T09:28:34.395Z</time>
      </trkpt>
      <trkpt lat="40.710489" lon="-3.424214">
        <ele>835.1</ele>
        <time>2019-02-23T09:28:35.395Z</time>
      </trkpt>
      <trkpt lat="40.709920" lon="-3.424301">
        <ele>835.1</ele>
        <time>2019-02-23T09:28:43.395Z</time>
      </trkpt>
      <trkpt lat="40.709774" lon="-3.424326">
        <ele>835.2</ele>
        <time>2019-02-23T09:28:45.395Z</time>
      </trkpt>
      <trkpt lat="40.709701" lon="-3.424335">
        <ele>834.8</ele>
        <time>2019-02-23T09:28:46.395Z</time>
      </trkpt>
      <trkpt lat="40.709632" lon="-3.424341">
        <ele>834.4</ele>
        <time>2019-02-23T09:28:47.395Z</time>
      </trkpt>
      <trkpt lat="40.709560" lon="-3.424346">
        <ele>834.1</ele>
        <time>2019-02-23T09:28:48.395Z</time>
      </trkpt>
      <trkpt lat="40.709490" lon="-3.424354">
        <ele>833.5</ele>
        <time>2019-02-23T09:28:49.395Z</time>
      </trkpt>
      <trkpt lat="40.709155" lon="-3.424374">
        <ele>833.2</ele>
        <time>2019-02-23T09:28:54.395Z</time>
      </trkpt>
      <trkpt lat="40.708674" lon="-3.424417">
        <ele>833.2</ele>
        <time>2019-02-23T09:29:01.395Z</time>
      </trkpt>
      <trkpt lat="40.708603" lon="-3.424427">
        <ele>832.8</ele>
        <time>2019-02-23T09:29:02.395Z</time>
      </trkpt>
      <trkpt lat="40.708536" lon="-3.424437">
        <ele>832.5</ele>
        <time>2019-02-23T09:29:03.395Z</time>
      </trkpt>
      <trkpt lat="40.708464" lon="-3.424449">
        <ele>831.8</ele>
        <time>2019-02-23T09:29:04.395Z</time>
      </trkpt>
      <trkpt lat="40.708397" lon="-3.424463">
        <ele>831.4</ele>
        <time>2019-02-23T09:29:05.395Z</time>
      </trkpt>
      <trkpt lat="40.708051" lon="-3.424561">
        <ele>831.0</ele>
        <time>2019-02-23T09:29:10.395Z</time>
      </trkpt>
      <trkpt lat="40.707750" lon="-3.424728">
        <ele>831.1</ele>
        <time>2019-02-23T09:29:15.395Z</time>
      </trkpt>
      <trkpt lat="40.707696" lon="-3.424768">
        <ele>831.1</ele>
        <time>2019-02-23T09:29:16.395Z</time>
      </trkpt>
      <trkpt lat="40.707286" lon="-3.425142">
        <ele>831.1</ele>
        <time>2019-02-23T09:29:23.395Z</time>
      </trkpt>
      <trkpt lat="40.706827" lon="-3.425589">
        <ele>831.1</ele>
        <time>2019-02-23T09:29:30.395Z</time>
      </trkpt>
      <trkpt lat="40.706448" lon="-3.426104">
        <ele>831.1</ele>
        <time>2019-02-23T09:29:37.395Z</time>
      </trkpt>
      <trkpt lat="40.706347" lon="-3.426256">
        <ele>831.0</ele>
        <time>2019-02-23T09:29:39.395Z</time>
      </trkpt>
      <trkpt lat="40.706111" lon="-3.426465">
        <ele>831.1</ele>
        <time>2019-02-23T09:29:43.395Z</time>
      </trkpt>
      <trkpt lat="40.705933" lon="-3.426594">
        <ele>831.1</ele>
        <time>2019-02-23T09:29:46.395Z</time>
      </trkpt>
      <trkpt lat="40.705878" lon="-3.426636">
        <ele>830.6</ele>
        <time>2019-02-23T09:29:47.395Z</time>
      </trkpt>
      <trkpt lat="40.705826" lon="-3.426679">
        <ele>830.1</ele>
        <time>2019-02-23T09:29:48.395Z</time>
      </trkpt>
      <trkpt lat="40.705775" lon="-3.426720">
        <ele>829.8</ele>
        <time>2019-02-23T09:29:49.395Z</time>
      </trkpt>
      <trkpt lat="40.705722" lon="-3.426758">
        <ele>829.5</ele>
        <time>2019-02-23T09:29:50.395Z</time>
      </trkpt>
      <trkpt lat="40.705572" lon="-3.426790">
        <ele>828.8</ele>
        <time>2019-02-23T09:29:53.395Z</time>
      </trkpt>
      <trkpt lat="40.705379" lon="-3.426511">
        <ele>828.9</ele>
        <time>2019-02-23T09:30:00.395Z</time>
      </trkpt>
      <trkpt lat="40.705241" lon="-3.426316">
        <ele>828.9</ele>
        <time>2019-02-23T09:30:05.395Z</time>
      </trkpt>
      <trkpt lat="40.704906" lon="-3.425780">
        <ele>828.8</ele>
        <time>2019-02-23T09:30:14.395Z</time>
      </trkpt>
      <trkpt lat="40.704827" lon="-3.425662">
        <ele>828.8</ele>
        <time>2019-02-23T09:30:16.395Z</time>
      </trkpt>
      <trkpt lat="40.704789" lon="-3.425603">
        <ele>828.4</ele>
        <time>2019-02-23T09:30:17.395Z</time>
      </trkpt>
      <trkpt lat="40.704751" lon="-3.425542">
        <ele>828.0</ele>
        <time>2019-02-23T09:30:18.395Z</time>
      </trkpt>
      <trkpt lat="40.704715" lon="-3.425485">
        <ele>827.5</ele>
        <time>2019-02-23T09:30:19.395Z</time>
      </trkpt>
      <trkpt lat="40.704677" lon="-3.425427">
        <ele>827.1</ele>
        <time>2019-02-23T09:30:20.395Z</time>
      </trkpt>
      <trkpt lat="40.704607" lon="-3.425304">
        <ele>826.5</ele>
        <time>2019-02-23T09:30:22.395Z</time>
      </trkpt>
      <trkpt lat="40.704575" lon="-3.425234">
        <ele>826.5</ele>
        <time>2019-02-23T09:30:23.395Z</time>
      </trkpt>
      <trkpt lat="40.704541" lon="-3.425157">
        <ele>826.5</ele>
        <time>2019-02-23T09:30:24.395Z</time>
      </trkpt>
      <trkpt lat="40.704497" lon="-3.425085">
        <ele>826.1</ele>
        <time>2019-02-23T09:30:25.395Z</time>
      </trkpt>
      <trkpt lat="40.704455" lon="-3.425007">
        <ele>825.5</ele>
        <time>2019-02-23T09:30:26.395Z</time>
      </trkpt>
      <trkpt lat="40.704417" lon="-3.424928">
        <ele>825.1</ele>
        <time>2019-02-23T09:30:27.395Z</time>
      </trkpt>
      <trkpt lat="40.704378" lon="-3.424846">
        <ele>824.6</ele>
        <time>2019-02-23T09:30:28.395Z</time>
      </trkpt>
      <trkpt lat="40.704207" lon="-3.424445">
        <ele>824.1</ele>
        <time>2019-02-23T09:30:32.395Z</time>
      </trkpt>
      <trkpt lat="40.704122" lon="-3.424199">
        <ele>824.1</ele>
        <time>2019-02-23T09:30:34.395Z</time>
      </trkpt>
      <trkpt lat="40.704079" lon="-3.424070">
        <ele>824.8</ele>
        <time>2019-02-23T09:30:35.395Z</time>
      </trkpt>
      <trkpt lat="40.704032" lon="-3.423937">
        <ele>825.5</ele>
        <time>2019-02-23T09:30:36.395Z</time>
      </trkpt>
      <trkpt lat="40.703979" lon="-3.423794">
        <ele>826.1</ele>
        <time>2019-02-23T09:30:37.395Z</time>
      </trkpt>
      <trkpt lat="40.703926" lon="-3.423653">
        <ele>826.5</ele>
        <time>2019-02-23T09:30:38.395Z</time>
      </trkpt>
      <trkpt lat="40.703876" lon="-3.423514">
        <ele>827.1</ele>
        <time>2019-02-23T09:30:39.395Z</time>
      </trkpt>
      <trkpt lat="40.703827" lon="-3.423376">
        <ele>827.5</ele>
        <time>2019-02-23T09:30:40.395Z</time>
      </trkpt>
      <trkpt lat="40.703778" lon="-3.423237">
        <ele>828.1</ele>
        <time>2019-02-23T09:30:41.395Z</time>
      </trkpt>
      <trkpt lat="40.703731" lon="-3.423102">
        <ele>828.5</ele>
        <time>2019-02-23T09:30:42.395Z</time>
      </trkpt>
      <trkpt lat="40.703687" lon="-3.422972">
        <ele>829.1</ele>
        <time>2019-02-23T09:30:43.395Z</time>
      </trkpt>
      <trkpt lat="40.703641" lon="-3.422841">
        <ele>829.5</ele>
        <time>2019-02-23T09:30:44.395Z</time>
      </trkpt>
      <trkpt lat="40.703600" lon="-3.422716">
        <ele>829.9</ele>
        <time>2019-02-23T09:30:45.395Z</time>
      </trkpt>
      <trkpt lat="40.703558" lon="-3.422589">
        <ele>830.1</ele>
        <time>2019-02-23T09:30:46.395Z</time>
      </trkpt>
      <trkpt lat="40.703516" lon="-3.422467">
        <ele>830.9</ele>
        <time>2019-02-23T09:30:47.395Z</time>
      </trkpt>
      <trkpt lat="40.703476" lon="-3.422348">
        <ele>831.1</ele>
        <time>2019-02-23T09:30:48.395Z</time>
      </trkpt>
      <trkpt lat="40.703239" lon="-3.421659">
        <ele>831.2</ele>
        <time>2019-02-23T09:30:54.395Z</time>
      </trkpt>
      <trkpt lat="40.703196" lon="-3.421550">
        <ele>831.1</ele>
        <time>2019-02-23T09:30:55.395Z</time>
      </trkpt>
      <trkpt lat="40.702960" lon="-3.420905">
        <ele>831.1</ele>
        <time>2019-02-23T09:31:01.395Z</time>
      </trkpt>
      <trkpt lat="40.702787" lon="-3.420459">
        <ele>831.1</ele>
        <time>2019-02-23T09:31:06.395Z</time>
      </trkpt>
      <trkpt lat="40.702667" lon="-3.420127">
        <ele>831.2</ele>
        <time>2019-02-23T09:31:11.395Z</time>
      </trkpt>
      <trkpt lat="40.702578" lon="-3.419966">
        <ele>831.1</ele>
        <time>2019-02-23T09:31:16.395Z</time>
      </trkpt>
      <trkpt lat="40.702515" lon="-3.419942">
        <ele>831.2</ele>
        <time>2019-02-23T09:31:21.395Z</time>
      </trkpt>
      <trkpt lat="40.702487" lon="-3.419937">
        <ele>831.2</ele>
        <time>2019-02-23T09:31:23.395Z</time>
      </trkpt>
      <trkpt lat="40.702436" lon="-3.419938">
        <ele>831.1</ele>
        <time>2019-02-23T09:31:35.395Z</time>
      </trkpt>
      <trkpt lat="40.702360" lon="-3.419942">
        <ele>831.1</ele>
        <time>2019-02-23T09:31:41.395Z</time>
      </trkpt>
      <trkpt lat="40.702145" lon="-3.419985">
        <ele>831.1</ele>
        <time>2019-02-23T09:31:48.395Z</time>
      </trkpt>
      <trkpt lat="40.701791" lon="-3.420007">
        <ele>831.1</ele>
        <time>2019-02-23T09:31:55.395Z</time>
      </trkpt>
      <trkpt lat="40.701594" lon="-3.420022">
        <ele>831.1</ele>
        <time>2019-02-23T09:31:58.395Z</time>
      </trkpt>
      <trkpt lat="40.701026" lon="-3.420054">
        <ele>831.1</ele>
        <time>2019-02-23T09:32:06.395Z</time>
      </trkpt>
      <trkpt lat="40.700807" lon="-3.420068">
        <ele>831.1</ele>
        <time>2019-02-23T09:32:09.395Z</time>
      </trkpt>
      <trkpt lat="40.700206" lon="-3.420098">
        <ele>831.2</ele>
        <time>2019-02-23T09:32:17.395Z</time>
      </trkpt>
      <trkpt lat="40.699988" lon="-3.420103">
        <ele>831.2</ele>
        <time>2019-02-23T09:32:20.395Z</time>
      </trkpt>
      <trkpt lat="40.699418" lon="-3.420128">
        <ele>831.1</ele>
        <time>2019-02-23T09:32:28.395Z</time>
      </trkpt>
      <trkpt lat="40.699199" lon="-3.420139">
        <ele>831.1</ele>
        <time>2019-02-23T09:32:31.395Z</time>
      </trkpt>
      <trkpt lat="40.698628" lon="-3.420162">
        <ele>831.2</ele>
        <time>2019-02-23T09:32:39.395Z</time>
      </trkpt>
      <trkpt lat="40.698553" lon="-3.420166">
        <ele>830.8</ele>
        <time>2019-02-23T09:32:40.395Z</time>
      </trkpt>
      <trkpt lat="40.698479" lon="-3.420169">
        <ele>830.4</ele>
        <time>2019-02-23T09:32:41.395Z</time>
      </trkpt>
      <trkpt lat="40.698406" lon="-3.420173">
        <ele>830.1</ele>
        <time>2019-02-23T09:32:42.395Z</time>
      </trkpt>
      <trkpt lat="40.698333" lon="-3.420177">
        <ele>829.6</ele>
        <time>2019-02-23T09:32:43.395Z</time>
      </trkpt>
      <trkpt lat="40.697965" lon="-3.420194">
        <ele>829.2</ele>
        <time>2019-02-23T09:32:48.395Z</time>
      </trkpt>
      <trkpt lat="40.697380" lon="-3.420226">
        <ele>829.1</ele>
        <time>2019-02-23T09:32:56.395Z</time>
      </trkpt>
      <trkpt lat="40.697309" lon="-3.420230">
        <ele>829.1</ele>
        <time>2019-02-23T09:32:57.395Z</time>
      </trkpt>
      <trkpt lat="40.696748" lon="-3.420261">
        <ele>829.2</ele>
        <time>2019-02-23T09:33:05.395Z</time>
      </trkpt>
      <trkpt lat="40.696324" lon="-3.420280">
        <ele>829.2</ele>
        <time>2019-02-23T09:33:11.395Z</time>
      </trkpt>
      <trkpt lat="40.695750" lon="-3.420313">
        <ele>829.2</ele>
        <time>2019-02-23T09:33:19.395Z</time>
      </trkpt>
      <trkpt lat="40.695388" lon="-3.420331">
        <ele>829.1</ele>
        <time>2019-02-23T09:33:24.395Z</time>
      </trkpt>
      <trkpt lat="40.694826" lon="-3.420356">
        <ele>829.1</ele>
        <time>2019-02-23T09:33:32.395Z</time>
      </trkpt>
      <trkpt lat="40.694252" lon="-3.420388">
        <ele>829.1</ele>
        <time>2019-02-23T09:33:40.395Z</time>
      </trkpt>
      <trkpt lat="40.694035" lon="-3.420401">
        <ele>829.2</ele>
        <time>2019-02-23T09:33:43.395Z</time>
      </trkpt>
      <trkpt lat="40.693470" lon="-3.420426">
        <ele>829.2</ele>
        <time>2019-02-23T09:33:51.395Z</time>
      </trkpt>
      <trkpt lat="40.693399" lon="-3.420430">
        <ele>828.8</ele>
        <time>2019-02-23T09:33:52.395Z</time>
      </trkpt>
      <trkpt lat="40.693328" lon="-3.420433">
        <ele>828.5</ele>
        <time>2019-02-23T09:33:53.395Z</time>
      </trkpt>
      <trkpt lat="40.693256" lon="-3.420437">
        <ele>828.0</ele>
        <time>2019-02-23T09:33:54.395Z</time>
      </trkpt>
      <trkpt lat="40.693186" lon="-3.420440">
        <ele>827.5</ele>
        <time>2019-02-23T09:33:55.395Z</time>
      </trkpt>
      <trkpt lat="40.693115" lon="-3.420443">
        <ele>827.1</ele>
        <time>2019-02-23T09:33:56.395Z</time>
      </trkpt>
      <trkpt lat="40.693044" lon="-3.420447">
        <ele>827.2</ele>
        <time>2019-02-23T09:33:57.395Z</time>
      </trkpt>
      <trkpt lat="40.692448" lon="-3.420474">
        <ele>827.2</ele>
        <time>2019-02-23T09:34:05.395Z</time>
      </trkpt>
      <trkpt lat="40.691843" lon="-3.420502">
        <ele>827.1</ele>
        <time>2019-02-23T09:34:13.395Z</time>
      </trkpt>
      <trkpt lat="40.691464" lon="-3.420523">
        <ele>827.2</ele>
        <time>2019-02-23T09:34:18.395Z</time>
      </trkpt>
      <trkpt lat="40.690879" lon="-3.420551">
        <ele>827.2</ele>
        <time>2019-02-23T09:34:26.395Z</time>
      </trkpt>
      <trkpt lat="40.690456" lon="-3.420572">
        <ele>827.1</ele>
        <time>2019-02-23T09:34:32.395Z</time>
      </trkpt>
      <trkpt lat="40.689897" lon="-3.420599">
        <ele>827.2</ele>
        <time>2019-02-23T09:34:40.395Z</time>
      </trkpt>
      <trkpt lat="40.689531" lon="-3.420624">
        <ele>827.2</ele>
        <time>2019-02-23T09:34:45.395Z</time>
      </trkpt>
      <trkpt lat="40.688980" lon="-3.420668">
        <ele>827.1</ele>
        <time>2019-02-23T09:34:52.395Z</time>
      </trkpt>
      <trkpt lat="40.688747" lon="-3.420696">
        <ele>827.1</ele>
        <time>2019-02-23T09:34:55.395Z</time>
      </trkpt>
      <trkpt lat="40.688143" lon="-3.420836">
        <ele>827.1</ele>
        <time>2019-02-23T09:35:03.395Z</time>
      </trkpt>
      <trkpt lat="40.687619" lon="-3.420989">
        <ele>827.1</ele>
        <time>2019-02-23T09:35:10.395Z</time>
      </trkpt>
      <trkpt lat="40.687025" lon="-3.421170">
        <ele>827.1</ele>
        <time>2019-02-23T09:35:18.395Z</time>
      </trkpt>
      <trkpt lat="40.686518" lon="-3.421323">
        <ele>827.1</ele>
        <time>2019-02-23T09:35:25.395Z</time>
      </trkpt>
      <trkpt lat="40.685922" lon="-3.421502">
        <ele>827.2</ele>
        <time>2019-02-23T09:35:33.395Z</time>
      </trkpt>
      <trkpt lat="40.685849" lon="-3.421524">
        <ele>826.9</ele>
        <time>2019-02-23T09:35:34.395Z</time>
      </trkpt>
      <trkpt lat="40.685775" lon="-3.421544">
        <ele>826.5</ele>
        <time>2019-02-23T09:35:35.395Z</time>
      </trkpt>
      <trkpt lat="40.685700" lon="-3.421566">
        <ele>825.9</ele>
        <time>2019-02-23T09:35:36.395Z</time>
      </trkpt>
      <trkpt lat="40.685625" lon="-3.421590">
        <ele>825.5</ele>
        <time>2019-02-23T09:35:37.395Z</time>
      </trkpt>
      <trkpt lat="40.685327" lon="-3.421679">
        <ele>825.1</ele>
        <time>2019-02-23T09:35:41.395Z</time>
      </trkpt>
      <trkpt lat="40.684888" lon="-3.421813">
        <ele>825.1</ele>
        <time>2019-02-23T09:35:47.395Z</time>
      </trkpt>
      <trkpt lat="40.684303" lon="-3.421988">
        <ele>825.0</ele>
        <time>2019-02-23T09:35:55.395Z</time>
      </trkpt>
      <trkpt lat="40.683799" lon="-3.422145">
        <ele>825.0</ele>
        <time>2019-02-23T09:36:02.395Z</time>
      </trkpt>
      <trkpt lat="40.683243" lon="-3.422309">
        <ele>825.0</ele>
        <time>2019-02-23T09:36:10.395Z</time>
      </trkpt>
      <trkpt lat="40.682904" lon="-3.422412">
        <ele>825.0</ele>
        <time>2019-02-23T09:36:15.395Z</time>
      </trkpt>
      <trkpt lat="40.682341" lon="-3.422581">
        <ele>825.1</ele>
        <time>2019-02-23T09:36:23.395Z</time>
      </trkpt>
      <trkpt lat="40.682065" lon="-3.422665">
        <ele>825.1</ele>
        <time>2019-02-23T09:36:27.395Z</time>
      </trkpt>
      <trkpt lat="40.681494" lon="-3.422835">
        <ele>825.1</ele>
        <time>2019-02-23T09:36:35.395Z</time>
      </trkpt>
      <trkpt lat="40.681067" lon="-3.422965">
        <ele>825.1</ele>
        <time>2019-02-23T09:36:41.395Z</time>
      </trkpt>
      <trkpt lat="40.680492" lon="-3.423137">
        <ele>825.1</ele>
        <time>2019-02-23T09:36:49.395Z</time>
      </trkpt>
      <trkpt lat="40.680202" lon="-3.423221">
        <ele>825.1</ele>
        <time>2019-02-23T09:36:53.395Z</time>
      </trkpt>
      <trkpt lat="40.679640" lon="-3.423423">
        <ele>825.1</ele>
        <time>2019-02-23T09:37:01.395Z</time>
      </trkpt>
      <trkpt lat="40.679569" lon="-3.423452">
        <ele>824.5</ele>
        <time>2019-02-23T09:37:02.395Z</time>
      </trkpt>
      <trkpt lat="40.679500" lon="-3.423481">
        <ele>824.1</ele>
        <time>2019-02-23T09:37:03.395Z</time>
      </trkpt>
      <trkpt lat="40.679428" lon="-3.423510">
        <ele>823.8</ele>
        <time>2019-02-23T09:37:04.395Z</time>
      </trkpt>
      <trkpt lat="40.679360" lon="-3.423540">
        <ele>823.5</ele>
        <time>2019-02-23T09:37:05.395Z</time>
      </trkpt>
      <trkpt lat="40.678885" lon="-3.423737">
        <ele>823.0</ele>
        <time>2019-02-23T09:37:12.395Z</time>
      </trkpt>
      <trkpt lat="40.678481" lon="-3.423905">
        <ele>823.1</ele>
        <time>2019-02-23T09:37:18.395Z</time>
      </trkpt>
      <trkpt lat="40.677943" lon="-3.424135">
        <ele>823.0</ele>
        <time>2019-02-23T09:37:26.395Z</time>
      </trkpt>
      <trkpt lat="40.677673" lon="-3.424241">
        <ele>823.1</ele>
        <time>2019-02-23T09:37:30.395Z</time>
      </trkpt>
      <trkpt lat="40.677156" lon="-3.424455">
        <ele>823.0</ele>
        <time>2019-02-23T09:37:38.395Z</time>
      </trkpt>
      <trkpt lat="40.677097" lon="-3.424479">
        <ele>823.1</ele>
        <time>2019-02-23T09:37:39.395Z</time>
      </trkpt>
      <trkpt lat="40.677034" lon="-3.424504">
        <ele>822.6</ele>
        <time>2019-02-23T09:37:40.395Z</time>
      </trkpt>
      <trkpt lat="40.676970" lon="-3.424530">
        <ele>822.2</ele>
        <time>2019-02-23T09:37:41.395Z</time>
      </trkpt>
      <trkpt lat="40.676905" lon="-3.424558">
        <ele>821.9</ele>
        <time>2019-02-23T09:37:42.395Z</time>
      </trkpt>
      <trkpt lat="40.676836" lon="-3.424585">
        <ele>821.1</ele>
        <time>2019-02-23T09:37:43.395Z</time>
      </trkpt>
      <trkpt lat="40.676367" lon="-3.424776">
        <ele>820.8</ele>
        <time>2019-02-23T09:37:50.395Z</time>
      </trkpt>
      <trkpt lat="40.676164" lon="-3.424861">
        <ele>820.8</ele>
        <time>2019-02-23T09:37:53.395Z</time>
      </trkpt>
      <trkpt lat="40.675605" lon="-3.425093">
        <ele>820.9</ele>
        <time>2019-02-23T09:38:01.395Z</time>
      </trkpt>
      <trkpt lat="40.675333" lon="-3.425212">
        <ele>820.8</ele>
        <time>2019-02-23T09:38:05.395Z</time>
      </trkpt>
      <trkpt lat="40.674747" lon="-3.425436">
        <ele>820.8</ele>
        <time>2019-02-23T09:38:14.395Z</time>
      </trkpt>
      <trkpt lat="40.674554" lon="-3.425515">
        <ele>820.8</ele>
        <time>2019-02-23T09:38:17.395Z</time>
      </trkpt>
      <trkpt lat="40.674033" lon="-3.425725">
        <ele>820.9</ele>
        <time>2019-02-23T09:38:25.395Z</time>
      </trkpt>
      <trkpt lat="40.673899" lon="-3.425778">
        <ele>820.9</ele>
        <time>2019-02-23T09:38:27.395Z</time>
      </trkpt>
      <trkpt lat="40.673370" lon="-3.425997">
        <ele>820.8</ele>
        <time>2019-02-23T09:38:35.395Z</time>
      </trkpt>
      <trkpt lat="40.672901" lon="-3.426269">
        <ele>820.8</ele>
        <time>2019-02-23T09:38:43.395Z</time>
      </trkpt>
      <trkpt lat="40.672737" lon="-3.426392">
        <ele>820.8</ele>
        <time>2019-02-23T09:38:46.395Z</time>
      </trkpt>
      <trkpt lat="40.672679" lon="-3.426435">
        <ele>820.4</ele>
        <time>2019-02-23T09:38:47.395Z</time>
      </trkpt>
      <trkpt lat="40.672620" lon="-3.426480">
        <ele>820.0</ele>
        <time>2019-02-23T09:38:48.395Z</time>
      </trkpt>
      <trkpt lat="40.672559" lon="-3.426526">
        <ele>819.5</ele>
        <time>2019-02-23T09:38:49.395Z</time>
      </trkpt>
      <trkpt lat="40.672495" lon="-3.426573">
        <ele>819.2</ele>
        <time>2019-02-23T09:38:50.395Z</time>
      </trkpt>
      <trkpt lat="40.672433" lon="-3.426616">
        <ele>818.6</ele>
        <time>2019-02-23T09:38:51.395Z</time>
      </trkpt>
      <trkpt lat="40.672168" lon="-3.426809">
        <ele>818.6</ele>
        <time>2019-02-23T09:38:55.395Z</time>
      </trkpt>
      <trkpt lat="40.671649" lon="-3.427186">
        <ele>818.5</ele>
        <time>2019-02-23T09:39:03.395Z</time>
      </trkpt>
      <trkpt lat="40.671138" lon="-3.427558">
        <ele>818.6</ele>
        <time>2019-02-23T09:39:11.395Z</time>
      </trkpt>
      <trkpt lat="40.670646" lon="-3.427917">
        <ele>818.6</ele>
        <time>2019-02-23T09:39:19.395Z</time>
      </trkpt>
      <trkpt lat="40.670523" lon="-3.428007">
        <ele>818.5</ele>
        <time>2019-02-23T09:39:21.395Z</time>
      </trkpt>
      <trkpt lat="40.670034" lon="-3.428369">
        <ele>818.5</ele>
        <time>2019-02-23T09:39:29.395Z</time>
      </trkpt>
      <trkpt lat="40.669977" lon="-3.428412">
        <ele>818.1</ele>
        <time>2019-02-23T09:39:30.395Z</time>
      </trkpt>
      <trkpt lat="40.669913" lon="-3.428458">
        <ele>817.8</ele>
        <time>2019-02-23T09:39:31.395Z</time>
      </trkpt>
      <trkpt lat="40.669852" lon="-3.428502">
        <ele>817.4</ele>
        <time>2019-02-23T09:39:32.395Z</time>
      </trkpt>
      <trkpt lat="40.669795" lon="-3.428544">
        <ele>817.0</ele>
        <time>2019-02-23T09:39:33.395Z</time>
      </trkpt>
      <trkpt lat="40.669676" lon="-3.428632">
        <ele>816.6</ele>
        <time>2019-02-23T09:39:35.395Z</time>
      </trkpt>
      <trkpt lat="40.669390" lon="-3.428851">
        <ele>816.5</ele>
        <time>2019-02-23T09:39:40.395Z</time>
      </trkpt>
      <trkpt lat="40.668868" lon="-3.429245">
        <ele>816.5</ele>
        <time>2019-02-23T09:39:49.395Z</time>
      </trkpt>
      <trkpt lat="40.668750" lon="-3.429336">
        <ele>816.6</ele>
        <time>2019-02-23T09:39:51.395Z</time>
      </trkpt>
      <trkpt lat="40.668688" lon="-3.429382">
        <ele>816.2</ele>
        <time>2019-02-23T09:39:52.395Z</time>
      </trkpt>
      <trkpt lat="40.668628" lon="-3.429425">
        <ele>815.8</ele>
        <time>2019-02-23T09:39:53.395Z</time>
      </trkpt>
      <trkpt lat="40.668568" lon="-3.429465">
        <ele>815.5</ele>
        <time>2019-02-23T09:39:54.395Z</time>
      </trkpt>
      <trkpt lat="40.668509" lon="-3.429505">
        <ele>815.0</ele>
        <time>2019-02-23T09:39:55.395Z</time>
      </trkpt>
      <trkpt lat="40.668164" lon="-3.429763">
        <ele>814.5</ele>
        <time>2019-02-23T09:40:01.395Z</time>
      </trkpt>
      <trkpt lat="40.668105" lon="-3.429809">
        <ele>814.5</ele>
        <time>2019-02-23T09:40:02.395Z</time>
      </trkpt>
      <trkpt lat="40.667986" lon="-3.429897">
        <ele>814.5</ele>
        <time>2019-02-23T09:40:04.395Z</time>
      </trkpt>
      <trkpt lat="40.667852" lon="-3.429984">
        <ele>814.6</ele>
        <time>2019-02-23T09:40:06.395Z</time>
      </trkpt>
      <trkpt lat="40.667561" lon="-3.430054">
        <ele>814.6</ele>
        <time>2019-02-23T09:40:10.395Z</time>
      </trkpt>
      <trkpt lat="40.667419" lon="-3.430039">
        <ele>814.6</ele>
        <time>2019-02-23T09:40:12.395Z</time>
      </trkpt>
      <trkpt lat="40.666825" lon="-3.429868">
        <ele>814.5</ele>
        <time>2019-02-23T09:40:21.395Z</time>
      </trkpt>
      <trkpt lat="40.666697" lon="-3.429834">
        <ele>814.6</ele>
        <time>2019-02-23T09:40:23.395Z</time>
      </trkpt>
      <trkpt lat="40.666634" lon="-3.429815">
        <ele>814.1</ele>
        <time>2019-02-23T09:40:24.395Z</time>
      </trkpt>
      <trkpt lat="40.666571" lon="-3.429795">
        <ele>813.9</ele>
        <time>2019-02-23T09:40:25.395Z</time>
      </trkpt>
      <trkpt lat="40.666508" lon="-3.429775">
        <ele>813.2</ele>
        <time>2019-02-23T09:40:26.395Z</time>
      </trkpt>
      <trkpt lat="40.666448" lon="-3.429756">
        <ele>812.8</ele>
        <time>2019-02-23T09:40:27.395Z</time>
      </trkpt>
      <trkpt lat="40.666151" lon="-3.429668">
        <ele>812.5</ele>
        <time>2019-02-23T09:40:32.395Z</time>
      </trkpt>
      <trkpt lat="40.665744" lon="-3.429555">
        <ele>812.4</ele>
        <time>2019-02-23T09:40:40.395Z</time>
      </trkpt>
      <trkpt lat="40.665655" lon="-3.429522">
        <ele>812.4</ele>
        <time>2019-02-23T09:40:42.395Z</time>
      </trkpt>
      <trkpt lat="40.665609" lon="-3.429499">
        <ele>812.1</ele>
        <time>2019-02-23T09:40:43.395Z</time>
      </trkpt>
      <trkpt lat="40.665568" lon="-3.429485">
        <ele>811.5</ele>
        <time>2019-02-23T09:40:44.395Z</time>
      </trkpt>
      <trkpt lat="40.665528" lon="-3.429469">
        <ele>811.1</ele>
        <time>2019-02-23T09:40:45.395Z</time>
      </trkpt>
      <trkpt lat="40.665489" lon="-3.429457">
        <ele>810.8</ele>
        <time>2019-02-23T09:40:46.395Z</time>
      </trkpt>
      <trkpt lat="40.665410" lon="-3.429439">
        <ele>810.4</ele>
        <time>2019-02-23T09:40:48.395Z</time>
      </trkpt>
      <trkpt lat="40.665368" lon="-3.429431">
        <ele>810.1</ele>
        <time>2019-02-23T09:40:49.395Z</time>
      </trkpt>
      <trkpt lat="40.665331" lon="-3.429422">
        <ele>809.6</ele>
        <time>2019-02-23T09:40:50.395Z</time>
      </trkpt>
      <trkpt lat="40.665285" lon="-3.429413">
        <ele>809.2</ele>
        <time>2019-02-23T09:40:51.395Z</time>
      </trkpt>
      <trkpt lat="40.665249" lon="-3.429408">
        <ele>808.9</ele>
        <time>2019-02-23T09:40:52.395Z</time>
      </trkpt>
      <trkpt lat="40.665136" lon="-3.429397">
        <ele>808.5</ele>
        <time>2019-02-23T09:40:55.395Z</time>
      </trkpt>
      <trkpt lat="40.665059" lon="-3.429389">
        <ele>808.4</ele>
        <time>2019-02-23T09:40:57.395Z</time>
      </trkpt>
      <trkpt lat="40.665023" lon="-3.429386">
        <ele>807.8</ele>
        <time>2019-02-23T09:40:58.395Z</time>
      </trkpt>
      <trkpt lat="40.664989" lon="-3.429385">
        <ele>807.5</ele>
        <time>2019-02-23T09:40:59.395Z</time>
      </trkpt>
      <trkpt lat="40.664957" lon="-3.429384">
        <ele>807.0</ele>
        <time>2019-02-23T09:41:00.395Z</time>
      </trkpt>
      <trkpt lat="40.664921" lon="-3.429382">
        <ele>806.5</ele>
        <time>2019-02-23T09:41:01.395Z</time>
      </trkpt>
      <trkpt lat="40.664758" lon="-3.429389">
        <ele>806.0</ele>
        <time>2019-02-23T09:41:05.395Z</time>
      </trkpt>
      <trkpt lat="40.664722" lon="-3.429395">
        <ele>805.5</ele>
        <time>2019-02-23T09:41:06.395Z</time>
      </trkpt>
      <trkpt lat="40.664685" lon="-3.429402">
        <ele>805.2</ele>
        <time>2019-02-23T09:41:07.395Z</time>
      </trkpt>
      <trkpt lat="40.664647" lon="-3.429409">
        <ele>804.6</ele>
        <time>2019-02-23T09:41:08.395Z</time>
      </trkpt>
      <trkpt lat="40.664598" lon="-3.429417">
        <ele>804.1</ele>
        <time>2019-02-23T09:41:09.395Z</time>
      </trkpt>
      <trkpt lat="40.664559" lon="-3.429425">
        <ele>803.9</ele>
        <time>2019-02-23T09:41:10.395Z</time>
      </trkpt>
      <trkpt lat="40.664485" lon="-3.429440">
        <ele>803.9</ele>
        <time>2019-02-23T09:41:12.395Z</time>
      </trkpt>
      <trkpt lat="40.664446" lon="-3.429449">
        <ele>803.4</ele>
        <time>2019-02-23T09:41:13.395Z</time>
      </trkpt>
      <trkpt lat="40.664409" lon="-3.429458">
        <ele>803.0</ele>
        <time>2019-02-23T09:41:14.395Z</time>
      </trkpt>
      <trkpt lat="40.664372" lon="-3.429469">
        <ele>802.5</ele>
        <time>2019-02-23T09:41:15.395Z</time>
      </trkpt>
      <trkpt lat="40.664334" lon="-3.429479">
        <ele>802.1</ele>
        <time>2019-02-23T09:41:16.395Z</time>
      </trkpt>
      <trkpt lat="40.664226" lon="-3.429503">
        <ele>801.5</ele>
        <time>2019-02-23T09:41:19.395Z</time>
      </trkpt>
      <trkpt lat="40.664140" lon="-3.429516">
        <ele>801.6</ele>
        <time>2019-02-23T09:41:21.395Z</time>
      </trkpt>
      <trkpt lat="40.664099" lon="-3.429520">
        <ele>801.0</ele>
        <time>2019-02-23T09:41:22.395Z</time>
      </trkpt>
      <trkpt lat="40.664059" lon="-3.429524">
        <ele>800.6</ele>
        <time>2019-02-23T09:41:23.395Z</time>
      </trkpt>
      <trkpt lat="40.664016" lon="-3.429520">
        <ele>800.1</ele>
        <time>2019-02-23T09:41:24.395Z</time>
      </trkpt>
      <trkpt lat="40.663973" lon="-3.429509">
        <ele>799.9</ele>
        <time>2019-02-23T09:41:25.395Z</time>
      </trkpt>
      <trkpt lat="40.663930" lon="-3.429496">
        <ele>799.2</ele>
        <time>2019-02-23T09:41:26.395Z</time>
      </trkpt>
      <trkpt lat="40.663811" lon="-3.429445">
        <ele>799.2</ele>
        <time>2019-02-23T09:41:29.395Z</time>
      </trkpt>
      <trkpt lat="40.663772" lon="-3.429420">
        <ele>798.8</ele>
        <time>2019-02-23T09:41:30.395Z</time>
      </trkpt>
      <trkpt lat="40.663733" lon="-3.429390">
        <ele>798.4</ele>
        <time>2019-02-23T09:41:31.395Z</time>
      </trkpt>
      <trkpt lat="40.663694" lon="-3.429366">
        <ele>798.1</ele>
        <time>2019-02-23T09:41:32.395Z</time>
      </trkpt>
      <trkpt lat="40.663655" lon="-3.429342">
        <ele>797.6</ele>
        <time>2019-02-23T09:41:33.395Z</time>
      </trkpt>
      <trkpt lat="40.663617" lon="-3.429316">
        <ele>797.2</ele>
        <time>2019-02-23T09:41:34.395Z</time>
      </trkpt>
      <trkpt lat="40.663449" lon="-3.429233">
        <ele>797.2</ele>
        <time>2019-02-23T09:41:38.395Z</time>
      </trkpt>
      <trkpt lat="40.663394" lon="-3.429217">
        <ele>796.8</ele>
        <time>2019-02-23T09:41:39.395Z</time>
      </trkpt>
      <trkpt lat="40.663343" lon="-3.429203">
        <ele>796.4</ele>
        <time>2019-02-23T09:41:40.395Z</time>
      </trkpt>
      <trkpt lat="40.663293" lon="-3.429191">
        <ele>796.1</ele>
        <time>2019-02-23T09:41:41.395Z</time>
      </trkpt>
      <trkpt lat="40.663248" lon="-3.429180">
        <ele>795.6</ele>
        <time>2019-02-23T09:41:42.395Z</time>
      </trkpt>
      <trkpt lat="40.663039" lon="-3.429153">
        <ele>795.1</ele>
        <time>2019-02-23T09:41:46.395Z</time>
      </trkpt>
      <trkpt lat="40.662624" lon="-3.429132">
        <ele>795.2</ele>
        <time>2019-02-23T09:41:54.395Z</time>
      </trkpt>
      <trkpt lat="40.662576" lon="-3.429130">
        <ele>794.8</ele>
        <time>2019-02-23T09:41:55.395Z</time>
      </trkpt>
      <trkpt lat="40.662529" lon="-3.429126">
        <ele>794.4</ele>
        <time>2019-02-23T09:41:56.395Z</time>
      </trkpt>
      <trkpt lat="40.662481" lon="-3.429122">
        <ele>794.1</ele>
        <time>2019-02-23T09:41:57.395Z</time>
      </trkpt>
      <trkpt lat="40.662433" lon="-3.429118">
        <ele>793.6</ele>
        <time>2019-02-23T09:41:58.395Z</time>
      </trkpt>
      <trkpt lat="40.662291" lon="-3.429110">
        <ele>793.2</ele>
        <time>2019-02-23T09:42:01.395Z</time>
      </trkpt>
      <trkpt lat="40.662240" lon="-3.429109">
        <ele>792.9</ele>
        <time>2019-02-23T09:42:02.395Z</time>
      </trkpt>
      <trkpt lat="40.662194" lon="-3.429107">
        <ele>792.2</ele>
        <time>2019-02-23T09:42:03.395Z</time>
      </trkpt>
      <trkpt lat="40.662149" lon="-3.429107">
        <ele>791.9</ele>
        <time>2019-02-23T09:42:04.395Z</time>
      </trkpt>
      <trkpt lat="40.662101" lon="-3.429106">
        <ele>791.5</ele>
        <time>2019-02-23T09:42:05.395Z</time>
      </trkpt>
      <trkpt lat="40.662054" lon="-3.429104">
        <ele>791.0</ele>
        <time>2019-02-23T09:42:06.395Z</time>
      </trkpt>
      <trkpt lat="40.661788" lon="-3.429094">
        <ele>791.1</ele>
        <time>2019-02-23T09:42:12.395Z</time>
      </trkpt>
      <trkpt lat="40.661742" lon="-3.429100">
        <ele>790.6</ele>
        <time>2019-02-23T09:42:13.395Z</time>
      </trkpt>
      <trkpt lat="40.661697" lon="-3.429110">
        <ele>790.1</ele>
        <time>2019-02-23T09:42:14.395Z</time>
      </trkpt>
      <trkpt lat="40.661655" lon="-3.429118">
        <ele>789.8</ele>
        <time>2019-02-23T09:42:15.395Z</time>
      </trkpt>
      <trkpt lat="40.661612" lon="-3.429126">
        <ele>789.4</ele>
        <time>2019-02-23T09:42:16.395Z</time>
      </trkpt>
      <trkpt lat="40.661434" lon="-3.429178">
        <ele>788.9</ele>
        <time>2019-02-23T09:42:20.395Z</time>
      </trkpt>
      <trkpt lat="40.661389" lon="-3.429196">
        <ele>788.5</ele>
        <time>2019-02-23T09:42:21.395Z</time>
      </trkpt>
      <trkpt lat="40.661348" lon="-3.429212">
        <ele>788.0</ele>
        <time>2019-02-23T09:42:22.395Z</time>
      </trkpt>
      <trkpt lat="40.661305" lon="-3.429228">
        <ele>787.5</ele>
        <time>2019-02-23T09:42:23.395Z</time>
      </trkpt>
      <trkpt lat="40.661263" lon="-3.429244">
        <ele>787.1</ele>
        <time>2019-02-23T09:42:24.395Z</time>
      </trkpt>
      <trkpt lat="40.661070" lon="-3.429336">
        <ele>786.5</ele>
        <time>2019-02-23T09:42:29.395Z</time>
      </trkpt>
      <trkpt lat="40.661029" lon="-3.429353">
        <ele>786.5</ele>
        <time>2019-02-23T09:42:30.395Z</time>
      </trkpt>
      <trkpt lat="40.660987" lon="-3.429371">
        <ele>786.1</ele>
        <time>2019-02-23T09:42:31.395Z</time>
      </trkpt>
      <trkpt lat="40.660944" lon="-3.429390">
        <ele>785.5</ele>
        <time>2019-02-23T09:42:32.395Z</time>
      </trkpt>
      <trkpt lat="40.660900" lon="-3.429409">
        <ele>785.1</ele>
        <time>2019-02-23T09:42:33.395Z</time>
      </trkpt>
      <trkpt lat="40.660854" lon="-3.429428">
        <ele>784.8</ele>
        <time>2019-02-23T09:42:34.395Z</time>
      </trkpt>
      <trkpt lat="40.660679" lon="-3.429511">
        <ele>784.2</ele>
        <time>2019-02-23T09:42:38.395Z</time>
      </trkpt>
      <trkpt lat="40.660637" lon="-3.429533">
        <ele>783.9</ele>
        <time>2019-02-23T09:42:39.395Z</time>
      </trkpt>
      <trkpt lat="40.660592" lon="-3.429557">
        <ele>783.4</ele>
        <time>2019-02-23T09:42:40.395Z</time>
      </trkpt>
      <trkpt lat="40.660551" lon="-3.429579">
        <ele>782.9</ele>
        <time>2019-02-23T09:42:41.395Z</time>
      </trkpt>
      <trkpt lat="40.660509" lon="-3.429601">
        <ele>782.5</ele>
        <time>2019-02-23T09:42:42.395Z</time>
      </trkpt>
      <trkpt lat="40.660187" lon="-3.429821">
        <ele>781.8</ele>
        <time>2019-02-23T09:42:50.395Z</time>
      </trkpt>
      <trkpt lat="40.660148" lon="-3.429849">
        <ele>781.5</ele>
        <time>2019-02-23T09:42:51.395Z</time>
      </trkpt>
      <trkpt lat="40.660109" lon="-3.429875">
        <ele>781.0</ele>
        <time>2019-02-23T09:42:52.395Z</time>
      </trkpt>
      <trkpt lat="40.660071" lon="-3.429901">
        <ele>780.6</ele>
        <time>2019-02-23T09:42:53.395Z</time>
      </trkpt>
      <trkpt lat="40.660033" lon="-3.429926">
        <ele>780.2</ele>
        <time>2019-02-23T09:42:54.395Z</time>
      </trkpt>
      <trkpt lat="40.659839" lon="-3.430066">
        <ele>779.8</ele>
        <time>2019-02-23T09:42:59.395Z</time>
      </trkpt>
      <trkpt lat="40.659800" lon="-3.430094">
        <ele>779.4</ele>
        <time>2019-02-23T09:43:00.395Z</time>
      </trkpt>
      <trkpt lat="40.659764" lon="-3.430121">
        <ele>778.8</ele>
        <time>2019-02-23T09:43:01.395Z</time>
      </trkpt>
      <trkpt lat="40.659728" lon="-3.430148">
        <ele>778.5</ele>
        <time>2019-02-23T09:43:02.395Z</time>
      </trkpt>
      <trkpt lat="40.659691" lon="-3.430174">
        <ele>777.9</ele>
        <time>2019-02-23T09:43:03.395Z</time>
      </trkpt>
      <trkpt lat="40.659470" lon="-3.430335">
        <ele>777.4</ele>
        <time>2019-02-23T09:43:09.395Z</time>
      </trkpt>
      <trkpt lat="40.659434" lon="-3.430365">
        <ele>777.1</ele>
        <time>2019-02-23T09:43:10.395Z</time>
      </trkpt>
      <trkpt lat="40.659398" lon="-3.430394">
        <ele>776.5</ele>
        <time>2019-02-23T09:43:11.395Z</time>
      </trkpt>
      <trkpt lat="40.659358" lon="-3.430423">
        <ele>776.1</ele>
        <time>2019-02-23T09:43:12.395Z</time>
      </trkpt>
      <trkpt lat="40.659318" lon="-3.430450">
        <ele>775.8</ele>
        <time>2019-02-23T09:43:13.395Z</time>
      </trkpt>
      <trkpt lat="40.659210" lon="-3.430525">
        <ele>775.5</ele>
        <time>2019-02-23T09:43:16.395Z</time>
      </trkpt>
      <trkpt lat="40.659173" lon="-3.430551">
        <ele>775.1</ele>
        <time>2019-02-23T09:43:17.395Z</time>
      </trkpt>
      <trkpt lat="40.659132" lon="-3.430578">
        <ele>774.4</ele>
        <time>2019-02-23T09:43:18.395Z</time>
      </trkpt>
      <trkpt lat="40.659096" lon="-3.430607">
        <ele>774.0</ele>
        <time>2019-02-23T09:43:19.395Z</time>
      </trkpt>
      <trkpt lat="40.659054" lon="-3.430639">
        <ele>773.5</ele>
        <time>2019-02-23T09:43:20.395Z</time>
      </trkpt>
      <trkpt lat="40.658699" lon="-3.430905">
        <ele>773.2</ele>
        <time>2019-02-23T09:43:28.395Z</time>
      </trkpt>
      <trkpt lat="40.658621" lon="-3.430970">
        <ele>773.2</ele>
        <time>2019-02-23T09:43:30.395Z</time>
      </trkpt>
      <trkpt lat="40.658583" lon="-3.431004">
        <ele>772.8</ele>
        <time>2019-02-23T09:43:31.395Z</time>
      </trkpt>
      <trkpt lat="40.658547" lon="-3.431036">
        <ele>772.5</ele>
        <time>2019-02-23T09:43:32.395Z</time>
      </trkpt>
      <trkpt lat="40.658512" lon="-3.431070">
        <ele>772.1</ele>
        <time>2019-02-23T09:43:33.395Z</time>
      </trkpt>
      <trkpt lat="40.658477" lon="-3.431103">
        <ele>771.6</ele>
        <time>2019-02-23T09:43:34.395Z</time>
      </trkpt>
      <trkpt lat="40.658409" lon="-3.431171">
        <ele>771.2</ele>
        <time>2019-02-23T09:43:36.395Z</time>
      </trkpt>
      <trkpt lat="40.658373" lon="-3.431206">
        <ele>771.2</ele>
        <time>2019-02-23T09:43:37.395Z</time>
      </trkpt>
      <trkpt lat="40.658340" lon="-3.431244">
        <ele>770.8</ele>
        <time>2019-02-23T09:43:38.395Z</time>
      </trkpt>
      <trkpt lat="40.658309" lon="-3.431282">
        <ele>770.4</ele>
        <time>2019-02-23T09:43:39.395Z</time>
      </trkpt>
      <trkpt lat="40.658275" lon="-3.431318">
        <ele>770.0</ele>
        <time>2019-02-23T09:43:40.395Z</time>
      </trkpt>
      <trkpt lat="40.658243" lon="-3.431353">
        <ele>769.4</ele>
        <time>2019-02-23T09:43:41.395Z</time>
      </trkpt>
      <trkpt lat="40.658151" lon="-3.431455">
        <ele>769.0</ele>
        <time>2019-02-23T09:43:44.395Z</time>
      </trkpt>
      <trkpt lat="40.658088" lon="-3.431519">
        <ele>769.0</ele>
        <time>2019-02-23T09:43:46.395Z</time>
      </trkpt>
      <trkpt lat="40.658057" lon="-3.431552">
        <ele>768.6</ele>
        <time>2019-02-23T09:43:47.395Z</time>
      </trkpt>
      <trkpt lat="40.658027" lon="-3.431583">
        <ele>768.2</ele>
        <time>2019-02-23T09:43:48.395Z</time>
      </trkpt>
      <trkpt lat="40.657993" lon="-3.431622">
        <ele>767.9</ele>
        <time>2019-02-23T09:43:49.395Z</time>
      </trkpt>
      <trkpt lat="40.657957" lon="-3.431656">
        <ele>767.2</ele>
        <time>2019-02-23T09:43:50.395Z</time>
      </trkpt>
      <trkpt lat="40.657891" lon="-3.431723">
        <ele>766.9</ele>
        <time>2019-02-23T09:43:52.395Z</time>
      </trkpt>
      <trkpt lat="40.657859" lon="-3.431760">
        <ele>766.5</ele>
        <time>2019-02-23T09:43:53.395Z</time>
      </trkpt>
      <trkpt lat="40.657820" lon="-3.431801">
        <ele>766.0</ele>
        <time>2019-02-23T09:43:54.395Z</time>
      </trkpt>
      <trkpt lat="40.657786" lon="-3.431838">
        <ele>765.5</ele>
        <time>2019-02-23T09:43:55.395Z</time>
      </trkpt>
      <trkpt lat="40.657750" lon="-3.431878">
        <ele>765.1</ele>
        <time>2019-02-23T09:43:56.395Z</time>
      </trkpt>
      <trkpt lat="40.657716" lon="-3.431916">
        <ele>764.8</ele>
        <time>2019-02-23T09:43:57.395Z</time>
      </trkpt>
      <trkpt lat="40.657653" lon="-3.431993">
        <ele>764.8</ele>
        <time>2019-02-23T09:43:59.395Z</time>
      </trkpt>
      <trkpt lat="40.657623" lon="-3.432032">
        <ele>764.5</ele>
        <time>2019-02-23T09:44:00.395Z</time>
      </trkpt>
      <trkpt lat="40.657594" lon="-3.432070">
        <ele>763.8</ele>
        <time>2019-02-23T09:44:01.395Z</time>
      </trkpt>
      <trkpt lat="40.657563" lon="-3.432110">
        <ele>763.5</ele>
        <time>2019-02-23T09:44:02.395Z</time>
      </trkpt>
      <trkpt lat="40.657533" lon="-3.432153">
        <ele>763.1</ele>
        <time>2019-02-23T09:44:03.395Z</time>
      </trkpt>
      <trkpt lat="40.657436" lon="-3.432253">
        <ele>762.5</ele>
        <time>2019-02-23T09:44:06.395Z</time>
      </trkpt>
      <trkpt lat="40.657402" lon="-3.432286">
        <ele>762.6</ele>
        <time>2019-02-23T09:44:07.395Z</time>
      </trkpt>
      <trkpt lat="40.657366" lon="-3.432323">
        <ele>762.0</ele>
        <time>2019-02-23T09:44:08.395Z</time>
      </trkpt>
      <trkpt lat="40.657336" lon="-3.432364">
        <ele>761.6</ele>
        <time>2019-02-23T09:44:09.395Z</time>
      </trkpt>
      <trkpt lat="40.657305" lon="-3.432410">
        <ele>761.1</ele>
        <time>2019-02-23T09:44:10.395Z</time>
      </trkpt>
      <trkpt lat="40.657274" lon="-3.432454">
        <ele>760.8</ele>
        <time>2019-02-23T09:44:11.395Z</time>
      </trkpt>
      <trkpt lat="40.657243" lon="-3.432499">
        <ele>760.5</ele>
        <time>2019-02-23T09:44:12.395Z</time>
      </trkpt>
      <trkpt lat="40.657207" lon="-3.432536">
        <ele>760.4</ele>
        <time>2019-02-23T09:44:13.395Z</time>
      </trkpt>
      <trkpt lat="40.657176" lon="-3.432574">
        <ele>760.1</ele>
        <time>2019-02-23T09:44:14.395Z</time>
      </trkpt>
      <trkpt lat="40.657146" lon="-3.432615">
        <ele>759.4</ele>
        <time>2019-02-23T09:44:15.395Z</time>
      </trkpt>
      <trkpt lat="40.657116" lon="-3.432657">
        <ele>759.0</ele>
        <time>2019-02-23T09:44:16.395Z</time>
      </trkpt>
      <trkpt lat="40.657083" lon="-3.432697">
        <ele>758.6</ele>
        <time>2019-02-23T09:44:17.395Z</time>
      </trkpt>
      <trkpt lat="40.656990" lon="-3.432795">
        <ele>758.2</ele>
        <time>2019-02-23T09:44:20.395Z</time>
      </trkpt>
      <trkpt lat="40.656960" lon="-3.432825">
        <ele>757.9</ele>
        <time>2019-02-23T09:44:21.395Z</time>
      </trkpt>
      <trkpt lat="40.656932" lon="-3.432861">
        <ele>757.2</ele>
        <time>2019-02-23T09:44:22.395Z</time>
      </trkpt>
      <trkpt lat="40.656902" lon="-3.432898">
        <ele>756.8</ele>
        <time>2019-02-23T09:44:23.395Z</time>
      </trkpt>
      <trkpt lat="40.656869" lon="-3.432935">
        <ele>756.1</ele>
        <time>2019-02-23T09:44:24.395Z</time>
      </trkpt>
      <trkpt lat="40.656716" lon="-3.433118">
        <ele>755.8</ele>
        <time>2019-02-23T09:44:28.395Z</time>
      </trkpt>
      <trkpt lat="40.656509" lon="-3.433370">
        <ele>755.9</ele>
        <time>2019-02-23T09:44:33.395Z</time>
      </trkpt>
      <trkpt lat="40.656469" lon="-3.433420">
        <ele>755.4</ele>
        <time>2019-02-23T09:44:34.395Z</time>
      </trkpt>
      <trkpt lat="40.656428" lon="-3.433470">
        <ele>755.1</ele>
        <time>2019-02-23T09:44:35.395Z</time>
      </trkpt>
      <trkpt lat="40.656388" lon="-3.433516">
        <ele>754.5</ele>
        <time>2019-02-23T09:44:36.395Z</time>
      </trkpt>
      <trkpt lat="40.656349" lon="-3.433562">
        <ele>754.2</ele>
        <time>2019-02-23T09:44:37.395Z</time>
      </trkpt>
      <trkpt lat="40.656194" lon="-3.433739">
        <ele>753.8</ele>
        <time>2019-02-23T09:44:41.395Z</time>
      </trkpt>
      <trkpt lat="40.655810" lon="-3.434188">
        <ele>753.9</ele>
        <time>2019-02-23T09:44:51.395Z</time>
      </trkpt>
      <trkpt lat="40.655768" lon="-3.434234">
        <ele>753.8</ele>
        <time>2019-02-23T09:44:52.395Z</time>
      </trkpt>
      <trkpt lat="40.655725" lon="-3.434281">
        <ele>753.1</ele>
        <time>2019-02-23T09:44:53.395Z</time>
      </trkpt>
      <trkpt lat="40.655684" lon="-3.434327">
        <ele>752.6</ele>
        <time>2019-02-23T09:44:54.395Z</time>
      </trkpt>
      <trkpt lat="40.655642" lon="-3.434374">
        <ele>752.1</ele>
        <time>2019-02-23T09:44:55.395Z</time>
      </trkpt>
      <trkpt lat="40.655600" lon="-3.434422">
        <ele>751.5</ele>
        <time>2019-02-23T09:44:56.395Z</time>
      </trkpt>
      <trkpt lat="40.655268" lon="-3.434811">
        <ele>751.0</ele>
        <time>2019-02-23T09:45:04.395Z</time>
      </trkpt>
      <trkpt lat="40.655024" lon="-3.435098">
        <ele>751.1</ele>
        <time>2019-02-23T09:45:10.395Z</time>
      </trkpt>
      <trkpt lat="40.654980" lon="-3.435148">
        <ele>750.6</ele>
        <time>2019-02-23T09:45:11.395Z</time>
      </trkpt>
      <trkpt lat="40.654938" lon="-3.435197">
        <ele>750.2</ele>
        <time>2019-02-23T09:45:12.395Z</time>
      </trkpt>
      <trkpt lat="40.654896" lon="-3.435248">
        <ele>749.9</ele>
        <time>2019-02-23T09:45:13.395Z</time>
      </trkpt>
      <trkpt lat="40.654852" lon="-3.435298">
        <ele>749.5</ele>
        <time>2019-02-23T09:45:14.395Z</time>
      </trkpt>
      <trkpt lat="40.654809" lon="-3.435348">
        <ele>749.0</ele>
        <time>2019-02-23T09:45:15.395Z</time>
      </trkpt>
      <trkpt lat="40.654684" lon="-3.435495">
        <ele>749.0</ele>
        <time>2019-02-23T09:45:18.395Z</time>
      </trkpt>
      <trkpt lat="40.654640" lon="-3.435544">
        <ele>748.6</ele>
        <time>2019-02-23T09:45:19.395Z</time>
      </trkpt>
      <trkpt lat="40.654603" lon="-3.435590">
        <ele>748.1</ele>
        <time>2019-02-23T09:45:20.395Z</time>
      </trkpt>
      <trkpt lat="40.654562" lon="-3.435636">
        <ele>747.5</ele>
        <time>2019-02-23T09:45:21.395Z</time>
      </trkpt>
      <trkpt lat="40.654524" lon="-3.435682">
        <ele>747.1</ele>
        <time>2019-02-23T09:45:22.395Z</time>
      </trkpt>
      <trkpt lat="40.654368" lon="-3.435863">
        <ele>746.6</ele>
        <time>2019-02-23T09:45:26.395Z</time>
      </trkpt>
      <trkpt lat="40.654122" lon="-3.436150">
        <ele>746.6</ele>
        <time>2019-02-23T09:45:32.395Z</time>
      </trkpt>
      <trkpt lat="40.654084" lon="-3.436194">
        <ele>746.6</ele>
        <time>2019-02-23T09:45:33.395Z</time>
      </trkpt>
      <trkpt lat="40.654045" lon="-3.436240">
        <ele>746.1</ele>
        <time>2019-02-23T09:45:34.395Z</time>
      </trkpt>
      <trkpt lat="40.654004" lon="-3.436286">
        <ele>745.9</ele>
        <time>2019-02-23T09:45:35.395Z</time>
      </trkpt>
      <trkpt lat="40.653964" lon="-3.436331">
        <ele>745.5</ele>
        <time>2019-02-23T09:45:36.395Z</time>
      </trkpt>
      <trkpt lat="40.653923" lon="-3.436379">
        <ele>744.8</ele>
        <time>2019-02-23T09:45:37.395Z</time>
      </trkpt>
      <trkpt lat="40.653561" lon="-3.436799">
        <ele>744.5</ele>
        <time>2019-02-23T09:45:46.395Z</time>
      </trkpt>
      <trkpt lat="40.653523" lon="-3.436845">
        <ele>744.0</ele>
        <time>2019-02-23T09:45:47.395Z</time>
      </trkpt>
      <trkpt lat="40.653484" lon="-3.436893">
        <ele>743.5</ele>
        <time>2019-02-23T09:45:48.395Z</time>
      </trkpt>
      <trkpt lat="40.653445" lon="-3.436938">
        <ele>743.1</ele>
        <time>2019-02-23T09:45:49.395Z</time>
      </trkpt>
      <trkpt lat="40.653406" lon="-3.436983">
        <ele>742.8</ele>
        <time>2019-02-23T09:45:50.395Z</time>
      </trkpt>
      <trkpt lat="40.653222" lon="-3.437194">
        <ele>742.1</ele>
        <time>2019-02-23T09:45:55.395Z</time>
      </trkpt>
      <trkpt lat="40.653183" lon="-3.437240">
        <ele>741.9</ele>
        <time>2019-02-23T09:45:56.395Z</time>
      </trkpt>
      <trkpt lat="40.653143" lon="-3.437288">
        <ele>741.5</ele>
        <time>2019-02-23T09:45:57.395Z</time>
      </trkpt>
      <trkpt lat="40.653100" lon="-3.437337">
        <ele>741.1</ele>
        <time>2019-02-23T09:45:58.395Z</time>
      </trkpt>
      <trkpt lat="40.653057" lon="-3.437388">
        <ele>740.5</ele>
        <time>2019-02-23T09:45:59.395Z</time>
      </trkpt>
      <trkpt lat="40.652968" lon="-3.437491">
        <ele>740.1</ele>
        <time>2019-02-23T09:46:01.395Z</time>
      </trkpt>
      <trkpt lat="40.652523" lon="-3.438011">
        <ele>740.1</ele>
        <time>2019-02-23T09:46:11.395Z</time>
      </trkpt>
      <trkpt lat="40.652294" lon="-3.438277">
        <ele>740.1</ele>
        <time>2019-02-23T09:46:16.395Z</time>
      </trkpt>
      <trkpt lat="40.652044" lon="-3.438561">
        <ele>740.2</ele>
        <time>2019-02-23T09:46:21.395Z</time>
      </trkpt>
      <trkpt lat="40.651783" lon="-3.438861">
        <ele>740.1</ele>
        <time>2019-02-23T09:46:26.395Z</time>
      </trkpt>
      <trkpt lat="40.651735" lon="-3.438919">
        <ele>739.8</ele>
        <time>2019-02-23T09:46:27.395Z</time>
      </trkpt>
      <trkpt lat="40.651687" lon="-3.438976">
        <ele>739.4</ele>
        <time>2019-02-23T09:46:28.395Z</time>
      </trkpt>
      <trkpt lat="40.651638" lon="-3.439031">
        <ele>738.8</ele>
        <time>2019-02-23T09:46:29.395Z</time>
      </trkpt>
      <trkpt lat="40.651592" lon="-3.439083">
        <ele>738.5</ele>
        <time>2019-02-23T09:46:30.395Z</time>
      </trkpt>
      <trkpt lat="40.651333" lon="-3.439376">
        <ele>738.1</ele>
        <time>2019-02-23T09:46:36.395Z</time>
      </trkpt>
      <trkpt lat="40.651250" lon="-3.439477">
        <ele>738.1</ele>
        <time>2019-02-23T09:46:38.395Z</time>
      </trkpt>
      <trkpt lat="40.651210" lon="-3.439523">
        <ele>737.6</ele>
        <time>2019-02-23T09:46:39.395Z</time>
      </trkpt>
      <trkpt lat="40.651172" lon="-3.439567">
        <ele>737.1</ele>
        <time>2019-02-23T09:46:40.395Z</time>
      </trkpt>
      <trkpt lat="40.651092" lon="-3.439654">
        <ele>736.4</ele>
        <time>2019-02-23T09:46:42.395Z</time>
      </trkpt>
      <trkpt lat="40.651018" lon="-3.439750">
        <ele>735.8</ele>
        <time>2019-02-23T09:46:44.395Z</time>
      </trkpt>
      <trkpt lat="40.650836" lon="-3.439962">
        <ele>735.8</ele>
        <time>2019-02-23T09:46:49.395Z</time>
      </trkpt>
      <trkpt lat="40.650797" lon="-3.440004">
        <ele>735.4</ele>
        <time>2019-02-23T09:46:50.395Z</time>
      </trkpt>
      <trkpt lat="40.650758" lon="-3.440044">
        <ele>735.0</ele>
        <time>2019-02-23T09:46:51.395Z</time>
      </trkpt>
      <trkpt lat="40.650719" lon="-3.440083">
        <ele>734.5</ele>
        <time>2019-02-23T09:46:52.395Z</time>
      </trkpt>
      <trkpt lat="40.650679" lon="-3.440124">
        <ele>734.2</ele>
        <time>2019-02-23T09:46:53.395Z</time>
      </trkpt>
      <trkpt lat="40.650471" lon="-3.440346">
        <ele>733.8</ele>
        <time>2019-02-23T09:46:58.395Z</time>
      </trkpt>
      <trkpt lat="40.650337" lon="-3.440482">
        <ele>733.9</ele>
        <time>2019-02-23T09:47:01.395Z</time>
      </trkpt>
      <trkpt lat="40.650288" lon="-3.440529">
        <ele>733.5</ele>
        <time>2019-02-23T09:47:02.395Z</time>
      </trkpt>
      <trkpt lat="40.650242" lon="-3.440575">
        <ele>732.8</ele>
        <time>2019-02-23T09:47:03.395Z</time>
      </trkpt>
      <trkpt lat="40.650197" lon="-3.440621">
        <ele>732.5</ele>
        <time>2019-02-23T09:47:04.395Z</time>
      </trkpt>
      <trkpt lat="40.650152" lon="-3.440668">
        <ele>732.1</ele>
        <time>2019-02-23T09:47:05.395Z</time>
      </trkpt>
      <trkpt lat="40.650015" lon="-3.440808">
        <ele>731.5</ele>
        <time>2019-02-23T09:47:08.395Z</time>
      </trkpt>
      <trkpt lat="40.649879" lon="-3.440942">
        <ele>731.5</ele>
        <time>2019-02-23T09:47:11.395Z</time>
      </trkpt>
      <trkpt lat="40.649834" lon="-3.440983">
        <ele>731.0</ele>
        <time>2019-02-23T09:47:12.395Z</time>
      </trkpt>
      <trkpt lat="40.649783" lon="-3.441022">
        <ele>730.5</ele>
        <time>2019-02-23T09:47:13.395Z</time>
      </trkpt>
      <trkpt lat="40.649732" lon="-3.441058">
        <ele>730.1</ele>
        <time>2019-02-23T09:47:14.395Z</time>
      </trkpt>
      <trkpt lat="40.649679" lon="-3.441092">
        <ele>729.5</ele>
        <time>2019-02-23T09:47:15.395Z</time>
      </trkpt>
      <trkpt lat="40.649626" lon="-3.441126">
        <ele>729.2</ele>
        <time>2019-02-23T09:47:16.395Z</time>
      </trkpt>
      <trkpt lat="40.649075" lon="-3.441278">
        <ele>729.1</ele>
        <time>2019-02-23T09:47:25.395Z</time>
      </trkpt>
      <trkpt lat="40.648680" lon="-3.441381">
        <ele>729.1</ele>
        <time>2019-02-23T09:47:31.395Z</time>
      </trkpt>
      <trkpt lat="40.648617" lon="-3.441398">
        <ele>728.8</ele>
        <time>2019-02-23T09:47:32.395Z</time>
      </trkpt>
      <trkpt lat="40.648557" lon="-3.441413">
        <ele>728.1</ele>
        <time>2019-02-23T09:47:33.395Z</time>
      </trkpt>
      <trkpt lat="40.648494" lon="-3.441429">
        <ele>727.9</ele>
        <time>2019-02-23T09:47:34.395Z</time>
      </trkpt>
      <trkpt lat="40.648435" lon="-3.441442">
        <ele>727.5</ele>
        <time>2019-02-23T09:47:35.395Z</time>
      </trkpt>
      <trkpt lat="40.648178" lon="-3.441499">
        <ele>726.8</ele>
        <time>2019-02-23T09:47:39.395Z</time>
      </trkpt>
      <trkpt lat="40.648053" lon="-3.441544">
        <ele>726.9</ele>
        <time>2019-02-23T09:47:41.395Z</time>
      </trkpt>
      <trkpt lat="40.647933" lon="-3.441609">
        <ele>726.8</ele>
        <time>2019-02-23T09:47:43.395Z</time>
      </trkpt>
      <trkpt lat="40.647832" lon="-3.441705">
        <ele>726.8</ele>
        <time>2019-02-23T09:47:45.395Z</time>
      </trkpt>
      <trkpt lat="40.647631" lon="-3.442012">
        <ele>726.9</ele>
        <time>2019-02-23T09:47:50.395Z</time>
      </trkpt>
      <trkpt lat="40.647595" lon="-3.442071">
        <ele>726.5</ele>
        <time>2019-02-23T09:47:51.395Z</time>
      </trkpt>
      <trkpt lat="40.647561" lon="-3.442129">
        <ele>726.0</ele>
        <time>2019-02-23T09:47:52.395Z</time>
      </trkpt>
      <trkpt lat="40.647525" lon="-3.442189">
        <ele>725.5</ele>
        <time>2019-02-23T09:47:53.395Z</time>
      </trkpt>
      <trkpt lat="40.647494" lon="-3.442243">
        <ele>725.1</ele>
        <time>2019-02-23T09:47:54.395Z</time>
      </trkpt>
      <trkpt lat="40.647313" lon="-3.442566">
        <ele>724.9</ele>
        <time>2019-02-23T09:47:59.395Z</time>
      </trkpt>
      <trkpt lat="40.647137" lon="-3.442869">
        <ele>724.8</ele>
        <time>2019-02-23T09:48:03.395Z</time>
      </trkpt>
      <trkpt lat="40.646804" lon="-3.443428">
        <ele>724.9</ele>
        <time>2019-02-23T09:48:10.395Z</time>
      </trkpt>
      <trkpt lat="40.646446" lon="-3.444040">
        <ele>724.9</ele>
        <time>2019-02-23T09:48:18.395Z</time>
      </trkpt>
      <trkpt lat="40.646093" lon="-3.444636">
        <ele>724.9</ele>
        <time>2019-02-23T09:48:26.395Z</time>
      </trkpt>
      <trkpt lat="40.646046" lon="-3.444718">
        <ele>724.8</ele>
        <time>2019-02-23T09:48:27.395Z</time>
      </trkpt>
      <trkpt lat="40.645698" lon="-3.445312">
        <ele>724.8</ele>
        <time>2019-02-23T09:48:34.395Z</time>
      </trkpt>
      <trkpt lat="40.645653" lon="-3.445391">
        <ele>724.9</ele>
        <time>2019-02-23T09:48:35.395Z</time>
      </trkpt>
      <trkpt lat="40.645548" lon="-3.445626">
        <ele>724.8</ele>
        <time>2019-02-23T09:48:38.395Z</time>
      </trkpt>
      <trkpt lat="40.645512" lon="-3.445763">
        <ele>724.9</ele>
        <time>2019-02-23T09:48:40.395Z</time>
      </trkpt>
      <trkpt lat="40.645497" lon="-3.446027">
        <ele>724.9</ele>
        <time>2019-02-23T09:48:44.395Z</time>
      </trkpt>
      <trkpt lat="40.645500" lon="-3.446090">
        <ele>724.5</ele>
        <time>2019-02-23T09:48:45.395Z</time>
      </trkpt>
      <trkpt lat="40.645502" lon="-3.446154">
        <ele>724.1</ele>
        <time>2019-02-23T09:48:46.395Z</time>
      </trkpt>
      <trkpt lat="40.645505" lon="-3.446218">
        <ele>723.4</ele>
        <time>2019-02-23T09:48:47.395Z</time>
      </trkpt>
      <trkpt lat="40.645509" lon="-3.446285">
        <ele>723.0</ele>
        <time>2019-02-23T09:48:48.395Z</time>
      </trkpt>
      <trkpt lat="40.645519" lon="-3.446567">
        <ele>722.6</ele>
        <time>2019-02-23T09:48:52.395Z</time>
      </trkpt>
      <trkpt lat="40.645526" lon="-3.446728">
        <ele>722.6</ele>
        <time>2019-02-23T09:48:54.395Z</time>
      </trkpt>
      <trkpt lat="40.645561" lon="-3.447451">
        <ele>722.5</ele>
        <time>2019-02-23T09:49:02.395Z</time>
      </trkpt>
      <trkpt lat="40.645565" lon="-3.447543">
        <ele>722.5</ele>
        <time>2019-02-23T09:49:03.395Z</time>
      </trkpt>
      <trkpt lat="40.645587" lon="-3.448254">
        <ele>722.5</ele>
        <time>2019-02-23T09:49:11.395Z</time>
      </trkpt>
      <trkpt lat="40.645592" lon="-3.448338">
        <ele>722.1</ele>
        <time>2019-02-23T09:49:12.395Z</time>
      </trkpt>
      <trkpt lat="40.645597" lon="-3.448415">
        <ele>721.9</ele>
        <time>2019-02-23T09:49:13.395Z</time>
      </trkpt>
      <trkpt lat="40.645599" lon="-3.448496">
        <ele>721.5</ele>
        <time>2019-02-23T09:49:14.395Z</time>
      </trkpt>
      <trkpt lat="40.645597" lon="-3.448572">
        <ele>721.0</ele>
        <time>2019-02-23T09:49:15.395Z</time>
      </trkpt>
      <trkpt lat="40.645590" lon="-3.448643">
        <ele>720.6</ele>
        <time>2019-02-23T09:49:16.395Z</time>
      </trkpt>
      <trkpt lat="40.645502" lon="-3.448916">
        <ele>720.6</ele>
        <time>2019-02-23T09:49:20.395Z</time>
      </trkpt>
      <trkpt lat="40.645466" lon="-3.448972">
        <ele>720.6</ele>
        <time>2019-02-23T09:49:21.395Z</time>
      </trkpt>
      <trkpt lat="40.645007" lon="-3.449388">
        <ele>720.5</ele>
        <time>2019-02-23T09:49:30.395Z</time>
      </trkpt>
      <trkpt lat="40.644851" lon="-3.449507">
        <ele>720.5</ele>
        <time>2019-02-23T09:49:33.395Z</time>
      </trkpt>
      <trkpt lat="40.644804" lon="-3.449547">
        <ele>720.1</ele>
        <time>2019-02-23T09:49:34.395Z</time>
      </trkpt>
      <trkpt lat="40.644758" lon="-3.449585">
        <ele>719.8</ele>
        <time>2019-02-23T09:49:35.395Z</time>
      </trkpt>
      <trkpt lat="40.644715" lon="-3.449619">
        <ele>719.4</ele>
        <time>2019-02-23T09:49:36.395Z</time>
      </trkpt>
      <trkpt lat="40.644674" lon="-3.449654">
        <ele>719.0</ele>
        <time>2019-02-23T09:49:37.395Z</time>
      </trkpt>
      <trkpt lat="40.644554" lon="-3.449754">
        <ele>718.5</ele>
        <time>2019-02-23T09:49:40.395Z</time>
      </trkpt>
      <trkpt lat="40.644515" lon="-3.449789">
        <ele>718.1</ele>
        <time>2019-02-23T09:49:41.395Z</time>
      </trkpt>
      <trkpt lat="40.644476" lon="-3.449823">
        <ele>717.5</ele>
        <time>2019-02-23T09:49:42.395Z</time>
      </trkpt>
      <trkpt lat="40.644440" lon="-3.449854">
        <ele>717.1</ele>
        <time>2019-02-23T09:49:43.395Z</time>
      </trkpt>
      <trkpt lat="40.644402" lon="-3.449889">
        <ele>716.9</ele>
        <time>2019-02-23T09:49:44.395Z</time>
      </trkpt>
      <trkpt lat="40.644361" lon="-3.449923">
        <ele>716.4</ele>
        <time>2019-02-23T09:49:45.395Z</time>
      </trkpt>
      <trkpt lat="40.643939" lon="-3.450273">
        <ele>716.5</ele>
        <time>2019-02-23T09:49:53.395Z</time>
      </trkpt>
      <trkpt lat="40.643761" lon="-3.450425">
        <ele>716.4</ele>
        <time>2019-02-23T09:49:56.395Z</time>
      </trkpt>
      <trkpt lat="40.643306" lon="-3.450813">
        <ele>716.4</ele>
        <time>2019-02-23T09:50:04.395Z</time>
      </trkpt>
      <trkpt lat="40.643252" lon="-3.450861">
        <ele>716.0</ele>
        <time>2019-02-23T09:50:05.395Z</time>
      </trkpt>
      <trkpt lat="40.643193" lon="-3.450913">
        <ele>715.6</ele>
        <time>2019-02-23T09:50:06.395Z</time>
      </trkpt>
      <trkpt lat="40.643138" lon="-3.450959">
        <ele>715.2</ele>
        <time>2019-02-23T09:50:07.395Z</time>
      </trkpt>
      <trkpt lat="40.643083" lon="-3.451006">
        <ele>714.6</ele>
        <time>2019-02-23T09:50:08.395Z</time>
      </trkpt>
      <trkpt lat="40.642598" lon="-3.451420">
        <ele>714.2</ele>
        <time>2019-02-23T09:50:17.395Z</time>
      </trkpt>
      <trkpt lat="40.642321" lon="-3.451647">
        <ele>714.2</ele>
        <time>2019-02-23T09:50:22.395Z</time>
      </trkpt>
      <trkpt lat="40.642265" lon="-3.451693">
        <ele>713.9</ele>
        <time>2019-02-23T09:50:23.395Z</time>
      </trkpt>
      <trkpt lat="40.642203" lon="-3.451736">
        <ele>713.5</ele>
        <time>2019-02-23T09:50:24.395Z</time>
      </trkpt>
      <trkpt lat="40.642144" lon="-3.451773">
        <ele>713.5</ele>
        <time>2019-02-23T09:50:25.395Z</time>
      </trkpt>
      <trkpt lat="40.642080" lon="-3.451806">
        <ele>712.6</ele>
        <time>2019-02-23T09:50:26.395Z</time>
      </trkpt>
      <trkpt lat="40.641774" lon="-3.451880">
        <ele>712.2</ele>
        <time>2019-02-23T09:50:31.395Z</time>
      </trkpt>
      <trkpt lat="40.641715" lon="-3.451891">
        <ele>712.1</ele>
        <time>2019-02-23T09:50:32.395Z</time>
      </trkpt>
      <trkpt lat="40.641594" lon="-3.451908">
        <ele>711.1</ele>
        <time>2019-02-23T09:50:34.395Z</time>
      </trkpt>
      <trkpt lat="40.641533" lon="-3.451918">
        <ele>710.8</ele>
        <time>2019-02-23T09:50:35.395Z</time>
      </trkpt>
      <trkpt lat="40.641465" lon="-3.451928">
        <ele>710.2</ele>
        <time>2019-02-23T09:50:36.395Z</time>
      </trkpt>
      <trkpt lat="40.640903" lon="-3.452025">
        <ele>709.9</ele>
        <time>2019-02-23T09:50:43.395Z</time>
      </trkpt>
      <trkpt lat="40.640543" lon="-3.452089">
        <ele>709.8</ele>
        <time>2019-02-23T09:50:47.395Z</time>
      </trkpt>
      <trkpt lat="40.640453" lon="-3.452103">
        <ele>710.4</ele>
        <time>2019-02-23T09:50:48.395Z</time>
      </trkpt>
      <trkpt lat="40.640270" lon="-3.452135">
        <ele>711.5</ele>
        <time>2019-02-23T09:50:50.395Z</time>
      </trkpt>
      <trkpt lat="40.640183" lon="-3.452152">
        <ele>711.9</ele>
        <time>2019-02-23T09:50:51.395Z</time>
      </trkpt>
      <trkpt lat="40.639926" lon="-3.452196">
        <ele>712.5</ele>
        <time>2019-02-23T09:50:54.395Z</time>
      </trkpt>
      <trkpt lat="40.639844" lon="-3.452211">
        <ele>712.9</ele>
        <time>2019-02-23T09:50:55.395Z</time>
      </trkpt>
      <trkpt lat="40.639767" lon="-3.452227">
        <ele>713.2</ele>
        <time>2019-02-23T09:50:56.395Z</time>
      </trkpt>
      <trkpt lat="40.639693" lon="-3.452243">
        <ele>713.5</ele>
        <time>2019-02-23T09:50:57.395Z</time>
      </trkpt>
      <trkpt lat="40.639619" lon="-3.452259">
        <ele>714.0</ele>
        <time>2019-02-23T09:50:58.395Z</time>
      </trkpt>
      <trkpt lat="40.639235" lon="-3.452349">
        <ele>714.6</ele>
        <time>2019-02-23T09:51:04.395Z</time>
      </trkpt>
      <trkpt lat="40.638933" lon="-3.452471">
        <ele>714.6</ele>
        <time>2019-02-23T09:51:10.395Z</time>
      </trkpt>
      <trkpt lat="40.638849" lon="-3.452530">
        <ele>714.6</ele>
        <time>2019-02-23T09:51:12.395Z</time>
      </trkpt>
      <trkpt lat="40.638813" lon="-3.452562">
        <ele>714.2</ele>
        <time>2019-02-23T09:51:13.395Z</time>
      </trkpt>
      <trkpt lat="40.638780" lon="-3.452597">
        <ele>713.5</ele>
        <time>2019-02-23T09:51:14.395Z</time>
      </trkpt>
      <trkpt lat="40.638753" lon="-3.452634">
        <ele>713.1</ele>
        <time>2019-02-23T09:51:15.395Z</time>
      </trkpt>
      <trkpt lat="40.638726" lon="-3.452669">
        <ele>712.8</ele>
        <time>2019-02-23T09:51:16.395Z</time>
      </trkpt>
      <trkpt lat="40.638673" lon="-3.452746">
        <ele>712.5</ele>
        <time>2019-02-23T09:51:18.395Z</time>
      </trkpt>
      <trkpt lat="40.638651" lon="-3.452794">
        <ele>712.0</ele>
        <time>2019-02-23T09:51:19.395Z</time>
      </trkpt>
      <trkpt lat="40.638628" lon="-3.452828">
        <ele>711.6</ele>
        <time>2019-02-23T09:51:20.395Z</time>
      </trkpt>
      <trkpt lat="40.638604" lon="-3.452858">
        <ele>711.1</ele>
        <time>2019-02-23T09:51:21.395Z</time>
      </trkpt>
      <trkpt lat="40.638585" lon="-3.452897">
        <ele>710.8</ele>
        <time>2019-02-23T09:51:22.395Z</time>
      </trkpt>
      <trkpt lat="40.638523" lon="-3.453076">
        <ele>710.5</ele>
        <time>2019-02-23T09:51:26.395Z</time>
      </trkpt>
      <trkpt lat="40.638505" lon="-3.453122">
        <ele>709.9</ele>
        <time>2019-02-23T09:51:27.395Z</time>
      </trkpt>
      <trkpt lat="40.638486" lon="-3.453166">
        <ele>709.4</ele>
        <time>2019-02-23T09:51:28.395Z</time>
      </trkpt>
      <trkpt lat="40.638468" lon="-3.453210">
        <ele>709.0</ele>
        <time>2019-02-23T09:51:29.395Z</time>
      </trkpt>
      <trkpt lat="40.638451" lon="-3.453253">
        <ele>708.6</ele>
        <time>2019-02-23T09:51:30.395Z</time>
      </trkpt>
      <trkpt lat="40.638432" lon="-3.453300">
        <ele>708.2</ele>
        <time>2019-02-23T09:51:31.395Z</time>
      </trkpt>
      <trkpt lat="40.638412" lon="-3.453346">
        <ele>707.8</ele>
        <time>2019-02-23T09:51:32.395Z</time>
      </trkpt>
      <trkpt lat="40.638391" lon="-3.453392">
        <ele>707.5</ele>
        <time>2019-02-23T09:51:33.395Z</time>
      </trkpt>
      <trkpt lat="40.638372" lon="-3.453444">
        <ele>707.1</ele>
        <time>2019-02-23T09:51:34.395Z</time>
      </trkpt>
      <trkpt lat="40.638355" lon="-3.453501">
        <ele>706.6</ele>
        <time>2019-02-23T09:51:35.395Z</time>
      </trkpt>
      <trkpt lat="40.638321" lon="-3.453619">
        <ele>706.1</ele>
        <time>2019-02-23T09:51:37.395Z</time>
      </trkpt>
      <trkpt lat="40.638277" lon="-3.453734">
        <ele>706.1</ele>
        <time>2019-02-23T09:51:39.395Z</time>
      </trkpt>
      <trkpt lat="40.638252" lon="-3.453792">
        <ele>705.5</ele>
        <time>2019-02-23T09:51:40.395Z</time>
      </trkpt>
      <trkpt lat="40.638226" lon="-3.453848">
        <ele>705.2</ele>
        <time>2019-02-23T09:51:41.395Z</time>
      </trkpt>
      <trkpt lat="40.638199" lon="-3.453903">
        <ele>704.8</ele>
        <time>2019-02-23T09:51:42.395Z</time>
      </trkpt>
      <trkpt lat="40.638172" lon="-3.453960">
        <ele>704.4</ele>
        <time>2019-02-23T09:51:43.395Z</time>
      </trkpt>
      <trkpt lat="40.638121" lon="-3.454069">
        <ele>704.0</ele>
        <time>2019-02-23T09:51:45.395Z</time>
      </trkpt>
      <trkpt lat="40.638076" lon="-3.454178">
        <ele>704.0</ele>
        <time>2019-02-23T09:51:47.395Z</time>
      </trkpt>
      <trkpt lat="40.637983" lon="-3.454554">
        <ele>704.0</ele>
        <time>2019-02-23T09:51:53.395Z</time>
      </trkpt>
      <trkpt lat="40.637904" lon="-3.454919">
        <ele>704.1</ele>
        <time>2019-02-23T09:51:58.395Z</time>
      </trkpt>
      <trkpt lat="40.637881" lon="-3.454998">
        <ele>704.0</ele>
        <time>2019-02-23T09:51:59.395Z</time>
      </trkpt>
      <trkpt lat="40.637789" lon="-3.455228">
        <ele>704.1</ele>
        <time>2019-02-23T09:52:02.395Z</time>
      </trkpt>
      <trkpt lat="40.637706" lon="-3.455362">
        <ele>704.0</ele>
        <time>2019-02-23T09:52:04.395Z</time>
      </trkpt>
      <trkpt lat="40.637661" lon="-3.455419">
        <ele>704.0</ele>
        <time>2019-02-23T09:52:05.395Z</time>
      </trkpt>
      <trkpt lat="40.637262" lon="-3.455927">
        <ele>704.0</ele>
        <time>2019-02-23T09:52:14.395Z</time>
      </trkpt>
      <trkpt lat="40.636983" lon="-3.456253">
        <ele>704.1</ele>
        <time>2019-02-23T09:52:20.395Z</time>
      </trkpt>
      <trkpt lat="40.636943" lon="-3.456304">
        <ele>703.4</ele>
        <time>2019-02-23T09:52:21.395Z</time>
      </trkpt>
      <trkpt lat="40.636903" lon="-3.456354">
        <ele>703.1</ele>
        <time>2019-02-23T09:52:22.395Z</time>
      </trkpt>
      <trkpt lat="40.636862" lon="-3.456402">
        <ele>702.6</ele>
        <time>2019-02-23T09:52:23.395Z</time>
      </trkpt>
      <trkpt lat="40.636822" lon="-3.456448">
        <ele>702.1</ele>
        <time>2019-02-23T09:52:24.395Z</time>
      </trkpt>
      <trkpt lat="40.636675" lon="-3.456620">
        <ele>701.5</ele>
        <time>2019-02-23T09:52:28.395Z</time>
      </trkpt>
      <trkpt lat="40.636644" lon="-3.456662">
        <ele>701.2</ele>
        <time>2019-02-23T09:52:29.395Z</time>
      </trkpt>
      <trkpt lat="40.636612" lon="-3.456706">
        <ele>700.5</ele>
        <time>2019-02-23T09:52:30.395Z</time>
      </trkpt>
      <trkpt lat="40.636582" lon="-3.456748">
        <ele>700.1</ele>
        <time>2019-02-23T09:52:31.395Z</time>
      </trkpt>
      <trkpt lat="40.636553" lon="-3.456792">
        <ele>699.8</ele>
        <time>2019-02-23T09:52:32.395Z</time>
      </trkpt>
      <trkpt lat="40.636494" lon="-3.456883">
        <ele>699.1</ele>
        <time>2019-02-23T09:52:34.395Z</time>
      </trkpt>
      <trkpt lat="40.636466" lon="-3.456934">
        <ele>698.8</ele>
        <time>2019-02-23T09:52:35.395Z</time>
      </trkpt>
      <trkpt lat="40.636441" lon="-3.456992">
        <ele>698.4</ele>
        <time>2019-02-23T09:52:36.395Z</time>
      </trkpt>
      <trkpt lat="40.636421" lon="-3.457052">
        <ele>698.0</ele>
        <time>2019-02-23T09:52:37.395Z</time>
      </trkpt>
      <trkpt lat="40.636401" lon="-3.457114">
        <ele>697.5</ele>
        <time>2019-02-23T09:52:38.395Z</time>
      </trkpt>
      <trkpt lat="40.636358" lon="-3.457224">
        <ele>697.1</ele>
        <time>2019-02-23T09:52:40.395Z</time>
      </trkpt>
      <trkpt lat="40.636254" lon="-3.457525">
        <ele>697.1</ele>
        <time>2019-02-23T09:52:46.395Z</time>
      </trkpt>
      <trkpt lat="40.636238" lon="-3.457575">
        <ele>696.6</ele>
        <time>2019-02-23T09:52:47.395Z</time>
      </trkpt>
      <trkpt lat="40.636221" lon="-3.457623">
        <ele>696.1</ele>
        <time>2019-02-23T09:52:48.395Z</time>
      </trkpt>
      <trkpt lat="40.636205" lon="-3.457671">
        <ele>695.8</ele>
        <time>2019-02-23T09:52:49.395Z</time>
      </trkpt>
      <trkpt lat="40.636187" lon="-3.457721">
        <ele>695.5</ele>
        <time>2019-02-23T09:52:50.395Z</time>
      </trkpt>
      <trkpt lat="40.636151" lon="-3.457836">
        <ele>694.8</ele>
        <time>2019-02-23T09:52:52.395Z</time>
      </trkpt>
      <trkpt lat="40.636135" lon="-3.457893">
        <ele>694.4</ele>
        <time>2019-02-23T09:52:53.395Z</time>
      </trkpt>
      <trkpt lat="40.636113" lon="-3.457941">
        <ele>694.1</ele>
        <time>2019-02-23T09:52:54.395Z</time>
      </trkpt>
      <trkpt lat="40.636095" lon="-3.457988">
        <ele>693.6</ele>
        <time>2019-02-23T09:52:55.395Z</time>
      </trkpt>
      <trkpt lat="40.636077" lon="-3.458036">
        <ele>693.2</ele>
        <time>2019-02-23T09:52:56.395Z</time>
      </trkpt>
      <trkpt lat="40.636042" lon="-3.458137">
        <ele>692.8</ele>
        <time>2019-02-23T09:52:58.395Z</time>
      </trkpt>
      <trkpt lat="40.636024" lon="-3.458191">
        <ele>692.4</ele>
        <time>2019-02-23T09:52:59.395Z</time>
      </trkpt>
      <trkpt lat="40.636008" lon="-3.458244">
        <ele>692.0</ele>
        <time>2019-02-23T09:53:00.395Z</time>
      </trkpt>
      <trkpt lat="40.635992" lon="-3.458297">
        <ele>691.6</ele>
        <time>2019-02-23T09:53:01.395Z</time>
      </trkpt>
      <trkpt lat="40.635976" lon="-3.458351">
        <ele>691.1</ele>
        <time>2019-02-23T09:53:02.395Z</time>
      </trkpt>
      <trkpt lat="40.635892" lon="-3.458608">
        <ele>690.8</ele>
        <time>2019-02-23T09:53:07.395Z</time>
      </trkpt>
      <trkpt lat="40.635874" lon="-3.458660">
        <ele>690.5</ele>
        <time>2019-02-23T09:53:08.395Z</time>
      </trkpt>
      <trkpt lat="40.635857" lon="-3.458713">
        <ele>689.8</ele>
        <time>2019-02-23T09:53:09.395Z</time>
      </trkpt>
      <trkpt lat="40.635840" lon="-3.458763">
        <ele>689.4</ele>
        <time>2019-02-23T09:53:10.395Z</time>
      </trkpt>
      <trkpt lat="40.635821" lon="-3.458811">
        <ele>689.0</ele>
        <time>2019-02-23T09:53:11.395Z</time>
      </trkpt>
      <trkpt lat="40.635784" lon="-3.458913">
        <ele>688.5</ele>
        <time>2019-02-23T09:53:13.395Z</time>
      </trkpt>
      <trkpt lat="40.635767" lon="-3.458964">
        <ele>688.2</ele>
        <time>2019-02-23T09:53:14.395Z</time>
      </trkpt>
      <trkpt lat="40.635751" lon="-3.459016">
        <ele>687.9</ele>
        <time>2019-02-23T09:53:15.395Z</time>
      </trkpt>
      <trkpt lat="40.635733" lon="-3.459070">
        <ele>687.5</ele>
        <time>2019-02-23T09:53:16.395Z</time>
      </trkpt>
      <trkpt lat="40.635713" lon="-3.459124">
        <ele>687.0</ele>
        <time>2019-02-23T09:53:17.395Z</time>
      </trkpt>
      <trkpt lat="40.635657" lon="-3.459303">
        <ele>686.5</ele>
        <time>2019-02-23T09:53:20.395Z</time>
      </trkpt>
      <trkpt lat="40.635638" lon="-3.459362">
        <ele>686.6</ele>
        <time>2019-02-23T09:53:21.395Z</time>
      </trkpt>
      <trkpt lat="40.635619" lon="-3.459419">
        <ele>686.0</ele>
        <time>2019-02-23T09:53:22.395Z</time>
      </trkpt>
      <trkpt lat="40.635599" lon="-3.459480">
        <ele>685.5</ele>
        <time>2019-02-23T09:53:23.395Z</time>
      </trkpt>
      <trkpt lat="40.635585" lon="-3.459544">
        <ele>685.1</ele>
        <time>2019-02-23T09:53:24.395Z</time>
      </trkpt>
      <trkpt lat="40.635572" lon="-3.459605">
        <ele>684.8</ele>
        <time>2019-02-23T09:53:25.395Z</time>
      </trkpt>
      <trkpt lat="40.635543" lon="-3.460057">
        <ele>684.2</ele>
        <time>2019-02-23T09:53:31.395Z</time>
      </trkpt>
      <trkpt lat="40.635545" lon="-3.460143">
        <ele>683.8</ele>
        <time>2019-02-23T09:53:32.395Z</time>
      </trkpt>
      <trkpt lat="40.635548" lon="-3.460230">
        <ele>683.5</ele>
        <time>2019-02-23T09:53:33.395Z</time>
      </trkpt>
      <trkpt lat="40.635548" lon="-3.460317">
        <ele>683.1</ele>
        <time>2019-02-23T09:53:34.395Z</time>
      </trkpt>
      <trkpt lat="40.635544" lon="-3.460408">
        <ele>682.5</ele>
        <time>2019-02-23T09:53:35.395Z</time>
      </trkpt>
      <trkpt lat="40.635536" lon="-3.460492">
        <ele>682.2</ele>
        <time>2019-02-23T09:53:36.395Z</time>
      </trkpt>
      <trkpt lat="40.635523" lon="-3.460581">
        <ele>682.2</ele>
        <time>2019-02-23T09:53:37.395Z</time>
      </trkpt>
      <trkpt lat="40.635459" lon="-3.460838">
        <ele>682.1</ele>
        <time>2019-02-23T09:53:40.395Z</time>
      </trkpt>
      <trkpt lat="40.635427" lon="-3.460916">
        <ele>682.2</ele>
        <time>2019-02-23T09:53:41.395Z</time>
      </trkpt>
      <trkpt lat="40.635349" lon="-3.461066">
        <ele>682.2</ele>
        <time>2019-02-23T09:53:43.395Z</time>
      </trkpt>
      <trkpt lat="40.635011" lon="-3.461729">
        <ele>682.1</ele>
        <time>2019-02-23T09:53:52.395Z</time>
      </trkpt>
      <trkpt lat="40.634936" lon="-3.461879">
        <ele>682.1</ele>
        <time>2019-02-23T09:53:54.395Z</time>
      </trkpt>
      <trkpt lat="40.634608" lon="-3.462527">
        <ele>682.2</ele>
        <time>2019-02-23T09:54:03.395Z</time>
      </trkpt>
      <trkpt lat="40.634498" lon="-3.462741">
        <ele>682.2</ele>
        <time>2019-02-23T09:54:06.395Z</time>
      </trkpt>
      <trkpt lat="40.634179" lon="-3.463369">
        <ele>682.2</ele>
        <time>2019-02-23T09:54:15.395Z</time>
      </trkpt>
      <trkpt lat="40.634144" lon="-3.463432">
        <ele>682.2</ele>
        <time>2019-02-23T09:54:16.395Z</time>
      </trkpt>
      <trkpt lat="40.634109" lon="-3.463499">
        <ele>681.8</ele>
        <time>2019-02-23T09:54:17.395Z</time>
      </trkpt>
      <trkpt lat="40.634072" lon="-3.463569">
        <ele>681.1</ele>
        <time>2019-02-23T09:54:18.395Z</time>
      </trkpt>
      <trkpt lat="40.633997" lon="-3.463704">
        <ele>680.5</ele>
        <time>2019-02-23T09:54:20.395Z</time>
      </trkpt>
      <trkpt lat="40.633736" lon="-3.464210">
        <ele>680.2</ele>
        <time>2019-02-23T09:54:27.395Z</time>
      </trkpt>
      <trkpt lat="40.633699" lon="-3.464286">
        <ele>680.2</ele>
        <time>2019-02-23T09:54:28.395Z</time>
      </trkpt>
      <trkpt lat="40.633403" lon="-3.464943">
        <ele>680.1</ele>
        <time>2019-02-23T09:54:36.395Z</time>
      </trkpt>
      <trkpt lat="40.633260" lon="-3.465292">
        <ele>680.1</ele>
        <time>2019-02-23T09:54:40.395Z</time>
      </trkpt>
      <trkpt lat="40.633222" lon="-3.465386">
        <ele>680.5</ele>
        <time>2019-02-23T09:54:41.395Z</time>
      </trkpt>
      <trkpt lat="40.633186" lon="-3.465474">
        <ele>681.1</ele>
        <time>2019-02-23T09:54:42.395Z</time>
      </trkpt>
      <trkpt lat="40.633148" lon="-3.465567">
        <ele>681.5</ele>
        <time>2019-02-23T09:54:43.395Z</time>
      </trkpt>
      <trkpt lat="40.633108" lon="-3.465659">
        <ele>682.1</ele>
        <time>2019-02-23T09:54:44.395Z</time>
      </trkpt>
      <trkpt lat="40.632986" lon="-3.465940">
        <ele>682.5</ele>
        <time>2019-02-23T09:54:47.395Z</time>
      </trkpt>
      <trkpt lat="40.632822" lon="-3.466319">
        <ele>682.4</ele>
        <time>2019-02-23T09:54:51.395Z</time>
      </trkpt>
      <trkpt lat="40.632559" lon="-3.466986">
        <ele>682.4</ele>
        <time>2019-02-23T09:54:58.395Z</time>
      </trkpt>
      <trkpt lat="40.632375" lon="-3.467438">
        <ele>682.4</ele>
        <time>2019-02-23T09:55:03.395Z</time>
      </trkpt>
      <trkpt lat="40.632342" lon="-3.467525">
        <ele>682.9</ele>
        <time>2019-02-23T09:55:04.395Z</time>
      </trkpt>
      <trkpt lat="40.632310" lon="-3.467612">
        <ele>683.4</ele>
        <time>2019-02-23T09:55:05.395Z</time>
      </trkpt>
      <trkpt lat="40.632275" lon="-3.467701">
        <ele>683.8</ele>
        <time>2019-02-23T09:55:06.395Z</time>
      </trkpt>
      <trkpt lat="40.632237" lon="-3.467790">
        <ele>684.1</ele>
        <time>2019-02-23T09:55:07.395Z</time>
      </trkpt>
      <trkpt lat="40.632125" lon="-3.468045">
        <ele>684.5</ele>
        <time>2019-02-23T09:55:10.395Z</time>
      </trkpt>
      <trkpt lat="40.631839" lon="-3.468725">
        <ele>684.6</ele>
        <time>2019-02-23T09:55:18.395Z</time>
      </trkpt>
      <trkpt lat="40.631808" lon="-3.468813">
        <ele>684.6</ele>
        <time>2019-02-23T09:55:19.395Z</time>
      </trkpt>
      <trkpt lat="40.631531" lon="-3.469475">
        <ele>684.6</ele>
        <time>2019-02-23T09:55:27.395Z</time>
      </trkpt>
      <trkpt lat="40.631498" lon="-3.469553">
        <ele>684.6</ele>
        <time>2019-02-23T09:55:28.395Z</time>
      </trkpt>
      <trkpt lat="40.631209" lon="-3.470228">
        <ele>684.5</ele>
        <time>2019-02-23T09:55:37.395Z</time>
      </trkpt>
      <trkpt lat="40.631178" lon="-3.470303">
        <ele>684.2</ele>
        <time>2019-02-23T09:55:38.395Z</time>
      </trkpt>
      <trkpt lat="40.631146" lon="-3.470378">
        <ele>683.9</ele>
        <time>2019-02-23T09:55:39.395Z</time>
      </trkpt>
      <trkpt lat="40.631115" lon="-3.470451">
        <ele>683.5</ele>
        <time>2019-02-23T09:55:40.395Z</time>
      </trkpt>
      <trkpt lat="40.631083" lon="-3.470524">
        <ele>683.0</ele>
        <time>2019-02-23T09:55:41.395Z</time>
      </trkpt>
      <trkpt lat="40.631050" lon="-3.470601">
        <ele>682.6</ele>
        <time>2019-02-23T09:55:42.395Z</time>
      </trkpt>
      <trkpt lat="40.630818" lon="-3.471153">
        <ele>682.5</ele>
        <time>2019-02-23T09:55:49.395Z</time>
      </trkpt>
      <trkpt lat="40.630548" lon="-3.471785">
        <ele>682.5</ele>
        <time>2019-02-23T09:55:57.395Z</time>
      </trkpt>
      <trkpt lat="40.630260" lon="-3.472472">
        <ele>682.6</ele>
        <time>2019-02-23T09:56:06.395Z</time>
      </trkpt>
      <trkpt lat="40.630232" lon="-3.472547">
        <ele>682.5</ele>
        <time>2019-02-23T09:56:07.395Z</time>
      </trkpt>
      <trkpt lat="40.630207" lon="-3.472625">
        <ele>682.1</ele>
        <time>2019-02-23T09:56:08.395Z</time>
      </trkpt>
      <trkpt lat="40.630181" lon="-3.472700">
        <ele>681.5</ele>
        <time>2019-02-23T09:56:09.395Z</time>
      </trkpt>
      <trkpt lat="40.630154" lon="-3.472775">
        <ele>681.2</ele>
        <time>2019-02-23T09:56:10.395Z</time>
      </trkpt>
      <trkpt lat="40.630131" lon="-3.472850">
        <ele>680.9</ele>
        <time>2019-02-23T09:56:11.395Z</time>
      </trkpt>
      <trkpt lat="40.630041" lon="-3.473128">
        <ele>680.5</ele>
        <time>2019-02-23T09:56:15.395Z</time>
      </trkpt>
      <trkpt lat="40.629875" lon="-3.473771">
        <ele>680.4</ele>
        <time>2019-02-23T09:56:24.395Z</time>
      </trkpt>
      <trkpt lat="40.629863" lon="-3.473839">
        <ele>680.4</ele>
        <time>2019-02-23T09:56:25.395Z</time>
      </trkpt>
      <trkpt lat="40.629848" lon="-3.473910">
        <ele>679.9</ele>
        <time>2019-02-23T09:56:26.395Z</time>
      </trkpt>
      <trkpt lat="40.629837" lon="-3.473977">
        <ele>679.4</ele>
        <time>2019-02-23T09:56:27.395Z</time>
      </trkpt>
      <trkpt lat="40.629825" lon="-3.474041">
        <ele>679.0</ele>
        <time>2019-02-23T09:56:28.395Z</time>
      </trkpt>
      <trkpt lat="40.629813" lon="-3.474107">
        <ele>678.4</ele>
        <time>2019-02-23T09:56:29.395Z</time>
      </trkpt>
      <trkpt lat="40.629777" lon="-3.474274">
        <ele>678.1</ele>
        <time>2019-02-23T09:56:32.395Z</time>
      </trkpt>
      <trkpt lat="40.629763" lon="-3.474328">
        <ele>678.1</ele>
        <time>2019-02-23T09:56:33.395Z</time>
      </trkpt>
      <trkpt lat="40.629750" lon="-3.474384">
        <ele>677.6</ele>
        <time>2019-02-23T09:56:34.395Z</time>
      </trkpt>
      <trkpt lat="40.629733" lon="-3.474442">
        <ele>677.2</ele>
        <time>2019-02-23T09:56:35.395Z</time>
      </trkpt>
      <trkpt lat="40.629712" lon="-3.474500">
        <ele>676.9</ele>
        <time>2019-02-23T09:56:36.395Z</time>
      </trkpt>
      <trkpt lat="40.629694" lon="-3.474556">
        <ele>676.1</ele>
        <time>2019-02-23T09:56:37.395Z</time>
      </trkpt>
      <trkpt lat="40.629654" lon="-3.474665">
        <ele>675.8</ele>
        <time>2019-02-23T09:56:39.395Z</time>
      </trkpt>
      <trkpt lat="40.629635" lon="-3.474718">
        <ele>675.5</ele>
        <time>2019-02-23T09:56:40.395Z</time>
      </trkpt>
      <trkpt lat="40.629612" lon="-3.474773">
        <ele>675.1</ele>
        <time>2019-02-23T09:56:41.395Z</time>
      </trkpt>
      <trkpt lat="40.629587" lon="-3.474824">
        <ele>674.5</ele>
        <time>2019-02-23T09:56:42.395Z</time>
      </trkpt>
      <trkpt lat="40.629559" lon="-3.474878">
        <ele>674.1</ele>
        <time>2019-02-23T09:56:43.395Z</time>
      </trkpt>
      <trkpt lat="40.629492" lon="-3.474977">
        <ele>673.6</ele>
        <time>2019-02-23T09:56:45.395Z</time>
      </trkpt>
      <trkpt lat="40.629456" lon="-3.475021">
        <ele>673.5</ele>
        <time>2019-02-23T09:56:46.395Z</time>
      </trkpt>
      <trkpt lat="40.629379" lon="-3.475096">
        <ele>673.6</ele>
        <time>2019-02-23T09:56:48.395Z</time>
      </trkpt>
      <trkpt lat="40.629341" lon="-3.475131">
        <ele>673.2</ele>
        <time>2019-02-23T09:56:49.395Z</time>
      </trkpt>
      <trkpt lat="40.629301" lon="-3.475168">
        <ele>672.6</ele>
        <time>2019-02-23T09:56:50.395Z</time>
      </trkpt>
      <trkpt lat="40.629275" lon="-3.475204">
        <ele>672.1</ele>
        <time>2019-02-23T09:56:51.395Z</time>
      </trkpt>
      <trkpt lat="40.629246" lon="-3.475235">
        <ele>671.6</ele>
        <time>2019-02-23T09:56:52.395Z</time>
      </trkpt>
      <trkpt lat="40.629207" lon="-3.475261">
        <ele>671.2</ele>
        <time>2019-02-23T09:56:53.395Z</time>
      </trkpt>
      <trkpt lat="40.629005" lon="-3.475413">
        <ele>671.2</ele>
        <time>2019-02-23T09:56:58.395Z</time>
      </trkpt>
      <trkpt lat="40.628960" lon="-3.475440">
        <ele>670.8</ele>
        <time>2019-02-23T09:56:59.395Z</time>
      </trkpt>
      <trkpt lat="40.628915" lon="-3.475468">
        <ele>670.1</ele>
        <time>2019-02-23T09:57:00.395Z</time>
      </trkpt>
      <trkpt lat="40.628872" lon="-3.475492">
        <ele>669.8</ele>
        <time>2019-02-23T09:57:01.395Z</time>
      </trkpt>
      <trkpt lat="40.628830" lon="-3.475522">
        <ele>669.4</ele>
        <time>2019-02-23T09:57:02.395Z</time>
      </trkpt>
      <trkpt lat="40.628788" lon="-3.475555">
        <ele>669.1</ele>
        <time>2019-02-23T09:57:03.395Z</time>
      </trkpt>
      <trkpt lat="40.628707" lon="-3.475628">
        <ele>669.1</ele>
        <time>2019-02-23T09:57:05.395Z</time>
      </trkpt>
      <trkpt lat="40.628667" lon="-3.475674">
        <ele>668.5</ele>
        <time>2019-02-23T09:57:06.395Z</time>
      </trkpt>
      <trkpt lat="40.628626" lon="-3.475720">
        <ele>668.1</ele>
        <time>2019-02-23T09:57:07.395Z</time>
      </trkpt>
      <trkpt lat="40.628586" lon="-3.475768">
        <ele>667.5</ele>
        <time>2019-02-23T09:57:08.395Z</time>
      </trkpt>
      <trkpt lat="40.628547" lon="-3.475817">
        <ele>667.0</ele>
        <time>2019-02-23T09:57:09.395Z</time>
      </trkpt>
      <trkpt lat="40.628287" lon="-3.476159">
        <ele>666.5</ele>
        <time>2019-02-23T09:57:15.395Z</time>
      </trkpt>
      <trkpt lat="40.627987" lon="-3.476563">
        <ele>666.4</ele>
        <time>2019-02-23T09:57:22.395Z</time>
      </trkpt>
      <trkpt lat="40.627899" lon="-3.476681">
        <ele>666.5</ele>
        <time>2019-02-23T09:57:24.395Z</time>
      </trkpt>
      <trkpt lat="40.627850" lon="-3.476742">
        <ele>666.0</ele>
        <time>2019-02-23T09:57:25.395Z</time>
      </trkpt>
      <trkpt lat="40.627805" lon="-3.476806">
        <ele>665.5</ele>
        <time>2019-02-23T09:57:26.395Z</time>
      </trkpt>
      <trkpt lat="40.627752" lon="-3.476875">
        <ele>665.1</ele>
        <time>2019-02-23T09:57:27.395Z</time>
      </trkpt>
      <trkpt lat="40.627701" lon="-3.476935">
        <ele>664.9</ele>
        <time>2019-02-23T09:57:28.395Z</time>
      </trkpt>
      <trkpt lat="40.627530" lon="-3.477107">
        <ele>664.5</ele>
        <time>2019-02-23T09:57:31.395Z</time>
      </trkpt>
      <trkpt lat="40.627396" lon="-3.477178">
        <ele>664.5</ele>
        <time>2019-02-23T09:57:33.395Z</time>
      </trkpt>
      <trkpt lat="40.627258" lon="-3.477202">
        <ele>664.5</ele>
        <time>2019-02-23T09:57:35.395Z</time>
      </trkpt>
      <trkpt lat="40.627059" lon="-3.477234">
        <ele>664.4</ele>
        <time>2019-02-23T09:57:38.395Z</time>
      </trkpt>
      <trkpt lat="40.627003" lon="-3.477279">
        <ele>664.4</ele>
        <time>2019-02-23T09:57:39.395Z</time>
      </trkpt>
      <trkpt lat="40.626936" lon="-3.477420">
        <ele>664.5</ele>
        <time>2019-02-23T09:57:41.395Z</time>
      </trkpt>
      <trkpt lat="40.626923" lon="-3.477508">
        <ele>664.5</ele>
        <time>2019-02-23T09:57:42.395Z</time>
      </trkpt>
      <trkpt lat="40.626865" lon="-3.477751">
        <ele>664.4</ele>
        <time>2019-02-23T09:57:45.395Z</time>
      </trkpt>
      <trkpt lat="40.626824" lon="-3.477816">
        <ele>664.4</ele>
        <time>2019-02-23T09:57:46.395Z</time>
      </trkpt>
      <trkpt lat="40.626663" lon="-3.477967">
        <ele>664.4</ele>
        <time>2019-02-23T09:57:49.395Z</time>
      </trkpt>
      <trkpt lat="40.626225" lon="-3.478201">
        <ele>664.5</ele>
        <time>2019-02-23T09:57:55.395Z</time>
      </trkpt>
      <trkpt lat="40.626073" lon="-3.478274">
        <ele>664.4</ele>
        <time>2019-02-23T09:57:57.395Z</time>
      </trkpt>
      <trkpt lat="40.625995" lon="-3.478311">
        <ele>664.8</ele>
        <time>2019-02-23T09:57:58.395Z</time>
      </trkpt>
      <trkpt lat="40.625917" lon="-3.478345">
        <ele>665.1</ele>
        <time>2019-02-23T09:57:59.395Z</time>
      </trkpt>
      <trkpt lat="40.625835" lon="-3.478379">
        <ele>665.5</ele>
        <time>2019-02-23T09:58:00.395Z</time>
      </trkpt>
      <trkpt lat="40.625754" lon="-3.478415">
        <ele>666.0</ele>
        <time>2019-02-23T09:58:01.395Z</time>
      </trkpt>
      <trkpt lat="40.625668" lon="-3.478456">
        <ele>666.5</ele>
        <time>2019-02-23T09:58:02.395Z</time>
      </trkpt>
      <trkpt lat="40.625242" lon="-3.478658">
        <ele>666.6</ele>
        <time>2019-02-23T09:58:07.395Z</time>
      </trkpt>
      <trkpt lat="40.625156" lon="-3.478698">
        <ele>667.0</ele>
        <time>2019-02-23T09:58:08.395Z</time>
      </trkpt>
      <trkpt lat="40.625075" lon="-3.478733">
        <ele>667.4</ele>
        <time>2019-02-23T09:58:09.395Z</time>
      </trkpt>
      <trkpt lat="40.624986" lon="-3.478771">
        <ele>667.8</ele>
        <time>2019-02-23T09:58:10.395Z</time>
      </trkpt>
      <trkpt lat="40.624901" lon="-3.478808">
        <ele>668.1</ele>
        <time>2019-02-23T09:58:11.395Z</time>
      </trkpt>
      <trkpt lat="40.624533" lon="-3.478963">
        <ele>668.5</ele>
        <time>2019-02-23T09:58:15.395Z</time>
      </trkpt>
      <trkpt lat="40.624226" lon="-3.479079">
        <ele>668.6</ele>
        <time>2019-02-23T09:58:18.395Z</time>
      </trkpt>
      <trkpt lat="40.624124" lon="-3.479117">
        <ele>669.1</ele>
        <time>2019-02-23T09:58:19.395Z</time>
      </trkpt>
      <trkpt lat="40.624018" lon="-3.479158">
        <ele>669.5</ele>
        <time>2019-02-23T09:58:20.395Z</time>
      </trkpt>
      <trkpt lat="40.623911" lon="-3.479202">
        <ele>669.9</ele>
        <time>2019-02-23T09:58:21.395Z</time>
      </trkpt>
      <trkpt lat="40.623712" lon="-3.479291">
        <ele>670.2</ele>
        <time>2019-02-23T09:58:23.395Z</time>
      </trkpt>
      <trkpt lat="40.623607" lon="-3.479339">
        <ele>670.5</ele>
        <time>2019-02-23T09:58:24.395Z</time>
      </trkpt>
      <trkpt lat="40.623309" lon="-3.479476">
        <ele>670.6</ele>
        <time>2019-02-23T09:58:27.395Z</time>
      </trkpt>
      <trkpt lat="40.623209" lon="-3.479519">
        <ele>671.1</ele>
        <time>2019-02-23T09:58:28.395Z</time>
      </trkpt>
      <trkpt lat="40.623112" lon="-3.479561">
        <ele>671.4</ele>
        <time>2019-02-23T09:58:29.395Z</time>
      </trkpt>
      <trkpt lat="40.623014" lon="-3.479604">
        <ele>672.4</ele>
        <time>2019-02-23T09:58:30.395Z</time>
      </trkpt>
      <trkpt lat="40.622728" lon="-3.479735">
        <ele>672.8</ele>
        <time>2019-02-23T09:58:33.395Z</time>
      </trkpt>
      <trkpt lat="40.622636" lon="-3.479778">
        <ele>673.2</ele>
        <time>2019-02-23T09:58:34.395Z</time>
      </trkpt>
      <trkpt lat="40.622542" lon="-3.479820">
        <ele>673.6</ele>
        <time>2019-02-23T09:58:35.395Z</time>
      </trkpt>
      <trkpt lat="40.622362" lon="-3.479902">
        <ele>674.1</ele>
        <time>2019-02-23T09:58:37.395Z</time>
      </trkpt>
      <trkpt lat="40.622272" lon="-3.479943">
        <ele>674.5</ele>
        <time>2019-02-23T09:58:38.395Z</time>
      </trkpt>
      <trkpt lat="40.621848" lon="-3.480136">
        <ele>674.9</ele>
        <time>2019-02-23T09:58:43.395Z</time>
      </trkpt>
      <trkpt lat="40.621529" lon="-3.480280">
        <ele>674.8</ele>
        <time>2019-02-23T09:58:47.395Z</time>
      </trkpt>
      <trkpt lat="40.620978" lon="-3.480529">
        <ele>674.9</ele>
        <time>2019-02-23T09:58:54.395Z</time>
      </trkpt>
      <trkpt lat="40.620502" lon="-3.480765">
        <ele>674.8</ele>
        <time>2019-02-23T09:59:00.395Z</time>
      </trkpt>
      <trkpt lat="40.620419" lon="-3.480810">
        <ele>675.2</ele>
        <time>2019-02-23T09:59:01.395Z</time>
      </trkpt>
      <trkpt lat="40.620336" lon="-3.480854">
        <ele>675.8</ele>
        <time>2019-02-23T09:59:02.395Z</time>
      </trkpt>
      <trkpt lat="40.620254" lon="-3.480898">
        <ele>676.1</ele>
        <time>2019-02-23T09:59:03.395Z</time>
      </trkpt>
      <trkpt lat="40.620163" lon="-3.480945">
        <ele>676.5</ele>
        <time>2019-02-23T09:59:04.395Z</time>
      </trkpt>
      <trkpt lat="40.619887" lon="-3.481086">
        <ele>677.0</ele>
        <time>2019-02-23T09:59:07.395Z</time>
      </trkpt>
      <trkpt lat="40.619783" lon="-3.481133">
        <ele>677.0</ele>
        <time>2019-02-23T09:59:08.395Z</time>
      </trkpt>
      <trkpt lat="40.619680" lon="-3.481181">
        <ele>677.5</ele>
        <time>2019-02-23T09:59:09.395Z</time>
      </trkpt>
      <trkpt lat="40.619565" lon="-3.481232">
        <ele>677.8</ele>
        <time>2019-02-23T09:59:10.395Z</time>
      </trkpt>
      <trkpt lat="40.619461" lon="-3.481276">
        <ele>678.1</ele>
        <time>2019-02-23T09:59:11.395Z</time>
      </trkpt>
      <trkpt lat="40.619352" lon="-3.481324">
        <ele>678.6</ele>
        <time>2019-02-23T09:59:12.395Z</time>
      </trkpt>
      <trkpt lat="40.619141" lon="-3.481421">
        <ele>679.1</ele>
        <time>2019-02-23T09:59:14.395Z</time>
      </trkpt>
      <trkpt lat="40.619034" lon="-3.481472">
        <ele>679.8</ele>
        <time>2019-02-23T09:59:15.395Z</time>
      </trkpt>
      <trkpt lat="40.618929" lon="-3.481518">
        <ele>680.4</ele>
        <time>2019-02-23T09:59:16.395Z</time>
      </trkpt>
      <trkpt lat="40.618820" lon="-3.481566">
        <ele>681.0</ele>
        <time>2019-02-23T09:59:17.395Z</time>
      </trkpt>
      <trkpt lat="40.618712" lon="-3.481616">
        <ele>681.5</ele>
        <time>2019-02-23T09:59:18.395Z</time>
      </trkpt>
      <trkpt lat="40.618598" lon="-3.481669">
        <ele>682.4</ele>
        <time>2019-02-23T09:59:19.395Z</time>
      </trkpt>
      <trkpt lat="40.618483" lon="-3.481721">
        <ele>683.1</ele>
        <time>2019-02-23T09:59:20.395Z</time>
      </trkpt>
      <trkpt lat="40.618371" lon="-3.481772">
        <ele>684.1</ele>
        <time>2019-02-23T09:59:21.395Z</time>
      </trkpt>
      <trkpt lat="40.618251" lon="-3.481827">
        <ele>685.2</ele>
        <time>2019-02-23T09:59:22.395Z</time>
      </trkpt>
      <trkpt lat="40.618130" lon="-3.481883">
        <ele>686.1</ele>
        <time>2019-02-23T09:59:23.395Z</time>
      </trkpt>
      <trkpt lat="40.618009" lon="-3.481938">
        <ele>687.0</ele>
        <time>2019-02-23T09:59:24.395Z</time>
      </trkpt>
      <trkpt lat="40.617891" lon="-3.481991">
        <ele>688.1</ele>
        <time>2019-02-23T09:59:25.395Z</time>
      </trkpt>
      <trkpt lat="40.617773" lon="-3.482045">
        <ele>688.8</ele>
        <time>2019-02-23T09:59:26.395Z</time>
      </trkpt>
      <trkpt lat="40.617653" lon="-3.482099">
        <ele>689.6</ele>
        <time>2019-02-23T09:59:27.395Z</time>
      </trkpt>
      <trkpt lat="40.617538" lon="-3.482151">
        <ele>690.1</ele>
        <time>2019-02-23T09:59:28.395Z</time>
      </trkpt>
      <trkpt lat="40.617421" lon="-3.482203">
        <ele>690.9</ele>
        <time>2019-02-23T09:59:29.395Z</time>
      </trkpt>
      <trkpt lat="40.617315" lon="-3.482253">
        <ele>691.4</ele>
        <time>2019-02-23T09:59:30.395Z</time>
      </trkpt>
      <trkpt lat="40.617208" lon="-3.482304">
        <ele>692.1</ele>
        <time>2019-02-23T09:59:31.395Z</time>
      </trkpt>
      <trkpt lat="40.617102" lon="-3.482353">
        <ele>692.8</ele>
        <time>2019-02-23T09:59:32.395Z</time>
      </trkpt>
      <trkpt lat="40.617003" lon="-3.482398">
        <ele>693.4</ele>
        <time>2019-02-23T09:59:33.395Z</time>
      </trkpt>
      <trkpt lat="40.616904" lon="-3.482441">
        <ele>694.1</ele>
        <time>2019-02-23T09:59:34.395Z</time>
      </trkpt>
      <trkpt lat="40.616809" lon="-3.482484">
        <ele>694.4</ele>
        <time>2019-02-23T09:59:35.395Z</time>
      </trkpt>
      <trkpt lat="40.616546" lon="-3.482603">
        <ele>695.0</ele>
        <time>2019-02-23T09:59:38.395Z</time>
      </trkpt>
      <trkpt lat="40.615994" lon="-3.482855">
        <ele>695.0</ele>
        <time>2019-02-23T09:59:45.395Z</time>
      </trkpt>
      <trkpt lat="40.615766" lon="-3.482959">
        <ele>695.0</ele>
        <time>2019-02-23T09:59:48.395Z</time>
      </trkpt>
      <trkpt lat="40.615218" lon="-3.483212">
        <ele>695.1</ele>
        <time>2019-02-23T09:59:55.395Z</time>
      </trkpt>
      <trkpt lat="40.614718" lon="-3.483432">
        <ele>695.1</ele>
        <time>2019-02-23T10:00:01.395Z</time>
      </trkpt>
      <trkpt lat="40.614453" lon="-3.483551">
        <ele>695.1</ele>
        <time>2019-02-23T10:00:04.395Z</time>
      </trkpt>
      <trkpt lat="40.614182" lon="-3.483676">
        <ele>695.0</ele>
        <time>2019-02-23T10:00:07.395Z</time>
      </trkpt>
      <trkpt lat="40.613604" lon="-3.483943">
        <ele>695.0</ele>
        <time>2019-02-23T10:00:13.395Z</time>
      </trkpt>
      <trkpt lat="40.613501" lon="-3.483989">
        <ele>695.1</ele>
        <time>2019-02-23T10:00:14.395Z</time>
      </trkpt>
      <trkpt lat="40.613396" lon="-3.484035">
        <ele>695.4</ele>
        <time>2019-02-23T10:00:15.395Z</time>
      </trkpt>
      <trkpt lat="40.613291" lon="-3.484082">
        <ele>696.0</ele>
        <time>2019-02-23T10:00:16.395Z</time>
      </trkpt>
      <trkpt lat="40.613179" lon="-3.484131">
        <ele>696.5</ele>
        <time>2019-02-23T10:00:17.395Z</time>
      </trkpt>
      <trkpt lat="40.613067" lon="-3.484180">
        <ele>697.1</ele>
        <time>2019-02-23T10:00:18.395Z</time>
      </trkpt>
      <trkpt lat="40.612952" lon="-3.484232">
        <ele>697.6</ele>
        <time>2019-02-23T10:00:19.395Z</time>
      </trkpt>
      <trkpt lat="40.612835" lon="-3.484286">
        <ele>698.1</ele>
        <time>2019-02-23T10:00:20.395Z</time>
      </trkpt>
      <trkpt lat="40.612725" lon="-3.484337">
        <ele>698.9</ele>
        <time>2019-02-23T10:00:21.395Z</time>
      </trkpt>
      <trkpt lat="40.612612" lon="-3.484391">
        <ele>699.4</ele>
        <time>2019-02-23T10:00:22.395Z</time>
      </trkpt>
      <trkpt lat="40.612505" lon="-3.484437">
        <ele>700.0</ele>
        <time>2019-02-23T10:00:23.395Z</time>
      </trkpt>
      <trkpt lat="40.612395" lon="-3.484484">
        <ele>700.5</ele>
        <time>2019-02-23T10:00:24.395Z</time>
      </trkpt>
      <trkpt lat="40.612289" lon="-3.484534">
        <ele>701.0</ele>
        <time>2019-02-23T10:00:25.395Z</time>
      </trkpt>
      <trkpt lat="40.612184" lon="-3.484584">
        <ele>701.6</ele>
        <time>2019-02-23T10:00:26.395Z</time>
      </trkpt>
      <trkpt lat="40.612082" lon="-3.484635">
        <ele>702.1</ele>
        <time>2019-02-23T10:00:27.395Z</time>
      </trkpt>
      <trkpt lat="40.611981" lon="-3.484684">
        <ele>702.6</ele>
        <time>2019-02-23T10:00:28.395Z</time>
      </trkpt>
      <trkpt lat="40.611878" lon="-3.484731">
        <ele>703.0</ele>
        <time>2019-02-23T10:00:29.395Z</time>
      </trkpt>
      <trkpt lat="40.611767" lon="-3.484779">
        <ele>703.5</ele>
        <time>2019-02-23T10:00:30.395Z</time>
      </trkpt>
      <trkpt lat="40.611653" lon="-3.484829">
        <ele>704.0</ele>
        <time>2019-02-23T10:00:31.395Z</time>
      </trkpt>
      <trkpt lat="40.611540" lon="-3.484881">
        <ele>704.5</ele>
        <time>2019-02-23T10:00:32.395Z</time>
      </trkpt>
      <trkpt lat="40.611427" lon="-3.484932">
        <ele>705.0</ele>
        <time>2019-02-23T10:00:33.395Z</time>
      </trkpt>
      <trkpt lat="40.611316" lon="-3.484984">
        <ele>705.6</ele>
        <time>2019-02-23T10:00:34.395Z</time>
      </trkpt>
      <trkpt lat="40.611204" lon="-3.485036">
        <ele>706.2</ele>
        <time>2019-02-23T10:00:35.395Z</time>
      </trkpt>
      <trkpt lat="40.611096" lon="-3.485085">
        <ele>706.8</ele>
        <time>2019-02-23T10:00:36.395Z</time>
      </trkpt>
      <trkpt lat="40.610990" lon="-3.485133">
        <ele>707.4</ele>
        <time>2019-02-23T10:00:37.395Z</time>
      </trkpt>
      <trkpt lat="40.610890" lon="-3.485181">
        <ele>708.1</ele>
        <time>2019-02-23T10:00:38.395Z</time>
      </trkpt>
      <trkpt lat="40.610787" lon="-3.485233">
        <ele>708.4</ele>
        <time>2019-02-23T10:00:39.395Z</time>
      </trkpt>
      <trkpt lat="40.610689" lon="-3.485280">
        <ele>709.1</ele>
        <time>2019-02-23T10:00:40.395Z</time>
      </trkpt>
      <trkpt lat="40.610586" lon="-3.485324">
        <ele>709.4</ele>
        <time>2019-02-23T10:00:41.395Z</time>
      </trkpt>
      <trkpt lat="40.610483" lon="-3.485367">
        <ele>709.5</ele>
        <time>2019-02-23T10:00:42.395Z</time>
      </trkpt>
      <trkpt lat="40.610381" lon="-3.485413">
        <ele>709.9</ele>
        <time>2019-02-23T10:00:43.395Z</time>
      </trkpt>
      <trkpt lat="40.610273" lon="-3.485462">
        <ele>710.4</ele>
        <time>2019-02-23T10:00:44.395Z</time>
      </trkpt>
      <trkpt lat="40.610167" lon="-3.485513">
        <ele>710.9</ele>
        <time>2019-02-23T10:00:45.395Z</time>
      </trkpt>
      <trkpt lat="40.610061" lon="-3.485563">
        <ele>711.5</ele>
        <time>2019-02-23T10:00:46.395Z</time>
      </trkpt>
      <trkpt lat="40.609849" lon="-3.485663">
        <ele>711.9</ele>
        <time>2019-02-23T10:00:48.395Z</time>
      </trkpt>
      <trkpt lat="40.609747" lon="-3.485711">
        <ele>712.4</ele>
        <time>2019-02-23T10:00:49.395Z</time>
      </trkpt>
      <trkpt lat="40.609642" lon="-3.485759">
        <ele>712.8</ele>
        <time>2019-02-23T10:00:50.395Z</time>
      </trkpt>
      <trkpt lat="40.609541" lon="-3.485802">
        <ele>713.1</ele>
        <time>2019-02-23T10:00:51.395Z</time>
      </trkpt>
      <trkpt lat="40.609439" lon="-3.485847">
        <ele>713.8</ele>
        <time>2019-02-23T10:00:52.395Z</time>
      </trkpt>
      <trkpt lat="40.609237" lon="-3.485942">
        <ele>714.2</ele>
        <time>2019-02-23T10:00:54.395Z</time>
      </trkpt>
      <trkpt lat="40.609135" lon="-3.485989">
        <ele>714.6</ele>
        <time>2019-02-23T10:00:55.395Z</time>
      </trkpt>
      <trkpt lat="40.609032" lon="-3.486035">
        <ele>715.1</ele>
        <time>2019-02-23T10:00:56.395Z</time>
      </trkpt>
      <trkpt lat="40.608933" lon="-3.486078">
        <ele>715.5</ele>
        <time>2019-02-23T10:00:57.395Z</time>
      </trkpt>
      <trkpt lat="40.608826" lon="-3.486125">
        <ele>715.9</ele>
        <time>2019-02-23T10:00:58.395Z</time>
      </trkpt>
      <trkpt lat="40.608511" lon="-3.486268">
        <ele>716.1</ele>
        <time>2019-02-23T10:01:01.395Z</time>
      </trkpt>
      <trkpt lat="40.608401" lon="-3.486319">
        <ele>716.9</ele>
        <time>2019-02-23T10:01:02.395Z</time>
      </trkpt>
      <trkpt lat="40.608297" lon="-3.486364">
        <ele>717.2</ele>
        <time>2019-02-23T10:01:03.395Z</time>
      </trkpt>
      <trkpt lat="40.608185" lon="-3.486413">
        <ele>717.5</ele>
        <time>2019-02-23T10:01:04.395Z</time>
      </trkpt>
      <trkpt lat="40.608079" lon="-3.486461">
        <ele>718.0</ele>
        <time>2019-02-23T10:01:05.395Z</time>
      </trkpt>
      <trkpt lat="40.607967" lon="-3.486512">
        <ele>718.6</ele>
        <time>2019-02-23T10:01:06.395Z</time>
      </trkpt>
      <trkpt lat="40.607858" lon="-3.486561">
        <ele>719.0</ele>
        <time>2019-02-23T10:01:07.395Z</time>
      </trkpt>
      <trkpt lat="40.607749" lon="-3.486610">
        <ele>719.6</ele>
        <time>2019-02-23T10:01:08.395Z</time>
      </trkpt>
      <trkpt lat="40.607639" lon="-3.486661">
        <ele>720.1</ele>
        <time>2019-02-23T10:01:09.395Z</time>
      </trkpt>
      <trkpt lat="40.607531" lon="-3.486710">
        <ele>720.5</ele>
        <time>2019-02-23T10:01:10.395Z</time>
      </trkpt>
      <trkpt lat="40.607419" lon="-3.486761">
        <ele>721.0</ele>
        <time>2019-02-23T10:01:11.395Z</time>
      </trkpt>
      <trkpt lat="40.607313" lon="-3.486810">
        <ele>721.5</ele>
        <time>2019-02-23T10:01:12.395Z</time>
      </trkpt>
      <trkpt lat="40.607204" lon="-3.486859">
        <ele>722.2</ele>
        <time>2019-02-23T10:01:13.395Z</time>
      </trkpt>
      <trkpt lat="40.607086" lon="-3.486910">
        <ele>722.8</ele>
        <time>2019-02-23T10:01:14.395Z</time>
      </trkpt>
      <trkpt lat="40.606976" lon="-3.486958">
        <ele>723.5</ele>
        <time>2019-02-23T10:01:15.395Z</time>
      </trkpt>
      <trkpt lat="40.606862" lon="-3.487010">
        <ele>724.0</ele>
        <time>2019-02-23T10:01:16.395Z</time>
      </trkpt>
      <trkpt lat="40.606752" lon="-3.487060">
        <ele>724.5</ele>
        <time>2019-02-23T10:01:17.395Z</time>
      </trkpt>
      <trkpt lat="40.606637" lon="-3.487113">
        <ele>725.0</ele>
        <time>2019-02-23T10:01:18.395Z</time>
      </trkpt>
      <trkpt lat="40.606415" lon="-3.487213">
        <ele>725.4</ele>
        <time>2019-02-23T10:01:20.395Z</time>
      </trkpt>
      <trkpt lat="40.606306" lon="-3.487261">
        <ele>725.9</ele>
        <time>2019-02-23T10:01:21.395Z</time>
      </trkpt>
      <trkpt lat="40.606200" lon="-3.487309">
        <ele>726.5</ele>
        <time>2019-02-23T10:01:22.395Z</time>
      </trkpt>
      <trkpt lat="40.606092" lon="-3.487358">
        <ele>726.9</ele>
        <time>2019-02-23T10:01:23.395Z</time>
      </trkpt>
      <trkpt lat="40.605990" lon="-3.487406">
        <ele>727.2</ele>
        <time>2019-02-23T10:01:24.395Z</time>
      </trkpt>
      <trkpt lat="40.605884" lon="-3.487457">
        <ele>727.5</ele>
        <time>2019-02-23T10:01:25.395Z</time>
      </trkpt>
      <trkpt lat="40.605778" lon="-3.487506">
        <ele>728.2</ele>
        <time>2019-02-23T10:01:26.395Z</time>
      </trkpt>
      <trkpt lat="40.605677" lon="-3.487550">
        <ele>728.5</ele>
        <time>2019-02-23T10:01:27.395Z</time>
      </trkpt>
      <trkpt lat="40.605574" lon="-3.487595">
        <ele>729.1</ele>
        <time>2019-02-23T10:01:28.395Z</time>
      </trkpt>
      <trkpt lat="40.605470" lon="-3.487641">
        <ele>729.5</ele>
        <time>2019-02-23T10:01:29.395Z</time>
      </trkpt>
      <trkpt lat="40.605374" lon="-3.487686">
        <ele>730.1</ele>
        <time>2019-02-23T10:01:30.395Z</time>
      </trkpt>
      <trkpt lat="40.605275" lon="-3.487733">
        <ele>730.5</ele>
        <time>2019-02-23T10:01:31.395Z</time>
      </trkpt>
      <trkpt lat="40.605178" lon="-3.487776">
        <ele>731.1</ele>
        <time>2019-02-23T10:01:32.395Z</time>
      </trkpt>
      <trkpt lat="40.605085" lon="-3.487815">
        <ele>731.4</ele>
        <time>2019-02-23T10:01:33.395Z</time>
      </trkpt>
      <trkpt lat="40.604994" lon="-3.487855">
        <ele>731.9</ele>
        <time>2019-02-23T10:01:34.395Z</time>
      </trkpt>
      <trkpt lat="40.604904" lon="-3.487897">
        <ele>731.9</ele>
        <time>2019-02-23T10:01:35.395Z</time>
      </trkpt>
      <trkpt lat="40.604819" lon="-3.487937">
        <ele>732.1</ele>
        <time>2019-02-23T10:01:36.395Z</time>
      </trkpt>
      <trkpt lat="40.604733" lon="-3.487976">
        <ele>732.9</ele>
        <time>2019-02-23T10:01:37.395Z</time>
      </trkpt>
      <trkpt lat="40.604651" lon="-3.488012">
        <ele>733.2</ele>
        <time>2019-02-23T10:01:38.395Z</time>
      </trkpt>
      <trkpt lat="40.604572" lon="-3.488045">
        <ele>733.6</ele>
        <time>2019-02-23T10:01:39.395Z</time>
      </trkpt>
      <trkpt lat="40.604495" lon="-3.488077">
        <ele>734.0</ele>
        <time>2019-02-23T10:01:40.395Z</time>
      </trkpt>
      <trkpt lat="40.604422" lon="-3.488109">
        <ele>734.0</ele>
        <time>2019-02-23T10:01:41.395Z</time>
      </trkpt>
      <trkpt lat="40.603893" lon="-3.488373">
        <ele>734.0</ele>
        <time>2019-02-23T10:01:49.395Z</time>
      </trkpt>
      <trkpt lat="40.603834" lon="-3.488403">
        <ele>734.0</ele>
        <time>2019-02-23T10:01:50.395Z</time>
      </trkpt>
      <trkpt lat="40.603319" lon="-3.488681">
        <ele>734.1</ele>
        <time>2019-02-23T10:01:59.395Z</time>
      </trkpt>
      <trkpt lat="40.602978" lon="-3.488868">
        <ele>734.0</ele>
        <time>2019-02-23T10:02:05.395Z</time>
      </trkpt>
      <trkpt lat="40.602921" lon="-3.488897">
        <ele>733.5</ele>
        <time>2019-02-23T10:02:06.395Z</time>
      </trkpt>
      <trkpt lat="40.602864" lon="-3.488928">
        <ele>733.1</ele>
        <time>2019-02-23T10:02:07.395Z</time>
      </trkpt>
      <trkpt lat="40.602808" lon="-3.488959">
        <ele>732.6</ele>
        <time>2019-02-23T10:02:08.395Z</time>
      </trkpt>
      <trkpt lat="40.602755" lon="-3.488987">
        <ele>732.1</ele>
        <time>2019-02-23T10:02:09.395Z</time>
      </trkpt>
      <trkpt lat="40.602275" lon="-3.489253">
        <ele>731.5</ele>
        <time>2019-02-23T10:02:18.395Z</time>
      </trkpt>
      <trkpt lat="40.602220" lon="-3.489279">
        <ele>731.2</ele>
        <time>2019-02-23T10:02:19.395Z</time>
      </trkpt>
      <trkpt lat="40.602167" lon="-3.489307">
        <ele>730.8</ele>
        <time>2019-02-23T10:02:20.395Z</time>
      </trkpt>
      <trkpt lat="40.602115" lon="-3.489337">
        <ele>730.4</ele>
        <time>2019-02-23T10:02:21.395Z</time>
      </trkpt>
      <trkpt lat="40.602063" lon="-3.489366">
        <ele>729.8</ele>
        <time>2019-02-23T10:02:22.395Z</time>
      </trkpt>
      <trkpt lat="40.601569" lon="-3.489634">
        <ele>729.4</ele>
        <time>2019-02-23T10:02:31.395Z</time>
      </trkpt>
      <trkpt lat="40.601399" lon="-3.489727">
        <ele>729.5</ele>
        <time>2019-02-23T10:02:34.395Z</time>
      </trkpt>
      <trkpt lat="40.600894" lon="-3.490009">
        <ele>729.4</ele>
        <time>2019-02-23T10:02:43.395Z</time>
      </trkpt>
      <trkpt lat="40.600840" lon="-3.490040">
        <ele>729.5</ele>
        <time>2019-02-23T10:02:44.395Z</time>
      </trkpt>
      <trkpt lat="40.600315" lon="-3.490335">
        <ele>729.5</ele>
        <time>2019-02-23T10:02:54.395Z</time>
      </trkpt>
      <trkpt lat="40.600032" lon="-3.490493">
        <ele>729.4</ele>
        <time>2019-02-23T10:03:00.395Z</time>
      </trkpt>
      <trkpt lat="40.599990" lon="-3.490514">
        <ele>729.0</ele>
        <time>2019-02-23T10:03:01.395Z</time>
      </trkpt>
      <trkpt lat="40.599945" lon="-3.490536">
        <ele>728.5</ele>
        <time>2019-02-23T10:03:02.395Z</time>
      </trkpt>
      <trkpt lat="40.599902" lon="-3.490558">
        <ele>728.1</ele>
        <time>2019-02-23T10:03:03.395Z</time>
      </trkpt>
      <trkpt lat="40.599859" lon="-3.490581">
        <ele>727.8</ele>
        <time>2019-02-23T10:03:04.395Z</time>
      </trkpt>
      <trkpt lat="40.599774" lon="-3.490627">
        <ele>727.4</ele>
        <time>2019-02-23T10:03:06.395Z</time>
      </trkpt>
      <trkpt lat="40.599732" lon="-3.490650">
        <ele>727.0</ele>
        <time>2019-02-23T10:03:07.395Z</time>
      </trkpt>
      <trkpt lat="40.599690" lon="-3.490673">
        <ele>726.5</ele>
        <time>2019-02-23T10:03:08.395Z</time>
      </trkpt>
      <trkpt lat="40.599645" lon="-3.490697">
        <ele>726.1</ele>
        <time>2019-02-23T10:03:09.395Z</time>
      </trkpt>
      <trkpt lat="40.599601" lon="-3.490722">
        <ele>725.8</ele>
        <time>2019-02-23T10:03:10.395Z</time>
      </trkpt>
      <trkpt lat="40.599422" lon="-3.490816">
        <ele>725.4</ele>
        <time>2019-02-23T10:03:14.395Z</time>
      </trkpt>
      <trkpt lat="40.599377" lon="-3.490841">
        <ele>725.1</ele>
        <time>2019-02-23T10:03:15.395Z</time>
      </trkpt>
      <trkpt lat="40.599334" lon="-3.490864">
        <ele>724.6</ele>
        <time>2019-02-23T10:03:16.395Z</time>
      </trkpt>
      <trkpt lat="40.599290" lon="-3.490887">
        <ele>724.2</ele>
        <time>2019-02-23T10:03:17.395Z</time>
      </trkpt>
      <trkpt lat="40.599244" lon="-3.490911">
        <ele>723.9</ele>
        <time>2019-02-23T10:03:18.395Z</time>
      </trkpt>
      <trkpt lat="40.598966" lon="-3.491058">
        <ele>723.5</ele>
        <time>2019-02-23T10:03:24.395Z</time>
      </trkpt>
      <trkpt lat="40.598919" lon="-3.491083">
        <ele>722.9</ele>
        <time>2019-02-23T10:03:25.395Z</time>
      </trkpt>
      <trkpt lat="40.598869" lon="-3.491111">
        <ele>722.4</ele>
        <time>2019-02-23T10:03:26.395Z</time>
      </trkpt>
      <trkpt lat="40.598824" lon="-3.491136">
        <ele>722.0</ele>
        <time>2019-02-23T10:03:27.395Z</time>
      </trkpt>
      <trkpt lat="40.598775" lon="-3.491165">
        <ele>721.4</ele>
        <time>2019-02-23T10:03:28.395Z</time>
      </trkpt>
      <trkpt lat="40.598483" lon="-3.491319">
        <ele>721.0</ele>
        <time>2019-02-23T10:03:34.395Z</time>
      </trkpt>
      <trkpt lat="40.598186" lon="-3.491561">
        <ele>721.0</ele>
        <time>2019-02-23T10:03:41.395Z</time>
      </trkpt>
      <trkpt lat="40.598150" lon="-3.491603">
        <ele>720.5</ele>
        <time>2019-02-23T10:03:42.395Z</time>
      </trkpt>
      <trkpt lat="40.598114" lon="-3.491647">
        <ele>720.2</ele>
        <time>2019-02-23T10:03:43.395Z</time>
      </trkpt>
      <trkpt lat="40.598082" lon="-3.491693">
        <ele>719.8</ele>
        <time>2019-02-23T10:03:44.395Z</time>
      </trkpt>
      <trkpt lat="40.598047" lon="-3.491744">
        <ele>719.2</ele>
        <time>2019-02-23T10:03:45.395Z</time>
      </trkpt>
      <trkpt lat="40.597919" lon="-3.492001">
        <ele>718.9</ele>
        <time>2019-02-23T10:03:50.395Z</time>
      </trkpt>
      <trkpt lat="40.597850" lon="-3.492175">
        <ele>718.8</ele>
        <time>2019-02-23T10:03:53.395Z</time>
      </trkpt>
      <trkpt lat="40.597825" lon="-3.492234">
        <ele>718.5</ele>
        <time>2019-02-23T10:03:54.395Z</time>
      </trkpt>
      <trkpt lat="40.597801" lon="-3.492293">
        <ele>718.0</ele>
        <time>2019-02-23T10:03:55.395Z</time>
      </trkpt>
      <trkpt lat="40.597777" lon="-3.492351">
        <ele>717.4</ele>
        <time>2019-02-23T10:03:56.395Z</time>
      </trkpt>
      <trkpt lat="40.597753" lon="-3.492411">
        <ele>717.0</ele>
        <time>2019-02-23T10:03:57.395Z</time>
      </trkpt>
      <trkpt lat="40.597683" lon="-3.492591">
        <ele>716.5</ele>
        <time>2019-02-23T10:04:00.395Z</time>
      </trkpt>
      <trkpt lat="40.597419" lon="-3.493110">
        <ele>716.6</ele>
        <time>2019-02-23T10:04:10.395Z</time>
      </trkpt>
      <trkpt lat="40.597201" lon="-3.493463">
        <ele>716.6</ele>
        <time>2019-02-23T10:04:17.395Z</time>
      </trkpt>
      <trkpt lat="40.597170" lon="-3.493518">
        <ele>716.1</ele>
        <time>2019-02-23T10:04:18.395Z</time>
      </trkpt>
      <trkpt lat="40.597137" lon="-3.493571">
        <ele>715.9</ele>
        <time>2019-02-23T10:04:19.395Z</time>
      </trkpt>
      <trkpt lat="40.597104" lon="-3.493624">
        <ele>715.4</ele>
        <time>2019-02-23T10:04:20.395Z</time>
      </trkpt>
      <trkpt lat="40.597078" lon="-3.493664">
        <ele>715.1</ele>
        <time>2019-02-23T10:04:21.395Z</time>
      </trkpt>
      <trkpt lat="40.596875" lon="-3.494033">
        <ele>714.6</ele>
        <time>2019-02-23T10:04:28.395Z</time>
      </trkpt>
      <trkpt lat="40.596818" lon="-3.494194">
        <ele>714.5</ele>
        <time>2019-02-23T10:04:31.395Z</time>
      </trkpt>
      <trkpt lat="40.596748" lon="-3.494455">
        <ele>714.5</ele>
        <time>2019-02-23T10:04:36.395Z</time>
      </trkpt>
      <trkpt lat="40.596699" lon="-3.494602">
        <ele>714.5</ele>
        <time>2019-02-23T10:04:39.395Z</time>
      </trkpt>
      <trkpt lat="40.596683" lon="-3.494649">
        <ele>714.0</ele>
        <time>2019-02-23T10:04:40.395Z</time>
      </trkpt>
      <trkpt lat="40.596659" lon="-3.494688">
        <ele>713.6</ele>
        <time>2019-02-23T10:04:41.395Z</time>
      </trkpt>
      <trkpt lat="40.596634" lon="-3.494716">
        <ele>713.1</ele>
        <time>2019-02-23T10:04:42.395Z</time>
      </trkpt>
      <trkpt lat="40.596601" lon="-3.494728">
        <ele>712.9</ele>
        <time>2019-02-23T10:04:43.395Z</time>
      </trkpt>
      <trkpt lat="40.596492" lon="-3.494741">
        <ele>712.4</ele>
        <time>2019-02-23T10:04:46.395Z</time>
      </trkpt>
      <trkpt lat="40.596157" lon="-3.494972">
        <ele>712.5</ele>
        <time>2019-02-23T10:04:56.395Z</time>
      </trkpt>
      <trkpt lat="40.596131" lon="-3.495008">
        <ele>711.8</ele>
        <time>2019-02-23T10:04:57.395Z</time>
      </trkpt>
      <trkpt lat="40.596111" lon="-3.495064">
        <ele>711.4</ele>
        <time>2019-02-23T10:04:58.395Z</time>
      </trkpt>
      <trkpt lat="40.596091" lon="-3.495094">
        <ele>711.0</ele>
        <time>2019-02-23T10:04:59.395Z</time>
      </trkpt>
      <trkpt lat="40.596073" lon="-3.495131">
        <ele>710.6</ele>
        <time>2019-02-23T10:05:00.395Z</time>
      </trkpt>
      <trkpt lat="40.596023" lon="-3.495238">
        <ele>710.0</ele>
        <time>2019-02-23T10:05:03.395Z</time>
      </trkpt>
      <trkpt lat="40.596007" lon="-3.495328">
        <ele>710.0</ele>
        <time>2019-02-23T10:05:05.395Z</time>
      </trkpt>
      <trkpt lat="40.596001" lon="-3.495377">
        <ele>709.6</ele>
        <time>2019-02-23T10:05:06.395Z</time>
      </trkpt>
      <trkpt lat="40.595985" lon="-3.495405">
        <ele>709.1</ele>
        <time>2019-02-23T10:05:07.395Z</time>
      </trkpt>
      <trkpt lat="40.595969" lon="-3.495440">
        <ele>708.9</ele>
        <time>2019-02-23T10:05:08.395Z</time>
      </trkpt>
      <trkpt lat="40.595956" lon="-3.495470">
        <ele>708.5</ele>
        <time>2019-02-23T10:05:09.395Z</time>
      </trkpt>
      <trkpt lat="40.595951" lon="-3.495513">
        <ele>708.1</ele>
        <time>2019-02-23T10:05:10.395Z</time>
      </trkpt>
      <trkpt lat="40.595942" lon="-3.495547">
        <ele>707.6</ele>
        <time>2019-02-23T10:05:11.395Z</time>
      </trkpt>
      <trkpt lat="40.595928" lon="-3.495584">
        <ele>707.1</ele>
        <time>2019-02-23T10:05:12.395Z</time>
      </trkpt>
      <trkpt lat="40.595913" lon="-3.495616">
        <ele>706.6</ele>
        <time>2019-02-23T10:05:13.395Z</time>
      </trkpt>
      <trkpt lat="40.595902" lon="-3.495651">
        <ele>706.0</ele>
        <time>2019-02-23T10:05:14.395Z</time>
      </trkpt>
      <trkpt lat="40.595885" lon="-3.495690">
        <ele>705.6</ele>
        <time>2019-02-23T10:05:15.395Z</time>
      </trkpt>
      <trkpt lat="40.595865" lon="-3.495715">
        <ele>705.0</ele>
        <time>2019-02-23T10:05:16.395Z</time>
      </trkpt>
      <trkpt lat="40.595848" lon="-3.495734">
        <ele>704.5</ele>
        <time>2019-02-23T10:05:17.395Z</time>
      </trkpt>
      <trkpt lat="40.595832" lon="-3.495761">
        <ele>704.1</ele>
        <time>2019-02-23T10:05:18.395Z</time>
      </trkpt>
      <trkpt lat="40.595813" lon="-3.495785">
        <ele>703.6</ele>
        <time>2019-02-23T10:05:19.395Z</time>
      </trkpt>
      <trkpt lat="40.595791" lon="-3.495818">
        <ele>703.2</ele>
        <time>2019-02-23T10:05:20.395Z</time>
      </trkpt>
      <trkpt lat="40.595771" lon="-3.495854">
        <ele>702.9</ele>
        <time>2019-02-23T10:05:21.395Z</time>
      </trkpt>
      <trkpt lat="40.595750" lon="-3.495886">
        <ele>702.4</ele>
        <time>2019-02-23T10:05:22.395Z</time>
      </trkpt>
      <trkpt lat="40.595730" lon="-3.495920">
        <ele>702.1</ele>
        <time>2019-02-23T10:05:23.395Z</time>
      </trkpt>
      <trkpt lat="40.595715" lon="-3.495957">
        <ele>701.4</ele>
        <time>2019-02-23T10:05:24.395Z</time>
      </trkpt>
      <trkpt lat="40.595703" lon="-3.495996">
        <ele>701.0</ele>
        <time>2019-02-23T10:05:25.395Z</time>
      </trkpt>
      <trkpt lat="40.595687" lon="-3.496046">
        <ele>701.0</ele>
        <time>2019-02-23T10:05:26.395Z</time>
      </trkpt>
      <trkpt lat="40.595599" lon="-3.496262">
        <ele>701.0</ele>
        <time>2019-02-23T10:05:30.395Z</time>
      </trkpt>
      <trkpt lat="40.595568" lon="-3.496386">
        <ele>701.0</ele>
        <time>2019-02-23T10:05:32.395Z</time>
      </trkpt>
      <trkpt lat="40.595551" lon="-3.496800">
        <ele>701.0</ele>
        <time>2019-02-23T10:05:38.395Z</time>
      </trkpt>
      <trkpt lat="40.595555" lon="-3.496864">
        <ele>701.1</ele>
        <time>2019-02-23T10:05:39.395Z</time>
      </trkpt>
      <trkpt lat="40.595555" lon="-3.496933">
        <ele>700.5</ele>
        <time>2019-02-23T10:05:40.395Z</time>
      </trkpt>
      <trkpt lat="40.595554" lon="-3.497002">
        <ele>700.2</ele>
        <time>2019-02-23T10:05:41.395Z</time>
      </trkpt>
      <trkpt lat="40.595550" lon="-3.497069">
        <ele>699.9</ele>
        <time>2019-02-23T10:05:42.395Z</time>
      </trkpt>
      <trkpt lat="40.595545" lon="-3.497138">
        <ele>699.4</ele>
        <time>2019-02-23T10:05:43.395Z</time>
      </trkpt>
      <trkpt lat="40.595497" lon="-3.497456">
        <ele>699.1</ele>
        <time>2019-02-23T10:05:48.395Z</time>
      </trkpt>
      <trkpt lat="40.595435" lon="-3.497789">
        <ele>699.1</ele>
        <time>2019-02-23T10:05:54.395Z</time>
      </trkpt>
      <trkpt lat="40.595430" lon="-3.497850">
        <ele>699.1</ele>
        <time>2019-02-23T10:05:55.395Z</time>
      </trkpt>
      <trkpt lat="40.595385" lon="-3.498171">
        <ele>699.0</ele>
        <time>2019-02-23T10:06:00.395Z</time>
      </trkpt>
      <trkpt lat="40.595336" lon="-3.498349">
        <ele>699.1</ele>
        <time>2019-02-23T10:06:03.395Z</time>
      </trkpt>
      <trkpt lat="40.595315" lon="-3.498413">
        <ele>699.0</ele>
        <time>2019-02-23T10:06:04.395Z</time>
      </trkpt>
      <trkpt lat="40.595264" lon="-3.498534">
        <ele>699.0</ele>
        <time>2019-02-23T10:06:06.395Z</time>
      </trkpt>
      <trkpt lat="40.595191" lon="-3.498747">
        <ele>699.1</ele>
        <time>2019-02-23T10:06:09.395Z</time>
      </trkpt>
      <trkpt lat="40.595148" lon="-3.498917">
        <ele>699.0</ele>
        <time>2019-02-23T10:06:11.395Z</time>
      </trkpt>
      <trkpt lat="40.595134" lon="-3.499004">
        <ele>699.5</ele>
        <time>2019-02-23T10:06:12.395Z</time>
      </trkpt>
      <trkpt lat="40.595132" lon="-3.499099">
        <ele>699.9</ele>
        <time>2019-02-23T10:06:13.395Z</time>
      </trkpt>
      <trkpt lat="40.595135" lon="-3.499196">
        <ele>700.5</ele>
        <time>2019-02-23T10:06:14.395Z</time>
      </trkpt>
      <trkpt lat="40.595139" lon="-3.499280">
        <ele>700.8</ele>
        <time>2019-02-23T10:06:15.395Z</time>
      </trkpt>
      <trkpt lat="40.595156" lon="-3.499593">
        <ele>701.2</ele>
        <time>2019-02-23T10:06:19.395Z</time>
      </trkpt>
      <trkpt lat="40.595166" lon="-3.499671">
        <ele>701.2</ele>
        <time>2019-02-23T10:06:20.395Z</time>
      </trkpt>
      <trkpt lat="40.595257" lon="-3.499962">
        <ele>701.1</ele>
        <time>2019-02-23T10:06:24.395Z</time>
      </trkpt>
      <trkpt lat="40.595294" lon="-3.500088">
        <ele>701.2</ele>
        <time>2019-02-23T10:06:26.395Z</time>
      </trkpt>
      <trkpt lat="40.595339" lon="-3.500252">
        <ele>701.1</ele>
        <time>2019-02-23T10:06:29.395Z</time>
      </trkpt>
      <trkpt lat="40.595358" lon="-3.500415">
        <ele>701.1</ele>
        <time>2019-02-23T10:06:32.395Z</time>
      </trkpt>
      <trkpt lat="40.595370" lon="-3.500460">
        <ele>700.9</ele>
        <time>2019-02-23T10:06:33.395Z</time>
      </trkpt>
      <trkpt lat="40.595383" lon="-3.500505">
        <ele>700.4</ele>
        <time>2019-02-23T10:06:34.395Z</time>
      </trkpt>
      <trkpt lat="40.595396" lon="-3.500547">
        <ele>700.0</ele>
        <time>2019-02-23T10:06:35.395Z</time>
      </trkpt>
      <trkpt lat="40.595411" lon="-3.500593">
        <ele>699.6</ele>
        <time>2019-02-23T10:06:36.395Z</time>
      </trkpt>
      <trkpt lat="40.595427" lon="-3.500637">
        <ele>699.1</ele>
        <time>2019-02-23T10:06:37.395Z</time>
      </trkpt>
      <trkpt lat="40.595446" lon="-3.500676">
        <ele>698.5</ele>
        <time>2019-02-23T10:06:38.395Z</time>
      </trkpt>
      <trkpt lat="40.595468" lon="-3.500714">
        <ele>698.2</ele>
        <time>2019-02-23T10:06:39.395Z</time>
      </trkpt>
      <trkpt lat="40.595489" lon="-3.500744">
        <ele>697.6</ele>
        <time>2019-02-23T10:06:40.395Z</time>
      </trkpt>
      <trkpt lat="40.595510" lon="-3.500774">
        <ele>697.2</ele>
        <time>2019-02-23T10:06:41.395Z</time>
      </trkpt>
      <trkpt lat="40.595669" lon="-3.500925">
        <ele>696.8</ele>
        <time>2019-02-23T10:06:46.395Z</time>
      </trkpt>
      <trkpt lat="40.595797" lon="-3.501017">
        <ele>696.8</ele>
        <time>2019-02-23T10:06:49.395Z</time>
      </trkpt>
      <trkpt lat="40.595888" lon="-3.501069">
        <ele>696.8</ele>
        <time>2019-02-23T10:06:51.395Z</time>
      </trkpt>
      <trkpt lat="40.595985" lon="-3.501079">
        <ele>696.8</ele>
        <time>2019-02-23T10:06:53.395Z</time>
      </trkpt>
      <trkpt lat="40.596082" lon="-3.501048">
        <ele>696.9</ele>
        <time>2019-02-23T10:06:55.395Z</time>
      </trkpt>
      <trkpt lat="40.596123" lon="-3.501033">
        <ele>696.9</ele>
        <time>2019-02-23T10:06:56.395Z</time>
      </trkpt>
      <trkpt lat="40.596240" lon="-3.501053">
        <ele>696.9</ele>
        <time>2019-02-23T10:06:59.395Z</time>
      </trkpt>
      <trkpt lat="40.596269" lon="-3.501100">
        <ele>696.9</ele>
        <time>2019-02-23T10:07:00.395Z</time>
      </trkpt>
      <trkpt lat="40.596340" lon="-3.501304">
        <ele>696.8</ele>
        <time>2019-02-23T10:07:03.395Z</time>
      </trkpt>
      <trkpt lat="40.596396" lon="-3.501546">
        <ele>696.8</ele>
        <time>2019-02-23T10:07:07.395Z</time>
      </trkpt>
      <trkpt lat="40.596441" lon="-3.501644">
        <ele>696.9</ele>
        <time>2019-02-23T10:07:10.395Z</time>
      </trkpt>
      <trkpt lat="40.596458" lon="-3.501679">
        <ele>696.2</ele>
        <time>2019-02-23T10:07:11.395Z</time>
      </trkpt>
      <trkpt lat="40.596474" lon="-3.501725">
        <ele>695.8</ele>
        <time>2019-02-23T10:07:12.395Z</time>
      </trkpt>
      <trkpt lat="40.596487" lon="-3.501767">
        <ele>695.4</ele>
        <time>2019-02-23T10:07:13.395Z</time>
      </trkpt>
      <trkpt lat="40.596494" lon="-3.501811">
        <ele>694.8</ele>
        <time>2019-02-23T10:07:14.395Z</time>
      </trkpt>
      <trkpt lat="40.596522" lon="-3.502145">
        <ele>694.4</ele>
        <time>2019-02-23T10:07:20.395Z</time>
      </trkpt>
      <trkpt lat="40.596527" lon="-3.502194">
        <ele>694.1</ele>
        <time>2019-02-23T10:07:21.395Z</time>
      </trkpt>
      <trkpt lat="40.596531" lon="-3.502244">
        <ele>693.6</ele>
        <time>2019-02-23T10:07:22.395Z</time>
      </trkpt>
      <trkpt lat="40.596535" lon="-3.502293">
        <ele>693.0</ele>
        <time>2019-02-23T10:07:23.395Z</time>
      </trkpt>
      <trkpt lat="40.596539" lon="-3.502346">
        <ele>692.6</ele>
        <time>2019-02-23T10:07:24.395Z</time>
      </trkpt>
      <trkpt lat="40.596561" lon="-3.502608">
        <ele>692.1</ele>
        <time>2019-02-23T10:07:29.395Z</time>
      </trkpt>
      <trkpt lat="40.596560" lon="-3.502701">
        <ele>692.2</ele>
        <time>2019-02-23T10:07:31.395Z</time>
      </trkpt>
      <trkpt lat="40.596560" lon="-3.502745">
        <ele>691.8</ele>
        <time>2019-02-23T10:07:32.395Z</time>
      </trkpt>
      <trkpt lat="40.596561" lon="-3.502780">
        <ele>691.5</ele>
        <time>2019-02-23T10:07:33.395Z</time>
      </trkpt>
      <trkpt lat="40.596560" lon="-3.502832">
        <ele>691.0</ele>
        <time>2019-02-23T10:07:34.395Z</time>
      </trkpt>
      <trkpt lat="40.596555" lon="-3.502881">
        <ele>690.4</ele>
        <time>2019-02-23T10:07:35.395Z</time>
      </trkpt>
      <trkpt lat="40.596543" lon="-3.503092">
        <ele>690.0</ele>
        <time>2019-02-23T10:07:39.395Z</time>
      </trkpt>
      <trkpt lat="40.596542" lon="-3.503146">
        <ele>689.5</ele>
        <time>2019-02-23T10:07:40.395Z</time>
      </trkpt>
      <trkpt lat="40.596540" lon="-3.503200">
        <ele>689.2</ele>
        <time>2019-02-23T10:07:41.395Z</time>
      </trkpt>
      <trkpt lat="40.596541" lon="-3.503257">
        <ele>688.8</ele>
        <time>2019-02-23T10:07:42.395Z</time>
      </trkpt>
      <trkpt lat="40.596540" lon="-3.503309">
        <ele>688.5</ele>
        <time>2019-02-23T10:07:43.395Z</time>
      </trkpt>
      <trkpt lat="40.596530" lon="-3.503632">
        <ele>688.0</ele>
        <time>2019-02-23T10:07:49.395Z</time>
      </trkpt>
      <trkpt lat="40.596527" lon="-3.503690">
        <ele>687.4</ele>
        <time>2019-02-23T10:07:50.395Z</time>
      </trkpt>
      <trkpt lat="40.596526" lon="-3.503740">
        <ele>687.0</ele>
        <time>2019-02-23T10:07:51.395Z</time>
      </trkpt>
      <trkpt lat="40.596526" lon="-3.503787">
        <ele>686.6</ele>
        <time>2019-02-23T10:07:52.395Z</time>
      </trkpt>
      <trkpt lat="40.596524" lon="-3.503833">
        <ele>686.2</ele>
        <time>2019-02-23T10:07:53.395Z</time>
      </trkpt>
      <trkpt lat="40.596519" lon="-3.503877">
        <ele>685.8</ele>
        <time>2019-02-23T10:07:54.395Z</time>
      </trkpt>
      <trkpt lat="40.596512" lon="-3.503920">
        <ele>685.4</ele>
        <time>2019-02-23T10:07:55.395Z</time>
      </trkpt>
      <trkpt lat="40.596507" lon="-3.503973">
        <ele>685.0</ele>
        <time>2019-02-23T10:07:56.395Z</time>
      </trkpt>
      <trkpt lat="40.596505" lon="-3.504031">
        <ele>684.5</ele>
        <time>2019-02-23T10:07:57.395Z</time>
      </trkpt>
      <trkpt lat="40.596506" lon="-3.504097">
        <ele>684.2</ele>
        <time>2019-02-23T10:07:58.395Z</time>
      </trkpt>
      <trkpt lat="40.596504" lon="-3.504395">
        <ele>683.8</ele>
        <time>2019-02-23T10:08:03.395Z</time>
      </trkpt>
      <trkpt lat="40.596502" lon="-3.504455">
        <ele>683.5</ele>
        <time>2019-02-23T10:08:04.395Z</time>
      </trkpt>
      <trkpt lat="40.596501" lon="-3.504516">
        <ele>683.1</ele>
        <time>2019-02-23T10:08:05.395Z</time>
      </trkpt>
      <trkpt lat="40.596497" lon="-3.504568">
        <ele>682.6</ele>
        <time>2019-02-23T10:08:06.395Z</time>
      </trkpt>
      <trkpt lat="40.596495" lon="-3.504625">
        <ele>682.1</ele>
        <time>2019-02-23T10:08:07.395Z</time>
      </trkpt>
      <trkpt lat="40.596486" lon="-3.504786">
        <ele>681.8</ele>
        <time>2019-02-23T10:08:10.395Z</time>
      </trkpt>
      <trkpt lat="40.596484" lon="-3.505007">
        <ele>681.9</ele>
        <time>2019-02-23T10:08:14.395Z</time>
      </trkpt>
      <trkpt lat="40.596483" lon="-3.505065">
        <ele>681.5</ele>
        <time>2019-02-23T10:08:15.395Z</time>
      </trkpt>
      <trkpt lat="40.596482" lon="-3.505124">
        <ele>680.8</ele>
        <time>2019-02-23T10:08:16.395Z</time>
      </trkpt>
      <trkpt lat="40.596482" lon="-3.505181">
        <ele>680.4</ele>
        <time>2019-02-23T10:08:17.395Z</time>
      </trkpt>
      <trkpt lat="40.596479" lon="-3.505241">
        <ele>680.0</ele>
        <time>2019-02-23T10:08:18.395Z</time>
      </trkpt>
      <trkpt lat="40.596451" lon="-3.505470">
        <ele>679.6</ele>
        <time>2019-02-23T10:08:22.395Z</time>
      </trkpt>
      <trkpt lat="40.596356" lon="-3.505769">
        <ele>679.5</ele>
        <time>2019-02-23T10:08:27.395Z</time>
      </trkpt>
      <trkpt lat="40.596331" lon="-3.505909">
        <ele>679.5</ele>
        <time>2019-02-23T10:08:29.395Z</time>
      </trkpt>
      <trkpt lat="40.596331" lon="-3.505973">
        <ele>679.1</ele>
        <time>2019-02-23T10:08:30.395Z</time>
      </trkpt>
      <trkpt lat="40.596340" lon="-3.506029">
        <ele>678.8</ele>
        <time>2019-02-23T10:08:31.395Z</time>
      </trkpt>
      <trkpt lat="40.596357" lon="-3.506080">
        <ele>678.5</ele>
        <time>2019-02-23T10:08:32.395Z</time>
      </trkpt>
      <trkpt lat="40.596382" lon="-3.506128">
        <ele>677.9</ele>
        <time>2019-02-23T10:08:33.395Z</time>
      </trkpt>
      <trkpt lat="40.596452" lon="-3.506270">
        <ele>677.5</ele>
        <time>2019-02-23T10:08:36.395Z</time>
      </trkpt>
      <trkpt lat="40.596463" lon="-3.506329">
        <ele>677.4</ele>
        <time>2019-02-23T10:08:37.395Z</time>
      </trkpt>
      <trkpt lat="40.596470" lon="-3.506753">
        <ele>677.4</ele>
        <time>2019-02-23T10:08:44.395Z</time>
      </trkpt>
      <trkpt lat="40.596469" lon="-3.506816">
        <ele>677.0</ele>
        <time>2019-02-23T10:08:45.395Z</time>
      </trkpt>
      <trkpt lat="40.596468" lon="-3.506881">
        <ele>676.5</ele>
        <time>2019-02-23T10:08:46.395Z</time>
      </trkpt>
      <trkpt lat="40.596466" lon="-3.506943">
        <ele>676.1</ele>
        <time>2019-02-23T10:08:47.395Z</time>
      </trkpt>
      <trkpt lat="40.596461" lon="-3.507008">
        <ele>675.5</ele>
        <time>2019-02-23T10:08:48.395Z</time>
      </trkpt>
      <trkpt lat="40.596446" lon="-3.507411">
        <ele>675.2</ele>
        <time>2019-02-23T10:08:54.395Z</time>
      </trkpt>
      <trkpt lat="40.596412" lon="-3.507866">
        <ele>675.1</ele>
        <time>2019-02-23T10:09:00.395Z</time>
      </trkpt>
      <trkpt lat="40.596228" lon="-3.508329">
        <ele>675.2</ele>
        <time>2019-02-23T10:09:06.395Z</time>
      </trkpt>
      <trkpt lat="40.596174" lon="-3.508385">
        <ele>675.2</ele>
        <time>2019-02-23T10:09:07.395Z</time>
      </trkpt>
      <trkpt lat="40.596038" lon="-3.508583">
        <ele>675.1</ele>
        <time>2019-02-23T10:09:10.395Z</time>
      </trkpt>
      <trkpt lat="40.596035" lon="-3.508839">
        <ele>675.2</ele>
        <time>2019-02-23T10:09:13.395Z</time>
      </trkpt>
      <trkpt lat="40.596168" lon="-3.509029">
        <ele>675.1</ele>
        <time>2019-02-23T10:09:16.395Z</time>
      </trkpt>
      <trkpt lat="40.596231" lon="-3.509058">
        <ele>675.1</ele>
        <time>2019-02-23T10:09:17.395Z</time>
      </trkpt>
      <trkpt lat="40.596299" lon="-3.509073">
        <ele>675.1</ele>
        <time>2019-02-23T10:09:18.395Z</time>
      </trkpt>
      <trkpt lat="40.596363" lon="-3.509052">
        <ele>675.2</ele>
        <time>2019-02-23T10:09:19.395Z</time>
      </trkpt>
      <trkpt lat="40.596428" lon="-3.509014">
        <ele>675.9</ele>
        <time>2019-02-23T10:09:20.395Z</time>
      </trkpt>
      <trkpt lat="40.596492" lon="-3.508965">
        <ele>676.2</ele>
        <time>2019-02-23T10:09:21.395Z</time>
      </trkpt>
      <trkpt lat="40.596557" lon="-3.508914">
        <ele>676.9</ele>
        <time>2019-02-23T10:09:22.395Z</time>
      </trkpt>
      <trkpt lat="40.596629" lon="-3.508878">
        <ele>677.2</ele>
        <time>2019-02-23T10:09:23.395Z</time>
      </trkpt>
      <trkpt lat="40.596709" lon="-3.508859">
        <ele>677.6</ele>
        <time>2019-02-23T10:09:24.395Z</time>
      </trkpt>
      <trkpt lat="40.596790" lon="-3.508858">
        <ele>678.1</ele>
        <time>2019-02-23T10:09:25.395Z</time>
      </trkpt>
      <trkpt lat="40.596871" lon="-3.508863">
        <ele>678.6</ele>
        <time>2019-02-23T10:09:26.395Z</time>
      </trkpt>
      <trkpt lat="40.596957" lon="-3.508871">
        <ele>679.0</ele>
        <time>2019-02-23T10:09:27.395Z</time>
      </trkpt>
      <trkpt lat="40.597043" lon="-3.508883">
        <ele>679.4</ele>
        <time>2019-02-23T10:09:28.395Z</time>
      </trkpt>
      <trkpt lat="40.597126" lon="-3.508896">
        <ele>679.8</ele>
        <time>2019-02-23T10:09:29.395Z</time>
      </trkpt>
      <trkpt lat="40.597203" lon="-3.508912">
        <ele>680.4</ele>
        <time>2019-02-23T10:09:30.395Z</time>
      </trkpt>
      <trkpt lat="40.597275" lon="-3.508930">
        <ele>680.8</ele>
        <time>2019-02-23T10:09:31.395Z</time>
      </trkpt>
      <trkpt lat="40.597347" lon="-3.508948">
        <ele>681.2</ele>
        <time>2019-02-23T10:09:32.395Z</time>
      </trkpt>
      <trkpt lat="40.597414" lon="-3.508962">
        <ele>681.5</ele>
        <time>2019-02-23T10:09:33.395Z</time>
      </trkpt>
      <trkpt lat="40.597768" lon="-3.509033">
        <ele>681.6</ele>
        <time>2019-02-23T10:09:39.395Z</time>
      </trkpt>
      <trkpt lat="40.597920" lon="-3.509051">
        <ele>681.5</ele>
        <time>2019-02-23T10:09:42.395Z</time>
      </trkpt>
      <trkpt lat="40.597967" lon="-3.509060">
        <ele>681.1</ele>
        <time>2019-02-23T10:09:43.395Z</time>
      </trkpt>
      <trkpt lat="40.598012" lon="-3.509069">
        <ele>680.8</ele>
        <time>2019-02-23T10:09:44.395Z</time>
      </trkpt>
      <trkpt lat="40.598051" lon="-3.509085">
        <ele>680.4</ele>
        <time>2019-02-23T10:09:45.395Z</time>
      </trkpt>
      <trkpt lat="40.598085" lon="-3.509112">
        <ele>680.0</ele>
        <time>2019-02-23T10:09:46.395Z</time>
      </trkpt>
      <trkpt lat="40.598143" lon="-3.509189">
        <ele>679.6</ele>
        <time>2019-02-23T10:09:48.395Z</time>
      </trkpt>
      <trkpt lat="40.598195" lon="-3.509546">
        <ele>679.5</ele>
        <time>2019-02-23T10:09:56.395Z</time>
      </trkpt>
      <trkpt lat="40.598200" lon="-3.509687">
        <ele>679.5</ele>
        <time>2019-02-23T10:09:59.395Z</time>
      </trkpt>
      <trkpt lat="40.598200" lon="-3.509730">
        <ele>679.2</ele>
        <time>2019-02-23T10:10:00.395Z</time>
      </trkpt>
      <trkpt lat="40.598201" lon="-3.509770">
        <ele>678.8</ele>
        <time>2019-02-23T10:10:01.395Z</time>
      </trkpt>
      <trkpt lat="40.598202" lon="-3.509813">
        <ele>678.4</ele>
        <time>2019-02-23T10:10:02.395Z</time>
      </trkpt>
      <trkpt lat="40.598204" lon="-3.509858">
        <ele>677.9</ele>
        <time>2019-02-23T10:10:03.395Z</time>
      </trkpt>
      <trkpt lat="40.598212" lon="-3.510041">
        <ele>677.4</ele>
        <time>2019-02-23T10:10:07.395Z</time>
      </trkpt>
      <trkpt lat="40.598221" lon="-3.510171">
        <ele>677.4</ele>
        <time>2019-02-23T10:10:10.395Z</time>
      </trkpt>
      <trkpt lat="40.598223" lon="-3.510215">
        <ele>677.1</ele>
        <time>2019-02-23T10:10:11.395Z</time>
      </trkpt>
      <trkpt lat="40.598222" lon="-3.510254">
        <ele>676.6</ele>
        <time>2019-02-23T10:10:12.395Z</time>
      </trkpt>
      <trkpt lat="40.598222" lon="-3.510299">
        <ele>676.1</ele>
        <time>2019-02-23T10:10:13.395Z</time>
      </trkpt>
      <trkpt lat="40.598225" lon="-3.510345">
        <ele>675.9</ele>
        <time>2019-02-23T10:10:14.395Z</time>
      </trkpt>
      <trkpt lat="40.598234" lon="-3.510441">
        <ele>675.4</ele>
        <time>2019-02-23T10:10:16.395Z</time>
      </trkpt>
      <trkpt lat="40.598237" lon="-3.510538">
        <ele>675.4</ele>
        <time>2019-02-23T10:10:18.395Z</time>
      </trkpt>
      <trkpt lat="40.598239" lon="-3.510581">
        <ele>675.0</ele>
        <time>2019-02-23T10:10:19.395Z</time>
      </trkpt>
      <trkpt lat="40.598239" lon="-3.510626">
        <ele>674.6</ele>
        <time>2019-02-23T10:10:20.395Z</time>
      </trkpt>
      <trkpt lat="40.598240" lon="-3.510670">
        <ele>674.2</ele>
        <time>2019-02-23T10:10:21.395Z</time>
      </trkpt>
      <trkpt lat="40.598242" lon="-3.510715">
        <ele>673.9</ele>
        <time>2019-02-23T10:10:22.395Z</time>
      </trkpt>
      <trkpt lat="40.598248" lon="-3.510838">
        <ele>673.5</ele>
        <time>2019-02-23T10:10:25.395Z</time>
      </trkpt>
      <trkpt lat="40.598263" lon="-3.511166">
        <ele>673.4</ele>
        <time>2019-02-23T10:10:32.395Z</time>
      </trkpt>
      <trkpt lat="40.598264" lon="-3.511452">
        <ele>673.5</ele>
        <time>2019-02-23T10:10:38.395Z</time>
      </trkpt>
      <trkpt lat="40.598273" lon="-3.511684">
        <ele>673.4</ele>
        <time>2019-02-23T10:10:44.395Z</time>
      </trkpt>
      <trkpt lat="40.598270" lon="-3.511706">
        <ele>673.5</ele>
        <time>2019-02-23T10:10:45.395Z</time>
      </trkpt>
      <trkpt lat="40.598254" lon="-3.511658">
        <ele>673.5</ele>
        <time>2019-02-23T10:13:32.395Z</time>
      </trkpt>
      <trkpt lat="40.598264" lon="-3.511682">
        <ele>673.4</ele>
        <time>2019-02-23T10:13:35.395Z</time>
      </trkpt>
      <trkpt lat="40.598269" lon="-3.511731">
        <ele>673.4</ele>
        <time>2019-02-23T10:13:38.395Z</time>
      </trkpt>
      <trkpt lat="40.598262" lon="-3.511769">
        <ele>673.5</ele>
        <time>2019-02-23T10:14:16.395Z</time>
      </trkpt>
      <trkpt lat="40.598262" lon="-3.511769">
        <ele>673.5</ele>
        <time>2019-02-23T10:14:17.395Z</time>
      </trkpt>
    </trkseg>
  </trk>
</gpx>
